<?xml version="1.0" encoding="UTF-8" standalone="no" ?>
<gpx xmlns="http://www.topografix.com/GPX/1/1" xmlns:xsi="http://www.w3.org/2001/XMLSchema-instance" xsi:schemaLocation="http://www.topografix.com/GPX/1/1 http://www.topografix.com/GPX/1/1/gpx.xsd" version="1.1" creator="VisuGPX - https://www.visugpx.com">
  <metadata>
    <name>2009-05-22 Mont Ventoux</name>
    <desc><![CDATA[2009-05-22 Mont Ventoux]]></desc>
  </metadata>
  <trk>
    <name><![CDATA[2009-05-22 Mont Ventoux_1]]></name>
    <trkseg>
      <trkpt lat="44.13466" lon="5.3005">
        <ele>1143.1147460938</ele>
        <time>2009-05-22T07:31:32Z</time>
      </trkpt>
      <trkpt lat="44.13466" lon="5.30047">
        <ele>1142.7080078125</ele>
        <time>2009-05-22T07:39:18Z</time>
      </trkpt>
      <trkpt lat="44.13462" lon="5.30041">
        <ele>1142.5689697266</ele>
        <time>2009-05-22T07:39:21Z</time>
      </trkpt>
      <trkpt lat="44.13461" lon="5.30039">
        <ele>1142.4968261719</ele>
        <time>2009-05-22T07:39:22Z</time>
      </trkpt>
      <trkpt lat="44.1345" lon="5.30017">
        <ele>1141.7330322266</ele>
        <time>2009-05-22T07:39:31Z</time>
      </trkpt>
      <trkpt lat="44.13448" lon="5.30011">
        <ele>1141.4300537109</ele>
        <time>2009-05-22T07:39:36Z</time>
      </trkpt>
      <trkpt lat="44.13448" lon="5.30003">
        <ele>1140.9223632812</ele>
        <time>2009-05-22T07:40:28Z</time>
      </trkpt>
      <trkpt lat="44.13444" lon="5.29983">
        <ele>1139.2077636719</ele>
        <time>2009-05-22T07:40:34Z</time>
      </trkpt>
      <trkpt lat="44.13442" lon="5.29967">
        <ele>1137.7720947266</ele>
        <time>2009-05-22T07:40:38Z</time>
      </trkpt>
      <trkpt lat="44.13442" lon="5.29963">
        <ele>1137.4005126953</ele>
        <time>2009-05-22T07:40:39Z</time>
      </trkpt>
      <trkpt lat="44.13437" lon="5.29932">
        <ele>1135.4243164062</ele>
        <time>2009-05-22T07:40:47Z</time>
      </trkpt>
      <trkpt lat="44.13431" lon="5.29905">
        <ele>1134.1762695312</ele>
        <time>2009-05-22T07:40:54Z</time>
      </trkpt>
      <trkpt lat="44.13423" lon="5.29877">
        <ele>1133.0303955078</ele>
        <time>2009-05-22T07:41:01Z</time>
      </trkpt>
      <trkpt lat="44.1341" lon="5.29842">
        <ele>1131.4294433594</ele>
        <time>2009-05-22T07:41:09Z</time>
      </trkpt>
      <trkpt lat="44.13396" lon="5.2981">
        <ele>1128.990234375</ele>
        <time>2009-05-22T07:41:17Z</time>
      </trkpt>
      <trkpt lat="44.13374" lon="5.29774">
        <ele>1128.6867675781</ele>
        <time>2009-05-22T07:41:27Z</time>
      </trkpt>
      <trkpt lat="44.1335" lon="5.29744">
        <ele>1128.5375976562</ele>
        <time>2009-05-22T07:41:36Z</time>
      </trkpt>
      <trkpt lat="44.13332" lon="5.2972">
        <ele>1128.7663574219</ele>
        <time>2009-05-22T07:41:43Z</time>
      </trkpt>
      <trkpt lat="44.13309" lon="5.29692">
        <ele>1126.1667480469</ele>
        <time>2009-05-22T07:41:51Z</time>
      </trkpt>
      <trkpt lat="44.1329" lon="5.29678">
        <ele>1126.0446777344</ele>
        <time>2009-05-22T07:41:57Z</time>
      </trkpt>
      <trkpt lat="44.13261" lon="5.29675">
        <ele>1127.6021728516</ele>
        <time>2009-05-22T07:42:04Z</time>
      </trkpt>
      <trkpt lat="44.13248" lon="5.29676">
        <ele>1128.8725585938</ele>
        <time>2009-05-22T07:42:07Z</time>
      </trkpt>
      <trkpt lat="44.13216" lon="5.29696">
        <ele>1134.3127441406</ele>
        <time>2009-05-22T07:42:16Z</time>
      </trkpt>
      <trkpt lat="44.13194" lon="5.29713">
        <ele>1137.9019775391</ele>
        <time>2009-05-22T07:42:22Z</time>
      </trkpt>
      <trkpt lat="44.13168" lon="5.29732">
        <ele>1138.7434082031</ele>
        <time>2009-05-22T07:42:28Z</time>
      </trkpt>
      <trkpt lat="44.13138" lon="5.29756">
        <ele>1135.8996582031</ele>
        <time>2009-05-22T07:42:35Z</time>
      </trkpt>
      <trkpt lat="44.1311" lon="5.29782">
        <ele>1134.0721435547</ele>
        <time>2009-05-22T07:42:42Z</time>
      </trkpt>
      <trkpt lat="44.13083" lon="5.29817">
        <ele>1128.8013916016</ele>
        <time>2009-05-22T07:42:50Z</time>
      </trkpt>
      <trkpt lat="44.13065" lon="5.29843">
        <ele>1128.0151367188</ele>
        <time>2009-05-22T07:42:56Z</time>
      </trkpt>
      <trkpt lat="44.13057" lon="5.29857">
        <ele>1127.8881835938</ele>
        <time>2009-05-22T07:42:59Z</time>
      </trkpt>
      <trkpt lat="44.13047" lon="5.29882">
        <ele>1127.2209472656</ele>
        <time>2009-05-22T07:43:04Z</time>
      </trkpt>
      <trkpt lat="44.13044" lon="5.29893">
        <ele>1127.1359863281</ele>
        <time>2009-05-22T07:43:06Z</time>
      </trkpt>
      <trkpt lat="44.13043" lon="5.29917">
        <ele>1128.2253417969</ele>
        <time>2009-05-22T07:43:10Z</time>
      </trkpt>
      <trkpt lat="44.13048" lon="5.29943">
        <ele>1130.5920410156</ele>
        <time>2009-05-22T07:43:15Z</time>
      </trkpt>
      <trkpt lat="44.13052" lon="5.2996">
        <ele>1131.3576660156</ele>
        <time>2009-05-22T07:43:18Z</time>
      </trkpt>
      <trkpt lat="44.13058" lon="5.29976">
        <ele>1132.2625732422</ele>
        <time>2009-05-22T07:43:21Z</time>
      </trkpt>
      <trkpt lat="44.13074" lon="5.30009">
        <ele>1134.7585449219</ele>
        <time>2009-05-22T07:43:28Z</time>
      </trkpt>
      <trkpt lat="44.1309" lon="5.30032">
        <ele>1136.7648925781</ele>
        <time>2009-05-22T07:43:34Z</time>
      </trkpt>
      <trkpt lat="44.13109" lon="5.30061">
        <ele>1138.4711914062</ele>
        <time>2009-05-22T07:43:41Z</time>
      </trkpt>
      <trkpt lat="44.13114" lon="5.30071">
        <ele>1138.7320556641</ele>
        <time>2009-05-22T07:43:43Z</time>
      </trkpt>
      <trkpt lat="44.13127" lon="5.3011">
        <ele>1138.34375</ele>
        <time>2009-05-22T07:43:50Z</time>
      </trkpt>
      <trkpt lat="44.1313" lon="5.3013">
        <ele>1138.5286865234</ele>
        <time>2009-05-22T07:43:53Z</time>
      </trkpt>
      <trkpt lat="44.13133" lon="5.30175">
        <ele>1137.2926025391</ele>
        <time>2009-05-22T07:44:00Z</time>
      </trkpt>
      <trkpt lat="44.13136" lon="5.3022">
        <ele>1135.5615234375</ele>
        <time>2009-05-22T07:44:07Z</time>
      </trkpt>
      <trkpt lat="44.13137" lon="5.30265">
        <ele>1133.5075683594</ele>
        <time>2009-05-22T07:44:14Z</time>
      </trkpt>
      <trkpt lat="44.13136" lon="5.30302">
        <ele>1131.5300292969</ele>
        <time>2009-05-22T07:44:20Z</time>
      </trkpt>
      <trkpt lat="44.1314" lon="5.30358">
        <ele>1130.3670654297</ele>
        <time>2009-05-22T07:44:29Z</time>
      </trkpt>
      <trkpt lat="44.13146" lon="5.30402">
        <ele>1129.2735595703</ele>
        <time>2009-05-22T07:44:36Z</time>
      </trkpt>
      <trkpt lat="44.13155" lon="5.30453">
        <ele>1129.7131347656</ele>
        <time>2009-05-22T07:44:44Z</time>
      </trkpt>
      <trkpt lat="44.13168" lon="5.30517">
        <ele>1130.6846923828</ele>
        <time>2009-05-22T07:44:54Z</time>
      </trkpt>
      <trkpt lat="44.13182" lon="5.3056">
        <ele>1131.6013183594</ele>
        <time>2009-05-22T07:45:01Z</time>
      </trkpt>
      <trkpt lat="44.13197" lon="5.30608">
        <ele>1133.0394287109</ele>
        <time>2009-05-22T07:45:09Z</time>
      </trkpt>
      <trkpt lat="44.13211" lon="5.30656">
        <ele>1135.5666503906</ele>
        <time>2009-05-22T07:45:17Z</time>
      </trkpt>
      <trkpt lat="44.13221" lon="5.30706">
        <ele>1137.7950439453</ele>
        <time>2009-05-22T07:45:25Z</time>
      </trkpt>
      <trkpt lat="44.13224" lon="5.3073">
        <ele>1138.3721923828</ele>
        <time>2009-05-22T07:45:29Z</time>
      </trkpt>
      <trkpt lat="44.13225" lon="5.30755">
        <ele>1138.3527832031</ele>
        <time>2009-05-22T07:45:33Z</time>
      </trkpt>
      <trkpt lat="44.13214" lon="5.30775">
        <ele>1136.8060302734</ele>
        <time>2009-05-22T07:45:37Z</time>
      </trkpt>
      <trkpt lat="44.13198" lon="5.3079">
        <ele>1134.9559326172</ele>
        <time>2009-05-22T07:45:42Z</time>
      </trkpt>
      <trkpt lat="44.13192" lon="5.30796">
        <ele>1134.4337158203</ele>
        <time>2009-05-22T07:45:46Z</time>
      </trkpt>
      <trkpt lat="44.13192" lon="5.30797">
        <ele>1134.4750976562</ele>
        <time>2009-05-22T07:45:50Z</time>
      </trkpt>
      <trkpt lat="44.13195" lon="5.30793">
        <ele>1134.6184082031</ele>
        <time>2009-05-22T07:47:15Z</time>
      </trkpt>
      <trkpt lat="44.13192" lon="5.30792">
        <ele>1134.2537841797</ele>
        <time>2009-05-22T07:47:19Z</time>
      </trkpt>
      <trkpt lat="44.13192" lon="5.30792">
        <ele>1134.2689208984</ele>
        <time>2009-05-22T07:47:20Z</time>
      </trkpt>
      <trkpt lat="44.13183" lon="5.30799">
        <ele>1133.8842773438</ele>
        <time>2009-05-22T07:47:33Z</time>
      </trkpt>
      <trkpt lat="44.13174" lon="5.30807">
        <ele>1133.6579589844</ele>
        <time>2009-05-22T07:47:38Z</time>
      </trkpt>
      <trkpt lat="44.13168" lon="5.30813">
        <ele>1133.6270751953</ele>
        <time>2009-05-22T07:47:41Z</time>
      </trkpt>
      <trkpt lat="44.13156" lon="5.30825">
        <ele>1133.5024414062</ele>
        <time>2009-05-22T07:47:47Z</time>
      </trkpt>
      <trkpt lat="44.13148" lon="5.30833">
        <ele>1133.6423339844</ele>
        <time>2009-05-22T07:47:51Z</time>
      </trkpt>
      <trkpt lat="44.13139" lon="5.30843">
        <ele>1133.3883056641</ele>
        <time>2009-05-22T07:47:55Z</time>
      </trkpt>
      <trkpt lat="44.13137" lon="5.30845">
        <ele>1133.3265380859</ele>
        <time>2009-05-22T07:47:56Z</time>
      </trkpt>
      <trkpt lat="44.13136" lon="5.30848">
        <ele>1133.2750244141</ele>
        <time>2009-05-22T07:47:57Z</time>
      </trkpt>
      <trkpt lat="44.13134" lon="5.3085">
        <ele>1133.2028808594</ele>
        <time>2009-05-22T07:47:58Z</time>
      </trkpt>
      <trkpt lat="44.1312" lon="5.30867">
        <ele>1133.3165283203</ele>
        <time>2009-05-22T07:48:04Z</time>
      </trkpt>
      <trkpt lat="44.131" lon="5.30889">
        <ele>1133.8111572266</ele>
        <time>2009-05-22T07:48:11Z</time>
      </trkpt>
      <trkpt lat="44.13079" lon="5.30914">
        <ele>1133.5059814453</ele>
        <time>2009-05-22T07:48:18Z</time>
      </trkpt>
      <trkpt lat="44.13055" lon="5.30946">
        <ele>1134.0263671875</ele>
        <time>2009-05-22T07:48:26Z</time>
      </trkpt>
      <trkpt lat="44.13027" lon="5.3098">
        <ele>1133.4635009766</ele>
        <time>2009-05-22T07:48:35Z</time>
      </trkpt>
      <trkpt lat="44.13001" lon="5.31013">
        <ele>1131.1689453125</ele>
        <time>2009-05-22T07:48:43Z</time>
      </trkpt>
      <trkpt lat="44.12976" lon="5.31045">
        <ele>1130.0809326172</ele>
        <time>2009-05-22T07:48:50Z</time>
      </trkpt>
      <trkpt lat="44.1297" lon="5.31054">
        <ele>1129.7015380859</ele>
        <time>2009-05-22T07:48:52Z</time>
      </trkpt>
      <trkpt lat="44.1296" lon="5.31067">
        <ele>1129.1247558594</ele>
        <time>2009-05-22T07:48:55Z</time>
      </trkpt>
      <trkpt lat="44.12954" lon="5.31075">
        <ele>1128.7780761719</ele>
        <time>2009-05-22T07:48:57Z</time>
      </trkpt>
      <trkpt lat="44.12946" lon="5.31089">
        <ele>1128.5123291016</ele>
        <time>2009-05-22T07:49:00Z</time>
      </trkpt>
      <trkpt lat="44.12933" lon="5.31122">
        <ele>1129.201171875</ele>
        <time>2009-05-22T07:49:06Z</time>
      </trkpt>
      <trkpt lat="44.1293" lon="5.31141">
        <ele>1129.1628417969</ele>
        <time>2009-05-22T07:49:09Z</time>
      </trkpt>
      <trkpt lat="44.12928" lon="5.31158">
        <ele>1126.8577880859</ele>
        <time>2009-05-22T07:49:12Z</time>
      </trkpt>
      <trkpt lat="44.12928" lon="5.31175">
        <ele>1125.2514648438</ele>
        <time>2009-05-22T07:49:15Z</time>
      </trkpt>
      <trkpt lat="44.12931" lon="5.31185">
        <ele>1124.7741699219</ele>
        <time>2009-05-22T07:49:17Z</time>
      </trkpt>
      <trkpt lat="44.12934" lon="5.31188">
        <ele>1124.6643066406</ele>
        <time>2009-05-22T07:49:18Z</time>
      </trkpt>
      <trkpt lat="44.12949" lon="5.31201">
        <ele>1124.1506347656</ele>
        <time>2009-05-22T07:49:23Z</time>
      </trkpt>
      <trkpt lat="44.12965" lon="5.31211">
        <ele>1123.4948730469</ele>
        <time>2009-05-22T07:49:29Z</time>
      </trkpt>
      <trkpt lat="44.12979" lon="5.31217">
        <ele>1123.6164550781</ele>
        <time>2009-05-22T07:49:34Z</time>
      </trkpt>
      <trkpt lat="44.12991" lon="5.31223">
        <ele>1123.80078125</ele>
        <time>2009-05-22T07:49:38Z</time>
      </trkpt>
      <trkpt lat="44.13009" lon="5.31234">
        <ele>1123.0408935547</ele>
        <time>2009-05-22T07:49:45Z</time>
      </trkpt>
      <trkpt lat="44.13034" lon="5.3125">
        <ele>1120.9866943359</ele>
        <time>2009-05-22T07:49:54Z</time>
      </trkpt>
      <trkpt lat="44.13051" lon="5.3126">
        <ele>1121.8352050781</ele>
        <time>2009-05-22T07:50:01Z</time>
      </trkpt>
      <trkpt lat="44.13066" lon="5.31271">
        <ele>1122.2259521484</ele>
        <time>2009-05-22T07:50:07Z</time>
      </trkpt>
      <trkpt lat="44.13084" lon="5.31286">
        <ele>1120.6186523438</ele>
        <time>2009-05-22T07:50:14Z</time>
      </trkpt>
      <trkpt lat="44.13104" lon="5.31304">
        <ele>1117.5788574219</ele>
        <time>2009-05-22T07:50:22Z</time>
      </trkpt>
      <trkpt lat="44.13116" lon="5.31317">
        <ele>1117.7708740234</ele>
        <time>2009-05-22T07:50:27Z</time>
      </trkpt>
      <trkpt lat="44.13135" lon="5.31335">
        <ele>1118.7918701172</ele>
        <time>2009-05-22T07:50:35Z</time>
      </trkpt>
      <trkpt lat="44.1315" lon="5.31351">
        <ele>1120.4372558594</ele>
        <time>2009-05-22T07:50:42Z</time>
      </trkpt>
      <trkpt lat="44.1317" lon="5.31375">
        <ele>1121.1490478516</ele>
        <time>2009-05-22T07:50:51Z</time>
      </trkpt>
      <trkpt lat="44.13186" lon="5.314">
        <ele>1119.955078125</ele>
        <time>2009-05-22T07:50:58Z</time>
      </trkpt>
      <trkpt lat="44.13199" lon="5.31418">
        <ele>1120.3123779297</ele>
        <time>2009-05-22T07:51:04Z</time>
      </trkpt>
      <trkpt lat="44.13214" lon="5.31434">
        <ele>1121.1717529297</ele>
        <time>2009-05-22T07:51:10Z</time>
      </trkpt>
      <trkpt lat="44.13231" lon="5.31448">
        <ele>1121.2275390625</ele>
        <time>2009-05-22T07:51:16Z</time>
      </trkpt>
      <trkpt lat="44.13244" lon="5.31457">
        <ele>1122.0162353516</ele>
        <time>2009-05-22T07:51:21Z</time>
      </trkpt>
      <trkpt lat="44.1326" lon="5.31466">
        <ele>1124.3100585938</ele>
        <time>2009-05-22T07:51:27Z</time>
      </trkpt>
      <trkpt lat="44.13278" lon="5.31479">
        <ele>1127.0980224609</ele>
        <time>2009-05-22T07:51:35Z</time>
      </trkpt>
      <trkpt lat="44.1329" lon="5.31488">
        <ele>1128.7961425781</ele>
        <time>2009-05-22T07:51:40Z</time>
      </trkpt>
      <trkpt lat="44.13306" lon="5.31502">
        <ele>1129.4704589844</ele>
        <time>2009-05-22T07:51:47Z</time>
      </trkpt>
      <trkpt lat="44.13321" lon="5.31511">
        <ele>1131.3930664062</ele>
        <time>2009-05-22T07:51:53Z</time>
      </trkpt>
      <trkpt lat="44.13336" lon="5.31525">
        <ele>1132.4714355469</ele>
        <time>2009-05-22T07:51:59Z</time>
      </trkpt>
      <trkpt lat="44.13351" lon="5.31537">
        <ele>1136.4138183594</ele>
        <time>2009-05-22T07:52:05Z</time>
      </trkpt>
      <trkpt lat="44.13366" lon="5.31552">
        <ele>1140.0732421875</ele>
        <time>2009-05-22T07:52:11Z</time>
      </trkpt>
      <trkpt lat="44.13384" lon="5.31568">
        <ele>1141.3765869141</ele>
        <time>2009-05-22T07:52:18Z</time>
      </trkpt>
      <trkpt lat="44.13401" lon="5.3158">
        <ele>1142.4006347656</ele>
        <time>2009-05-22T07:52:24Z</time>
      </trkpt>
      <trkpt lat="44.13415" lon="5.31589">
        <ele>1143.6231689453</ele>
        <time>2009-05-22T07:52:29Z</time>
      </trkpt>
      <trkpt lat="44.13436" lon="5.31601">
        <ele>1149.1398925781</ele>
        <time>2009-05-22T07:52:36Z</time>
      </trkpt>
      <trkpt lat="44.13456" lon="5.31607">
        <ele>1153.5487060547</ele>
        <time>2009-05-22T07:52:42Z</time>
      </trkpt>
      <trkpt lat="44.13478" lon="5.31615">
        <ele>1156.3167724609</ele>
        <time>2009-05-22T07:52:49Z</time>
      </trkpt>
      <trkpt lat="44.13496" lon="5.31622">
        <ele>1158.2783203125</ele>
        <time>2009-05-22T07:52:54Z</time>
      </trkpt>
      <trkpt lat="44.13515" lon="5.31628">
        <ele>1161.4018554688</ele>
        <time>2009-05-22T07:52:59Z</time>
      </trkpt>
      <trkpt lat="44.13537" lon="5.31638">
        <ele>1163.7592773438</ele>
        <time>2009-05-22T07:53:05Z</time>
      </trkpt>
      <trkpt lat="44.13559" lon="5.3165">
        <ele>1168.0034179688</ele>
        <time>2009-05-22T07:53:11Z</time>
      </trkpt>
      <trkpt lat="44.13581" lon="5.31664">
        <ele>1170.1237792969</ele>
        <time>2009-05-22T07:53:17Z</time>
      </trkpt>
      <trkpt lat="44.13613" lon="5.31685">
        <ele>1173.7430419922</ele>
        <time>2009-05-22T07:53:26Z</time>
      </trkpt>
      <trkpt lat="44.13638" lon="5.31702">
        <ele>1175.8409423828</ele>
        <time>2009-05-22T07:53:33Z</time>
      </trkpt>
      <trkpt lat="44.13646" lon="5.31707">
        <ele>1176.5407714844</ele>
        <time>2009-05-22T07:53:35Z</time>
      </trkpt>
      <trkpt lat="44.1367" lon="5.31738">
        <ele>1178.7685546875</ele>
        <time>2009-05-22T07:53:43Z</time>
      </trkpt>
      <trkpt lat="44.13682" lon="5.31765">
        <ele>1179.5776367188</ele>
        <time>2009-05-22T07:53:49Z</time>
      </trkpt>
      <trkpt lat="44.13684" lon="5.31778">
        <ele>1179.2333984375</ele>
        <time>2009-05-22T07:53:51Z</time>
      </trkpt>
      <trkpt lat="44.13684" lon="5.31812">
        <ele>1179.640625</ele>
        <time>2009-05-22T07:53:57Z</time>
      </trkpt>
      <trkpt lat="44.13684" lon="5.31817">
        <ele>1179.61328125</ele>
        <time>2009-05-22T07:53:58Z</time>
      </trkpt>
      <trkpt lat="44.13678" lon="5.3184">
        <ele>1179.5512695312</ele>
        <time>2009-05-22T07:54:02Z</time>
      </trkpt>
      <trkpt lat="44.13678" lon="5.3186">
        <ele>1179.9844970703</ele>
        <time>2009-05-22T07:54:06Z</time>
      </trkpt>
      <trkpt lat="44.13673" lon="5.31864">
        <ele>1180.1861572266</ele>
        <time>2009-05-22T07:54:09Z</time>
      </trkpt>
      <trkpt lat="44.13667" lon="5.31854">
        <ele>1179.7573242188</ele>
        <time>2009-05-22T07:54:13Z</time>
      </trkpt>
      <trkpt lat="44.13656" lon="5.31833">
        <ele>1178.6044921875</ele>
        <time>2009-05-22T07:54:19Z</time>
      </trkpt>
      <trkpt lat="44.13646" lon="5.31797">
        <ele>1177.1539306641</ele>
        <time>2009-05-22T07:54:27Z</time>
      </trkpt>
      <trkpt lat="44.1363" lon="5.31778">
        <ele>1175.4053955078</ele>
        <time>2009-05-22T07:54:33Z</time>
      </trkpt>
      <trkpt lat="44.13615" lon="5.31771">
        <ele>1173.5977783203</ele>
        <time>2009-05-22T07:54:38Z</time>
      </trkpt>
      <trkpt lat="44.13591" lon="5.31769">
        <ele>1170.8576660156</ele>
        <time>2009-05-22T07:54:45Z</time>
      </trkpt>
      <trkpt lat="44.13568" lon="5.3177">
        <ele>1168.4954833984</ele>
        <time>2009-05-22T07:54:52Z</time>
      </trkpt>
      <trkpt lat="44.13545" lon="5.31775">
        <ele>1164.9718017578</ele>
        <time>2009-05-22T07:54:59Z</time>
      </trkpt>
      <trkpt lat="44.13518" lon="5.31781">
        <ele>1160.7218017578</ele>
        <time>2009-05-22T07:55:06Z</time>
      </trkpt>
      <trkpt lat="44.13491" lon="5.31788">
        <ele>1163.7857666016</ele>
        <time>2009-05-22T07:55:13Z</time>
      </trkpt>
      <trkpt lat="44.13462" lon="5.31796">
        <ele>1167.6544189453</ele>
        <time>2009-05-22T07:55:20Z</time>
      </trkpt>
      <trkpt lat="44.13439" lon="5.31799">
        <ele>1170.0102539062</ele>
        <time>2009-05-22T07:55:26Z</time>
      </trkpt>
      <trkpt lat="44.13415" lon="5.31801">
        <ele>1176.1778564453</ele>
        <time>2009-05-22T07:55:32Z</time>
      </trkpt>
      <trkpt lat="44.13382" lon="5.31799">
        <ele>1175.9143066406</ele>
        <time>2009-05-22T07:55:40Z</time>
      </trkpt>
      <trkpt lat="44.13358" lon="5.31793">
        <ele>1175.4033203125</ele>
        <time>2009-05-22T07:55:46Z</time>
      </trkpt>
      <trkpt lat="44.13328" lon="5.31785">
        <ele>1173.8093261719</ele>
        <time>2009-05-22T07:55:54Z</time>
      </trkpt>
      <trkpt lat="44.13298" lon="5.31778">
        <ele>1169.6762695312</ele>
        <time>2009-05-22T07:56:03Z</time>
      </trkpt>
      <trkpt lat="44.13275" lon="5.31773">
        <ele>1164.9233398438</ele>
        <time>2009-05-22T07:56:11Z</time>
      </trkpt>
      <trkpt lat="44.13254" lon="5.31771">
        <ele>1159.8714599609</ele>
        <time>2009-05-22T07:56:18Z</time>
      </trkpt>
      <trkpt lat="44.13233" lon="5.31774">
        <ele>1155.666015625</ele>
        <time>2009-05-22T07:56:26Z</time>
      </trkpt>
      <trkpt lat="44.13221" lon="5.31784">
        <ele>1155.0765380859</ele>
        <time>2009-05-22T07:56:31Z</time>
      </trkpt>
      <trkpt lat="44.13215" lon="5.31801">
        <ele>1156.2319335938</ele>
        <time>2009-05-22T07:56:36Z</time>
      </trkpt>
      <trkpt lat="44.13216" lon="5.31824">
        <ele>1159.6491699219</ele>
        <time>2009-05-22T07:56:42Z</time>
      </trkpt>
      <trkpt lat="44.1322" lon="5.31851">
        <ele>1162.2176513672</ele>
        <time>2009-05-22T07:56:49Z</time>
      </trkpt>
      <trkpt lat="44.13226" lon="5.31879">
        <ele>1163.5769042969</ele>
        <time>2009-05-22T07:56:56Z</time>
      </trkpt>
      <trkpt lat="44.13235" lon="5.31901">
        <ele>1165.4154052734</ele>
        <time>2009-05-22T07:57:03Z</time>
      </trkpt>
      <trkpt lat="44.13243" lon="5.31921">
        <ele>1166.8659667969</ele>
        <time>2009-05-22T07:57:10Z</time>
      </trkpt>
      <trkpt lat="44.1325" lon="5.3194">
        <ele>1167.34765625</ele>
        <time>2009-05-22T07:57:16Z</time>
      </trkpt>
      <trkpt lat="44.13255" lon="5.31963">
        <ele>1168.3415527344</ele>
        <time>2009-05-22T07:57:22Z</time>
      </trkpt>
      <trkpt lat="44.13258" lon="5.31985">
        <ele>1168.7165527344</ele>
        <time>2009-05-22T07:57:29Z</time>
      </trkpt>
      <trkpt lat="44.13267" lon="5.32005">
        <ele>1172.1760253906</ele>
        <time>2009-05-22T07:57:35Z</time>
      </trkpt>
      <trkpt lat="44.1328" lon="5.32031">
        <ele>1175.2397460938</ele>
        <time>2009-05-22T07:57:44Z</time>
      </trkpt>
      <trkpt lat="44.13292" lon="5.32056">
        <ele>1174.9468994141</ele>
        <time>2009-05-22T07:57:52Z</time>
      </trkpt>
      <trkpt lat="44.13305" lon="5.32078">
        <ele>1175.6077880859</ele>
        <time>2009-05-22T07:58:00Z</time>
      </trkpt>
      <trkpt lat="44.13315" lon="5.32097">
        <ele>1175.86328125</ele>
        <time>2009-05-22T07:58:07Z</time>
      </trkpt>
      <trkpt lat="44.13325" lon="5.32113">
        <ele>1176.8294677734</ele>
        <time>2009-05-22T07:58:13Z</time>
      </trkpt>
      <trkpt lat="44.13336" lon="5.32129">
        <ele>1176.5931396484</ele>
        <time>2009-05-22T07:58:19Z</time>
      </trkpt>
      <trkpt lat="44.13358" lon="5.32152">
        <ele>1180.9560546875</ele>
        <time>2009-05-22T07:58:28Z</time>
      </trkpt>
      <trkpt lat="44.13374" lon="5.32168">
        <ele>1183.9932861328</ele>
        <time>2009-05-22T07:58:35Z</time>
      </trkpt>
      <trkpt lat="44.13393" lon="5.32187">
        <ele>1183.7117919922</ele>
        <time>2009-05-22T07:58:43Z</time>
      </trkpt>
      <trkpt lat="44.13412" lon="5.32204">
        <ele>1184.2373046875</ele>
        <time>2009-05-22T07:58:51Z</time>
      </trkpt>
      <trkpt lat="44.13432" lon="5.32222">
        <ele>1185.26953125</ele>
        <time>2009-05-22T07:58:59Z</time>
      </trkpt>
      <trkpt lat="44.13454" lon="5.32239">
        <ele>1187.8969726562</ele>
        <time>2009-05-22T07:59:07Z</time>
      </trkpt>
      <trkpt lat="44.13475" lon="5.32256">
        <ele>1188.6359863281</ele>
        <time>2009-05-22T07:59:16Z</time>
      </trkpt>
      <trkpt lat="44.13501" lon="5.32281">
        <ele>1189.6071777344</ele>
        <time>2009-05-22T07:59:27Z</time>
      </trkpt>
      <trkpt lat="44.13514" lon="5.32297">
        <ele>1190.966796875</ele>
        <time>2009-05-22T07:59:33Z</time>
      </trkpt>
      <trkpt lat="44.13533" lon="5.32319">
        <ele>1191.8459472656</ele>
        <time>2009-05-22T07:59:41Z</time>
      </trkpt>
      <trkpt lat="44.13548" lon="5.32336">
        <ele>1193.2768554688</ele>
        <time>2009-05-22T07:59:48Z</time>
      </trkpt>
      <trkpt lat="44.13563" lon="5.32355">
        <ele>1192.873046875</ele>
        <time>2009-05-22T07:59:55Z</time>
      </trkpt>
      <trkpt lat="44.1358" lon="5.32378">
        <ele>1192.0991210938</ele>
        <time>2009-05-22T08:00:03Z</time>
      </trkpt>
      <trkpt lat="44.13593" lon="5.32394">
        <ele>1193.6160888672</ele>
        <time>2009-05-22T08:00:10Z</time>
      </trkpt>
      <trkpt lat="44.13607" lon="5.32416">
        <ele>1194.3303222656</ele>
        <time>2009-05-22T08:00:18Z</time>
      </trkpt>
      <trkpt lat="44.13615" lon="5.32429">
        <ele>1196.6623535156</ele>
        <time>2009-05-22T08:00:23Z</time>
      </trkpt>
      <trkpt lat="44.13628" lon="5.32449">
        <ele>1197.8829345703</ele>
        <time>2009-05-22T08:00:31Z</time>
      </trkpt>
      <trkpt lat="44.13639" lon="5.32467">
        <ele>1198.9840087891</ele>
        <time>2009-05-22T08:00:38Z</time>
      </trkpt>
      <trkpt lat="44.1365" lon="5.32487">
        <ele>1200.1506347656</ele>
        <time>2009-05-22T08:00:46Z</time>
      </trkpt>
      <trkpt lat="44.1366" lon="5.32504">
        <ele>1199.76171875</ele>
        <time>2009-05-22T08:00:53Z</time>
      </trkpt>
      <trkpt lat="44.13669" lon="5.3252">
        <ele>1200.4172363281</ele>
        <time>2009-05-22T08:01:00Z</time>
      </trkpt>
      <trkpt lat="44.13678" lon="5.32538">
        <ele>1201.0709228516</ele>
        <time>2009-05-22T08:01:07Z</time>
      </trkpt>
      <trkpt lat="44.13687" lon="5.32562">
        <ele>1200</ele>
        <time>2009-05-22T08:01:15Z</time>
      </trkpt>
      <trkpt lat="44.13695" lon="5.32586">
        <ele>1200.0314941406</ele>
        <time>2009-05-22T08:01:23Z</time>
      </trkpt>
      <trkpt lat="44.13701" lon="5.32607">
        <ele>1200.1003417969</ele>
        <time>2009-05-22T08:01:29Z</time>
      </trkpt>
      <trkpt lat="44.1371" lon="5.32624">
        <ele>1200</ele>
        <time>2009-05-22T08:01:35Z</time>
      </trkpt>
      <trkpt lat="44.1372" lon="5.32641">
        <ele>1200</ele>
        <time>2009-05-22T08:01:42Z</time>
      </trkpt>
      <trkpt lat="44.1373" lon="5.32655">
        <ele>1201.1063232422</ele>
        <time>2009-05-22T08:01:48Z</time>
      </trkpt>
      <trkpt lat="44.13739" lon="5.32669">
        <ele>1201.6975097656</ele>
        <time>2009-05-22T08:01:54Z</time>
      </trkpt>
      <trkpt lat="44.13748" lon="5.32682">
        <ele>1201.2756347656</ele>
        <time>2009-05-22T08:02:00Z</time>
      </trkpt>
      <trkpt lat="44.13759" lon="5.32702">
        <ele>1204.060546875</ele>
        <time>2009-05-22T08:02:08Z</time>
      </trkpt>
      <trkpt lat="44.1377" lon="5.32726">
        <ele>1206.7396240234</ele>
        <time>2009-05-22T08:02:17Z</time>
      </trkpt>
      <trkpt lat="44.13778" lon="5.32743">
        <ele>1205.6262207031</ele>
        <time>2009-05-22T08:02:24Z</time>
      </trkpt>
      <trkpt lat="44.13787" lon="5.32765">
        <ele>1205.9396972656</ele>
        <time>2009-05-22T08:02:33Z</time>
      </trkpt>
      <trkpt lat="44.13794" lon="5.32783">
        <ele>1206.2529296875</ele>
        <time>2009-05-22T08:02:40Z</time>
      </trkpt>
      <trkpt lat="44.13803" lon="5.32808">
        <ele>1205.7821044922</ele>
        <time>2009-05-22T08:02:49Z</time>
      </trkpt>
      <trkpt lat="44.13812" lon="5.32829">
        <ele>1205.9805908203</ele>
        <time>2009-05-22T08:02:57Z</time>
      </trkpt>
      <trkpt lat="44.13817" lon="5.32846">
        <ele>1208.8637695312</ele>
        <time>2009-05-22T08:03:03Z</time>
      </trkpt>
      <trkpt lat="44.13823" lon="5.32865">
        <ele>1212.3416748047</ele>
        <time>2009-05-22T08:03:10Z</time>
      </trkpt>
      <trkpt lat="44.13829" lon="5.32888">
        <ele>1212.8197021484</ele>
        <time>2009-05-22T08:03:17Z</time>
      </trkpt>
      <trkpt lat="44.13833" lon="5.32912">
        <ele>1210.7652587891</ele>
        <time>2009-05-22T08:03:24Z</time>
      </trkpt>
      <trkpt lat="44.13835" lon="5.32943">
        <ele>1208.9947509766</ele>
        <time>2009-05-22T08:03:32Z</time>
      </trkpt>
      <trkpt lat="44.13835" lon="5.32966">
        <ele>1210.2147216797</ele>
        <time>2009-05-22T08:03:39Z</time>
      </trkpt>
      <trkpt lat="44.13832" lon="5.32996">
        <ele>1209.5532226562</ele>
        <time>2009-05-22T08:03:47Z</time>
      </trkpt>
      <trkpt lat="44.13828" lon="5.33033">
        <ele>1207.0831298828</ele>
        <time>2009-05-22T08:03:56Z</time>
      </trkpt>
      <trkpt lat="44.13825" lon="5.33057">
        <ele>1204.9195556641</ele>
        <time>2009-05-22T08:04:03Z</time>
      </trkpt>
      <trkpt lat="44.13823" lon="5.33082">
        <ele>1203.7735595703</ele>
        <time>2009-05-22T08:04:10Z</time>
      </trkpt>
      <trkpt lat="44.13826" lon="5.33104">
        <ele>1203.8715820312</ele>
        <time>2009-05-22T08:04:17Z</time>
      </trkpt>
      <trkpt lat="44.13831" lon="5.33126">
        <ele>1204.0909423828</ele>
        <time>2009-05-22T08:04:24Z</time>
      </trkpt>
      <trkpt lat="44.13835" lon="5.33147">
        <ele>1204.1329345703</ele>
        <time>2009-05-22T08:04:31Z</time>
      </trkpt>
      <trkpt lat="44.13845" lon="5.33165">
        <ele>1206.9069824219</ele>
        <time>2009-05-22T08:04:38Z</time>
      </trkpt>
      <trkpt lat="44.13857" lon="5.33182">
        <ele>1210.0998535156</ele>
        <time>2009-05-22T08:04:45Z</time>
      </trkpt>
      <trkpt lat="44.13869" lon="5.332">
        <ele>1213.5096435547</ele>
        <time>2009-05-22T08:04:53Z</time>
      </trkpt>
      <trkpt lat="44.13875" lon="5.33212">
        <ele>1215.904296875</ele>
        <time>2009-05-22T08:04:58Z</time>
      </trkpt>
      <trkpt lat="44.13868" lon="5.33223">
        <ele>1214.8830566406</ele>
        <time>2009-05-22T08:05:03Z</time>
      </trkpt>
      <trkpt lat="44.13853" lon="5.33221">
        <ele>1209.1809082031</ele>
        <time>2009-05-22T08:05:08Z</time>
      </trkpt>
      <trkpt lat="44.13836" lon="5.33226">
        <ele>1201.8176269531</ele>
        <time>2009-05-22T08:05:14Z</time>
      </trkpt>
      <trkpt lat="44.13823" lon="5.3324">
        <ele>1201.2229003906</ele>
        <time>2009-05-22T08:05:20Z</time>
      </trkpt>
      <trkpt lat="44.13813" lon="5.33261">
        <ele>1201.8817138672</ele>
        <time>2009-05-22T08:05:27Z</time>
      </trkpt>
      <trkpt lat="44.13805" lon="5.33286">
        <ele>1203.2136230469</ele>
        <time>2009-05-22T08:05:34Z</time>
      </trkpt>
      <trkpt lat="44.13795" lon="5.33321">
        <ele>1208.4100341797</ele>
        <time>2009-05-22T08:05:44Z</time>
      </trkpt>
      <trkpt lat="44.13789" lon="5.33344">
        <ele>1210.7097167969</ele>
        <time>2009-05-22T08:05:51Z</time>
      </trkpt>
      <trkpt lat="44.13783" lon="5.33371">
        <ele>1212.5031738281</ele>
        <time>2009-05-22T08:05:59Z</time>
      </trkpt>
      <trkpt lat="44.1378" lon="5.334">
        <ele>1215.0916748047</ele>
        <time>2009-05-22T08:06:07Z</time>
      </trkpt>
      <trkpt lat="44.1378" lon="5.33429">
        <ele>1217.7485351562</ele>
        <time>2009-05-22T08:06:16Z</time>
      </trkpt>
      <trkpt lat="44.13781" lon="5.33442">
        <ele>1219.6296386719</ele>
        <time>2009-05-22T08:06:22Z</time>
      </trkpt>
      <trkpt lat="44.13783" lon="5.33455">
        <ele>1222.578125</ele>
        <time>2009-05-22T08:06:29Z</time>
      </trkpt>
      <trkpt lat="44.13784" lon="5.33456">
        <ele>1223.0484619141</ele>
        <time>2009-05-22T08:06:30Z</time>
      </trkpt>
      <trkpt lat="44.13785" lon="5.33464">
        <ele>1225.0671386719</ele>
        <time>2009-05-22T08:06:35Z</time>
      </trkpt>
      <trkpt lat="44.13785" lon="5.33465">
        <ele>1225.2902832031</ele>
        <time>2009-05-22T08:06:36Z</time>
      </trkpt>
      <trkpt lat="44.13782" lon="5.33474">
        <ele>1226.4614257812</ele>
        <time>2009-05-22T08:06:41Z</time>
      </trkpt>
      <trkpt lat="44.1378" lon="5.3349">
        <ele>1229.3511962891</ele>
        <time>2009-05-22T08:06:48Z</time>
      </trkpt>
      <trkpt lat="44.13781" lon="5.33509">
        <ele>1234.4564208984</ele>
        <time>2009-05-22T08:06:55Z</time>
      </trkpt>
      <trkpt lat="44.13788" lon="5.33529">
        <ele>1240.4774169922</ele>
        <time>2009-05-22T08:07:02Z</time>
      </trkpt>
      <trkpt lat="44.13797" lon="5.33548">
        <ele>1242.1391601562</ele>
        <time>2009-05-22T08:07:09Z</time>
      </trkpt>
      <trkpt lat="44.13809" lon="5.33567">
        <ele>1244.5123291016</ele>
        <time>2009-05-22T08:07:17Z</time>
      </trkpt>
      <trkpt lat="44.1382" lon="5.33583">
        <ele>1246.9791259766</ele>
        <time>2009-05-22T08:07:24Z</time>
      </trkpt>
      <trkpt lat="44.13832" lon="5.33595">
        <ele>1249.1569824219</ele>
        <time>2009-05-22T08:07:31Z</time>
      </trkpt>
      <trkpt lat="44.13835" lon="5.33609">
        <ele>1250.9685058594</ele>
        <time>2009-05-22T08:07:36Z</time>
      </trkpt>
      <trkpt lat="44.13824" lon="5.33618">
        <ele>1251.1987304688</ele>
        <time>2009-05-22T08:07:42Z</time>
      </trkpt>
      <trkpt lat="44.1382" lon="5.33618">
        <ele>1250.9893798828</ele>
        <time>2009-05-22T08:07:44Z</time>
      </trkpt>
      <trkpt lat="44.13799" lon="5.33609">
        <ele>1249.4304199219</ele>
        <time>2009-05-22T08:07:53Z</time>
      </trkpt>
      <trkpt lat="44.13784" lon="5.33611">
        <ele>1249.2315673828</ele>
        <time>2009-05-22T08:07:59Z</time>
      </trkpt>
      <trkpt lat="44.13775" lon="5.33624">
        <ele>1249.8083496094</ele>
        <time>2009-05-22T08:08:05Z</time>
      </trkpt>
      <trkpt lat="44.13772" lon="5.33647">
        <ele>1252.0240478516</ele>
        <time>2009-05-22T08:08:12Z</time>
      </trkpt>
      <trkpt lat="44.1377" lon="5.33675">
        <ele>1255.4020996094</ele>
        <time>2009-05-22T08:08:20Z</time>
      </trkpt>
      <trkpt lat="44.13773" lon="5.33707">
        <ele>1258.3146972656</ele>
        <time>2009-05-22T08:08:29Z</time>
      </trkpt>
      <trkpt lat="44.13776" lon="5.33741">
        <ele>1260.6793212891</ele>
        <time>2009-05-22T08:08:38Z</time>
      </trkpt>
      <trkpt lat="44.13783" lon="5.33756">
        <ele>1261.4244384766</ele>
        <time>2009-05-22T08:08:43Z</time>
      </trkpt>
      <trkpt lat="44.13793" lon="5.33772">
        <ele>1262.3565673828</ele>
        <time>2009-05-22T08:08:49Z</time>
      </trkpt>
      <trkpt lat="44.13793" lon="5.33787">
        <ele>1263.0158691406</ele>
        <time>2009-05-22T08:08:53Z</time>
      </trkpt>
      <trkpt lat="44.13783" lon="5.33813">
        <ele>1264.2542724609</ele>
        <time>2009-05-22T08:09:01Z</time>
      </trkpt>
      <trkpt lat="44.13777" lon="5.33834">
        <ele>1264.9770507812</ele>
        <time>2009-05-22T08:09:07Z</time>
      </trkpt>
      <trkpt lat="44.13773" lon="5.33861">
        <ele>1265.8131103516</ele>
        <time>2009-05-22T08:09:15Z</time>
      </trkpt>
      <trkpt lat="44.13768" lon="5.33882">
        <ele>1266.9001464844</ele>
        <time>2009-05-22T08:09:21Z</time>
      </trkpt>
      <trkpt lat="44.13755" lon="5.33895">
        <ele>1266.5676269531</ele>
        <time>2009-05-22T08:09:27Z</time>
      </trkpt>
      <trkpt lat="44.13739" lon="5.33895">
        <ele>1265.845703125</ele>
        <time>2009-05-22T08:09:33Z</time>
      </trkpt>
      <trkpt lat="44.13721" lon="5.33894">
        <ele>1265.1641845703</ele>
        <time>2009-05-22T08:09:40Z</time>
      </trkpt>
      <trkpt lat="44.13702" lon="5.33894">
        <ele>1264.4637451172</ele>
        <time>2009-05-22T08:09:47Z</time>
      </trkpt>
      <trkpt lat="44.13681" lon="5.33891">
        <ele>1263.5469970703</ele>
        <time>2009-05-22T08:09:54Z</time>
      </trkpt>
      <trkpt lat="44.13657" lon="5.33884">
        <ele>1262.5554199219</ele>
        <time>2009-05-22T08:10:02Z</time>
      </trkpt>
      <trkpt lat="44.13636" lon="5.33876">
        <ele>1261.8828125</ele>
        <time>2009-05-22T08:10:10Z</time>
      </trkpt>
      <trkpt lat="44.13622" lon="5.33881">
        <ele>1261.4022216797</ele>
        <time>2009-05-22T08:10:15Z</time>
      </trkpt>
      <trkpt lat="44.13615" lon="5.33894">
        <ele>1261.1550292969</ele>
        <time>2009-05-22T08:10:19Z</time>
      </trkpt>
      <trkpt lat="44.13615" lon="5.33916">
        <ele>1261.1550292969</ele>
        <time>2009-05-22T08:10:25Z</time>
      </trkpt>
      <trkpt lat="44.13617" lon="5.33933">
        <ele>1261.2099609375</ele>
        <time>2009-05-22T08:10:31Z</time>
      </trkpt>
      <trkpt lat="44.13617" lon="5.33936">
        <ele>1261.2099609375</ele>
        <time>2009-05-22T08:10:32Z</time>
      </trkpt>
      <trkpt lat="44.13615" lon="5.33958">
        <ele>1261.2291259766</ele>
        <time>2009-05-22T08:10:38Z</time>
      </trkpt>
      <trkpt lat="44.13614" lon="5.33982">
        <ele>1261.2276611328</ele>
        <time>2009-05-22T08:10:44Z</time>
      </trkpt>
      <trkpt lat="44.13614" lon="5.34">
        <ele>1261.2276611328</ele>
        <time>2009-05-22T08:10:49Z</time>
      </trkpt>
      <trkpt lat="44.13616" lon="5.34029">
        <ele>1261.3649902344</ele>
        <time>2009-05-22T08:10:55Z</time>
      </trkpt>
      <trkpt lat="44.1362" lon="5.34058">
        <ele>1261.7241210938</ele>
        <time>2009-05-22T08:11:02Z</time>
      </trkpt>
      <trkpt lat="44.1363" lon="5.34089">
        <ele>1263.1069335938</ele>
        <time>2009-05-22T08:11:09Z</time>
      </trkpt>
      <trkpt lat="44.13639" lon="5.3411">
        <ele>1263.0073242188</ele>
        <time>2009-05-22T08:11:15Z</time>
      </trkpt>
      <trkpt lat="44.13649" lon="5.34131">
        <ele>1262.2604980469</ele>
        <time>2009-05-22T08:11:21Z</time>
      </trkpt>
      <trkpt lat="44.1367" lon="5.34155">
        <ele>1262.6616210938</ele>
        <time>2009-05-22T08:11:29Z</time>
      </trkpt>
      <trkpt lat="44.13684" lon="5.34171">
        <ele>1263.0666503906</ele>
        <time>2009-05-22T08:11:34Z</time>
      </trkpt>
      <trkpt lat="44.13704" lon="5.3419">
        <ele>1263.8803710938</ele>
        <time>2009-05-22T08:11:41Z</time>
      </trkpt>
      <trkpt lat="44.13725" lon="5.34198">
        <ele>1265.1563720703</ele>
        <time>2009-05-22T08:11:47Z</time>
      </trkpt>
      <trkpt lat="44.13755" lon="5.34205">
        <ele>1267.7901611328</ele>
        <time>2009-05-22T08:11:55Z</time>
      </trkpt>
      <trkpt lat="44.13773" lon="5.34213">
        <ele>1269.1016845703</ele>
        <time>2009-05-22T08:12:00Z</time>
      </trkpt>
      <trkpt lat="44.13802" lon="5.34226">
        <ele>1271.5100097656</ele>
        <time>2009-05-22T08:12:08Z</time>
      </trkpt>
      <trkpt lat="44.13811" lon="5.34233">
        <ele>1272.2430419922</ele>
        <time>2009-05-22T08:12:11Z</time>
      </trkpt>
      <trkpt lat="44.13805" lon="5.34252">
        <ele>1271.1281738281</ele>
        <time>2009-05-22T08:12:15Z</time>
      </trkpt>
      <trkpt lat="44.13802" lon="5.34255">
        <ele>1270.9322509766</ele>
        <time>2009-05-22T08:12:16Z</time>
      </trkpt>
      <trkpt lat="44.13766" lon="5.34274">
        <ele>1269.0030517578</ele>
        <time>2009-05-22T08:12:25Z</time>
      </trkpt>
      <trkpt lat="44.13735" lon="5.34291">
        <ele>1266.2834472656</ele>
        <time>2009-05-22T08:12:33Z</time>
      </trkpt>
      <trkpt lat="44.13708" lon="5.34307">
        <ele>1265.5545654297</ele>
        <time>2009-05-22T08:12:40Z</time>
      </trkpt>
      <trkpt lat="44.13695" lon="5.34322">
        <ele>1265.625</ele>
        <time>2009-05-22T08:12:45Z</time>
      </trkpt>
      <trkpt lat="44.13689" lon="5.34345">
        <ele>1266.427734375</ele>
        <time>2009-05-22T08:12:50Z</time>
      </trkpt>
      <trkpt lat="44.13685" lon="5.34353">
        <ele>1266.7641601562</ele>
        <time>2009-05-22T08:12:52Z</time>
      </trkpt>
      <trkpt lat="44.1367" lon="5.34363">
        <ele>1265.5220947266</ele>
        <time>2009-05-22T08:12:56Z</time>
      </trkpt>
      <trkpt lat="44.13647" lon="5.3436">
        <ele>1264.1314697266</ele>
        <time>2009-05-22T08:13:02Z</time>
      </trkpt>
      <trkpt lat="44.13623" lon="5.34359">
        <ele>1262.61328125</ele>
        <time>2009-05-22T08:13:08Z</time>
      </trkpt>
      <trkpt lat="44.13594" lon="5.34363">
        <ele>1262.12109375</ele>
        <time>2009-05-22T08:13:15Z</time>
      </trkpt>
      <trkpt lat="44.13559" lon="5.34374">
        <ele>1262.0161132812</ele>
        <time>2009-05-22T08:13:23Z</time>
      </trkpt>
      <trkpt lat="44.13522" lon="5.34389">
        <ele>1260.99609375</ele>
        <time>2009-05-22T08:13:31Z</time>
      </trkpt>
      <trkpt lat="44.13492" lon="5.34407">
        <ele>1261.3402099609</ele>
        <time>2009-05-22T08:13:38Z</time>
      </trkpt>
      <trkpt lat="44.13483" lon="5.34413">
        <ele>1261.2612304688</ele>
        <time>2009-05-22T08:13:40Z</time>
      </trkpt>
      <trkpt lat="44.13457" lon="5.34445">
        <ele>1261.9453125</ele>
        <time>2009-05-22T08:13:48Z</time>
      </trkpt>
      <trkpt lat="44.13445" lon="5.34473">
        <ele>1261.0322265625</ele>
        <time>2009-05-22T08:13:54Z</time>
      </trkpt>
      <trkpt lat="44.13441" lon="5.34499">
        <ele>1261.7385253906</ele>
        <time>2009-05-22T08:13:59Z</time>
      </trkpt>
      <trkpt lat="44.13442" lon="5.3451">
        <ele>1261.8405761719</ele>
        <time>2009-05-22T08:14:01Z</time>
      </trkpt>
      <trkpt lat="44.13445" lon="5.34528">
        <ele>1262.0904541016</ele>
        <time>2009-05-22T08:14:04Z</time>
      </trkpt>
      <trkpt lat="44.1345" lon="5.34553">
        <ele>1262.6259765625</ele>
        <time>2009-05-22T08:14:08Z</time>
      </trkpt>
      <trkpt lat="44.13456" lon="5.34576">
        <ele>1262.4638671875</ele>
        <time>2009-05-22T08:14:12Z</time>
      </trkpt>
      <trkpt lat="44.13466" lon="5.34619">
        <ele>1263.3151855469</ele>
        <time>2009-05-22T08:14:19Z</time>
      </trkpt>
      <trkpt lat="44.13473" lon="5.34662">
        <ele>1263.2347412109</ele>
        <time>2009-05-22T08:14:26Z</time>
      </trkpt>
      <trkpt lat="44.13475" lon="5.3468">
        <ele>1263.2564697266</ele>
        <time>2009-05-22T08:14:29Z</time>
      </trkpt>
      <trkpt lat="44.13475" lon="5.34702">
        <ele>1263.1751708984</ele>
        <time>2009-05-22T08:14:33Z</time>
      </trkpt>
      <trkpt lat="44.13478" lon="5.34721">
        <ele>1263.4223632812</ele>
        <time>2009-05-22T08:14:38Z</time>
      </trkpt>
      <trkpt lat="44.1349" lon="5.3472">
        <ele>1264.2738037109</ele>
        <time>2009-05-22T08:14:43Z</time>
      </trkpt>
      <trkpt lat="44.13505" lon="5.34709">
        <ele>1265.5141601562</ele>
        <time>2009-05-22T08:14:50Z</time>
      </trkpt>
      <trkpt lat="44.13516" lon="5.34698">
        <ele>1267.1364746094</ele>
        <time>2009-05-22T08:14:56Z</time>
      </trkpt>
      <trkpt lat="44.13527" lon="5.34683">
        <ele>1269.2214355469</ele>
        <time>2009-05-22T08:15:03Z</time>
      </trkpt>
      <trkpt lat="44.13537" lon="5.34667">
        <ele>1270.9387207031</ele>
        <time>2009-05-22T08:15:10Z</time>
      </trkpt>
      <trkpt lat="44.13544" lon="5.3466">
        <ele>1271.5142822266</ele>
        <time>2009-05-22T08:15:15Z</time>
      </trkpt>
      <trkpt lat="44.13552" lon="5.34652">
        <ele>1272.142578125</ele>
        <time>2009-05-22T08:15:20Z</time>
      </trkpt>
      <trkpt lat="44.13564" lon="5.34641">
        <ele>1273.0059814453</ele>
        <time>2009-05-22T08:15:28Z</time>
      </trkpt>
      <trkpt lat="44.13574" lon="5.3463">
        <ele>1274.015625</ele>
        <time>2009-05-22T08:15:35Z</time>
      </trkpt>
      <trkpt lat="44.13586" lon="5.34618">
        <ele>1275.4193115234</ele>
        <time>2009-05-22T08:15:43Z</time>
      </trkpt>
      <trkpt lat="44.13597" lon="5.34605">
        <ele>1277.3116455078</ele>
        <time>2009-05-22T08:15:51Z</time>
      </trkpt>
      <trkpt lat="44.13608" lon="5.34601">
        <ele>1279.0911865234</ele>
        <time>2009-05-22T08:15:57Z</time>
      </trkpt>
      <trkpt lat="44.13621" lon="5.34593">
        <ele>1280.7769775391</ele>
        <time>2009-05-22T08:16:06Z</time>
      </trkpt>
      <trkpt lat="44.13633" lon="5.34584">
        <ele>1282.2395019531</ele>
        <time>2009-05-22T08:16:14Z</time>
      </trkpt>
      <trkpt lat="44.13656" lon="5.34573">
        <ele>1284.1284179688</ele>
        <time>2009-05-22T08:16:27Z</time>
      </trkpt>
      <trkpt lat="44.13671" lon="5.34565">
        <ele>1285.1170654297</ele>
        <time>2009-05-22T08:16:36Z</time>
      </trkpt>
      <trkpt lat="44.13685" lon="5.34562">
        <ele>1286.7800292969</ele>
        <time>2009-05-22T08:16:43Z</time>
      </trkpt>
      <trkpt lat="44.137" lon="5.34562">
        <ele>1288.7310791016</ele>
        <time>2009-05-22T08:16:51Z</time>
      </trkpt>
      <trkpt lat="44.13714" lon="5.34562">
        <ele>1290.2554931641</ele>
        <time>2009-05-22T08:16:59Z</time>
      </trkpt>
      <trkpt lat="44.13732" lon="5.34554">
        <ele>1291.1328125</ele>
        <time>2009-05-22T08:17:08Z</time>
      </trkpt>
      <trkpt lat="44.1375" lon="5.34547">
        <ele>1292.3293457031</ele>
        <time>2009-05-22T08:17:18Z</time>
      </trkpt>
      <trkpt lat="44.13764" lon="5.34545">
        <ele>1295.9704589844</ele>
        <time>2009-05-22T08:17:26Z</time>
      </trkpt>
      <trkpt lat="44.13779" lon="5.34542">
        <ele>1299.5627441406</ele>
        <time>2009-05-22T08:17:34Z</time>
      </trkpt>
      <trkpt lat="44.1379" lon="5.34537">
        <ele>1299.8731689453</ele>
        <time>2009-05-22T08:17:40Z</time>
      </trkpt>
      <trkpt lat="44.13806" lon="5.34531">
        <ele>1301.0069580078</ele>
        <time>2009-05-22T08:17:49Z</time>
      </trkpt>
      <trkpt lat="44.13816" lon="5.3453">
        <ele>1301.3666992188</ele>
        <time>2009-05-22T08:17:55Z</time>
      </trkpt>
      <trkpt lat="44.13832" lon="5.34523">
        <ele>1301.9470214844</ele>
        <time>2009-05-22T08:18:03Z</time>
      </trkpt>
      <trkpt lat="44.1385" lon="5.34506">
        <ele>1302.4733886719</ele>
        <time>2009-05-22T08:18:13Z</time>
      </trkpt>
      <trkpt lat="44.13866" lon="5.34486">
        <ele>1302.5031738281</ele>
        <time>2009-05-22T08:18:22Z</time>
      </trkpt>
      <trkpt lat="44.13879" lon="5.34475">
        <ele>1302.115234375</ele>
        <time>2009-05-22T08:18:29Z</time>
      </trkpt>
      <trkpt lat="44.13891" lon="5.34467">
        <ele>1302.083984375</ele>
        <time>2009-05-22T08:18:35Z</time>
      </trkpt>
      <trkpt lat="44.13903" lon="5.34458">
        <ele>1302.5234375</ele>
        <time>2009-05-22T08:18:41Z</time>
      </trkpt>
      <trkpt lat="44.13922" lon="5.34439">
        <ele>1302.8483886719</ele>
        <time>2009-05-22T08:18:49Z</time>
      </trkpt>
      <trkpt lat="44.13938" lon="5.34431">
        <ele>1303.1771240234</ele>
        <time>2009-05-22T08:18:55Z</time>
      </trkpt>
      <trkpt lat="44.13958" lon="5.34428">
        <ele>1303.6806640625</ele>
        <time>2009-05-22T08:19:03Z</time>
      </trkpt>
      <trkpt lat="44.13976" lon="5.34426">
        <ele>1304.0803222656</ele>
        <time>2009-05-22T08:19:11Z</time>
      </trkpt>
      <trkpt lat="44.13988" lon="5.34424">
        <ele>1304.4010009766</ele>
        <time>2009-05-22T08:19:17Z</time>
      </trkpt>
      <trkpt lat="44.13998" lon="5.34423">
        <ele>1304.7272949219</ele>
        <time>2009-05-22T08:19:23Z</time>
      </trkpt>
      <trkpt lat="44.14011" lon="5.34418">
        <ele>1306.8210449219</ele>
        <time>2009-05-22T08:19:29Z</time>
      </trkpt>
      <trkpt lat="44.14024" lon="5.34414">
        <ele>1309.4423828125</ele>
        <time>2009-05-22T08:19:36Z</time>
      </trkpt>
      <trkpt lat="44.14038" lon="5.3441">
        <ele>1312.0032958984</ele>
        <time>2009-05-22T08:19:43Z</time>
      </trkpt>
      <trkpt lat="44.14045" lon="5.34408">
        <ele>1313.3083496094</ele>
        <time>2009-05-22T08:19:47Z</time>
      </trkpt>
      <trkpt lat="44.14057" lon="5.34405">
        <ele>1315.6263427734</ele>
        <time>2009-05-22T08:19:53Z</time>
      </trkpt>
      <trkpt lat="44.14072" lon="5.34402">
        <ele>1319.1239013672</ele>
        <time>2009-05-22T08:20:01Z</time>
      </trkpt>
      <trkpt lat="44.14082" lon="5.34401">
        <ele>1321.2080078125</ele>
        <time>2009-05-22T08:20:07Z</time>
      </trkpt>
      <trkpt lat="44.141" lon="5.34398">
        <ele>1322.8247070312</ele>
        <time>2009-05-22T08:20:17Z</time>
      </trkpt>
      <trkpt lat="44.14116" lon="5.34394">
        <ele>1324.1483154297</ele>
        <time>2009-05-22T08:20:26Z</time>
      </trkpt>
      <trkpt lat="44.14126" lon="5.34388">
        <ele>1325.1215820312</ele>
        <time>2009-05-22T08:20:33Z</time>
      </trkpt>
      <trkpt lat="44.14133" lon="5.34382">
        <ele>1325.8597412109</ele>
        <time>2009-05-22T08:20:39Z</time>
      </trkpt>
      <trkpt lat="44.14145" lon="5.34375">
        <ele>1327.1489257812</ele>
        <time>2009-05-22T08:20:47Z</time>
      </trkpt>
      <trkpt lat="44.14155" lon="5.34373">
        <ele>1328.3402099609</ele>
        <time>2009-05-22T08:20:53Z</time>
      </trkpt>
      <trkpt lat="44.14163" lon="5.3437">
        <ele>1329.2723388672</ele>
        <time>2009-05-22T08:20:58Z</time>
      </trkpt>
      <trkpt lat="44.14164" lon="5.34369">
        <ele>1329.4560546875</ele>
        <time>2009-05-22T08:20:59Z</time>
      </trkpt>
      <trkpt lat="44.14176" lon="5.3437">
        <ele>1330.2370605469</ele>
        <time>2009-05-22T08:21:06Z</time>
      </trkpt>
      <trkpt lat="44.14182" lon="5.34366">
        <ele>1330.8392333984</ele>
        <time>2009-05-22T08:21:10Z</time>
      </trkpt>
      <trkpt lat="44.14198" lon="5.34363">
        <ele>1332.1086425781</ele>
        <time>2009-05-22T08:21:20Z</time>
      </trkpt>
      <trkpt lat="44.14209" lon="5.34355">
        <ele>1333.5998535156</ele>
        <time>2009-05-22T08:21:28Z</time>
      </trkpt>
      <trkpt lat="44.14218" lon="5.34343">
        <ele>1335.5001220703</ele>
        <time>2009-05-22T08:21:35Z</time>
      </trkpt>
      <trkpt lat="44.14226" lon="5.34328">
        <ele>1337.5859375</ele>
        <time>2009-05-22T08:21:44Z</time>
      </trkpt>
      <trkpt lat="44.14235" lon="5.34311">
        <ele>1339.1909179688</ele>
        <time>2009-05-22T08:21:53Z</time>
      </trkpt>
      <trkpt lat="44.14245" lon="5.34299">
        <ele>1340.4841308594</ele>
        <time>2009-05-22T08:22:01Z</time>
      </trkpt>
      <trkpt lat="44.14254" lon="5.34288">
        <ele>1341</ele>
        <time>2009-05-22T08:22:08Z</time>
      </trkpt>
      <trkpt lat="44.14268" lon="5.34269">
        <ele>1341.2038574219</ele>
        <time>2009-05-22T08:22:19Z</time>
      </trkpt>
      <trkpt lat="44.14279" lon="5.34253">
        <ele>1341.9779052734</ele>
        <time>2009-05-22T08:22:28Z</time>
      </trkpt>
      <trkpt lat="44.1429" lon="5.34239">
        <ele>1342.8696289062</ele>
        <time>2009-05-22T08:22:37Z</time>
      </trkpt>
      <trkpt lat="44.14297" lon="5.34229">
        <ele>1343.4189453125</ele>
        <time>2009-05-22T08:22:43Z</time>
      </trkpt>
      <trkpt lat="44.14312" lon="5.34218">
        <ele>1344.6212158203</ele>
        <time>2009-05-22T08:22:53Z</time>
      </trkpt>
      <trkpt lat="44.14326" lon="5.34213">
        <ele>1346.0173339844</ele>
        <time>2009-05-22T08:23:03Z</time>
      </trkpt>
      <trkpt lat="44.14336" lon="5.34211">
        <ele>1347.0032958984</ele>
        <time>2009-05-22T08:23:10Z</time>
      </trkpt>
      <trkpt lat="44.14344" lon="5.34208">
        <ele>1347.7312011719</ele>
        <time>2009-05-22T08:23:16Z</time>
      </trkpt>
      <trkpt lat="44.14349" lon="5.34205">
        <ele>1348.3525390625</ele>
        <time>2009-05-22T08:23:22Z</time>
      </trkpt>
      <trkpt lat="44.14351" lon="5.34204">
        <ele>1348.5345458984</ele>
        <time>2009-05-22T08:24:42Z</time>
      </trkpt>
      <trkpt lat="44.14354" lon="5.34203">
        <ele>1348.8537597656</ele>
        <time>2009-05-22T08:24:45Z</time>
      </trkpt>
      <trkpt lat="44.14367" lon="5.34197">
        <ele>1349.9982910156</ele>
        <time>2009-05-22T08:24:56Z</time>
      </trkpt>
      <trkpt lat="44.14376" lon="5.34196">
        <ele>1350.4097900391</ele>
        <time>2009-05-22T08:25:03Z</time>
      </trkpt>
      <trkpt lat="44.14379" lon="5.34195">
        <ele>1350.6231689453</ele>
        <time>2009-05-22T08:25:08Z</time>
      </trkpt>
      <trkpt lat="44.14381" lon="5.34194">
        <ele>1350.7133789062</ele>
        <time>2009-05-22T08:25:11Z</time>
      </trkpt>
      <trkpt lat="44.14384" lon="5.34193">
        <ele>1350.9035644531</ele>
        <time>2009-05-22T08:25:16Z</time>
      </trkpt>
      <trkpt lat="44.14391" lon="5.34191">
        <ele>1351.6986083984</ele>
        <time>2009-05-22T08:25:22Z</time>
      </trkpt>
      <trkpt lat="44.144" lon="5.34181">
        <ele>1354.1329345703</ele>
        <time>2009-05-22T08:25:29Z</time>
      </trkpt>
      <trkpt lat="44.14412" lon="5.34167">
        <ele>1357.8931884766</ele>
        <time>2009-05-22T08:25:37Z</time>
      </trkpt>
      <trkpt lat="44.14426" lon="5.34153">
        <ele>1359.9678955078</ele>
        <time>2009-05-22T08:25:46Z</time>
      </trkpt>
      <trkpt lat="44.14438" lon="5.34138">
        <ele>1361.013671875</ele>
        <time>2009-05-22T08:25:54Z</time>
      </trkpt>
      <trkpt lat="44.14451" lon="5.3412">
        <ele>1361.6650390625</ele>
        <time>2009-05-22T08:26:04Z</time>
      </trkpt>
      <trkpt lat="44.14463" lon="5.34104">
        <ele>1362</ele>
        <time>2009-05-22T08:26:13Z</time>
      </trkpt>
      <trkpt lat="44.14477" lon="5.34084">
        <ele>1362</ele>
        <time>2009-05-22T08:26:23Z</time>
      </trkpt>
      <trkpt lat="44.14484" lon="5.34072">
        <ele>1362.4228515625</ele>
        <time>2009-05-22T08:26:29Z</time>
      </trkpt>
      <trkpt lat="44.14496" lon="5.34048">
        <ele>1363.2445068359</ele>
        <time>2009-05-22T08:26:39Z</time>
      </trkpt>
      <trkpt lat="44.1451" lon="5.34037">
        <ele>1365.5261230469</ele>
        <time>2009-05-22T08:26:47Z</time>
      </trkpt>
      <trkpt lat="44.14528" lon="5.34031">
        <ele>1368.9146728516</ele>
        <time>2009-05-22T08:26:56Z</time>
      </trkpt>
      <trkpt lat="44.14547" lon="5.34026">
        <ele>1372.1156005859</ele>
        <time>2009-05-22T08:27:06Z</time>
      </trkpt>
      <trkpt lat="44.14562" lon="5.34023">
        <ele>1373.4685058594</ele>
        <time>2009-05-22T08:27:15Z</time>
      </trkpt>
      <trkpt lat="44.14574" lon="5.3402">
        <ele>1373.623046875</ele>
        <time>2009-05-22T08:27:23Z</time>
      </trkpt>
      <trkpt lat="44.1458" lon="5.34016">
        <ele>1373.18359375</ele>
        <time>2009-05-22T08:27:28Z</time>
      </trkpt>
      <trkpt lat="44.14584" lon="5.34012">
        <ele>1372.5274658203</ele>
        <time>2009-05-22T08:27:31Z</time>
      </trkpt>
      <trkpt lat="44.14593" lon="5.34007">
        <ele>1373.0573730469</ele>
        <time>2009-05-22T08:27:39Z</time>
      </trkpt>
      <trkpt lat="44.14598" lon="5.34005">
        <ele>1373.5776367188</ele>
        <time>2009-05-22T08:27:43Z</time>
      </trkpt>
      <trkpt lat="44.14602" lon="5.34003">
        <ele>1373.9577636719</ele>
        <time>2009-05-22T08:27:46Z</time>
      </trkpt>
      <trkpt lat="44.14613" lon="5.34003">
        <ele>1375.9608154297</ele>
        <time>2009-05-22T08:27:55Z</time>
      </trkpt>
      <trkpt lat="44.14621" lon="5.34003">
        <ele>1377.1384277344</ele>
        <time>2009-05-22T08:28:01Z</time>
      </trkpt>
      <trkpt lat="44.1463" lon="5.34002">
        <ele>1378.6555175781</ele>
        <time>2009-05-22T08:28:08Z</time>
      </trkpt>
      <trkpt lat="44.14631" lon="5.34002">
        <ele>1378.8743896484</ele>
        <time>2009-05-22T08:28:09Z</time>
      </trkpt>
      <trkpt lat="44.14639" lon="5.34">
        <ele>1380.0955810547</ele>
        <time>2009-05-22T08:28:15Z</time>
      </trkpt>
      <trkpt lat="44.14642" lon="5.34001">
        <ele>1380.4200439453</ele>
        <time>2009-05-22T08:28:17Z</time>
      </trkpt>
      <trkpt lat="44.1465" lon="5.34013">
        <ele>1382.5932617188</ele>
        <time>2009-05-22T08:28:25Z</time>
      </trkpt>
      <trkpt lat="44.14656" lon="5.34034">
        <ele>1385.3454589844</ele>
        <time>2009-05-22T08:28:34Z</time>
      </trkpt>
      <trkpt lat="44.14661" lon="5.34047">
        <ele>1386.7805175781</ele>
        <time>2009-05-22T08:28:41Z</time>
      </trkpt>
      <trkpt lat="44.14662" lon="5.34049">
        <ele>1387.0139160156</ele>
        <time>2009-05-22T08:28:44Z</time>
      </trkpt>
      <trkpt lat="44.14665" lon="5.34054">
        <ele>1387.6628417969</ele>
        <time>2009-05-22T08:30:52Z</time>
      </trkpt>
      <trkpt lat="44.1467" lon="5.34061">
        <ele>1389.0385742188</ele>
        <time>2009-05-22T08:30:56Z</time>
      </trkpt>
      <trkpt lat="44.14673" lon="5.34065">
        <ele>1389.8076171875</ele>
        <time>2009-05-22T08:30:58Z</time>
      </trkpt>
      <trkpt lat="44.14683" lon="5.34077">
        <ele>1392.4890136719</ele>
        <time>2009-05-22T08:31:05Z</time>
      </trkpt>
      <trkpt lat="44.14696" lon="5.3409">
        <ele>1394.5378417969</ele>
        <time>2009-05-22T08:31:12Z</time>
      </trkpt>
      <trkpt lat="44.14706" lon="5.341">
        <ele>1396.1899414062</ele>
        <time>2009-05-22T08:31:18Z</time>
      </trkpt>
      <trkpt lat="44.14717" lon="5.3411">
        <ele>1398.4559326172</ele>
        <time>2009-05-22T08:31:24Z</time>
      </trkpt>
      <trkpt lat="44.14726" lon="5.34116">
        <ele>1399.1206054688</ele>
        <time>2009-05-22T08:31:29Z</time>
      </trkpt>
      <trkpt lat="44.14741" lon="5.34121">
        <ele>1398.5747070312</ele>
        <time>2009-05-22T08:31:36Z</time>
      </trkpt>
      <trkpt lat="44.14759" lon="5.34119">
        <ele>1399.2578125</ele>
        <time>2009-05-22T08:31:44Z</time>
      </trkpt>
      <trkpt lat="44.14775" lon="5.34115">
        <ele>1400.1641845703</ele>
        <time>2009-05-22T08:31:52Z</time>
      </trkpt>
      <trkpt lat="44.14785" lon="5.34112">
        <ele>1400.7458496094</ele>
        <time>2009-05-22T08:31:57Z</time>
      </trkpt>
      <trkpt lat="44.14798" lon="5.34109">
        <ele>1401</ele>
        <time>2009-05-22T08:32:04Z</time>
      </trkpt>
      <trkpt lat="44.14809" lon="5.34105">
        <ele>1401.1356201172</ele>
        <time>2009-05-22T08:32:09Z</time>
      </trkpt>
      <trkpt lat="44.14822" lon="5.341">
        <ele>1401.8439941406</ele>
        <time>2009-05-22T08:32:16Z</time>
      </trkpt>
      <trkpt lat="44.14833" lon="5.34097">
        <ele>1402.5238037109</ele>
        <time>2009-05-22T08:32:22Z</time>
      </trkpt>
      <trkpt lat="44.14847" lon="5.34091">
        <ele>1403.0854492188</ele>
        <time>2009-05-22T08:32:29Z</time>
      </trkpt>
      <trkpt lat="44.14857" lon="5.34085">
        <ele>1403.7836914062</ele>
        <time>2009-05-22T08:32:35Z</time>
      </trkpt>
      <trkpt lat="44.14868" lon="5.3408">
        <ele>1404.9451904297</ele>
        <time>2009-05-22T08:32:40Z</time>
      </trkpt>
      <trkpt lat="44.14879" lon="5.34074">
        <ele>1406.4660644531</ele>
        <time>2009-05-22T08:32:47Z</time>
      </trkpt>
      <trkpt lat="44.14892" lon="5.34068">
        <ele>1408.4710693359</ele>
        <time>2009-05-22T08:32:55Z</time>
      </trkpt>
      <trkpt lat="44.14903" lon="5.34062">
        <ele>1410.7613525391</ele>
        <time>2009-05-22T08:33:03Z</time>
      </trkpt>
      <trkpt lat="44.14911" lon="5.34057">
        <ele>1412.7495117188</ele>
        <time>2009-05-22T08:33:09Z</time>
      </trkpt>
      <trkpt lat="44.14922" lon="5.34052">
        <ele>1414.5545654297</ele>
        <time>2009-05-22T08:33:18Z</time>
      </trkpt>
      <trkpt lat="44.14932" lon="5.34047">
        <ele>1415.3029785156</ele>
        <time>2009-05-22T08:33:26Z</time>
      </trkpt>
      <trkpt lat="44.14942" lon="5.34042">
        <ele>1415.9689941406</ele>
        <time>2009-05-22T08:33:34Z</time>
      </trkpt>
      <trkpt lat="44.14949" lon="5.34039">
        <ele>1416.3811035156</ele>
        <time>2009-05-22T08:33:41Z</time>
      </trkpt>
      <trkpt lat="44.1496" lon="5.34032">
        <ele>1417.3629150391</ele>
        <time>2009-05-22T08:33:50Z</time>
      </trkpt>
      <trkpt lat="44.14962" lon="5.34031">
        <ele>1417.5208740234</ele>
        <time>2009-05-22T08:33:51Z</time>
      </trkpt>
      <trkpt lat="44.14973" lon="5.34026">
        <ele>1418.3328857422</ele>
        <time>2009-05-22T08:34:00Z</time>
      </trkpt>
      <trkpt lat="44.14981" lon="5.34023">
        <ele>1419.3510742188</ele>
        <time>2009-05-22T08:34:06Z</time>
      </trkpt>
      <trkpt lat="44.1499" lon="5.34022">
        <ele>1420.2163085938</ele>
        <time>2009-05-22T08:34:14Z</time>
      </trkpt>
      <trkpt lat="44.14994" lon="5.34022">
        <ele>1420.6190185547</ele>
        <time>2009-05-22T08:34:17Z</time>
      </trkpt>
      <trkpt lat="44.15001" lon="5.34021">
        <ele>1421.4627685547</ele>
        <time>2009-05-22T08:34:24Z</time>
      </trkpt>
      <trkpt lat="44.15011" lon="5.34021">
        <ele>1423.3941650391</ele>
        <time>2009-05-22T08:34:32Z</time>
      </trkpt>
      <trkpt lat="44.15014" lon="5.34022">
        <ele>1423.9610595703</ele>
        <time>2009-05-22T08:34:35Z</time>
      </trkpt>
      <trkpt lat="44.15028" lon="5.34024">
        <ele>1425.5543212891</ele>
        <time>2009-05-22T08:34:44Z</time>
      </trkpt>
      <trkpt lat="44.15033" lon="5.34027">
        <ele>1425.5227050781</ele>
        <time>2009-05-22T08:34:48Z</time>
      </trkpt>
      <trkpt lat="44.15043" lon="5.34026">
        <ele>1427.8088378906</ele>
        <time>2009-05-22T08:34:56Z</time>
      </trkpt>
      <trkpt lat="44.15045" lon="5.34027">
        <ele>1427.8706054688</ele>
        <time>2009-05-22T08:34:58Z</time>
      </trkpt>
      <trkpt lat="44.15052" lon="5.34029">
        <ele>1429.1176757812</ele>
        <time>2009-05-22T08:35:05Z</time>
      </trkpt>
      <trkpt lat="44.15053" lon="5.34029">
        <ele>1429.1383056641</ele>
        <time>2009-05-22T08:35:06Z</time>
      </trkpt>
      <trkpt lat="44.15063" lon="5.3403">
        <ele>1430.9558105469</ele>
        <time>2009-05-22T08:35:16Z</time>
      </trkpt>
      <trkpt lat="44.15071" lon="5.34033">
        <ele>1432.0208740234</ele>
        <time>2009-05-22T08:35:23Z</time>
      </trkpt>
      <trkpt lat="44.1508" lon="5.34035">
        <ele>1433.2611083984</ele>
        <time>2009-05-22T08:35:29Z</time>
      </trkpt>
      <trkpt lat="44.15088" lon="5.34035">
        <ele>1434.7496337891</ele>
        <time>2009-05-22T08:35:35Z</time>
      </trkpt>
      <trkpt lat="44.15095" lon="5.34033">
        <ele>1436.3034667969</ele>
        <time>2009-05-22T08:35:41Z</time>
      </trkpt>
      <trkpt lat="44.15105" lon="5.34033">
        <ele>1437.7664794922</ele>
        <time>2009-05-22T08:35:47Z</time>
      </trkpt>
      <trkpt lat="44.15113" lon="5.34034">
        <ele>1438.7401123047</ele>
        <time>2009-05-22T08:35:52Z</time>
      </trkpt>
      <trkpt lat="44.15126" lon="5.34035">
        <ele>1438.5954589844</ele>
        <time>2009-05-22T08:36:00Z</time>
      </trkpt>
      <trkpt lat="44.15132" lon="5.34034">
        <ele>1438.8229980469</ele>
        <time>2009-05-22T08:36:06Z</time>
      </trkpt>
      <trkpt lat="44.15133" lon="5.34034">
        <ele>1438.8081054688</ele>
        <time>2009-05-22T08:36:07Z</time>
      </trkpt>
      <trkpt lat="44.15136" lon="5.34031">
        <ele>1439.3709716797</ele>
        <time>2009-05-22T08:36:31Z</time>
      </trkpt>
      <trkpt lat="44.15131" lon="5.34032">
        <ele>1439.1063232422</ele>
        <time>2009-05-22T08:36:36Z</time>
      </trkpt>
      <trkpt lat="44.15126" lon="5.34031">
        <ele>1439.2894287109</ele>
        <time>2009-05-22T08:37:01Z</time>
      </trkpt>
      <trkpt lat="44.15111" lon="5.34032">
        <ele>1439.0548095703</ele>
        <time>2009-05-22T08:37:07Z</time>
      </trkpt>
      <trkpt lat="44.15094" lon="5.34031">
        <ele>1436.6688232422</ele>
        <time>2009-05-22T08:37:13Z</time>
      </trkpt>
      <trkpt lat="44.15077" lon="5.34032">
        <ele>1433.3177490234</ele>
        <time>2009-05-22T08:37:19Z</time>
      </trkpt>
      <trkpt lat="44.15066" lon="5.34027">
        <ele>1432.453125</ele>
        <time>2009-05-22T08:37:24Z</time>
      </trkpt>
      <trkpt lat="44.1506" lon="5.34026">
        <ele>1431.6287841797</ele>
        <time>2009-05-22T08:37:26Z</time>
      </trkpt>
      <trkpt lat="44.15055" lon="5.34034">
        <ele>1428.5306396484</ele>
        <time>2009-05-22T08:37:31Z</time>
      </trkpt>
      <trkpt lat="44.15058" lon="5.34039">
        <ele>1428.0141601562</ele>
        <time>2009-05-22T08:37:33Z</time>
      </trkpt>
      <trkpt lat="44.15071" lon="5.34054">
        <ele>1426.7697753906</ele>
        <time>2009-05-22T08:37:40Z</time>
      </trkpt>
      <trkpt lat="44.15087" lon="5.34066">
        <ele>1425.0218505859</ele>
        <time>2009-05-22T08:37:47Z</time>
      </trkpt>
      <trkpt lat="44.151" lon="5.34075">
        <ele>1424.7471923828</ele>
        <time>2009-05-22T08:37:54Z</time>
      </trkpt>
      <trkpt lat="44.15115" lon="5.34082">
        <ele>1424.6320800781</ele>
        <time>2009-05-22T08:38:00Z</time>
      </trkpt>
      <trkpt lat="44.15134" lon="5.34092">
        <ele>1423.7526855469</ele>
        <time>2009-05-22T08:38:08Z</time>
      </trkpt>
      <trkpt lat="44.15144" lon="5.34098">
        <ele>1423.7628173828</ele>
        <time>2009-05-22T08:38:13Z</time>
      </trkpt>
      <trkpt lat="44.15165" lon="5.34109">
        <ele>1426.1420898438</ele>
        <time>2009-05-22T08:38:20Z</time>
      </trkpt>
      <trkpt lat="44.15185" lon="5.3412">
        <ele>1425.8420410156</ele>
        <time>2009-05-22T08:38:25Z</time>
      </trkpt>
      <trkpt lat="44.1521" lon="5.34129">
        <ele>1425.6708984375</ele>
        <time>2009-05-22T08:38:31Z</time>
      </trkpt>
      <trkpt lat="44.15214" lon="5.34131">
        <ele>1425.7464599609</ele>
        <time>2009-05-22T08:38:32Z</time>
      </trkpt>
      <trkpt lat="44.15245" lon="5.34139">
        <ele>1426.4487304688</ele>
        <time>2009-05-22T08:38:39Z</time>
      </trkpt>
      <trkpt lat="44.1527" lon="5.34147">
        <ele>1422.0554199219</ele>
        <time>2009-05-22T08:38:46Z</time>
      </trkpt>
      <trkpt lat="44.153" lon="5.34153">
        <ele>1419.4329833984</ele>
        <time>2009-05-22T08:38:53Z</time>
      </trkpt>
      <trkpt lat="44.1532" lon="5.34151">
        <ele>1420.1436767578</ele>
        <time>2009-05-22T08:38:58Z</time>
      </trkpt>
      <trkpt lat="44.15339" lon="5.34147">
        <ele>1420.7540283203</ele>
        <time>2009-05-22T08:39:04Z</time>
      </trkpt>
      <trkpt lat="44.15364" lon="5.34138">
        <ele>1419.6767578125</ele>
        <time>2009-05-22T08:39:11Z</time>
      </trkpt>
      <trkpt lat="44.15393" lon="5.34122">
        <ele>1420.3582763672</ele>
        <time>2009-05-22T08:39:18Z</time>
      </trkpt>
      <trkpt lat="44.15424" lon="5.34104">
        <ele>1421.6700439453</ele>
        <time>2009-05-22T08:39:25Z</time>
      </trkpt>
      <trkpt lat="44.15448" lon="5.34093">
        <ele>1422.0269775391</ele>
        <time>2009-05-22T08:39:31Z</time>
      </trkpt>
      <trkpt lat="44.15471" lon="5.34084">
        <ele>1420.1900634766</ele>
        <time>2009-05-22T08:39:38Z</time>
      </trkpt>
      <trkpt lat="44.15497" lon="5.34073">
        <ele>1425.490234375</ele>
        <time>2009-05-22T08:39:45Z</time>
      </trkpt>
      <trkpt lat="44.15528" lon="5.34065">
        <ele>1425.5936279297</ele>
        <time>2009-05-22T08:39:52Z</time>
      </trkpt>
      <trkpt lat="44.15551" lon="5.34064">
        <ele>1429.8177490234</ele>
        <time>2009-05-22T08:39:58Z</time>
      </trkpt>
      <trkpt lat="44.15574" lon="5.34073">
        <ele>1428.6112060547</ele>
        <time>2009-05-22T08:40:04Z</time>
      </trkpt>
      <trkpt lat="44.15591" lon="5.34084">
        <ele>1427.2205810547</ele>
        <time>2009-05-22T08:40:09Z</time>
      </trkpt>
      <trkpt lat="44.15593" lon="5.34086">
        <ele>1426.9296875</ele>
        <time>2009-05-22T08:40:12Z</time>
      </trkpt>
      <trkpt lat="44.15593" lon="5.34096">
        <ele>1422.7922363281</ele>
        <time>2009-05-22T08:41:05Z</time>
      </trkpt>
      <trkpt lat="44.15594" lon="5.34097">
        <ele>1422.4827880859</ele>
        <time>2009-05-22T08:41:06Z</time>
      </trkpt>
      <trkpt lat="44.156" lon="5.34104">
        <ele>1420.8713378906</ele>
        <time>2009-05-22T08:41:10Z</time>
      </trkpt>
      <trkpt lat="44.15612" lon="5.34124">
        <ele>1413.6204833984</ele>
        <time>2009-05-22T08:41:17Z</time>
      </trkpt>
      <trkpt lat="44.15631" lon="5.34153">
        <ele>1408.9188232422</ele>
        <time>2009-05-22T08:41:25Z</time>
      </trkpt>
      <trkpt lat="44.15647" lon="5.34173">
        <ele>1407.7075195312</ele>
        <time>2009-05-22T08:41:31Z</time>
      </trkpt>
      <trkpt lat="44.15661" lon="5.34194">
        <ele>1407.9747314453</ele>
        <time>2009-05-22T08:41:37Z</time>
      </trkpt>
      <trkpt lat="44.15676" lon="5.34213">
        <ele>1405.3094482422</ele>
        <time>2009-05-22T08:41:43Z</time>
      </trkpt>
      <trkpt lat="44.1568" lon="5.34217">
        <ele>1405.1240234375</ele>
        <time>2009-05-22T08:41:44Z</time>
      </trkpt>
      <trkpt lat="44.15704" lon="5.34236">
        <ele>1406.6906738281</ele>
        <time>2009-05-22T08:41:51Z</time>
      </trkpt>
      <trkpt lat="44.15727" lon="5.3425">
        <ele>1409.4777832031</ele>
        <time>2009-05-22T08:41:58Z</time>
      </trkpt>
      <trkpt lat="44.15751" lon="5.34265">
        <ele>1409.7738037109</ele>
        <time>2009-05-22T08:42:04Z</time>
      </trkpt>
      <trkpt lat="44.1576" lon="5.3427">
        <ele>1408.8879394531</ele>
        <time>2009-05-22T08:42:06Z</time>
      </trkpt>
      <trkpt lat="44.15783" lon="5.34284">
        <ele>1407.1530761719</ele>
        <time>2009-05-22T08:42:11Z</time>
      </trkpt>
      <trkpt lat="44.15796" lon="5.34292">
        <ele>1407.1677246094</ele>
        <time>2009-05-22T08:42:14Z</time>
      </trkpt>
      <trkpt lat="44.15818" lon="5.34305">
        <ele>1407.5560302734</ele>
        <time>2009-05-22T08:42:19Z</time>
      </trkpt>
      <trkpt lat="44.15842" lon="5.34322">
        <ele>1409.5620117188</ele>
        <time>2009-05-22T08:42:25Z</time>
      </trkpt>
      <trkpt lat="44.15863" lon="5.34336">
        <ele>1411.5450439453</ele>
        <time>2009-05-22T08:42:30Z</time>
      </trkpt>
      <trkpt lat="44.15884" lon="5.34348">
        <ele>1410.7021484375</ele>
        <time>2009-05-22T08:42:35Z</time>
      </trkpt>
      <trkpt lat="44.15911" lon="5.34366">
        <ele>1410.0234375</ele>
        <time>2009-05-22T08:42:41Z</time>
      </trkpt>
      <trkpt lat="44.15944" lon="5.34386">
        <ele>1409.5423583984</ele>
        <time>2009-05-22T08:42:48Z</time>
      </trkpt>
      <trkpt lat="44.15974" lon="5.34406">
        <ele>1408.2938232422</ele>
        <time>2009-05-22T08:42:55Z</time>
      </trkpt>
      <trkpt lat="44.15982" lon="5.3441">
        <ele>1407.4118652344</ele>
        <time>2009-05-22T08:42:57Z</time>
      </trkpt>
      <trkpt lat="44.15991" lon="5.34415">
        <ele>1406.7022705078</ele>
        <time>2009-05-22T08:42:59Z</time>
      </trkpt>
      <trkpt lat="44.16023" lon="5.34431">
        <ele>1403.5130615234</ele>
        <time>2009-05-22T08:43:06Z</time>
      </trkpt>
      <trkpt lat="44.16044" lon="5.3444">
        <ele>1402.8314208984</ele>
        <time>2009-05-22T08:43:10Z</time>
      </trkpt>
      <trkpt lat="44.16059" lon="5.34445">
        <ele>1402.57421875</ele>
        <time>2009-05-22T08:43:13Z</time>
      </trkpt>
      <trkpt lat="44.16069" lon="5.34449">
        <ele>1400.7135009766</ele>
        <time>2009-05-22T08:43:15Z</time>
      </trkpt>
      <trkpt lat="44.16085" lon="5.34448">
        <ele>1399.1048583984</ele>
        <time>2009-05-22T08:43:19Z</time>
      </trkpt>
      <trkpt lat="44.16088" lon="5.34445">
        <ele>1399.2213134766</ele>
        <time>2009-05-22T08:43:21Z</time>
      </trkpt>
      <trkpt lat="44.16088" lon="5.34445">
        <ele>1399.2114257812</ele>
        <time>2009-05-22T08:43:23Z</time>
      </trkpt>
      <trkpt lat="44.16095" lon="5.34454">
        <ele>1396.7492675781</ele>
        <time>2009-05-22T08:45:31Z</time>
      </trkpt>
      <trkpt lat="44.16098" lon="5.34462">
        <ele>1395.1090087891</ele>
        <time>2009-05-22T08:45:33Z</time>
      </trkpt>
      <trkpt lat="44.16104" lon="5.34462">
        <ele>1394.2716064453</ele>
        <time>2009-05-22T08:45:37Z</time>
      </trkpt>
      <trkpt lat="44.16104" lon="5.34457">
        <ele>1395.0865478516</ele>
        <time>2009-05-22T08:45:39Z</time>
      </trkpt>
      <trkpt lat="44.16103" lon="5.34454">
        <ele>1395.6712646484</ele>
        <time>2009-05-22T08:45:42Z</time>
      </trkpt>
      <trkpt lat="44.16102" lon="5.34448">
        <ele>1396.7418212891</ele>
        <time>2009-05-22T08:45:47Z</time>
      </trkpt>
      <trkpt lat="44.161" lon="5.34443">
        <ele>1397.8815917969</ele>
        <time>2009-05-22T08:45:53Z</time>
      </trkpt>
      <trkpt lat="44.16099" lon="5.34433">
        <ele>1400.1749267578</ele>
        <time>2009-05-22T08:52:22Z</time>
      </trkpt>
      <trkpt lat="44.161" lon="5.3442">
        <ele>1402.9284667969</ele>
        <time>2009-05-22T08:52:26Z</time>
      </trkpt>
      <trkpt lat="44.16101" lon="5.34414">
        <ele>1404.0141601562</ele>
        <time>2009-05-22T08:52:28Z</time>
      </trkpt>
      <trkpt lat="44.16101" lon="5.34407">
        <ele>1405.2888183594</ele>
        <time>2009-05-22T08:52:32Z</time>
      </trkpt>
      <trkpt lat="44.16101" lon="5.34401">
        <ele>1406.4271240234</ele>
        <time>2009-05-22T08:52:48Z</time>
      </trkpt>
      <trkpt lat="44.16102" lon="5.344">
        <ele>1406.4560546875</ele>
        <time>2009-05-22T08:52:49Z</time>
      </trkpt>
      <trkpt lat="44.16104" lon="5.34399">
        <ele>1406.2855224609</ele>
        <time>2009-05-22T08:52:55Z</time>
      </trkpt>
      <trkpt lat="44.16106" lon="5.34398">
        <ele>1406.28125</ele>
        <time>2009-05-22T08:52:58Z</time>
      </trkpt>
      <trkpt lat="44.16112" lon="5.3438">
        <ele>1407.5753173828</ele>
        <time>2009-05-22T08:53:08Z</time>
      </trkpt>
      <trkpt lat="44.16113" lon="5.34377">
        <ele>1407.4049072266</ele>
        <time>2009-05-22T08:53:09Z</time>
      </trkpt>
      <trkpt lat="44.16123" lon="5.34355">
        <ele>1406.1125488281</ele>
        <time>2009-05-22T08:53:16Z</time>
      </trkpt>
      <trkpt lat="44.16131" lon="5.34339">
        <ele>1403.6634521484</ele>
        <time>2009-05-22T08:53:20Z</time>
      </trkpt>
      <trkpt lat="44.16137" lon="5.34325">
        <ele>1401.2520751953</ele>
        <time>2009-05-22T08:53:25Z</time>
      </trkpt>
      <trkpt lat="44.16142" lon="5.34312">
        <ele>1398.6868896484</ele>
        <time>2009-05-22T08:53:30Z</time>
      </trkpt>
      <trkpt lat="44.16146" lon="5.343">
        <ele>1398.1138916016</ele>
        <time>2009-05-22T08:53:34Z</time>
      </trkpt>
      <trkpt lat="44.16153" lon="5.34286">
        <ele>1397.8666992188</ele>
        <time>2009-05-22T08:53:39Z</time>
      </trkpt>
      <trkpt lat="44.16164" lon="5.34269">
        <ele>1396.3149414062</ele>
        <time>2009-05-22T08:53:45Z</time>
      </trkpt>
      <trkpt lat="44.16171" lon="5.34256">
        <ele>1395.8054199219</ele>
        <time>2009-05-22T08:53:49Z</time>
      </trkpt>
      <trkpt lat="44.16177" lon="5.34249">
        <ele>1395.1822509766</ele>
        <time>2009-05-22T08:53:54Z</time>
      </trkpt>
      <trkpt lat="44.16191" lon="5.34237">
        <ele>1392.078125</ele>
        <time>2009-05-22T08:54:01Z</time>
      </trkpt>
      <trkpt lat="44.16193" lon="5.34237">
        <ele>1391.5463867188</ele>
        <time>2009-05-22T08:54:02Z</time>
      </trkpt>
      <trkpt lat="44.162" lon="5.34229">
        <ele>1389.8305664062</ele>
        <time>2009-05-22T08:54:08Z</time>
      </trkpt>
      <trkpt lat="44.16208" lon="5.34221">
        <ele>1388.388671875</ele>
        <time>2009-05-22T08:54:12Z</time>
      </trkpt>
      <trkpt lat="44.16214" lon="5.34209">
        <ele>1390.10546875</ele>
        <time>2009-05-22T08:54:17Z</time>
      </trkpt>
      <trkpt lat="44.16218" lon="5.34199">
        <ele>1392.7406005859</ele>
        <time>2009-05-22T08:54:21Z</time>
      </trkpt>
      <trkpt lat="44.1622" lon="5.34196">
        <ele>1393.1282958984</ele>
        <time>2009-05-22T08:54:24Z</time>
      </trkpt>
      <trkpt lat="44.1623" lon="5.34184">
        <ele>1391.1417236328</ele>
        <time>2009-05-22T08:54:31Z</time>
      </trkpt>
      <trkpt lat="44.16232" lon="5.3418">
        <ele>1390.7801513672</ele>
        <time>2009-05-22T08:54:35Z</time>
      </trkpt>
      <trkpt lat="44.16232" lon="5.34179">
        <ele>1390.8858642578</ele>
        <time>2009-05-22T08:54:37Z</time>
      </trkpt>
      <trkpt lat="44.16235" lon="5.34175">
        <ele>1390.0498046875</ele>
        <time>2009-05-22T08:54:44Z</time>
      </trkpt>
      <trkpt lat="44.16241" lon="5.3417">
        <ele>1387.9133300781</ele>
        <time>2009-05-22T08:54:48Z</time>
      </trkpt>
      <trkpt lat="44.16249" lon="5.34163">
        <ele>1386.1716308594</ele>
        <time>2009-05-22T08:54:53Z</time>
      </trkpt>
      <trkpt lat="44.16253" lon="5.34161">
        <ele>1383.1905517578</ele>
        <time>2009-05-22T08:54:57Z</time>
      </trkpt>
      <trkpt lat="44.16257" lon="5.34154">
        <ele>1380.1281738281</ele>
        <time>2009-05-22T08:55:06Z</time>
      </trkpt>
      <trkpt lat="44.16257" lon="5.34153">
        <ele>1379.8178710938</ele>
        <time>2009-05-22T08:55:08Z</time>
      </trkpt>
      <trkpt lat="44.16261" lon="5.34147">
        <ele>1377.1616210938</ele>
        <time>2009-05-22T08:55:15Z</time>
      </trkpt>
      <trkpt lat="44.16264" lon="5.34142">
        <ele>1375.4732666016</ele>
        <time>2009-05-22T08:55:19Z</time>
      </trkpt>
      <trkpt lat="44.16267" lon="5.34139">
        <ele>1373.0876464844</ele>
        <time>2009-05-22T08:55:23Z</time>
      </trkpt>
      <trkpt lat="44.16269" lon="5.34134">
        <ele>1371.9075927734</ele>
        <time>2009-05-22T08:55:35Z</time>
      </trkpt>
      <trkpt lat="44.16269" lon="5.34134">
        <ele>1371.9899902344</ele>
        <time>2009-05-22T08:55:36Z</time>
      </trkpt>
      <trkpt lat="44.16272" lon="5.34126">
        <ele>1369.6689453125</ele>
        <time>2009-05-22T08:55:48Z</time>
      </trkpt>
      <trkpt lat="44.16275" lon="5.3412">
        <ele>1368.5201416016</ele>
        <time>2009-05-22T08:55:52Z</time>
      </trkpt>
      <trkpt lat="44.16276" lon="5.34116">
        <ele>1368.6805419922</ele>
        <time>2009-05-22T08:55:55Z</time>
      </trkpt>
      <trkpt lat="44.1628" lon="5.34103">
        <ele>1368.302734375</ele>
        <time>2009-05-22T08:56:01Z</time>
      </trkpt>
      <trkpt lat="44.16281" lon="5.34099">
        <ele>1368.3706054688</ele>
        <time>2009-05-22T08:56:04Z</time>
      </trkpt>
      <trkpt lat="44.16282" lon="5.34095">
        <ele>1368.9113769531</ele>
        <time>2009-05-22T08:56:08Z</time>
      </trkpt>
      <trkpt lat="44.16283" lon="5.34093">
        <ele>1368.693359375</ele>
        <time>2009-05-22T08:56:10Z</time>
      </trkpt>
      <trkpt lat="44.16284" lon="5.34087">
        <ele>1369.2340087891</ele>
        <time>2009-05-22T08:56:14Z</time>
      </trkpt>
      <trkpt lat="44.16288" lon="5.34073">
        <ele>1370.7608642578</ele>
        <time>2009-05-22T08:56:20Z</time>
      </trkpt>
      <trkpt lat="44.1629" lon="5.34064">
        <ele>1373.2108154297</ele>
        <time>2009-05-22T08:56:24Z</time>
      </trkpt>
      <trkpt lat="44.16293" lon="5.3405">
        <ele>1376.02734375</ele>
        <time>2009-05-22T08:56:29Z</time>
      </trkpt>
      <trkpt lat="44.16296" lon="5.34036">
        <ele>1377.3654785156</ele>
        <time>2009-05-22T08:56:35Z</time>
      </trkpt>
      <trkpt lat="44.16297" lon="5.34034">
        <ele>1377.6967773438</ele>
        <time>2009-05-22T08:56:37Z</time>
      </trkpt>
      <trkpt lat="44.16298" lon="5.34022">
        <ele>1380.8143310547</ele>
        <time>2009-05-22T08:56:43Z</time>
      </trkpt>
      <trkpt lat="44.16298" lon="5.3402">
        <ele>1381.6168212891</ele>
        <time>2009-05-22T08:56:46Z</time>
      </trkpt>
      <trkpt lat="44.16299" lon="5.34013">
        <ele>1383.2014160156</ele>
        <time>2009-05-22T08:56:51Z</time>
      </trkpt>
      <trkpt lat="44.16302" lon="5.33999">
        <ele>1386.4349365234</ele>
        <time>2009-05-22T08:56:56Z</time>
      </trkpt>
      <trkpt lat="44.16303" lon="5.33992">
        <ele>1383.9909667969</ele>
        <time>2009-05-22T08:57:00Z</time>
      </trkpt>
      <trkpt lat="44.16304" lon="5.33991">
        <ele>1383.5816650391</ele>
        <time>2009-05-22T08:57:01Z</time>
      </trkpt>
      <trkpt lat="44.16307" lon="5.33978">
        <ele>1377.9741210938</ele>
        <time>2009-05-22T08:57:07Z</time>
      </trkpt>
      <trkpt lat="44.16308" lon="5.3397">
        <ele>1374.8885498047</ele>
        <time>2009-05-22T08:57:12Z</time>
      </trkpt>
      <trkpt lat="44.16309" lon="5.33969">
        <ele>1374.2102050781</ele>
        <time>2009-05-22T08:57:13Z</time>
      </trkpt>
      <trkpt lat="44.16307" lon="5.33957">
        <ele>1374.6640625</ele>
        <time>2009-05-22T08:57:19Z</time>
      </trkpt>
      <trkpt lat="44.16307" lon="5.33956">
        <ele>1374.0900878906</ele>
        <time>2009-05-22T08:57:20Z</time>
      </trkpt>
      <trkpt lat="44.16304" lon="5.33946">
        <ele>1375.3695068359</ele>
        <time>2009-05-22T08:57:25Z</time>
      </trkpt>
      <trkpt lat="44.16301" lon="5.33938">
        <ele>1376.8218994141</ele>
        <time>2009-05-22T08:57:30Z</time>
      </trkpt>
      <trkpt lat="44.16298" lon="5.33932">
        <ele>1379.4847412109</ele>
        <time>2009-05-22T08:57:44Z</time>
      </trkpt>
      <trkpt lat="44.16294" lon="5.33924">
        <ele>1381.0629882812</ele>
        <time>2009-05-22T08:57:49Z</time>
      </trkpt>
      <trkpt lat="44.16286" lon="5.33911">
        <ele>1387.109375</ele>
        <time>2009-05-22T08:57:55Z</time>
      </trkpt>
      <trkpt lat="44.16286" lon="5.3391">
        <ele>1387.775390625</ele>
        <time>2009-05-22T08:57:56Z</time>
      </trkpt>
      <trkpt lat="44.16281" lon="5.33901">
        <ele>1391.27734375</ele>
        <time>2009-05-22T08:58:02Z</time>
      </trkpt>
      <trkpt lat="44.16277" lon="5.33893">
        <ele>1394.1312255859</ele>
        <time>2009-05-22T08:58:06Z</time>
      </trkpt>
      <trkpt lat="44.16271" lon="5.33885">
        <ele>1395.0035400391</ele>
        <time>2009-05-22T08:58:12Z</time>
      </trkpt>
      <trkpt lat="44.1627" lon="5.33881">
        <ele>1394.6292724609</ele>
        <time>2009-05-22T08:58:16Z</time>
      </trkpt>
      <trkpt lat="44.16269" lon="5.33875">
        <ele>1393.4858398438</ele>
        <time>2009-05-22T08:58:23Z</time>
      </trkpt>
      <trkpt lat="44.16264" lon="5.33862">
        <ele>1393.1079101562</ele>
        <time>2009-05-22T08:58:28Z</time>
      </trkpt>
      <trkpt lat="44.16259" lon="5.33851">
        <ele>1394.88671875</ele>
        <time>2009-05-22T08:58:32Z</time>
      </trkpt>
      <trkpt lat="44.16252" lon="5.3384">
        <ele>1398.7778320312</ele>
        <time>2009-05-22T08:58:36Z</time>
      </trkpt>
      <trkpt lat="44.16254" lon="5.33829">
        <ele>1396.5622558594</ele>
        <time>2009-05-22T08:58:42Z</time>
      </trkpt>
      <trkpt lat="44.16254" lon="5.33819">
        <ele>1396.9594726562</ele>
        <time>2009-05-22T08:58:46Z</time>
      </trkpt>
      <trkpt lat="44.16256" lon="5.338">
        <ele>1393.9807128906</ele>
        <time>2009-05-22T08:58:52Z</time>
      </trkpt>
      <trkpt lat="44.16258" lon="5.33785">
        <ele>1391.0769042969</ele>
        <time>2009-05-22T08:58:57Z</time>
      </trkpt>
      <trkpt lat="44.16261" lon="5.33773">
        <ele>1386.6281738281</ele>
        <time>2009-05-22T08:59:02Z</time>
      </trkpt>
      <trkpt lat="44.16262" lon="5.33766">
        <ele>1384.6926269531</ele>
        <time>2009-05-22T08:59:05Z</time>
      </trkpt>
      <trkpt lat="44.16264" lon="5.33756">
        <ele>1381.4318847656</ele>
        <time>2009-05-22T08:59:10Z</time>
      </trkpt>
      <trkpt lat="44.16265" lon="5.33748">
        <ele>1378.9438476562</ele>
        <time>2009-05-22T08:59:15Z</time>
      </trkpt>
      <trkpt lat="44.1627" lon="5.33737">
        <ele>1370.40625</ele>
        <time>2009-05-22T08:59:21Z</time>
      </trkpt>
      <trkpt lat="44.1627" lon="5.33728">
        <ele>1367.91796875</ele>
        <time>2009-05-22T08:59:27Z</time>
      </trkpt>
      <trkpt lat="44.1627" lon="5.33728">
        <ele>1367.8221435547</ele>
        <time>2009-05-22T08:59:28Z</time>
      </trkpt>
      <trkpt lat="44.1627" lon="5.3372">
        <ele>1366.6146240234</ele>
        <time>2009-05-22T08:59:34Z</time>
      </trkpt>
      <trkpt lat="44.1627" lon="5.33712">
        <ele>1363.9858398438</ele>
        <time>2009-05-22T08:59:39Z</time>
      </trkpt>
      <trkpt lat="44.1627" lon="5.3371">
        <ele>1363.4528808594</ele>
        <time>2009-05-22T08:59:40Z</time>
      </trkpt>
      <trkpt lat="44.1627" lon="5.337">
        <ele>1361.9200439453</ele>
        <time>2009-05-22T08:59:44Z</time>
      </trkpt>
      <trkpt lat="44.16264" lon="5.33681">
        <ele>1365.7158203125</ele>
        <time>2009-05-22T08:59:52Z</time>
      </trkpt>
      <trkpt lat="44.16263" lon="5.3368">
        <ele>1365.9853515625</ele>
        <time>2009-05-22T08:59:54Z</time>
      </trkpt>
      <trkpt lat="44.1626" lon="5.33667">
        <ele>1367.3387451172</ele>
        <time>2009-05-22T09:01:35Z</time>
      </trkpt>
      <trkpt lat="44.1626" lon="5.33666">
        <ele>1367.5698242188</ele>
        <time>2009-05-22T09:01:36Z</time>
      </trkpt>
      <trkpt lat="44.16252" lon="5.33654">
        <ele>1373.3569335938</ele>
        <time>2009-05-22T09:01:44Z</time>
      </trkpt>
      <trkpt lat="44.16244" lon="5.3364">
        <ele>1376.2026367188</ele>
        <time>2009-05-22T09:01:50Z</time>
      </trkpt>
      <trkpt lat="44.16239" lon="5.33636">
        <ele>1379.3637695312</ele>
        <time>2009-05-22T09:01:55Z</time>
      </trkpt>
      <trkpt lat="44.16238" lon="5.33635">
        <ele>1379.8255615234</ele>
        <time>2009-05-22T09:01:59Z</time>
      </trkpt>
      <trkpt lat="44.16238" lon="5.33634">
        <ele>1380.359375</ele>
        <time>2009-05-22T09:02:00Z</time>
      </trkpt>
      <trkpt lat="44.16235" lon="5.33632">
        <ele>1382.330078125</ele>
        <time>2009-05-22T09:02:05Z</time>
      </trkpt>
      <trkpt lat="44.16232" lon="5.33629">
        <ele>1384.7864990234</ele>
        <time>2009-05-22T09:02:10Z</time>
      </trkpt>
      <trkpt lat="44.16228" lon="5.33623">
        <ele>1386.0808105469</ele>
        <time>2009-05-22T09:02:17Z</time>
      </trkpt>
      <trkpt lat="44.16222" lon="5.33615">
        <ele>1390.154296875</ele>
        <time>2009-05-22T09:02:23Z</time>
      </trkpt>
      <trkpt lat="44.16214" lon="5.33606">
        <ele>1391.4942626953</ele>
        <time>2009-05-22T09:02:27Z</time>
      </trkpt>
      <trkpt lat="44.16207" lon="5.33598">
        <ele>1393.2452392578</ele>
        <time>2009-05-22T09:02:32Z</time>
      </trkpt>
      <trkpt lat="44.16207" lon="5.33598">
        <ele>1393.3780517578</ele>
        <time>2009-05-22T09:02:34Z</time>
      </trkpt>
      <trkpt lat="44.16199" lon="5.33584">
        <ele>1396.3603515625</ele>
        <time>2009-05-22T09:02:47Z</time>
      </trkpt>
      <trkpt lat="44.16191" lon="5.33575">
        <ele>1400.1602783203</ele>
        <time>2009-05-22T09:02:53Z</time>
      </trkpt>
      <trkpt lat="44.16185" lon="5.33569">
        <ele>1401.4566650391</ele>
        <time>2009-05-22T09:02:58Z</time>
      </trkpt>
      <trkpt lat="44.16182" lon="5.33564">
        <ele>1401.9782714844</ele>
        <time>2009-05-22T09:03:03Z</time>
      </trkpt>
      <trkpt lat="44.16172" lon="5.33554">
        <ele>1404.9576416016</ele>
        <time>2009-05-22T09:03:09Z</time>
      </trkpt>
      <trkpt lat="44.16168" lon="5.33551">
        <ele>1406.4606933594</ele>
        <time>2009-05-22T09:03:13Z</time>
      </trkpt>
      <trkpt lat="44.16158" lon="5.3354">
        <ele>1409.1097412109</ele>
        <time>2009-05-22T09:03:19Z</time>
      </trkpt>
      <trkpt lat="44.16155" lon="5.33522">
        <ele>1410.67578125</ele>
        <time>2009-05-22T09:03:23Z</time>
      </trkpt>
      <trkpt lat="44.16158" lon="5.33516">
        <ele>1410.6649169922</ele>
        <time>2009-05-22T09:03:25Z</time>
      </trkpt>
      <trkpt lat="44.16162" lon="5.3351">
        <ele>1410.1059570312</ele>
        <time>2009-05-22T09:03:27Z</time>
      </trkpt>
      <trkpt lat="44.16171" lon="5.33502">
        <ele>1408.6375732422</ele>
        <time>2009-05-22T09:03:33Z</time>
      </trkpt>
      <trkpt lat="44.1617" lon="5.33502">
        <ele>1408.8093261719</ele>
        <time>2009-05-22T09:03:35Z</time>
      </trkpt>
      <trkpt lat="44.16165" lon="5.33498">
        <ele>1410.6545410156</ele>
        <time>2009-05-22T09:04:16Z</time>
      </trkpt>
      <trkpt lat="44.16166" lon="5.33496">
        <ele>1410.4031982422</ele>
        <time>2009-05-22T09:04:17Z</time>
      </trkpt>
      <trkpt lat="44.16175" lon="5.33487">
        <ele>1408.5484619141</ele>
        <time>2009-05-22T09:04:22Z</time>
      </trkpt>
      <trkpt lat="44.16192" lon="5.3347">
        <ele>1404.9923095703</ele>
        <time>2009-05-22T09:04:29Z</time>
      </trkpt>
      <trkpt lat="44.16193" lon="5.33468">
        <ele>1404.7485351562</ele>
        <time>2009-05-22T09:04:30Z</time>
      </trkpt>
      <trkpt lat="44.16198" lon="5.33465">
        <ele>1404.1864013672</ele>
        <time>2009-05-22T09:04:33Z</time>
      </trkpt>
      <trkpt lat="44.16201" lon="5.33463">
        <ele>1404.0628662109</ele>
        <time>2009-05-22T09:04:34Z</time>
      </trkpt>
      <trkpt lat="44.16214" lon="5.33452">
        <ele>1403.3470458984</ele>
        <time>2009-05-22T09:04:40Z</time>
      </trkpt>
      <trkpt lat="44.1622" lon="5.33445">
        <ele>1403.1942138672</ele>
        <time>2009-05-22T09:04:45Z</time>
      </trkpt>
      <trkpt lat="44.16225" lon="5.33441">
        <ele>1400.7333984375</ele>
        <time>2009-05-22T09:04:54Z</time>
      </trkpt>
      <trkpt lat="44.16231" lon="5.33434">
        <ele>1397.7025146484</ele>
        <time>2009-05-22T09:04:59Z</time>
      </trkpt>
      <trkpt lat="44.16236" lon="5.33426">
        <ele>1396.1840820312</ele>
        <time>2009-05-22T09:05:04Z</time>
      </trkpt>
      <trkpt lat="44.16241" lon="5.33421">
        <ele>1395.2362060547</ele>
        <time>2009-05-22T09:05:10Z</time>
      </trkpt>
      <trkpt lat="44.16244" lon="5.33418">
        <ele>1395.0301513672</ele>
        <time>2009-05-22T09:05:15Z</time>
      </trkpt>
      <trkpt lat="44.16252" lon="5.33408">
        <ele>1390.7816162109</ele>
        <time>2009-05-22T09:05:22Z</time>
      </trkpt>
      <trkpt lat="44.16258" lon="5.33404">
        <ele>1384.568359375</ele>
        <time>2009-05-22T09:05:27Z</time>
      </trkpt>
      <trkpt lat="44.16265" lon="5.33394">
        <ele>1375.7105712891</ele>
        <time>2009-05-22T09:05:32Z</time>
      </trkpt>
      <trkpt lat="44.16273" lon="5.33385">
        <ele>1364.2604980469</ele>
        <time>2009-05-22T09:05:37Z</time>
      </trkpt>
      <trkpt lat="44.16276" lon="5.33376">
        <ele>1357.9725341797</ele>
        <time>2009-05-22T09:05:41Z</time>
      </trkpt>
      <trkpt lat="44.16276" lon="5.33373">
        <ele>1357.2659912109</ele>
        <time>2009-05-22T09:05:42Z</time>
      </trkpt>
      <trkpt lat="44.16272" lon="5.3336">
        <ele>1357.8558349609</ele>
        <time>2009-05-22T09:05:47Z</time>
      </trkpt>
      <trkpt lat="44.16269" lon="5.3335">
        <ele>1359.0880126953</ele>
        <time>2009-05-22T09:05:51Z</time>
      </trkpt>
      <trkpt lat="44.16265" lon="5.33344">
        <ele>1361.3034667969</ele>
        <time>2009-05-22T09:05:55Z</time>
      </trkpt>
      <trkpt lat="44.16264" lon="5.33343">
        <ele>1361.7493896484</ele>
        <time>2009-05-22T09:05:57Z</time>
      </trkpt>
      <trkpt lat="44.16262" lon="5.33338">
        <ele>1363.2652587891</ele>
        <time>2009-05-22T09:06:01Z</time>
      </trkpt>
      <trkpt lat="44.16259" lon="5.33332">
        <ele>1364.8358154297</ele>
        <time>2009-05-22T09:06:06Z</time>
      </trkpt>
      <trkpt lat="44.16256" lon="5.33324">
        <ele>1364.3734130859</ele>
        <time>2009-05-22T09:06:12Z</time>
      </trkpt>
      <trkpt lat="44.16253" lon="5.33321">
        <ele>1366.21484375</ele>
        <time>2009-05-22T09:06:18Z</time>
      </trkpt>
      <trkpt lat="44.1625" lon="5.33315">
        <ele>1365.8260498047</ele>
        <time>2009-05-22T09:06:28Z</time>
      </trkpt>
      <trkpt lat="44.16246" lon="5.33309">
        <ele>1366.8835449219</ele>
        <time>2009-05-22T09:06:33Z</time>
      </trkpt>
      <trkpt lat="44.1624" lon="5.33303">
        <ele>1369.8415527344</ele>
        <time>2009-05-22T09:06:37Z</time>
      </trkpt>
      <trkpt lat="44.16235" lon="5.33295">
        <ele>1371.8519287109</ele>
        <time>2009-05-22T09:06:42Z</time>
      </trkpt>
      <trkpt lat="44.16235" lon="5.33289">
        <ele>1371.5385742188</ele>
        <time>2009-05-22T09:06:49Z</time>
      </trkpt>
      <trkpt lat="44.16226" lon="5.33275">
        <ele>1376.3116455078</ele>
        <time>2009-05-22T09:06:56Z</time>
      </trkpt>
      <trkpt lat="44.16222" lon="5.3327">
        <ele>1379.9760742188</ele>
        <time>2009-05-22T09:06:59Z</time>
      </trkpt>
      <trkpt lat="44.16215" lon="5.33256">
        <ele>1385.2705078125</ele>
        <time>2009-05-22T09:07:05Z</time>
      </trkpt>
      <trkpt lat="44.16214" lon="5.33253">
        <ele>1385.6689453125</ele>
        <time>2009-05-22T09:07:06Z</time>
      </trkpt>
      <trkpt lat="44.1622" lon="5.3324">
        <ele>1384.2778320312</ele>
        <time>2009-05-22T09:07:11Z</time>
      </trkpt>
      <trkpt lat="44.16235" lon="5.33225">
        <ele>1377.8409423828</ele>
        <time>2009-05-22T09:07:16Z</time>
      </trkpt>
      <trkpt lat="44.16247" lon="5.33209">
        <ele>1372.8115234375</ele>
        <time>2009-05-22T09:07:22Z</time>
      </trkpt>
      <trkpt lat="44.16257" lon="5.33198">
        <ele>1367.2993164062</ele>
        <time>2009-05-22T09:07:26Z</time>
      </trkpt>
      <trkpt lat="44.16271" lon="5.33184">
        <ele>1360.3120117188</ele>
        <time>2009-05-22T09:07:31Z</time>
      </trkpt>
      <trkpt lat="44.16278" lon="5.33179">
        <ele>1356.5491943359</ele>
        <time>2009-05-22T09:07:34Z</time>
      </trkpt>
      <trkpt lat="44.16294" lon="5.33165">
        <ele>1350.7244873047</ele>
        <time>2009-05-22T09:07:40Z</time>
      </trkpt>
      <trkpt lat="44.16301" lon="5.3316">
        <ele>1348.4243164062</ele>
        <time>2009-05-22T09:07:45Z</time>
      </trkpt>
      <trkpt lat="44.16311" lon="5.3315">
        <ele>1343.7918701172</ele>
        <time>2009-05-22T09:07:51Z</time>
      </trkpt>
      <trkpt lat="44.16323" lon="5.33139">
        <ele>1337.3843994141</ele>
        <time>2009-05-22T09:07:57Z</time>
      </trkpt>
      <trkpt lat="44.16331" lon="5.3313">
        <ele>1332.5380859375</ele>
        <time>2009-05-22T09:08:02Z</time>
      </trkpt>
      <trkpt lat="44.16338" lon="5.33123">
        <ele>1329.7377929688</ele>
        <time>2009-05-22T09:08:06Z</time>
      </trkpt>
      <trkpt lat="44.16345" lon="5.33112">
        <ele>1328.3670654297</ele>
        <time>2009-05-22T09:08:12Z</time>
      </trkpt>
      <trkpt lat="44.16353" lon="5.33101">
        <ele>1327.2585449219</ele>
        <time>2009-05-22T09:08:18Z</time>
      </trkpt>
      <trkpt lat="44.16359" lon="5.33088">
        <ele>1326.9499511719</ele>
        <time>2009-05-22T09:08:22Z</time>
      </trkpt>
      <trkpt lat="44.16365" lon="5.33073">
        <ele>1327.1057128906</ele>
        <time>2009-05-22T09:08:27Z</time>
      </trkpt>
      <trkpt lat="44.16367" lon="5.33061">
        <ele>1328.3446044922</ele>
        <time>2009-05-22T09:08:31Z</time>
      </trkpt>
      <trkpt lat="44.16369" lon="5.33045">
        <ele>1328.9586181641</ele>
        <time>2009-05-22T09:08:36Z</time>
      </trkpt>
      <trkpt lat="44.16368" lon="5.33032">
        <ele>1330.6374511719</ele>
        <time>2009-05-22T09:08:40Z</time>
      </trkpt>
      <trkpt lat="44.16364" lon="5.33008">
        <ele>1331.8917236328</ele>
        <time>2009-05-22T09:08:46Z</time>
      </trkpt>
      <trkpt lat="44.16363" lon="5.33005">
        <ele>1332.4624023438</ele>
        <time>2009-05-22T09:08:47Z</time>
      </trkpt>
      <trkpt lat="44.16359" lon="5.32989">
        <ele>1334.1546630859</ele>
        <time>2009-05-22T09:08:52Z</time>
      </trkpt>
      <trkpt lat="44.16357" lon="5.32972">
        <ele>1335.6346435547</ele>
        <time>2009-05-22T09:08:57Z</time>
      </trkpt>
      <trkpt lat="44.16352" lon="5.32956">
        <ele>1338.4178466797</ele>
        <time>2009-05-22T09:09:01Z</time>
      </trkpt>
      <trkpt lat="44.16348" lon="5.32944">
        <ele>1341.0942382812</ele>
        <time>2009-05-22T09:09:05Z</time>
      </trkpt>
      <trkpt lat="44.16348" lon="5.32931">
        <ele>1341.0942382812</ele>
        <time>2009-05-22T09:09:09Z</time>
      </trkpt>
      <trkpt lat="44.16347" lon="5.32913">
        <ele>1342.2833251953</ele>
        <time>2009-05-22T09:09:14Z</time>
      </trkpt>
      <trkpt lat="44.16355" lon="5.32893">
        <ele>1341.8507080078</ele>
        <time>2009-05-22T09:09:20Z</time>
      </trkpt>
      <trkpt lat="44.16361" lon="5.32884">
        <ele>1341.5008544922</ele>
        <time>2009-05-22T09:09:23Z</time>
      </trkpt>
      <trkpt lat="44.1637" lon="5.32872">
        <ele>1343.2913818359</ele>
        <time>2009-05-22T09:09:28Z</time>
      </trkpt>
      <trkpt lat="44.16381" lon="5.32869">
        <ele>1340.3452148438</ele>
        <time>2009-05-22T09:09:32Z</time>
      </trkpt>
      <trkpt lat="44.16387" lon="5.32866">
        <ele>1339.2259521484</ele>
        <time>2009-05-22T09:09:36Z</time>
      </trkpt>
      <trkpt lat="44.16386" lon="5.32867">
        <ele>1338.9581298828</ele>
        <time>2009-05-22T09:09:38Z</time>
      </trkpt>
      <trkpt lat="44.16389" lon="5.3287">
        <ele>1336.43359375</ele>
        <time>2009-05-22T09:10:59Z</time>
      </trkpt>
      <trkpt lat="44.16389" lon="5.32869">
        <ele>1336.3743896484</ele>
        <time>2009-05-22T09:11:00Z</time>
      </trkpt>
      <trkpt lat="44.16393" lon="5.32868">
        <ele>1335.1126708984</ele>
        <time>2009-05-22T09:11:06Z</time>
      </trkpt>
      <trkpt lat="44.16404" lon="5.32865">
        <ele>1330.8126220703</ele>
        <time>2009-05-22T09:11:11Z</time>
      </trkpt>
      <trkpt lat="44.16406" lon="5.32864">
        <ele>1330.1688232422</ele>
        <time>2009-05-22T09:11:12Z</time>
      </trkpt>
      <trkpt lat="44.16424" lon="5.3286">
        <ele>1323.3220214844</ele>
        <time>2009-05-22T09:11:18Z</time>
      </trkpt>
      <trkpt lat="44.16438" lon="5.32851">
        <ele>1320.5032958984</ele>
        <time>2009-05-22T09:11:23Z</time>
      </trkpt>
      <trkpt lat="44.16443" lon="5.32846">
        <ele>1320.0089111328</ele>
        <time>2009-05-22T09:11:25Z</time>
      </trkpt>
      <trkpt lat="44.16453" lon="5.32843">
        <ele>1318.4005126953</ele>
        <time>2009-05-22T09:11:29Z</time>
      </trkpt>
      <trkpt lat="44.16459" lon="5.32839">
        <ele>1317.8841552734</ele>
        <time>2009-05-22T09:11:32Z</time>
      </trkpt>
      <trkpt lat="44.16473" lon="5.32834">
        <ele>1315.3850097656</ele>
        <time>2009-05-22T09:11:37Z</time>
      </trkpt>
      <trkpt lat="44.16489" lon="5.32827">
        <ele>1310.7684326172</ele>
        <time>2009-05-22T09:11:42Z</time>
      </trkpt>
      <trkpt lat="44.16499" lon="5.32821">
        <ele>1308.4357910156</ele>
        <time>2009-05-22T09:11:46Z</time>
      </trkpt>
      <trkpt lat="44.16508" lon="5.32814">
        <ele>1306.2803955078</ele>
        <time>2009-05-22T09:11:51Z</time>
      </trkpt>
      <trkpt lat="44.16519" lon="5.32804">
        <ele>1304.1755371094</ele>
        <time>2009-05-22T09:11:57Z</time>
      </trkpt>
      <trkpt lat="44.16524" lon="5.32787">
        <ele>1301.6942138672</ele>
        <time>2009-05-22T09:12:03Z</time>
      </trkpt>
      <trkpt lat="44.16524" lon="5.32776">
        <ele>1301.4328613281</ele>
        <time>2009-05-22T09:12:07Z</time>
      </trkpt>
      <trkpt lat="44.16524" lon="5.32765">
        <ele>1301.3240966797</ele>
        <time>2009-05-22T09:12:11Z</time>
      </trkpt>
      <trkpt lat="44.16515" lon="5.32736">
        <ele>1301.5545654297</ele>
        <time>2009-05-22T09:12:18Z</time>
      </trkpt>
      <trkpt lat="44.16507" lon="5.32718">
        <ele>1302.2797851562</ele>
        <time>2009-05-22T09:12:23Z</time>
      </trkpt>
      <trkpt lat="44.16508" lon="5.32716">
        <ele>1301.7679443359</ele>
        <time>2009-05-22T09:12:24Z</time>
      </trkpt>
      <trkpt lat="44.16503" lon="5.327">
        <ele>1303.4488525391</ele>
        <time>2009-05-22T09:12:29Z</time>
      </trkpt>
      <trkpt lat="44.165" lon="5.32694">
        <ele>1305.1968994141</ele>
        <time>2009-05-22T09:12:31Z</time>
      </trkpt>
      <trkpt lat="44.16494" lon="5.32675">
        <ele>1315.1424560547</ele>
        <time>2009-05-22T09:12:37Z</time>
      </trkpt>
      <trkpt lat="44.16493" lon="5.32672">
        <ele>1316.4515380859</ele>
        <time>2009-05-22T09:12:38Z</time>
      </trkpt>
      <trkpt lat="44.16489" lon="5.32661">
        <ele>1321.7712402344</ele>
        <time>2009-05-22T09:12:42Z</time>
      </trkpt>
      <trkpt lat="44.16489" lon="5.32651">
        <ele>1323.0706787109</ele>
        <time>2009-05-22T09:12:46Z</time>
      </trkpt>
      <trkpt lat="44.16487" lon="5.3264">
        <ele>1326.0969238281</ele>
        <time>2009-05-22T09:12:50Z</time>
      </trkpt>
      <trkpt lat="44.16494" lon="5.3263">
        <ele>1324.3289794922</ele>
        <time>2009-05-22T09:12:54Z</time>
      </trkpt>
      <trkpt lat="44.16501" lon="5.3262">
        <ele>1322.1687011719</ele>
        <time>2009-05-22T09:13:00Z</time>
      </trkpt>
      <trkpt lat="44.16508" lon="5.32614">
        <ele>1319.0444335938</ele>
        <time>2009-05-22T09:13:05Z</time>
      </trkpt>
      <trkpt lat="44.16514" lon="5.32606">
        <ele>1317.6267089844</ele>
        <time>2009-05-22T09:13:09Z</time>
      </trkpt>
      <trkpt lat="44.16517" lon="5.32602">
        <ele>1316.3598632812</ele>
        <time>2009-05-22T09:13:14Z</time>
      </trkpt>
      <trkpt lat="44.1652" lon="5.326">
        <ele>1315.4638671875</ele>
        <time>2009-05-22T09:13:21Z</time>
      </trkpt>
      <trkpt lat="44.16521" lon="5.32599">
        <ele>1314.6535644531</ele>
        <time>2009-05-22T09:13:24Z</time>
      </trkpt>
      <trkpt lat="44.16526" lon="5.32595">
        <ele>1312.6383056641</ele>
        <time>2009-05-22T09:13:35Z</time>
      </trkpt>
      <trkpt lat="44.1653" lon="5.3259">
        <ele>1311.7436523438</ele>
        <time>2009-05-22T09:13:38Z</time>
      </trkpt>
      <trkpt lat="44.16534" lon="5.32582">
        <ele>1311.4206542969</ele>
        <time>2009-05-22T09:13:42Z</time>
      </trkpt>
      <trkpt lat="44.1654" lon="5.32572">
        <ele>1308.2569580078</ele>
        <time>2009-05-22T09:13:48Z</time>
      </trkpt>
      <trkpt lat="44.16547" lon="5.32561">
        <ele>1305.0366210938</ele>
        <time>2009-05-22T09:13:54Z</time>
      </trkpt>
      <trkpt lat="44.1655" lon="5.32551">
        <ele>1303.3801269531</ele>
        <time>2009-05-22T09:13:58Z</time>
      </trkpt>
      <trkpt lat="44.16552" lon="5.32531">
        <ele>1301.6719970703</ele>
        <time>2009-05-22T09:14:05Z</time>
      </trkpt>
      <trkpt lat="44.16552" lon="5.32518">
        <ele>1301.3835449219</ele>
        <time>2009-05-22T09:14:11Z</time>
      </trkpt>
      <trkpt lat="44.1655" lon="5.32505">
        <ele>1302.3723144531</ele>
        <time>2009-05-22T09:14:17Z</time>
      </trkpt>
      <trkpt lat="44.16548" lon="5.32491">
        <ele>1303.1137695312</ele>
        <time>2009-05-22T09:14:23Z</time>
      </trkpt>
      <trkpt lat="44.16544" lon="5.32479">
        <ele>1304.8493652344</ele>
        <time>2009-05-22T09:14:29Z</time>
      </trkpt>
      <trkpt lat="44.16544" lon="5.3247">
        <ele>1304.4454345703</ele>
        <time>2009-05-22T09:14:33Z</time>
      </trkpt>
      <trkpt lat="44.16541" lon="5.3246">
        <ele>1304.5056152344</ele>
        <time>2009-05-22T09:14:37Z</time>
      </trkpt>
      <trkpt lat="44.16539" lon="5.32449">
        <ele>1304.1811523438</ele>
        <time>2009-05-22T09:14:42Z</time>
      </trkpt>
      <trkpt lat="44.16537" lon="5.32436">
        <ele>1306.3046875</ele>
        <time>2009-05-22T09:14:47Z</time>
      </trkpt>
      <trkpt lat="44.16536" lon="5.32426">
        <ele>1308.9456787109</ele>
        <time>2009-05-22T09:14:51Z</time>
      </trkpt>
      <trkpt lat="44.16537" lon="5.32416">
        <ele>1309.7540283203</ele>
        <time>2009-05-22T09:14:55Z</time>
      </trkpt>
      <trkpt lat="44.16537" lon="5.32411">
        <ele>1311.3436279297</ele>
        <time>2009-05-22T09:14:59Z</time>
      </trkpt>
      <trkpt lat="44.16534" lon="5.32405">
        <ele>1314.9459228516</ele>
        <time>2009-05-22T09:15:12Z</time>
      </trkpt>
      <trkpt lat="44.16534" lon="5.32396">
        <ele>1316.5814208984</ele>
        <time>2009-05-22T09:15:39Z</time>
      </trkpt>
      <trkpt lat="44.16534" lon="5.32389">
        <ele>1318.8850097656</ele>
        <time>2009-05-22T09:15:45Z</time>
      </trkpt>
      <trkpt lat="44.16534" lon="5.32388">
        <ele>1318.3974609375</ele>
        <time>2009-05-22T09:15:46Z</time>
      </trkpt>
      <trkpt lat="44.16531" lon="5.32381">
        <ele>1322.3488769531</ele>
        <time>2009-05-22T09:15:58Z</time>
      </trkpt>
      <trkpt lat="44.16527" lon="5.32375">
        <ele>1327.1716308594</ele>
        <time>2009-05-22T09:16:05Z</time>
      </trkpt>
      <trkpt lat="44.16526" lon="5.32372">
        <ele>1328.1287841797</ele>
        <time>2009-05-22T09:16:12Z</time>
      </trkpt>
      <trkpt lat="44.16532" lon="5.32369">
        <ele>1324.5467529297</ele>
        <time>2009-05-22T09:16:45Z</time>
      </trkpt>
      <trkpt lat="44.16552" lon="5.3236">
        <ele>1311.4278564453</ele>
        <time>2009-05-22T09:16:55Z</time>
      </trkpt>
      <trkpt lat="44.16563" lon="5.3235">
        <ele>1307.6634521484</ele>
        <time>2009-05-22T09:17:00Z</time>
      </trkpt>
      <trkpt lat="44.16573" lon="5.32347">
        <ele>1302.5678710938</ele>
        <time>2009-05-22T09:17:05Z</time>
      </trkpt>
      <trkpt lat="44.16581" lon="5.32344">
        <ele>1298.6741943359</ele>
        <time>2009-05-22T09:17:09Z</time>
      </trkpt>
      <trkpt lat="44.16585" lon="5.32342">
        <ele>1297.3970947266</ele>
        <time>2009-05-22T09:17:13Z</time>
      </trkpt>
      <trkpt lat="44.16587" lon="5.3234">
        <ele>1297.3736572266</ele>
        <time>2009-05-22T09:17:16Z</time>
      </trkpt>
      <trkpt lat="44.16588" lon="5.32339">
        <ele>1297.3455810547</ele>
        <time>2009-05-22T09:17:19Z</time>
      </trkpt>
      <trkpt lat="44.16598" lon="5.32336">
        <ele>1295.9200439453</ele>
        <time>2009-05-22T09:17:26Z</time>
      </trkpt>
      <trkpt lat="44.16602" lon="5.32336">
        <ele>1295.3236083984</ele>
        <time>2009-05-22T09:17:29Z</time>
      </trkpt>
      <trkpt lat="44.16613" lon="5.32332">
        <ele>1293.2403564453</ele>
        <time>2009-05-22T09:17:37Z</time>
      </trkpt>
      <trkpt lat="44.16617" lon="5.3233">
        <ele>1291.8464355469</ele>
        <time>2009-05-22T09:17:41Z</time>
      </trkpt>
      <trkpt lat="44.16624" lon="5.32328">
        <ele>1288.3410644531</ele>
        <time>2009-05-22T09:17:45Z</time>
      </trkpt>
      <trkpt lat="44.16638" lon="5.32322">
        <ele>1282.8170166016</ele>
        <time>2009-05-22T09:17:50Z</time>
      </trkpt>
      <trkpt lat="44.16653" lon="5.32315">
        <ele>1275.2979736328</ele>
        <time>2009-05-22T09:17:54Z</time>
      </trkpt>
      <trkpt lat="44.16666" lon="5.32311">
        <ele>1267.3739013672</ele>
        <time>2009-05-22T09:18:00Z</time>
      </trkpt>
      <trkpt lat="44.1667" lon="5.3231">
        <ele>1266.0217285156</ele>
        <time>2009-05-22T09:18:03Z</time>
      </trkpt>
      <trkpt lat="44.16672" lon="5.3231">
        <ele>1264.953125</ele>
        <time>2009-05-22T09:18:05Z</time>
      </trkpt>
      <trkpt lat="44.1668" lon="5.32304">
        <ele>1262.7844238281</ele>
        <time>2009-05-22T09:18:12Z</time>
      </trkpt>
      <trkpt lat="44.16689" lon="5.32293">
        <ele>1260.1016845703</ele>
        <time>2009-05-22T09:18:17Z</time>
      </trkpt>
      <trkpt lat="44.16689" lon="5.32293">
        <ele>1259.9923095703</ele>
        <time>2009-05-22T09:18:18Z</time>
      </trkpt>
      <trkpt lat="44.16692" lon="5.32283">
        <ele>1260.5262451172</ele>
        <time>2009-05-22T09:19:07Z</time>
      </trkpt>
      <trkpt lat="44.16691" lon="5.32272">
        <ele>1260.783203125</ele>
        <time>2009-05-22T09:19:12Z</time>
      </trkpt>
      <trkpt lat="44.1669" lon="5.32262">
        <ele>1259.8276367188</ele>
        <time>2009-05-22T09:19:18Z</time>
      </trkpt>
      <trkpt lat="44.16689" lon="5.32256">
        <ele>1259.1343994141</ele>
        <time>2009-05-22T09:19:34Z</time>
      </trkpt>
      <trkpt lat="44.16689" lon="5.32256">
        <ele>1259.1343994141</ele>
        <time>2009-05-22T09:19:35Z</time>
      </trkpt>
      <trkpt lat="44.16686" lon="5.32245">
        <ele>1259.3660888672</ele>
        <time>2009-05-22T09:19:44Z</time>
      </trkpt>
      <trkpt lat="44.16684" lon="5.32236">
        <ele>1259.7780761719</ele>
        <time>2009-05-22T09:19:48Z</time>
      </trkpt>
      <trkpt lat="44.16682" lon="5.32234">
        <ele>1260.2004394531</ele>
        <time>2009-05-22T09:19:49Z</time>
      </trkpt>
      <trkpt lat="44.16677" lon="5.32222">
        <ele>1262.2346191406</ele>
        <time>2009-05-22T09:19:54Z</time>
      </trkpt>
      <trkpt lat="44.16669" lon="5.32204">
        <ele>1264.8552246094</ele>
        <time>2009-05-22T09:19:59Z</time>
      </trkpt>
      <trkpt lat="44.16666" lon="5.32195">
        <ele>1265.8503417969</ele>
        <time>2009-05-22T09:20:03Z</time>
      </trkpt>
      <trkpt lat="44.16664" lon="5.32192">
        <ele>1267.3366699219</ele>
        <time>2009-05-22T09:20:04Z</time>
      </trkpt>
      <trkpt lat="44.16659" lon="5.32181">
        <ele>1271.0428466797</ele>
        <time>2009-05-22T09:20:08Z</time>
      </trkpt>
      <trkpt lat="44.16658" lon="5.32179">
        <ele>1271.5887451172</ele>
        <time>2009-05-22T09:20:09Z</time>
      </trkpt>
      <trkpt lat="44.16653" lon="5.32171">
        <ele>1275.1094970703</ele>
        <time>2009-05-22T09:20:15Z</time>
      </trkpt>
      <trkpt lat="44.16653" lon="5.3217">
        <ele>1275.3790283203</ele>
        <time>2009-05-22T09:20:16Z</time>
      </trkpt>
      <trkpt lat="44.16649" lon="5.32164">
        <ele>1278.3682861328</ele>
        <time>2009-05-22T09:20:21Z</time>
      </trkpt>
      <trkpt lat="44.16643" lon="5.32153">
        <ele>1283.0520019531</ele>
        <time>2009-05-22T09:20:28Z</time>
      </trkpt>
      <trkpt lat="44.1664" lon="5.32146">
        <ele>1285.2969970703</ele>
        <time>2009-05-22T09:20:34Z</time>
      </trkpt>
      <trkpt lat="44.16636" lon="5.32142">
        <ele>1288.0815429688</ele>
        <time>2009-05-22T09:20:39Z</time>
      </trkpt>
      <trkpt lat="44.16634" lon="5.32137">
        <ele>1289.6462402344</ele>
        <time>2009-05-22T09:20:45Z</time>
      </trkpt>
      <trkpt lat="44.16633" lon="5.32132">
        <ele>1289.9840087891</ele>
        <time>2009-05-22T09:20:49Z</time>
      </trkpt>
      <trkpt lat="44.16627" lon="5.32121">
        <ele>1293.9645996094</ele>
        <time>2009-05-22T09:20:54Z</time>
      </trkpt>
      <trkpt lat="44.16628" lon="5.32105">
        <ele>1293.6302490234</ele>
        <time>2009-05-22T09:20:58Z</time>
      </trkpt>
      <trkpt lat="44.16634" lon="5.32096">
        <ele>1291.3533935547</ele>
        <time>2009-05-22T09:21:03Z</time>
      </trkpt>
      <trkpt lat="44.16635" lon="5.32093">
        <ele>1290.9268798828</ele>
        <time>2009-05-22T09:21:05Z</time>
      </trkpt>
      <trkpt lat="44.16645" lon="5.32084">
        <ele>1284.4759521484</ele>
        <time>2009-05-22T09:21:11Z</time>
      </trkpt>
      <trkpt lat="44.16656" lon="5.32071">
        <ele>1277.8162841797</ele>
        <time>2009-05-22T09:21:17Z</time>
      </trkpt>
      <trkpt lat="44.16665" lon="5.3206">
        <ele>1271.5458984375</ele>
        <time>2009-05-22T09:21:22Z</time>
      </trkpt>
      <trkpt lat="44.16674" lon="5.3205">
        <ele>1268.6226806641</ele>
        <time>2009-05-22T09:21:27Z</time>
      </trkpt>
      <trkpt lat="44.1668" lon="5.32038">
        <ele>1267.6624755859</ele>
        <time>2009-05-22T09:21:32Z</time>
      </trkpt>
      <trkpt lat="44.16682" lon="5.32027">
        <ele>1268.3243408203</ele>
        <time>2009-05-22T09:21:38Z</time>
      </trkpt>
      <trkpt lat="44.16683" lon="5.32019">
        <ele>1268.9461669922</ele>
        <time>2009-05-22T09:21:44Z</time>
      </trkpt>
      <trkpt lat="44.16683" lon="5.32007">
        <ele>1270.6867675781</ele>
        <time>2009-05-22T09:21:52Z</time>
      </trkpt>
      <trkpt lat="44.16682" lon="5.32002">
        <ele>1271.484375</ele>
        <time>2009-05-22T09:21:57Z</time>
      </trkpt>
      <trkpt lat="44.16681" lon="5.31989">
        <ele>1274.1925048828</ele>
        <time>2009-05-22T09:22:03Z</time>
      </trkpt>
      <trkpt lat="44.16681" lon="5.31986">
        <ele>1274.6868896484</ele>
        <time>2009-05-22T09:22:04Z</time>
      </trkpt>
      <trkpt lat="44.16677" lon="5.31969">
        <ele>1278.8544921875</ele>
        <time>2009-05-22T09:22:11Z</time>
      </trkpt>
      <trkpt lat="44.16675" lon="5.31956">
        <ele>1280.7333984375</ele>
        <time>2009-05-22T09:22:16Z</time>
      </trkpt>
      <trkpt lat="44.1667" lon="5.31941">
        <ele>1283.4536132812</ele>
        <time>2009-05-22T09:22:21Z</time>
      </trkpt>
      <trkpt lat="44.16667" lon="5.3193">
        <ele>1285.9768066406</ele>
        <time>2009-05-22T09:22:25Z</time>
      </trkpt>
      <trkpt lat="44.16663" lon="5.31917">
        <ele>1291.4035644531</ele>
        <time>2009-05-22T09:22:29Z</time>
      </trkpt>
      <trkpt lat="44.16657" lon="5.31898">
        <ele>1299.2348632812</ele>
        <time>2009-05-22T09:22:36Z</time>
      </trkpt>
      <trkpt lat="44.16657" lon="5.31898">
        <ele>1299.2506103516</ele>
        <time>2009-05-22T09:22:37Z</time>
      </trkpt>
      <trkpt lat="44.16657" lon="5.31891">
        <ele>1299.322265625</ele>
        <time>2009-05-22T09:22:51Z</time>
      </trkpt>
      <trkpt lat="44.16655" lon="5.31887">
        <ele>1301.36328125</ele>
        <time>2009-05-22T09:22:56Z</time>
      </trkpt>
      <trkpt lat="44.16657" lon="5.31879">
        <ele>1300.0551757812</ele>
        <time>2009-05-22T09:23:03Z</time>
      </trkpt>
      <trkpt lat="44.16657" lon="5.31877">
        <ele>1300.4300537109</ele>
        <time>2009-05-22T09:23:06Z</time>
      </trkpt>
      <trkpt lat="44.16656" lon="5.31873">
        <ele>1301.4816894531</ele>
        <time>2009-05-22T09:23:13Z</time>
      </trkpt>
      <trkpt lat="44.16657" lon="5.31872">
        <ele>1300.7384033203</ele>
        <time>2009-05-22T09:23:16Z</time>
      </trkpt>
      <trkpt lat="44.1666" lon="5.31867">
        <ele>1298.9382324219</ele>
        <time>2009-05-22T09:23:24Z</time>
      </trkpt>
      <trkpt lat="44.1666" lon="5.31866">
        <ele>1298.7438964844</ele>
        <time>2009-05-22T09:23:27Z</time>
      </trkpt>
      <trkpt lat="44.16664" lon="5.31863">
        <ele>1296.7000732422</ele>
        <time>2009-05-22T09:23:33Z</time>
      </trkpt>
      <trkpt lat="44.16666" lon="5.3186">
        <ele>1295.55078125</ele>
        <time>2009-05-22T09:23:35Z</time>
      </trkpt>
      <trkpt lat="44.16676" lon="5.31855">
        <ele>1294.6235351562</ele>
        <time>2009-05-22T09:23:40Z</time>
      </trkpt>
      <trkpt lat="44.16682" lon="5.31852">
        <ele>1294.5567626953</ele>
        <time>2009-05-22T09:23:45Z</time>
      </trkpt>
      <trkpt lat="44.16685" lon="5.31851">
        <ele>1294.2749023438</ele>
        <time>2009-05-22T09:23:51Z</time>
      </trkpt>
      <trkpt lat="44.16687" lon="5.3185">
        <ele>1294.2741699219</ele>
        <time>2009-05-22T09:23:55Z</time>
      </trkpt>
      <trkpt lat="44.16691" lon="5.31849">
        <ele>1294.0590820312</ele>
        <time>2009-05-22T09:23:59Z</time>
      </trkpt>
      <trkpt lat="44.16701" lon="5.31841">
        <ele>1293.5114746094</ele>
        <time>2009-05-22T09:24:06Z</time>
      </trkpt>
      <trkpt lat="44.16707" lon="5.31836">
        <ele>1292.9229736328</ele>
        <time>2009-05-22T09:24:12Z</time>
      </trkpt>
      <trkpt lat="44.1671" lon="5.31832">
        <ele>1292.5700683594</ele>
        <time>2009-05-22T09:24:18Z</time>
      </trkpt>
      <trkpt lat="44.16712" lon="5.3183">
        <ele>1292.3939208984</ele>
        <time>2009-05-22T09:24:21Z</time>
      </trkpt>
      <trkpt lat="44.16718" lon="5.31827">
        <ele>1291.2813720703</ele>
        <time>2009-05-22T09:24:26Z</time>
      </trkpt>
      <trkpt lat="44.16726" lon="5.31821">
        <ele>1286.8845214844</ele>
        <time>2009-05-22T09:24:31Z</time>
      </trkpt>
      <trkpt lat="44.16733" lon="5.31817">
        <ele>1280.3614501953</ele>
        <time>2009-05-22T09:24:37Z</time>
      </trkpt>
      <trkpt lat="44.16735" lon="5.31815">
        <ele>1278.1641845703</ele>
        <time>2009-05-22T09:24:40Z</time>
      </trkpt>
      <trkpt lat="44.1674" lon="5.31806">
        <ele>1274.2777099609</ele>
        <time>2009-05-22T09:24:47Z</time>
      </trkpt>
      <trkpt lat="44.16742" lon="5.31801">
        <ele>1273.0455322266</ele>
        <time>2009-05-22T09:24:53Z</time>
      </trkpt>
      <trkpt lat="44.16742" lon="5.318">
        <ele>1273.1748046875</ele>
        <time>2009-05-22T09:24:54Z</time>
      </trkpt>
      <trkpt lat="44.16742" lon="5.31793">
        <ele>1274.8232421875</ele>
        <time>2009-05-22T09:25:01Z</time>
      </trkpt>
      <trkpt lat="44.16742" lon="5.31782">
        <ele>1278.1533203125</ele>
        <time>2009-05-22T09:25:07Z</time>
      </trkpt>
      <trkpt lat="44.16739" lon="5.31771">
        <ele>1283.1538085938</ele>
        <time>2009-05-22T09:25:11Z</time>
      </trkpt>
      <trkpt lat="44.16737" lon="5.31755">
        <ele>1288.8701171875</ele>
        <time>2009-05-22T09:25:19Z</time>
      </trkpt>
      <trkpt lat="44.16735" lon="5.3174">
        <ele>1292.9925537109</ele>
        <time>2009-05-22T09:25:25Z</time>
      </trkpt>
      <trkpt lat="44.16734" lon="5.31734">
        <ele>1295.3837890625</ele>
        <time>2009-05-22T09:25:27Z</time>
      </trkpt>
      <trkpt lat="44.16733" lon="5.31728">
        <ele>1296.8555908203</ele>
        <time>2009-05-22T09:25:29Z</time>
      </trkpt>
      <trkpt lat="44.16731" lon="5.3172">
        <ele>1300.0487060547</ele>
        <time>2009-05-22T09:25:33Z</time>
      </trkpt>
      <trkpt lat="44.16731" lon="5.31711">
        <ele>1302.0688476562</ele>
        <time>2009-05-22T09:25:39Z</time>
      </trkpt>
      <trkpt lat="44.1673" lon="5.31705">
        <ele>1304.0155029297</ele>
        <time>2009-05-22T09:25:44Z</time>
      </trkpt>
      <trkpt lat="44.16729" lon="5.31697">
        <ele>1307.0198974609</ele>
        <time>2009-05-22T09:25:50Z</time>
      </trkpt>
      <trkpt lat="44.16728" lon="5.31686">
        <ele>1309.2864990234</ele>
        <time>2009-05-22T09:25:57Z</time>
      </trkpt>
      <trkpt lat="44.16728" lon="5.31684">
        <ele>1309.5777587891</ele>
        <time>2009-05-22T09:26:00Z</time>
      </trkpt>
      <trkpt lat="44.16727" lon="5.31679">
        <ele>1311.2471923828</ele>
        <time>2009-05-22T09:26:08Z</time>
      </trkpt>
      <trkpt lat="44.16724" lon="5.31675">
        <ele>1314.7341308594</ele>
        <time>2009-05-22T09:26:14Z</time>
      </trkpt>
      <trkpt lat="44.16722" lon="5.31671">
        <ele>1316.2821044922</ele>
        <time>2009-05-22T09:26:16Z</time>
      </trkpt>
      <trkpt lat="44.16722" lon="5.31668">
        <ele>1317.0655517578</ele>
        <time>2009-05-22T09:26:19Z</time>
      </trkpt>
      <trkpt lat="44.16719" lon="5.3166">
        <ele>1319.5461425781</ele>
        <time>2009-05-22T09:26:30Z</time>
      </trkpt>
      <trkpt lat="44.16718" lon="5.31659">
        <ele>1320.0134277344</ele>
        <time>2009-05-22T09:26:31Z</time>
      </trkpt>
      <trkpt lat="44.16718" lon="5.3165">
        <ele>1321.6240234375</ele>
        <time>2009-05-22T09:26:37Z</time>
      </trkpt>
      <trkpt lat="44.16717" lon="5.31645">
        <ele>1322.9025878906</ele>
        <time>2009-05-22T09:26:42Z</time>
      </trkpt>
      <trkpt lat="44.16716" lon="5.31641">
        <ele>1324.0106201172</ele>
        <time>2009-05-22T09:26:46Z</time>
      </trkpt>
      <trkpt lat="44.16715" lon="5.31636">
        <ele>1325.4011230469</ele>
        <time>2009-05-22T09:26:51Z</time>
      </trkpt>
      <trkpt lat="44.16715" lon="5.31628">
        <ele>1326.8795166016</ele>
        <time>2009-05-22T09:26:57Z</time>
      </trkpt>
      <trkpt lat="44.16715" lon="5.31623">
        <ele>1328.0212402344</ele>
        <time>2009-05-22T09:27:01Z</time>
      </trkpt>
      <trkpt lat="44.16714" lon="5.31622">
        <ele>1328.439453125</ele>
        <time>2009-05-22T09:27:02Z</time>
      </trkpt>
      <trkpt lat="44.1671" lon="5.31616">
        <ele>1331.2640380859</ele>
        <time>2009-05-22T09:27:08Z</time>
      </trkpt>
      <trkpt lat="44.16708" lon="5.31609">
        <ele>1333.6762695312</ele>
        <time>2009-05-22T09:27:13Z</time>
      </trkpt>
      <trkpt lat="44.16705" lon="5.31602">
        <ele>1335.8049316406</ele>
        <time>2009-05-22T09:27:19Z</time>
      </trkpt>
      <trkpt lat="44.16706" lon="5.316">
        <ele>1335.4753417969</ele>
        <time>2009-05-22T09:27:23Z</time>
      </trkpt>
      <trkpt lat="44.16706" lon="5.31599">
        <ele>1335.6744384766</ele>
        <time>2009-05-22T09:27:24Z</time>
      </trkpt>
      <trkpt lat="44.16706" lon="5.31597">
        <ele>1335.9765625</ele>
        <time>2009-05-22T09:27:28Z</time>
      </trkpt>
      <trkpt lat="44.16706" lon="5.31596">
        <ele>1335.9833984375</ele>
        <time>2009-05-22T09:27:30Z</time>
      </trkpt>
      <trkpt lat="44.16709" lon="5.31593">
        <ele>1335.2761230469</ele>
        <time>2009-05-22T09:27:36Z</time>
      </trkpt>
      <trkpt lat="44.16713" lon="5.31591">
        <ele>1334.0539550781</ele>
        <time>2009-05-22T09:27:41Z</time>
      </trkpt>
      <trkpt lat="44.16718" lon="5.31588">
        <ele>1332.0557861328</ele>
        <time>2009-05-22T09:27:49Z</time>
      </trkpt>
      <trkpt lat="44.1672" lon="5.31588">
        <ele>1331.1700439453</ele>
        <time>2009-05-22T09:27:54Z</time>
      </trkpt>
      <trkpt lat="44.16722" lon="5.31588">
        <ele>1330.1717529297</ele>
        <time>2009-05-22T09:28:03Z</time>
      </trkpt>
      <trkpt lat="44.1673" lon="5.31584">
        <ele>1325.0059814453</ele>
        <time>2009-05-22T09:28:11Z</time>
      </trkpt>
      <trkpt lat="44.1673" lon="5.31583">
        <ele>1324.7718505859</ele>
        <time>2009-05-22T09:28:12Z</time>
      </trkpt>
      <trkpt lat="44.16737" lon="5.31579">
        <ele>1320.2424316406</ele>
        <time>2009-05-22T09:28:19Z</time>
      </trkpt>
      <trkpt lat="44.16746" lon="5.31573">
        <ele>1315.1884765625</ele>
        <time>2009-05-22T09:28:28Z</time>
      </trkpt>
      <trkpt lat="44.16753" lon="5.31568">
        <ele>1312.63671875</ele>
        <time>2009-05-22T09:28:36Z</time>
      </trkpt>
      <trkpt lat="44.16757" lon="5.31566">
        <ele>1312.2896728516</ele>
        <time>2009-05-22T09:28:42Z</time>
      </trkpt>
      <trkpt lat="44.16758" lon="5.31565">
        <ele>1312.0794677734</ele>
        <time>2009-05-22T09:28:43Z</time>
      </trkpt>
      <trkpt lat="44.16763" lon="5.31561">
        <ele>1311.9252929688</ele>
        <time>2009-05-22T09:28:50Z</time>
      </trkpt>
      <trkpt lat="44.16766" lon="5.31559">
        <ele>1311.5157470703</ele>
        <time>2009-05-22T09:28:54Z</time>
      </trkpt>
      <trkpt lat="44.16777" lon="5.31551">
        <ele>1309.8597412109</ele>
        <time>2009-05-22T09:28:59Z</time>
      </trkpt>
      <trkpt lat="44.16787" lon="5.31543">
        <ele>1307.3458251953</ele>
        <time>2009-05-22T09:29:04Z</time>
      </trkpt>
      <trkpt lat="44.16792" lon="5.31527">
        <ele>1306.2916259766</ele>
        <time>2009-05-22T09:29:10Z</time>
      </trkpt>
      <trkpt lat="44.16795" lon="5.31509">
        <ele>1306.3348388672</ele>
        <time>2009-05-22T09:29:15Z</time>
      </trkpt>
      <trkpt lat="44.16795" lon="5.31494">
        <ele>1306.796875</ele>
        <time>2009-05-22T09:29:20Z</time>
      </trkpt>
      <trkpt lat="44.16794" lon="5.31475">
        <ele>1306.3170166016</ele>
        <time>2009-05-22T09:29:26Z</time>
      </trkpt>
      <trkpt lat="44.16792" lon="5.31459">
        <ele>1307.3328857422</ele>
        <time>2009-05-22T09:29:32Z</time>
      </trkpt>
      <trkpt lat="44.16791" lon="5.31454">
        <ele>1307.6322021484</ele>
        <time>2009-05-22T09:29:37Z</time>
      </trkpt>
      <trkpt lat="44.16791" lon="5.31453">
        <ele>1307.6213378906</ele>
        <time>2009-05-22T09:29:38Z</time>
      </trkpt>
      <trkpt lat="44.1679" lon="5.3145">
        <ele>1308.1423339844</ele>
        <time>2009-05-22T09:29:42Z</time>
      </trkpt>
      <trkpt lat="44.16785" lon="5.31437">
        <ele>1309.3302001953</ele>
        <time>2009-05-22T09:29:49Z</time>
      </trkpt>
      <trkpt lat="44.1678" lon="5.31423">
        <ele>1310.6588134766</ele>
        <time>2009-05-22T09:29:56Z</time>
      </trkpt>
      <trkpt lat="44.16776" lon="5.31415">
        <ele>1311.7430419922</ele>
        <time>2009-05-22T09:30:01Z</time>
      </trkpt>
      <trkpt lat="44.16774" lon="5.31412">
        <ele>1312.2526855469</ele>
        <time>2009-05-22T09:30:04Z</time>
      </trkpt>
      <trkpt lat="44.1677" lon="5.31405">
        <ele>1312.7821044922</ele>
        <time>2009-05-22T09:30:11Z</time>
      </trkpt>
      <trkpt lat="44.16763" lon="5.31387">
        <ele>1313.01171875</ele>
        <time>2009-05-22T09:30:19Z</time>
      </trkpt>
      <trkpt lat="44.16759" lon="5.31378">
        <ele>1312.2357177734</ele>
        <time>2009-05-22T09:30:24Z</time>
      </trkpt>
      <trkpt lat="44.16759" lon="5.31378">
        <ele>1312.2923583984</ele>
        <time>2009-05-22T09:30:25Z</time>
      </trkpt>
      <trkpt lat="44.16756" lon="5.31374">
        <ele>1312.7335205078</ele>
        <time>2009-05-22T09:30:30Z</time>
      </trkpt>
      <trkpt lat="44.1675" lon="5.31366">
        <ele>1313.1627197266</ele>
        <time>2009-05-22T09:30:38Z</time>
      </trkpt>
      <trkpt lat="44.16748" lon="5.31361">
        <ele>1313.6809082031</ele>
        <time>2009-05-22T09:30:44Z</time>
      </trkpt>
      <trkpt lat="44.16744" lon="5.31355">
        <ele>1316.4274902344</ele>
        <time>2009-05-22T09:30:48Z</time>
      </trkpt>
      <trkpt lat="44.16738" lon="5.31348">
        <ele>1320.8220214844</ele>
        <time>2009-05-22T09:30:54Z</time>
      </trkpt>
      <trkpt lat="44.16736" lon="5.31345">
        <ele>1322.1953125</ele>
        <time>2009-05-22T09:30:58Z</time>
      </trkpt>
      <trkpt lat="44.16734" lon="5.3134">
        <ele>1323.8432617188</ele>
        <time>2009-05-22T09:31:03Z</time>
      </trkpt>
      <trkpt lat="44.16734" lon="5.3134">
        <ele>1323.5686035156</ele>
        <time>2009-05-22T09:31:05Z</time>
      </trkpt>
      <trkpt lat="44.16726" lon="5.31329">
        <ele>1329.3571777344</ele>
        <time>2009-05-22T09:31:21Z</time>
      </trkpt>
      <trkpt lat="44.16723" lon="5.31326">
        <ele>1331.2689208984</ele>
        <time>2009-05-22T09:31:25Z</time>
      </trkpt>
      <trkpt lat="44.16719" lon="5.31321">
        <ele>1333.8608398438</ele>
        <time>2009-05-22T09:31:31Z</time>
      </trkpt>
      <trkpt lat="44.16719" lon="5.3132">
        <ele>1333.8565673828</ele>
        <time>2009-05-22T09:31:32Z</time>
      </trkpt>
      <trkpt lat="44.16715" lon="5.31315">
        <ele>1336.6086425781</ele>
        <time>2009-05-22T09:31:38Z</time>
      </trkpt>
      <trkpt lat="44.16713" lon="5.31311">
        <ele>1337.8249511719</ele>
        <time>2009-05-22T09:31:43Z</time>
      </trkpt>
      <trkpt lat="44.16714" lon="5.31311">
        <ele>1337.5697021484</ele>
        <time>2009-05-22T09:31:45Z</time>
      </trkpt>
      <trkpt lat="44.16715" lon="5.31311">
        <ele>1336.5706787109</ele>
        <time>2009-05-22T09:32:06Z</time>
      </trkpt>
      <trkpt lat="44.16709" lon="5.313">
        <ele>1340.6381835938</ele>
        <time>2009-05-22T09:32:17Z</time>
      </trkpt>
      <trkpt lat="44.16706" lon="5.31292">
        <ele>1342.1755371094</ele>
        <time>2009-05-22T09:32:23Z</time>
      </trkpt>
      <trkpt lat="44.16708" lon="5.31284">
        <ele>1340.8215332031</ele>
        <time>2009-05-22T09:32:29Z</time>
      </trkpt>
      <trkpt lat="44.16702" lon="5.31278">
        <ele>1344.6907958984</ele>
        <time>2009-05-22T09:32:35Z</time>
      </trkpt>
      <trkpt lat="44.16693" lon="5.31276">
        <ele>1349.8090820312</ele>
        <time>2009-05-22T09:32:44Z</time>
      </trkpt>
      <trkpt lat="44.16689" lon="5.31274">
        <ele>1352.0152587891</ele>
        <time>2009-05-22T09:32:48Z</time>
      </trkpt>
      <trkpt lat="44.16687" lon="5.31273">
        <ele>1352.8342285156</ele>
        <time>2009-05-22T09:32:50Z</time>
      </trkpt>
      <trkpt lat="44.16681" lon="5.31265">
        <ele>1356.3048095703</ele>
        <time>2009-05-22T09:32:59Z</time>
      </trkpt>
      <trkpt lat="44.1668" lon="5.31262">
        <ele>1357.0495605469</ele>
        <time>2009-05-22T09:33:04Z</time>
      </trkpt>
      <trkpt lat="44.1668" lon="5.31261">
        <ele>1357.2769775391</ele>
        <time>2009-05-22T09:33:05Z</time>
      </trkpt>
      <trkpt lat="44.16679" lon="5.31259">
        <ele>1357.5561523438</ele>
        <time>2009-05-22T09:33:09Z</time>
      </trkpt>
      <trkpt lat="44.16679" lon="5.31259">
        <ele>1357.7491455078</ele>
        <time>2009-05-22T09:34:45Z</time>
      </trkpt>
      <trkpt lat="44.16678" lon="5.31258">
        <ele>1358.1614990234</ele>
        <time>2009-05-22T09:34:46Z</time>
      </trkpt>
      <trkpt lat="44.16676" lon="5.31254">
        <ele>1359.2875976562</ele>
        <time>2009-05-22T09:34:51Z</time>
      </trkpt>
      <trkpt lat="44.16677" lon="5.31251">
        <ele>1359.0895996094</ele>
        <time>2009-05-22T09:34:56Z</time>
      </trkpt>
      <trkpt lat="44.1668" lon="5.31248">
        <ele>1357.7320556641</ele>
        <time>2009-05-22T09:35:03Z</time>
      </trkpt>
      <trkpt lat="44.16682" lon="5.31243">
        <ele>1356.7738037109</ele>
        <time>2009-05-22T09:35:09Z</time>
      </trkpt>
      <trkpt lat="44.16683" lon="5.31242">
        <ele>1356.6009521484</ele>
        <time>2009-05-22T09:35:10Z</time>
      </trkpt>
      <trkpt lat="44.1669" lon="5.31239">
        <ele>1353.5502929688</ele>
        <time>2009-05-22T09:35:23Z</time>
      </trkpt>
      <trkpt lat="44.1669" lon="5.31238">
        <ele>1353.2318115234</ele>
        <time>2009-05-22T09:35:24Z</time>
      </trkpt>
      <trkpt lat="44.16693" lon="5.31235">
        <ele>1352.1533203125</ele>
        <time>2009-05-22T09:35:31Z</time>
      </trkpt>
      <trkpt lat="44.16695" lon="5.31233">
        <ele>1351.2664794922</ele>
        <time>2009-05-22T09:35:35Z</time>
      </trkpt>
      <trkpt lat="44.16696" lon="5.31232">
        <ele>1350.8739013672</ele>
        <time>2009-05-22T09:35:39Z</time>
      </trkpt>
      <trkpt lat="44.167" lon="5.3123">
        <ele>1348.7156982422</ele>
        <time>2009-05-22T09:35:47Z</time>
      </trkpt>
      <trkpt lat="44.167" lon="5.3123">
        <ele>1348.7116699219</ele>
        <time>2009-05-22T09:35:48Z</time>
      </trkpt>
      <trkpt lat="44.16704" lon="5.31227">
        <ele>1346.1767578125</ele>
        <time>2009-05-22T09:36:02Z</time>
      </trkpt>
      <trkpt lat="44.16711" lon="5.3122">
        <ele>1343.1253662109</ele>
        <time>2009-05-22T09:36:09Z</time>
      </trkpt>
      <trkpt lat="44.16715" lon="5.31216">
        <ele>1342.2567138672</ele>
        <time>2009-05-22T09:36:15Z</time>
      </trkpt>
      <trkpt lat="44.16719" lon="5.31212">
        <ele>1340.8250732422</ele>
        <time>2009-05-22T09:36:21Z</time>
      </trkpt>
      <trkpt lat="44.16728" lon="5.31207">
        <ele>1337.7626953125</ele>
        <time>2009-05-22T09:36:27Z</time>
      </trkpt>
      <trkpt lat="44.16731" lon="5.31204">
        <ele>1336.9822998047</ele>
        <time>2009-05-22T09:36:29Z</time>
      </trkpt>
      <trkpt lat="44.16736" lon="5.312">
        <ele>1335.6413574219</ele>
        <time>2009-05-22T09:36:34Z</time>
      </trkpt>
      <trkpt lat="44.16745" lon="5.31193">
        <ele>1332.7962646484</ele>
        <time>2009-05-22T09:36:40Z</time>
      </trkpt>
      <trkpt lat="44.16747" lon="5.31192">
        <ele>1332.4425048828</ele>
        <time>2009-05-22T09:36:42Z</time>
      </trkpt>
      <trkpt lat="44.16749" lon="5.31188">
        <ele>1331.8913574219</ele>
        <time>2009-05-22T09:36:47Z</time>
      </trkpt>
      <trkpt lat="44.1675" lon="5.31186">
        <ele>1331.8464355469</ele>
        <time>2009-05-22T09:36:49Z</time>
      </trkpt>
      <trkpt lat="44.16755" lon="5.31181">
        <ele>1331.1879882812</ele>
        <time>2009-05-22T09:36:55Z</time>
      </trkpt>
      <trkpt lat="44.16758" lon="5.31175">
        <ele>1331.3464355469</ele>
        <time>2009-05-22T09:37:00Z</time>
      </trkpt>
      <trkpt lat="44.16764" lon="5.31166">
        <ele>1331.1694335938</ele>
        <time>2009-05-22T09:37:08Z</time>
      </trkpt>
      <trkpt lat="44.16767" lon="5.31158">
        <ele>1333.2022705078</ele>
        <time>2009-05-22T09:37:15Z</time>
      </trkpt>
      <trkpt lat="44.16768" lon="5.31146">
        <ele>1337.4263916016</ele>
        <time>2009-05-22T09:37:24Z</time>
      </trkpt>
      <trkpt lat="44.16771" lon="5.31133">
        <ele>1340.5947265625</ele>
        <time>2009-05-22T09:37:31Z</time>
      </trkpt>
      <trkpt lat="44.16771" lon="5.31132">
        <ele>1340.9888916016</ele>
        <time>2009-05-22T09:37:32Z</time>
      </trkpt>
      <trkpt lat="44.16772" lon="5.31129">
        <ele>1341.4356689453</ele>
        <time>2009-05-22T09:37:36Z</time>
      </trkpt>
      <trkpt lat="44.16772" lon="5.31121">
        <ele>1343.3098144531</ele>
        <time>2009-05-22T09:37:41Z</time>
      </trkpt>
      <trkpt lat="44.16772" lon="5.31105">
        <ele>1348.1666259766</ele>
        <time>2009-05-22T09:37:48Z</time>
      </trkpt>
      <trkpt lat="44.16772" lon="5.31102">
        <ele>1349.4022216797</ele>
        <time>2009-05-22T09:37:51Z</time>
      </trkpt>
      <trkpt lat="44.16772" lon="5.31098">
        <ele>1350.890625</ele>
        <time>2009-05-22T09:37:55Z</time>
      </trkpt>
      <trkpt lat="44.16774" lon="5.31091">
        <ele>1352.8482666016</ele>
        <time>2009-05-22T09:59:13Z</time>
      </trkpt>
      <trkpt lat="44.16774" lon="5.3109">
        <ele>1353.1656494141</ele>
        <time>2009-05-22T09:59:14Z</time>
      </trkpt>
      <trkpt lat="44.16774" lon="5.3109">
        <ele>1353.2963867188</ele>
        <time>2009-05-22T09:59:15Z</time>
      </trkpt>
      <trkpt lat="44.16772" lon="5.31087">
        <ele>1354.9302978516</ele>
        <time>2009-05-22T09:59:21Z</time>
      </trkpt>
      <trkpt lat="44.16772" lon="5.31086">
        <ele>1355.4169921875</ele>
        <time>2009-05-22T09:59:22Z</time>
      </trkpt>
      <trkpt lat="44.16771" lon="5.31086">
        <ele>1355.7178955078</ele>
        <time>2009-05-22T09:59:23Z</time>
      </trkpt>
      <trkpt lat="44.16771" lon="5.31065">
        <ele>1363.4233398438</ele>
        <time>2009-05-22T09:59:34Z</time>
      </trkpt>
      <trkpt lat="44.1677" lon="5.31053">
        <ele>1368.0642089844</ele>
        <time>2009-05-22T09:59:39Z</time>
      </trkpt>
      <trkpt lat="44.16768" lon="5.31045">
        <ele>1370.3217773438</ele>
        <time>2009-05-22T09:59:44Z</time>
      </trkpt>
      <trkpt lat="44.16767" lon="5.31042">
        <ele>1371.0327148438</ele>
        <time>2009-05-22T09:59:46Z</time>
      </trkpt>
      <trkpt lat="44.16767" lon="5.31041">
        <ele>1371.3620605469</ele>
        <time>2009-05-22T09:59:47Z</time>
      </trkpt>
      <trkpt lat="44.16767" lon="5.31039">
        <ele>1371.8089599609</ele>
        <time>2009-05-22T09:59:48Z</time>
      </trkpt>
      <trkpt lat="44.16768" lon="5.31035">
        <ele>1372.6531982422</ele>
        <time>2009-05-22T09:59:53Z</time>
      </trkpt>
      <trkpt lat="44.16776" lon="5.31017">
        <ele>1377.0213623047</ele>
        <time>2009-05-22T10:00:02Z</time>
      </trkpt>
      <trkpt lat="44.1679" lon="5.31013">
        <ele>1375.4870605469</ele>
        <time>2009-05-22T10:00:08Z</time>
      </trkpt>
      <trkpt lat="44.16796" lon="5.31009">
        <ele>1375.0833740234</ele>
        <time>2009-05-22T10:00:11Z</time>
      </trkpt>
      <trkpt lat="44.16805" lon="5.31009">
        <ele>1373.36328125</ele>
        <time>2009-05-22T10:00:16Z</time>
      </trkpt>
      <trkpt lat="44.16815" lon="5.31007">
        <ele>1367.0241699219</ele>
        <time>2009-05-22T10:00:22Z</time>
      </trkpt>
      <trkpt lat="44.16823" lon="5.31005">
        <ele>1361.8422851562</ele>
        <time>2009-05-22T10:00:28Z</time>
      </trkpt>
      <trkpt lat="44.16832" lon="5.31004">
        <ele>1355.6805419922</ele>
        <time>2009-05-22T10:00:34Z</time>
      </trkpt>
      <trkpt lat="44.16835" lon="5.31003">
        <ele>1354.1984863281</ele>
        <time>2009-05-22T10:00:36Z</time>
      </trkpt>
      <trkpt lat="44.16839" lon="5.31005">
        <ele>1351.3054199219</ele>
        <time>2009-05-22T10:00:39Z</time>
      </trkpt>
      <trkpt lat="44.16845" lon="5.31004">
        <ele>1348.8033447266</ele>
        <time>2009-05-22T10:00:44Z</time>
      </trkpt>
      <trkpt lat="44.16851" lon="5.31001">
        <ele>1346.4503173828</ele>
        <time>2009-05-22T10:00:49Z</time>
      </trkpt>
      <trkpt lat="44.16851" lon="5.31001">
        <ele>1346.5466308594</ele>
        <time>2009-05-22T10:00:50Z</time>
      </trkpt>
      <trkpt lat="44.16859" lon="5.30999">
        <ele>1343.1263427734</ele>
        <time>2009-05-22T10:00:58Z</time>
      </trkpt>
      <trkpt lat="44.16864" lon="5.30997">
        <ele>1341.1674804688</ele>
        <time>2009-05-22T10:01:03Z</time>
      </trkpt>
      <trkpt lat="44.16864" lon="5.30997">
        <ele>1341.1474609375</ele>
        <time>2009-05-22T10:01:04Z</time>
      </trkpt>
      <trkpt lat="44.16869" lon="5.3099">
        <ele>1339.0646972656</ele>
        <time>2009-05-22T10:01:11Z</time>
      </trkpt>
      <trkpt lat="44.16873" lon="5.30983">
        <ele>1337.8194580078</ele>
        <time>2009-05-22T10:01:16Z</time>
      </trkpt>
      <trkpt lat="44.16875" lon="5.3098">
        <ele>1336.9781494141</ele>
        <time>2009-05-22T10:01:20Z</time>
      </trkpt>
      <trkpt lat="44.16874" lon="5.3097">
        <ele>1339.8449707031</ele>
        <time>2009-05-22T10:03:26Z</time>
      </trkpt>
      <trkpt lat="44.16876" lon="5.30965">
        <ele>1339.8269042969</ele>
        <time>2009-05-22T10:03:29Z</time>
      </trkpt>
      <trkpt lat="44.16878" lon="5.30958">
        <ele>1340.0494384766</ele>
        <time>2009-05-22T10:03:32Z</time>
      </trkpt>
      <trkpt lat="44.1688" lon="5.30949">
        <ele>1340.4858398438</ele>
        <time>2009-05-22T10:03:36Z</time>
      </trkpt>
      <trkpt lat="44.16882" lon="5.30941">
        <ele>1341.21484375</ele>
        <time>2009-05-22T10:03:40Z</time>
      </trkpt>
      <trkpt lat="44.16883" lon="5.30933">
        <ele>1343.1077880859</ele>
        <time>2009-05-22T10:03:45Z</time>
      </trkpt>
      <trkpt lat="44.16883" lon="5.30933">
        <ele>1343.1077880859</ele>
        <time>2009-05-22T10:03:46Z</time>
      </trkpt>
      <trkpt lat="44.16884" lon="5.30927">
        <ele>1344.064453125</ele>
        <time>2009-05-22T10:04:13Z</time>
      </trkpt>
      <trkpt lat="44.16882" lon="5.30928">
        <ele>1345.4860839844</ele>
        <time>2009-05-22T10:04:19Z</time>
      </trkpt>
      <trkpt lat="44.16881" lon="5.3093">
        <ele>1345.1328125</ele>
        <time>2009-05-22T10:04:21Z</time>
      </trkpt>
      <trkpt lat="44.16879" lon="5.30932">
        <ele>1345.7281494141</ele>
        <time>2009-05-22T10:04:25Z</time>
      </trkpt>
      <trkpt lat="44.16876" lon="5.30938">
        <ele>1346.2938232422</ele>
        <time>2009-05-22T10:04:31Z</time>
      </trkpt>
      <trkpt lat="44.16874" lon="5.30944">
        <ele>1346.5361328125</ele>
        <time>2009-05-22T10:04:36Z</time>
      </trkpt>
      <trkpt lat="44.16874" lon="5.30945">
        <ele>1346.2471923828</ele>
        <time>2009-05-22T10:04:38Z</time>
      </trkpt>
      <trkpt lat="44.16872" lon="5.30947">
        <ele>1346.8817138672</ele>
        <time>2009-05-22T10:04:41Z</time>
      </trkpt>
      <trkpt lat="44.16864" lon="5.30956">
        <ele>1350.8734130859</ele>
        <time>2009-05-22T10:04:48Z</time>
      </trkpt>
      <trkpt lat="44.16854" lon="5.30961">
        <ele>1354.8797607422</ele>
        <time>2009-05-22T10:04:53Z</time>
      </trkpt>
      <trkpt lat="44.1685" lon="5.30962">
        <ele>1357.544921875</ele>
        <time>2009-05-22T10:04:57Z</time>
      </trkpt>
      <trkpt lat="44.16852" lon="5.30957">
        <ele>1357.7080078125</ele>
        <time>2009-05-22T10:05:03Z</time>
      </trkpt>
      <trkpt lat="44.16855" lon="5.30953">
        <ele>1357.2305908203</ele>
        <time>2009-05-22T10:05:06Z</time>
      </trkpt>
      <trkpt lat="44.16856" lon="5.3095">
        <ele>1357.5467529297</ele>
        <time>2009-05-22T10:05:09Z</time>
      </trkpt>
      <trkpt lat="44.16859" lon="5.30941">
        <ele>1357.8288574219</ele>
        <time>2009-05-22T10:05:14Z</time>
      </trkpt>
      <trkpt lat="44.16862" lon="5.30932">
        <ele>1357.7355957031</ele>
        <time>2009-05-22T10:05:18Z</time>
      </trkpt>
      <trkpt lat="44.16864" lon="5.30927">
        <ele>1358.0997314453</ele>
        <time>2009-05-22T10:05:20Z</time>
      </trkpt>
      <trkpt lat="44.16865" lon="5.30917">
        <ele>1359.619140625</ele>
        <time>2009-05-22T10:05:25Z</time>
      </trkpt>
      <trkpt lat="44.16864" lon="5.30912">
        <ele>1361.0509033203</ele>
        <time>2009-05-22T10:05:31Z</time>
      </trkpt>
      <trkpt lat="44.16863" lon="5.30913">
        <ele>1361.1838378906</ele>
        <time>2009-05-22T10:05:33Z</time>
      </trkpt>
      <trkpt lat="44.16859" lon="5.30921">
        <ele>1362.3881835938</ele>
        <time>2009-05-22T10:05:42Z</time>
      </trkpt>
      <trkpt lat="44.16856" lon="5.30926">
        <ele>1363.4078369141</ele>
        <time>2009-05-22T10:05:48Z</time>
      </trkpt>
      <trkpt lat="44.1685" lon="5.30931">
        <ele>1365.9176025391</ele>
        <time>2009-05-22T10:05:56Z</time>
      </trkpt>
      <trkpt lat="44.16845" lon="5.30935">
        <ele>1367.8538818359</ele>
        <time>2009-05-22T10:06:02Z</time>
      </trkpt>
      <trkpt lat="44.16838" lon="5.3094">
        <ele>1371.1497802734</ele>
        <time>2009-05-22T10:06:10Z</time>
      </trkpt>
      <trkpt lat="44.16833" lon="5.30941">
        <ele>1374.0572509766</ele>
        <time>2009-05-22T10:06:17Z</time>
      </trkpt>
      <trkpt lat="44.16837" lon="5.30936">
        <ele>1372.4715576172</ele>
        <time>2009-05-22T10:06:25Z</time>
      </trkpt>
      <trkpt lat="44.16839" lon="5.30932">
        <ele>1372.1694335938</ele>
        <time>2009-05-22T10:06:29Z</time>
      </trkpt>
      <trkpt lat="44.1684" lon="5.30928">
        <ele>1372.3548583984</ele>
        <time>2009-05-22T10:06:33Z</time>
      </trkpt>
      <trkpt lat="44.16841" lon="5.30924">
        <ele>1372.5780029297</ele>
        <time>2009-05-22T10:06:36Z</time>
      </trkpt>
      <trkpt lat="44.16845" lon="5.30913">
        <ele>1372.4080810547</ele>
        <time>2009-05-22T10:06:43Z</time>
      </trkpt>
      <trkpt lat="44.16847" lon="5.30904">
        <ele>1372.2502441406</ele>
        <time>2009-05-22T10:06:47Z</time>
      </trkpt>
      <trkpt lat="44.1685" lon="5.3089">
        <ele>1372.9505615234</ele>
        <time>2009-05-22T10:06:53Z</time>
      </trkpt>
      <trkpt lat="44.16851" lon="5.30886">
        <ele>1372.8269042969</ele>
        <time>2009-05-22T10:06:57Z</time>
      </trkpt>
      <trkpt lat="44.16858" lon="5.30875">
        <ele>1371.1483154297</ele>
        <time>2009-05-22T10:07:44Z</time>
      </trkpt>
      <trkpt lat="44.16857" lon="5.30874">
        <ele>1371.8101806641</ele>
        <time>2009-05-22T10:07:45Z</time>
      </trkpt>
      <trkpt lat="44.16858" lon="5.30864">
        <ele>1373.7259521484</ele>
        <time>2009-05-22T10:07:49Z</time>
      </trkpt>
      <trkpt lat="44.16855" lon="5.3085">
        <ele>1377.6956787109</ele>
        <time>2009-05-22T10:07:54Z</time>
      </trkpt>
      <trkpt lat="44.16851" lon="5.30826">
        <ele>1384.3557128906</ele>
        <time>2009-05-22T10:08:00Z</time>
      </trkpt>
      <trkpt lat="44.1685" lon="5.30817">
        <ele>1386.9718017578</ele>
        <time>2009-05-22T10:08:04Z</time>
      </trkpt>
      <trkpt lat="44.16849" lon="5.30809">
        <ele>1389.1552734375</ele>
        <time>2009-05-22T10:08:08Z</time>
      </trkpt>
      <trkpt lat="44.16849" lon="5.30805">
        <ele>1390.0830078125</ele>
        <time>2009-05-22T10:08:11Z</time>
      </trkpt>
      <trkpt lat="44.16849" lon="5.30803">
        <ele>1390.2659912109</ele>
        <time>2009-05-22T10:08:12Z</time>
      </trkpt>
      <trkpt lat="44.16849" lon="5.30794">
        <ele>1391.4154052734</ele>
        <time>2009-05-22T10:08:19Z</time>
      </trkpt>
      <trkpt lat="44.16848" lon="5.30782">
        <ele>1393.2205810547</ele>
        <time>2009-05-22T10:08:24Z</time>
      </trkpt>
      <trkpt lat="44.16847" lon="5.30765">
        <ele>1394.8825683594</ele>
        <time>2009-05-22T10:08:30Z</time>
      </trkpt>
      <trkpt lat="44.16847" lon="5.30739">
        <ele>1400.3448486328</ele>
        <time>2009-05-22T10:08:37Z</time>
      </trkpt>
      <trkpt lat="44.16849" lon="5.30733">
        <ele>1402.1451416016</ele>
        <time>2009-05-22T10:08:39Z</time>
      </trkpt>
      <trkpt lat="44.16859" lon="5.30723">
        <ele>1399.2159423828</ele>
        <time>2009-05-22T10:08:45Z</time>
      </trkpt>
      <trkpt lat="44.16864" lon="5.30719">
        <ele>1398.7879638672</ele>
        <time>2009-05-22T10:08:48Z</time>
      </trkpt>
      <trkpt lat="44.16877" lon="5.30705">
        <ele>1400.7943115234</ele>
        <time>2009-05-22T10:08:56Z</time>
      </trkpt>
      <trkpt lat="44.16885" lon="5.30694">
        <ele>1401.3405761719</ele>
        <time>2009-05-22T10:09:02Z</time>
      </trkpt>
      <trkpt lat="44.16897" lon="5.30686">
        <ele>1405.8216552734</ele>
        <time>2009-05-22T10:09:08Z</time>
      </trkpt>
      <trkpt lat="44.16909" lon="5.3068">
        <ele>1409.4598388672</ele>
        <time>2009-05-22T10:09:13Z</time>
      </trkpt>
      <trkpt lat="44.16921" lon="5.30677">
        <ele>1409.7330322266</ele>
        <time>2009-05-22T10:09:19Z</time>
      </trkpt>
      <trkpt lat="44.16932" lon="5.30677">
        <ele>1406.8123779297</ele>
        <time>2009-05-22T10:09:25Z</time>
      </trkpt>
      <trkpt lat="44.16944" lon="5.30679">
        <ele>1402.8076171875</ele>
        <time>2009-05-22T10:09:30Z</time>
      </trkpt>
      <trkpt lat="44.16956" lon="5.30681">
        <ele>1397.6363525391</ele>
        <time>2009-05-22T10:09:36Z</time>
      </trkpt>
      <trkpt lat="44.16961" lon="5.30681">
        <ele>1396.1069335938</ele>
        <time>2009-05-22T10:09:41Z</time>
      </trkpt>
      <trkpt lat="44.16967" lon="5.30681">
        <ele>1393.9652099609</ele>
        <time>2009-05-22T10:09:47Z</time>
      </trkpt>
      <trkpt lat="44.16974" lon="5.30685">
        <ele>1388.6403808594</ele>
        <time>2009-05-22T10:09:54Z</time>
      </trkpt>
      <trkpt lat="44.16982" lon="5.30683">
        <ele>1382.9975585938</ele>
        <time>2009-05-22T10:10:02Z</time>
      </trkpt>
      <trkpt lat="44.16988" lon="5.30677">
        <ele>1381.349609375</ele>
        <time>2009-05-22T10:10:10Z</time>
      </trkpt>
      <trkpt lat="44.16989" lon="5.30676">
        <ele>1381.2387695312</ele>
        <time>2009-05-22T10:10:11Z</time>
      </trkpt>
      <trkpt lat="44.16996" lon="5.30668">
        <ele>1378.7202148438</ele>
        <time>2009-05-22T10:10:17Z</time>
      </trkpt>
      <trkpt lat="44.17001" lon="5.3066">
        <ele>1377.9326171875</ele>
        <time>2009-05-22T10:10:21Z</time>
      </trkpt>
      <trkpt lat="44.17008" lon="5.30649">
        <ele>1376.3112792969</ele>
        <time>2009-05-22T10:10:26Z</time>
      </trkpt>
      <trkpt lat="44.17016" lon="5.30634">
        <ele>1374.3062744141</ele>
        <time>2009-05-22T10:10:32Z</time>
      </trkpt>
      <trkpt lat="44.17021" lon="5.3062">
        <ele>1372.6453857422</ele>
        <time>2009-05-22T10:10:37Z</time>
      </trkpt>
      <trkpt lat="44.17025" lon="5.30602">
        <ele>1373.6879882812</ele>
        <time>2009-05-22T10:10:43Z</time>
      </trkpt>
      <trkpt lat="44.17033" lon="5.30596">
        <ele>1369.9371337891</ele>
        <time>2009-05-22T10:10:48Z</time>
      </trkpt>
      <trkpt lat="44.17038" lon="5.30594">
        <ele>1367.8386230469</ele>
        <time>2009-05-22T10:10:52Z</time>
      </trkpt>
      <trkpt lat="44.17041" lon="5.30592">
        <ele>1366.6091308594</ele>
        <time>2009-05-22T10:10:54Z</time>
      </trkpt>
      <trkpt lat="44.17044" lon="5.30574">
        <ele>1369.15234375</ele>
        <time>2009-05-22T10:11:00Z</time>
      </trkpt>
      <trkpt lat="44.17044" lon="5.30568">
        <ele>1370.3471679688</ele>
        <time>2009-05-22T10:11:01Z</time>
      </trkpt>
      <trkpt lat="44.17041" lon="5.3054">
        <ele>1379.1038818359</ele>
        <time>2009-05-22T10:11:06Z</time>
      </trkpt>
      <trkpt lat="44.17041" lon="5.3053">
        <ele>1382.2670898438</ele>
        <time>2009-05-22T10:11:08Z</time>
      </trkpt>
      <trkpt lat="44.17043" lon="5.30501">
        <ele>1384.8455810547</ele>
        <time>2009-05-22T10:11:12Z</time>
      </trkpt>
      <trkpt lat="44.17043" lon="5.30492">
        <ele>1384.9696044922</ele>
        <time>2009-05-22T10:11:14Z</time>
      </trkpt>
      <trkpt lat="44.17043" lon="5.30489">
        <ele>1385.5754394531</ele>
        <time>2009-05-22T10:11:15Z</time>
      </trkpt>
      <trkpt lat="44.17038" lon="5.30475">
        <ele>1389.0197753906</ele>
        <time>2009-05-22T10:11:21Z</time>
      </trkpt>
      <trkpt lat="44.17037" lon="5.30472">
        <ele>1389.6081542969</ele>
        <time>2009-05-22T10:11:22Z</time>
      </trkpt>
      <trkpt lat="44.17036" lon="5.30469">
        <ele>1390.513671875</ele>
        <time>2009-05-22T10:11:23Z</time>
      </trkpt>
      <trkpt lat="44.17038" lon="5.30461">
        <ele>1390.8630371094</ele>
        <time>2009-05-22T10:11:27Z</time>
      </trkpt>
      <trkpt lat="44.17038" lon="5.30462">
        <ele>1391.0324707031</ele>
        <time>2009-05-22T10:11:28Z</time>
      </trkpt>
      <trkpt lat="44.1704" lon="5.30461">
        <ele>1389.6766357422</ele>
        <time>2009-05-22T10:11:35Z</time>
      </trkpt>
      <trkpt lat="44.17043" lon="5.30461">
        <ele>1388.3927001953</ele>
        <time>2009-05-22T10:11:40Z</time>
      </trkpt>
      <trkpt lat="44.17043" lon="5.3046">
        <ele>1388.2255859375</ele>
        <time>2009-05-22T10:11:41Z</time>
      </trkpt>
      <trkpt lat="44.17049" lon="5.30457">
        <ele>1385.564453125</ele>
        <time>2009-05-22T10:11:46Z</time>
      </trkpt>
      <trkpt lat="44.17057" lon="5.30456">
        <ele>1381.4227294922</ele>
        <time>2009-05-22T10:11:54Z</time>
      </trkpt>
      <trkpt lat="44.1706" lon="5.3046">
        <ele>1379.267578125</ele>
        <time>2009-05-22T10:12:05Z</time>
      </trkpt>
      <trkpt lat="44.1706" lon="5.30461">
        <ele>1379.1346435547</ele>
        <time>2009-05-22T10:12:06Z</time>
      </trkpt>
      <trkpt lat="44.17065" lon="5.30459">
        <ele>1377.7209472656</ele>
        <time>2009-05-22T10:12:28Z</time>
      </trkpt>
      <trkpt lat="44.17066" lon="5.30459">
        <ele>1377.4718017578</ele>
        <time>2009-05-22T10:12:29Z</time>
      </trkpt>
      <trkpt lat="44.17067" lon="5.30457">
        <ele>1377.6064453125</ele>
        <time>2009-05-22T10:12:32Z</time>
      </trkpt>
      <trkpt lat="44.17071" lon="5.30449">
        <ele>1378.0814208984</ele>
        <time>2009-05-22T10:12:58Z</time>
      </trkpt>
      <trkpt lat="44.17073" lon="5.30445">
        <ele>1378.1970214844</ele>
        <time>2009-05-22T10:13:02Z</time>
      </trkpt>
      <trkpt lat="44.17075" lon="5.30443">
        <ele>1377.8969726562</ele>
        <time>2009-05-22T10:13:04Z</time>
      </trkpt>
      <trkpt lat="44.17079" lon="5.30437">
        <ele>1377.6024169922</ele>
        <time>2009-05-22T10:13:07Z</time>
      </trkpt>
      <trkpt lat="44.17081" lon="5.30434">
        <ele>1377.6441650391</ele>
        <time>2009-05-22T10:13:09Z</time>
      </trkpt>
      <trkpt lat="44.17081" lon="5.30433">
        <ele>1377.6779785156</ele>
        <time>2009-05-22T10:13:10Z</time>
      </trkpt>
      <trkpt lat="44.17081" lon="5.3043">
        <ele>1378.1351318359</ele>
        <time>2009-05-22T10:13:12Z</time>
      </trkpt>
      <trkpt lat="44.17083" lon="5.30426">
        <ele>1378.5164794922</ele>
        <time>2009-05-22T10:13:15Z</time>
      </trkpt>
      <trkpt lat="44.17083" lon="5.30423">
        <ele>1378.7691650391</ele>
        <time>2009-05-22T10:13:16Z</time>
      </trkpt>
      <trkpt lat="44.17085" lon="5.30418">
        <ele>1379.8254394531</ele>
        <time>2009-05-22T10:13:20Z</time>
      </trkpt>
      <trkpt lat="44.17085" lon="5.30409">
        <ele>1382.8323974609</ele>
        <time>2009-05-22T10:13:23Z</time>
      </trkpt>
      <trkpt lat="44.17085" lon="5.30391">
        <ele>1389.4206542969</ele>
        <time>2009-05-22T10:13:28Z</time>
      </trkpt>
      <trkpt lat="44.17089" lon="5.30373">
        <ele>1396.2199707031</ele>
        <time>2009-05-22T10:13:33Z</time>
      </trkpt>
      <trkpt lat="44.17101" lon="5.3037">
        <ele>1399.0428466797</ele>
        <time>2009-05-22T10:13:39Z</time>
      </trkpt>
      <trkpt lat="44.17115" lon="5.30368">
        <ele>1400.4124755859</ele>
        <time>2009-05-22T10:13:44Z</time>
      </trkpt>
      <trkpt lat="44.17124" lon="5.30366">
        <ele>1400.3779296875</ele>
        <time>2009-05-22T10:13:47Z</time>
      </trkpt>
      <trkpt lat="44.1713" lon="5.30363">
        <ele>1400.6682128906</ele>
        <time>2009-05-22T10:13:52Z</time>
      </trkpt>
      <trkpt lat="44.17134" lon="5.30359">
        <ele>1400.9145507812</ele>
        <time>2009-05-22T10:13:56Z</time>
      </trkpt>
      <trkpt lat="44.17135" lon="5.30359">
        <ele>1400.9094238281</ele>
        <time>2009-05-22T10:13:57Z</time>
      </trkpt>
      <trkpt lat="44.17142" lon="5.30356">
        <ele>1399.5515136719</ele>
        <time>2009-05-22T10:16:06Z</time>
      </trkpt>
      <trkpt lat="44.17144" lon="5.30356">
        <ele>1399.0317382812</ele>
        <time>2009-05-22T10:16:08Z</time>
      </trkpt>
      <trkpt lat="44.17149" lon="5.30355">
        <ele>1397.0932617188</ele>
        <time>2009-05-22T10:16:15Z</time>
      </trkpt>
      <trkpt lat="44.1715" lon="5.30355">
        <ele>1396.7788085938</ele>
        <time>2009-05-22T10:16:18Z</time>
      </trkpt>
      <trkpt lat="44.17148" lon="5.3035">
        <ele>1398.0029296875</ele>
        <time>2009-05-22T10:16:56Z</time>
      </trkpt>
      <trkpt lat="44.17149" lon="5.30338">
        <ele>1399.208984375</ele>
        <time>2009-05-22T10:17:01Z</time>
      </trkpt>
      <trkpt lat="44.17148" lon="5.30332">
        <ele>1400.2495117188</ele>
        <time>2009-05-22T10:17:05Z</time>
      </trkpt>
      <trkpt lat="44.17149" lon="5.30323">
        <ele>1401.5249023438</ele>
        <time>2009-05-22T10:17:09Z</time>
      </trkpt>
      <trkpt lat="44.17151" lon="5.30305">
        <ele>1403.8421630859</ele>
        <time>2009-05-22T10:17:14Z</time>
      </trkpt>
      <trkpt lat="44.17153" lon="5.30291">
        <ele>1404.6301269531</ele>
        <time>2009-05-22T10:17:17Z</time>
      </trkpt>
      <trkpt lat="44.17155" lon="5.30276">
        <ele>1405.4283447266</ele>
        <time>2009-05-22T10:17:21Z</time>
      </trkpt>
      <trkpt lat="44.17161" lon="5.3026">
        <ele>1404.2464599609</ele>
        <time>2009-05-22T10:17:25Z</time>
      </trkpt>
      <trkpt lat="44.17167" lon="5.30242">
        <ele>1403.3101806641</ele>
        <time>2009-05-22T10:17:30Z</time>
      </trkpt>
      <trkpt lat="44.17176" lon="5.30222">
        <ele>1399.2379150391</ele>
        <time>2009-05-22T10:17:36Z</time>
      </trkpt>
      <trkpt lat="44.17181" lon="5.30218">
        <ele>1395.8195800781</ele>
        <time>2009-05-22T10:17:38Z</time>
      </trkpt>
      <trkpt lat="44.17184" lon="5.30208">
        <ele>1393.1954345703</ele>
        <time>2009-05-22T10:17:42Z</time>
      </trkpt>
      <trkpt lat="44.17182" lon="5.30197">
        <ele>1396.6383056641</ele>
        <time>2009-05-22T10:17:45Z</time>
      </trkpt>
      <trkpt lat="44.17179" lon="5.30187">
        <ele>1396.7639160156</ele>
        <time>2009-05-22T10:17:48Z</time>
      </trkpt>
      <trkpt lat="44.17178" lon="5.30184">
        <ele>1396.1385498047</ele>
        <time>2009-05-22T10:17:49Z</time>
      </trkpt>
      <trkpt lat="44.17176" lon="5.30176">
        <ele>1395.2752685547</ele>
        <time>2009-05-22T10:17:51Z</time>
      </trkpt>
      <trkpt lat="44.17176" lon="5.30172">
        <ele>1393.7510986328</ele>
        <time>2009-05-22T10:17:52Z</time>
      </trkpt>
      <trkpt lat="44.17175" lon="5.30155">
        <ele>1390.724609375</ele>
        <time>2009-05-22T10:17:57Z</time>
      </trkpt>
      <trkpt lat="44.17173" lon="5.30148">
        <ele>1390.8828125</ele>
        <time>2009-05-22T10:18:01Z</time>
      </trkpt>
      <trkpt lat="44.17173" lon="5.30146">
        <ele>1390.6146240234</ele>
        <time>2009-05-22T10:18:02Z</time>
      </trkpt>
      <trkpt lat="44.17173" lon="5.30144">
        <ele>1389.7502441406</ele>
        <time>2009-05-22T10:18:04Z</time>
      </trkpt>
      <trkpt lat="44.17173" lon="5.30143">
        <ele>1389.5618896484</ele>
        <time>2009-05-22T10:18:05Z</time>
      </trkpt>
      <trkpt lat="44.17173" lon="5.30142">
        <ele>1389.7407226562</ele>
        <time>2009-05-22T10:18:06Z</time>
      </trkpt>
      <trkpt lat="44.17173" lon="5.30137">
        <ele>1387.9792480469</ele>
        <time>2009-05-22T10:18:11Z</time>
      </trkpt>
      <trkpt lat="44.17173" lon="5.30134">
        <ele>1387.4573974609</ele>
        <time>2009-05-22T10:18:14Z</time>
      </trkpt>
      <trkpt lat="44.1717" lon="5.30118">
        <ele>1384.8618164062</ele>
        <time>2009-05-22T10:18:20Z</time>
      </trkpt>
      <trkpt lat="44.1717" lon="5.30098">
        <ele>1379.5895996094</ele>
        <time>2009-05-22T10:18:24Z</time>
      </trkpt>
      <trkpt lat="44.17169" lon="5.30081">
        <ele>1375.8994140625</ele>
        <time>2009-05-22T10:18:27Z</time>
      </trkpt>
      <trkpt lat="44.17165" lon="5.30068">
        <ele>1379.5662841797</ele>
        <time>2009-05-22T10:18:30Z</time>
      </trkpt>
      <trkpt lat="44.17161" lon="5.30044">
        <ele>1386.0299072266</ele>
        <time>2009-05-22T10:18:36Z</time>
      </trkpt>
      <trkpt lat="44.17164" lon="5.30036">
        <ele>1386.7680664062</ele>
        <time>2009-05-22T10:18:39Z</time>
      </trkpt>
      <trkpt lat="44.17169" lon="5.30034">
        <ele>1384.4348144531</ele>
        <time>2009-05-22T10:18:41Z</time>
      </trkpt>
      <trkpt lat="44.1718" lon="5.30033">
        <ele>1376.0388183594</ele>
        <time>2009-05-22T10:18:46Z</time>
      </trkpt>
      <trkpt lat="44.17184" lon="5.30031">
        <ele>1374.0656738281</ele>
        <time>2009-05-22T10:18:49Z</time>
      </trkpt>
      <trkpt lat="44.17189" lon="5.30024">
        <ele>1372.3367919922</ele>
        <time>2009-05-22T10:18:53Z</time>
      </trkpt>
      <trkpt lat="44.1719" lon="5.30012">
        <ele>1374.9293212891</ele>
        <time>2009-05-22T10:18:57Z</time>
      </trkpt>
      <trkpt lat="44.17193" lon="5.29994">
        <ele>1378.3697509766</ele>
        <time>2009-05-22T10:19:01Z</time>
      </trkpt>
      <trkpt lat="44.17194" lon="5.29986">
        <ele>1381.0056152344</ele>
        <time>2009-05-22T10:19:03Z</time>
      </trkpt>
      <trkpt lat="44.17189" lon="5.29964">
        <ele>1392.0554199219</ele>
        <time>2009-05-22T10:19:09Z</time>
      </trkpt>
      <trkpt lat="44.17188" lon="5.2995">
        <ele>1398.9697265625</ele>
        <time>2009-05-22T10:19:13Z</time>
      </trkpt>
      <trkpt lat="44.17187" lon="5.29946">
        <ele>1401.7512207031</ele>
        <time>2009-05-22T10:19:18Z</time>
      </trkpt>
      <trkpt lat="44.17184" lon="5.2994">
        <ele>1405.53125</ele>
        <time>2009-05-22T10:19:24Z</time>
      </trkpt>
      <trkpt lat="44.17184" lon="5.29934">
        <ele>1407.8048095703</ele>
        <time>2009-05-22T10:19:30Z</time>
      </trkpt>
      <trkpt lat="44.17186" lon="5.2993">
        <ele>1407.7181396484</ele>
        <time>2009-05-22T10:19:35Z</time>
      </trkpt>
      <trkpt lat="44.1719" lon="5.29926">
        <ele>1405.939453125</ele>
        <time>2009-05-22T10:19:49Z</time>
      </trkpt>
      <trkpt lat="44.17198" lon="5.29926">
        <ele>1401.7855224609</ele>
        <time>2009-05-22T10:19:58Z</time>
      </trkpt>
      <trkpt lat="44.17204" lon="5.29927">
        <ele>1399.0830078125</ele>
        <time>2009-05-22T10:20:06Z</time>
      </trkpt>
      <trkpt lat="44.17208" lon="5.29929">
        <ele>1396.8446044922</ele>
        <time>2009-05-22T10:20:11Z</time>
      </trkpt>
      <trkpt lat="44.17214" lon="5.29929">
        <ele>1394.6021728516</ele>
        <time>2009-05-22T10:20:18Z</time>
      </trkpt>
      <trkpt lat="44.17221" lon="5.29922">
        <ele>1394.568359375</ele>
        <time>2009-05-22T10:20:27Z</time>
      </trkpt>
      <trkpt lat="44.17228" lon="5.29918">
        <ele>1393.2114257812</ele>
        <time>2009-05-22T10:20:36Z</time>
      </trkpt>
      <trkpt lat="44.17234" lon="5.29916">
        <ele>1391.5499267578</ele>
        <time>2009-05-22T10:20:43Z</time>
      </trkpt>
      <trkpt lat="44.17235" lon="5.29916">
        <ele>1391.3928222656</ele>
        <time>2009-05-22T10:20:45Z</time>
      </trkpt>
      <trkpt lat="44.17244" lon="5.29907">
        <ele>1392.1507568359</ele>
        <time>2009-05-22T10:20:53Z</time>
      </trkpt>
      <trkpt lat="44.17255" lon="5.29899">
        <ele>1392.2939453125</ele>
        <time>2009-05-22T10:21:00Z</time>
      </trkpt>
      <trkpt lat="44.17262" lon="5.29895">
        <ele>1391.6361083984</ele>
        <time>2009-05-22T10:21:05Z</time>
      </trkpt>
      <trkpt lat="44.17272" lon="5.29893">
        <ele>1388.7862548828</ele>
        <time>2009-05-22T10:21:11Z</time>
      </trkpt>
      <trkpt lat="44.17278" lon="5.2989">
        <ele>1388.2487792969</ele>
        <time>2009-05-22T10:21:16Z</time>
      </trkpt>
      <trkpt lat="44.1728" lon="5.29888">
        <ele>1386.6162109375</ele>
        <time>2009-05-22T10:21:21Z</time>
      </trkpt>
      <trkpt lat="44.17286" lon="5.2988">
        <ele>1383.3419189453</ele>
        <time>2009-05-22T10:21:37Z</time>
      </trkpt>
      <trkpt lat="44.17294" lon="5.29862">
        <ele>1380.650390625</ele>
        <time>2009-05-22T10:21:45Z</time>
      </trkpt>
      <trkpt lat="44.17298" lon="5.29851">
        <ele>1380.7821044922</ele>
        <time>2009-05-22T10:21:49Z</time>
      </trkpt>
      <trkpt lat="44.173" lon="5.29838">
        <ele>1383.4378662109</ele>
        <time>2009-05-22T10:21:54Z</time>
      </trkpt>
      <trkpt lat="44.17301" lon="5.29828">
        <ele>1386.7270507812</ele>
        <time>2009-05-22T10:22:00Z</time>
      </trkpt>
      <trkpt lat="44.17301" lon="5.29818">
        <ele>1391.5153808594</ele>
        <time>2009-05-22T10:22:07Z</time>
      </trkpt>
      <trkpt lat="44.173" lon="5.29811">
        <ele>1395.7399902344</ele>
        <time>2009-05-22T10:22:14Z</time>
      </trkpt>
      <trkpt lat="44.173" lon="5.29802">
        <ele>1399.4866943359</ele>
        <time>2009-05-22T10:22:20Z</time>
      </trkpt>
      <trkpt lat="44.17299" lon="5.29794">
        <ele>1402.7189941406</ele>
        <time>2009-05-22T10:22:26Z</time>
      </trkpt>
      <trkpt lat="44.17298" lon="5.29787">
        <ele>1405.5131835938</ele>
        <time>2009-05-22T10:22:31Z</time>
      </trkpt>
      <trkpt lat="44.17296" lon="5.29778">
        <ele>1410.2661132812</ele>
        <time>2009-05-22T10:22:38Z</time>
      </trkpt>
      <trkpt lat="44.17293" lon="5.29766">
        <ele>1419.3900146484</ele>
        <time>2009-05-22T10:22:47Z</time>
      </trkpt>
      <trkpt lat="44.17289" lon="5.29757">
        <ele>1427.3551025391</ele>
        <time>2009-05-22T10:22:55Z</time>
      </trkpt>
      <trkpt lat="44.17287" lon="5.29749">
        <ele>1433.7271728516</ele>
        <time>2009-05-22T10:23:02Z</time>
      </trkpt>
      <trkpt lat="44.17284" lon="5.29742">
        <ele>1439.2758789062</ele>
        <time>2009-05-22T10:23:10Z</time>
      </trkpt>
      <trkpt lat="44.17284" lon="5.29738">
        <ele>1441.1311035156</ele>
        <time>2009-05-22T10:23:14Z</time>
      </trkpt>
      <trkpt lat="44.17287" lon="5.29731">
        <ele>1439.8068847656</ele>
        <time>2009-05-22T10:23:22Z</time>
      </trkpt>
      <trkpt lat="44.17295" lon="5.2973">
        <ele>1431.419921875</ele>
        <time>2009-05-22T10:23:31Z</time>
      </trkpt>
      <trkpt lat="44.17295" lon="5.2973">
        <ele>1431.4573974609</ele>
        <time>2009-05-22T10:23:32Z</time>
      </trkpt>
      <trkpt lat="44.17303" lon="5.29731">
        <ele>1423.4884033203</ele>
        <time>2009-05-22T10:23:40Z</time>
      </trkpt>
      <trkpt lat="44.1731" lon="5.29731">
        <ele>1419.0989990234</ele>
        <time>2009-05-22T10:23:48Z</time>
      </trkpt>
      <trkpt lat="44.17319" lon="5.2973">
        <ele>1417.9660644531</ele>
        <time>2009-05-22T10:23:57Z</time>
      </trkpt>
      <trkpt lat="44.17322" lon="5.29726">
        <ele>1418.9135742188</ele>
        <time>2009-05-22T10:24:03Z</time>
      </trkpt>
      <trkpt lat="44.17326" lon="5.29712">
        <ele>1426.2282714844</ele>
        <time>2009-05-22T10:24:16Z</time>
      </trkpt>
      <trkpt lat="44.17328" lon="5.297">
        <ele>1433.7469482422</ele>
        <time>2009-05-22T10:24:24Z</time>
      </trkpt>
      <trkpt lat="44.17331" lon="5.29691">
        <ele>1438.5163574219</ele>
        <time>2009-05-22T10:24:30Z</time>
      </trkpt>
      <trkpt lat="44.17334" lon="5.29683">
        <ele>1442.8782958984</ele>
        <time>2009-05-22T10:24:36Z</time>
      </trkpt>
      <trkpt lat="44.17339" lon="5.2968">
        <ele>1444.3804931641</ele>
        <time>2009-05-22T10:24:41Z</time>
      </trkpt>
      <trkpt lat="44.1734" lon="5.29673">
        <ele>1448.6392822266</ele>
        <time>2009-05-22T10:24:47Z</time>
      </trkpt>
      <trkpt lat="44.17343" lon="5.29662">
        <ele>1453.8173828125</ele>
        <time>2009-05-22T10:24:56Z</time>
      </trkpt>
      <trkpt lat="44.17344" lon="5.29658">
        <ele>1455.7331542969</ele>
        <time>2009-05-22T10:25:01Z</time>
      </trkpt>
      <trkpt lat="44.17346" lon="5.29655">
        <ele>1456.7012939453</ele>
        <time>2009-05-22T10:25:04Z</time>
      </trkpt>
      <trkpt lat="44.17351" lon="5.29655">
        <ele>1456.248046875</ele>
        <time>2009-05-22T10:25:09Z</time>
      </trkpt>
      <trkpt lat="44.17353" lon="5.29661">
        <ele>1453.5290527344</ele>
        <time>2009-05-22T10:25:15Z</time>
      </trkpt>
      <trkpt lat="44.17355" lon="5.29665">
        <ele>1451.5102539062</ele>
        <time>2009-05-22T10:25:25Z</time>
      </trkpt>
      <trkpt lat="44.1736" lon="5.29672">
        <ele>1446.7709960938</ele>
        <time>2009-05-22T10:25:33Z</time>
      </trkpt>
      <trkpt lat="44.17363" lon="5.29677">
        <ele>1444.0974121094</ele>
        <time>2009-05-22T10:25:39Z</time>
      </trkpt>
      <trkpt lat="44.17368" lon="5.29679">
        <ele>1442.833984375</ele>
        <time>2009-05-22T10:25:45Z</time>
      </trkpt>
      <trkpt lat="44.17375" lon="5.29681">
        <ele>1441.5705566406</ele>
        <time>2009-05-22T10:25:52Z</time>
      </trkpt>
      <trkpt lat="44.17376" lon="5.29681">
        <ele>1441.515625</ele>
        <time>2009-05-22T10:25:54Z</time>
      </trkpt>
      <trkpt lat="44.17384" lon="5.29689">
        <ele>1437.3133544922</ele>
        <time>2009-05-22T10:26:03Z</time>
      </trkpt>
      <trkpt lat="44.17384" lon="5.29689">
        <ele>1437.0661621094</ele>
        <time>2009-05-22T10:26:05Z</time>
      </trkpt>
      <trkpt lat="44.1739" lon="5.29691">
        <ele>1435.5180664062</ele>
        <time>2009-05-22T10:26:10Z</time>
      </trkpt>
      <trkpt lat="44.17395" lon="5.29691">
        <ele>1434.94921875</ele>
        <time>2009-05-22T10:26:12Z</time>
      </trkpt>
      <trkpt lat="44.17404" lon="5.29686">
        <ele>1436.6751708984</ele>
        <time>2009-05-22T10:26:18Z</time>
      </trkpt>
      <trkpt lat="44.17413" lon="5.29687">
        <ele>1434.3123779297</ele>
        <time>2009-05-22T10:26:24Z</time>
      </trkpt>
      <trkpt lat="44.17421" lon="5.29686">
        <ele>1432.9855957031</ele>
        <time>2009-05-22T10:26:29Z</time>
      </trkpt>
      <trkpt lat="44.17426" lon="5.29686">
        <ele>1431.1489257812</ele>
        <time>2009-05-22T10:26:34Z</time>
      </trkpt>
      <trkpt lat="44.17433" lon="5.29688">
        <ele>1427.6555175781</ele>
        <time>2009-05-22T10:26:48Z</time>
      </trkpt>
      <trkpt lat="44.17442" lon="5.29687">
        <ele>1424.9862060547</ele>
        <time>2009-05-22T10:26:53Z</time>
      </trkpt>
      <trkpt lat="44.17446" lon="5.29686">
        <ele>1423.8942871094</ele>
        <time>2009-05-22T10:26:55Z</time>
      </trkpt>
      <trkpt lat="44.17458" lon="5.29675">
        <ele>1424.8885498047</ele>
        <time>2009-05-22T10:27:04Z</time>
      </trkpt>
      <trkpt lat="44.17459" lon="5.29673">
        <ele>1425.3260498047</ele>
        <time>2009-05-22T10:27:05Z</time>
      </trkpt>
      <trkpt lat="44.17467" lon="5.29659">
        <ele>1427.7764892578</ele>
        <time>2009-05-22T10:27:13Z</time>
      </trkpt>
      <trkpt lat="44.17472" lon="5.29648">
        <ele>1428.9320068359</ele>
        <time>2009-05-22T10:27:19Z</time>
      </trkpt>
      <trkpt lat="44.17479" lon="5.29633">
        <ele>1428.5369873047</ele>
        <time>2009-05-22T10:27:26Z</time>
      </trkpt>
      <trkpt lat="44.17481" lon="5.29628">
        <ele>1429.1298828125</ele>
        <time>2009-05-22T10:27:28Z</time>
      </trkpt>
      <trkpt lat="44.17485" lon="5.29619">
        <ele>1430.4599609375</ele>
        <time>2009-05-22T10:27:33Z</time>
      </trkpt>
      <trkpt lat="44.1749" lon="5.29601">
        <ele>1432.8946533203</ele>
        <time>2009-05-22T10:27:40Z</time>
      </trkpt>
      <trkpt lat="44.17496" lon="5.29589">
        <ele>1431.0286865234</ele>
        <time>2009-05-22T10:27:44Z</time>
      </trkpt>
      <trkpt lat="44.17498" lon="5.29584">
        <ele>1430.6784667969</ele>
        <time>2009-05-22T10:27:49Z</time>
      </trkpt>
      <trkpt lat="44.17501" lon="5.29575">
        <ele>1431.7630615234</ele>
        <time>2009-05-22T10:27:57Z</time>
      </trkpt>
      <trkpt lat="44.17503" lon="5.29574">
        <ele>1431.5844726562</ele>
        <time>2009-05-22T10:28:00Z</time>
      </trkpt>
      <trkpt lat="44.17514" lon="5.29569">
        <ele>1423.9803466797</ele>
        <time>2009-05-22T10:28:07Z</time>
      </trkpt>
      <trkpt lat="44.17523" lon="5.29566">
        <ele>1418.7414550781</ele>
        <time>2009-05-22T10:28:11Z</time>
      </trkpt>
      <trkpt lat="44.17529" lon="5.29561">
        <ele>1416.7149658203</ele>
        <time>2009-05-22T10:28:15Z</time>
      </trkpt>
      <trkpt lat="44.17538" lon="5.29549">
        <ele>1419.1828613281</ele>
        <time>2009-05-22T10:28:22Z</time>
      </trkpt>
      <trkpt lat="44.17545" lon="5.29539">
        <ele>1420.5366210938</ele>
        <time>2009-05-22T10:28:27Z</time>
      </trkpt>
      <trkpt lat="44.17546" lon="5.29525">
        <ele>1424.5378417969</ele>
        <time>2009-05-22T10:28:33Z</time>
      </trkpt>
      <trkpt lat="44.17546" lon="5.29512">
        <ele>1427.9536132812</ele>
        <time>2009-05-22T10:28:39Z</time>
      </trkpt>
      <trkpt lat="44.17546" lon="5.29505">
        <ele>1430.1110839844</ele>
        <time>2009-05-22T10:28:43Z</time>
      </trkpt>
      <trkpt lat="44.17546" lon="5.29501">
        <ele>1431.1297607422</ele>
        <time>2009-05-22T10:28:47Z</time>
      </trkpt>
      <trkpt lat="44.17545" lon="5.29493">
        <ele>1434.7662353516</ele>
        <time>2009-05-22T10:28:52Z</time>
      </trkpt>
      <trkpt lat="44.17545" lon="5.29488">
        <ele>1436.5187988281</ele>
        <time>2009-05-22T10:28:56Z</time>
      </trkpt>
      <trkpt lat="44.17547" lon="5.29483">
        <ele>1437.3477783203</ele>
        <time>2009-05-22T10:29:01Z</time>
      </trkpt>
      <trkpt lat="44.17547" lon="5.2948">
        <ele>1438.6365966797</ele>
        <time>2009-05-22T10:29:04Z</time>
      </trkpt>
      <trkpt lat="44.17546" lon="5.29474">
        <ele>1441.2780761719</ele>
        <time>2009-05-22T10:29:40Z</time>
      </trkpt>
      <trkpt lat="44.17546" lon="5.29473">
        <ele>1442.0015869141</ele>
        <time>2009-05-22T10:29:41Z</time>
      </trkpt>
      <trkpt lat="44.17546" lon="5.29471">
        <ele>1442.3940429688</ele>
        <time>2009-05-22T10:29:44Z</time>
      </trkpt>
      <trkpt lat="44.17551" lon="5.29458">
        <ele>1441.3120117188</ele>
        <time>2009-05-22T10:29:53Z</time>
      </trkpt>
      <trkpt lat="44.17558" lon="5.29447">
        <ele>1438.541015625</ele>
        <time>2009-05-22T10:29:58Z</time>
      </trkpt>
      <trkpt lat="44.17559" lon="5.29445">
        <ele>1438.5993652344</ele>
        <time>2009-05-22T10:29:59Z</time>
      </trkpt>
      <trkpt lat="44.17566" lon="5.29437">
        <ele>1438.2719726562</ele>
        <time>2009-05-22T10:30:05Z</time>
      </trkpt>
      <trkpt lat="44.17574" lon="5.29429">
        <ele>1437.9698486328</ele>
        <time>2009-05-22T10:30:10Z</time>
      </trkpt>
      <trkpt lat="44.17582" lon="5.29419">
        <ele>1437.8599853516</ele>
        <time>2009-05-22T10:30:15Z</time>
      </trkpt>
      <trkpt lat="44.1759" lon="5.2941">
        <ele>1438.0848388672</ele>
        <time>2009-05-22T10:30:20Z</time>
      </trkpt>
      <trkpt lat="44.17593" lon="5.29406">
        <ele>1438.5616455078</ele>
        <time>2009-05-22T10:30:24Z</time>
      </trkpt>
      <trkpt lat="44.17594" lon="5.29395">
        <ele>1441.4686279297</ele>
        <time>2009-05-22T10:30:32Z</time>
      </trkpt>
      <trkpt lat="44.17592" lon="5.29388">
        <ele>1443.9686279297</ele>
        <time>2009-05-22T10:30:37Z</time>
      </trkpt>
      <trkpt lat="44.17591" lon="5.29385">
        <ele>1445.0432128906</ele>
        <time>2009-05-22T10:30:40Z</time>
      </trkpt>
      <trkpt lat="44.17589" lon="5.29374">
        <ele>1447.9442138672</ele>
        <time>2009-05-22T10:30:48Z</time>
      </trkpt>
      <trkpt lat="44.17586" lon="5.29365">
        <ele>1450.3475341797</ele>
        <time>2009-05-22T10:30:56Z</time>
      </trkpt>
      <trkpt lat="44.17583" lon="5.29356">
        <ele>1453.4378662109</ele>
        <time>2009-05-22T10:31:05Z</time>
      </trkpt>
      <trkpt lat="44.17579" lon="5.29348">
        <ele>1457.9736328125</ele>
        <time>2009-05-22T10:31:13Z</time>
      </trkpt>
      <trkpt lat="44.17577" lon="5.29342">
        <ele>1460.2645263672</ele>
        <time>2009-05-22T10:31:17Z</time>
      </trkpt>
      <trkpt lat="44.17577" lon="5.29337">
        <ele>1461.9431152344</ele>
        <time>2009-05-22T10:31:21Z</time>
      </trkpt>
      <trkpt lat="44.17578" lon="5.29329">
        <ele>1463.3293457031</ele>
        <time>2009-05-22T10:31:27Z</time>
      </trkpt>
      <trkpt lat="44.17582" lon="5.29325">
        <ele>1462.62890625</ele>
        <time>2009-05-22T10:31:32Z</time>
      </trkpt>
      <trkpt lat="44.17584" lon="5.29316">
        <ele>1463.6566162109</ele>
        <time>2009-05-22T10:31:39Z</time>
      </trkpt>
      <trkpt lat="44.17584" lon="5.29309">
        <ele>1465.1911621094</ele>
        <time>2009-05-22T10:31:44Z</time>
      </trkpt>
      <trkpt lat="44.1758" lon="5.29298">
        <ele>1469.8543701172</ele>
        <time>2009-05-22T10:31:49Z</time>
      </trkpt>
      <trkpt lat="44.17578" lon="5.29285">
        <ele>1475.2205810547</ele>
        <time>2009-05-22T10:31:54Z</time>
      </trkpt>
      <trkpt lat="44.17585" lon="5.29274">
        <ele>1475.8039550781</ele>
        <time>2009-05-22T10:32:00Z</time>
      </trkpt>
      <trkpt lat="44.1759" lon="5.2926">
        <ele>1478.5720214844</ele>
        <time>2009-05-22T10:32:05Z</time>
      </trkpt>
      <trkpt lat="44.17592" lon="5.29251">
        <ele>1480.8872070312</ele>
        <time>2009-05-22T10:32:09Z</time>
      </trkpt>
      <trkpt lat="44.1759" lon="5.2924">
        <ele>1483.8155517578</ele>
        <time>2009-05-22T10:32:13Z</time>
      </trkpt>
      <trkpt lat="44.17588" lon="5.2922">
        <ele>1488.5865478516</ele>
        <time>2009-05-22T10:32:20Z</time>
      </trkpt>
      <trkpt lat="44.17589" lon="5.29218">
        <ele>1489.0603027344</ele>
        <time>2009-05-22T10:32:22Z</time>
      </trkpt>
      <trkpt lat="44.1759" lon="5.29215">
        <ele>1489.7863769531</ele>
        <time>2009-05-22T10:32:26Z</time>
      </trkpt>
      <trkpt lat="44.1759" lon="5.29208">
        <ele>1492.3253173828</ele>
        <time>2009-05-22T10:32:33Z</time>
      </trkpt>
      <trkpt lat="44.17589" lon="5.29207">
        <ele>1492.6394042969</ele>
        <time>2009-05-22T10:32:35Z</time>
      </trkpt>
      <trkpt lat="44.17595" lon="5.29198">
        <ele>1494.5294189453</ele>
        <time>2009-05-22T10:32:46Z</time>
      </trkpt>
      <trkpt lat="44.17598" lon="5.29196">
        <ele>1494.5191650391</ele>
        <time>2009-05-22T10:32:52Z</time>
      </trkpt>
      <trkpt lat="44.176" lon="5.29195">
        <ele>1494.3491210938</ele>
        <time>2009-05-22T10:33:10Z</time>
      </trkpt>
      <trkpt lat="44.17606" lon="5.29191">
        <ele>1493.8420410156</ele>
        <time>2009-05-22T10:33:16Z</time>
      </trkpt>
      <trkpt lat="44.1761" lon="5.29191">
        <ele>1492.9490966797</ele>
        <time>2009-05-22T10:33:19Z</time>
      </trkpt>
      <trkpt lat="44.17616" lon="5.29193">
        <ele>1488.9885253906</ele>
        <time>2009-05-22T10:33:26Z</time>
      </trkpt>
      <trkpt lat="44.17618" lon="5.29193">
        <ele>1487.6007080078</ele>
        <time>2009-05-22T10:33:30Z</time>
      </trkpt>
      <trkpt lat="44.17625" lon="5.29196">
        <ele>1481.7510986328</ele>
        <time>2009-05-22T10:33:37Z</time>
      </trkpt>
      <trkpt lat="44.17631" lon="5.29199">
        <ele>1476.4124755859</ele>
        <time>2009-05-22T10:33:43Z</time>
      </trkpt>
      <trkpt lat="44.17632" lon="5.29199">
        <ele>1475.5300292969</ele>
        <time>2009-05-22T10:33:44Z</time>
      </trkpt>
      <trkpt lat="44.17637" lon="5.29201">
        <ele>1470.3742675781</ele>
        <time>2009-05-22T10:33:50Z</time>
      </trkpt>
      <trkpt lat="44.17641" lon="5.292">
        <ele>1467.2406005859</ele>
        <time>2009-05-22T10:33:55Z</time>
      </trkpt>
      <trkpt lat="44.1765" lon="5.29199">
        <ele>1459.2105712891</ele>
        <time>2009-05-22T10:33:59Z</time>
      </trkpt>
      <trkpt lat="44.17657" lon="5.29194">
        <ele>1455.2497558594</ele>
        <time>2009-05-22T10:34:03Z</time>
      </trkpt>
      <trkpt lat="44.17666" lon="5.29189">
        <ele>1447.5380859375</ele>
        <time>2009-05-22T10:34:09Z</time>
      </trkpt>
      <trkpt lat="44.17677" lon="5.2918">
        <ele>1445.6190185547</ele>
        <time>2009-05-22T10:34:15Z</time>
      </trkpt>
      <trkpt lat="44.17693" lon="5.2917">
        <ele>1441.5834960938</ele>
        <time>2009-05-22T10:34:21Z</time>
      </trkpt>
      <trkpt lat="44.17703" lon="5.29163">
        <ele>1438.7396240234</ele>
        <time>2009-05-22T10:34:25Z</time>
      </trkpt>
      <trkpt lat="44.17712" lon="5.29163">
        <ele>1433.8970947266</ele>
        <time>2009-05-22T10:34:30Z</time>
      </trkpt>
      <trkpt lat="44.17729" lon="5.29158">
        <ele>1426.2694091797</ele>
        <time>2009-05-22T10:34:38Z</time>
      </trkpt>
      <trkpt lat="44.17737" lon="5.29156">
        <ele>1422.2066650391</ele>
        <time>2009-05-22T10:34:41Z</time>
      </trkpt>
      <trkpt lat="44.17743" lon="5.2914">
        <ele>1423.7830810547</ele>
        <time>2009-05-22T10:34:45Z</time>
      </trkpt>
      <trkpt lat="44.17744" lon="5.2912">
        <ele>1428.1252441406</ele>
        <time>2009-05-22T10:34:49Z</time>
      </trkpt>
      <trkpt lat="44.17746" lon="5.29104">
        <ele>1431.013671875</ele>
        <time>2009-05-22T10:34:53Z</time>
      </trkpt>
      <trkpt lat="44.1775" lon="5.29083">
        <ele>1430.8121337891</ele>
        <time>2009-05-22T10:34:58Z</time>
      </trkpt>
      <trkpt lat="44.17754" lon="5.29064">
        <ele>1425.6794433594</ele>
        <time>2009-05-22T10:35:03Z</time>
      </trkpt>
      <trkpt lat="44.17758" lon="5.29051">
        <ele>1421.7579345703</ele>
        <time>2009-05-22T10:35:07Z</time>
      </trkpt>
      <trkpt lat="44.1776" lon="5.29046">
        <ele>1419.4448242188</ele>
        <time>2009-05-22T10:35:09Z</time>
      </trkpt>
      <trkpt lat="44.17765" lon="5.29027">
        <ele>1414.2416992188</ele>
        <time>2009-05-22T10:35:13Z</time>
      </trkpt>
      <trkpt lat="44.17769" lon="5.2901">
        <ele>1409.0610351562</ele>
        <time>2009-05-22T10:35:16Z</time>
      </trkpt>
      <trkpt lat="44.17769" lon="5.29004">
        <ele>1408.6147460938</ele>
        <time>2009-05-22T10:35:17Z</time>
      </trkpt>
      <trkpt lat="44.17772" lon="5.28983">
        <ele>1404.0318603516</ele>
        <time>2009-05-22T10:35:22Z</time>
      </trkpt>
      <trkpt lat="44.17773" lon="5.28983">
        <ele>1403.64453125</ele>
        <time>2009-05-22T10:35:23Z</time>
      </trkpt>
      <trkpt lat="44.17775" lon="5.28978">
        <ele>1400.7897949219</ele>
        <time>2009-05-22T10:35:33Z</time>
      </trkpt>
      <trkpt lat="44.17779" lon="5.28973">
        <ele>1397.6488037109</ele>
        <time>2009-05-22T10:35:53Z</time>
      </trkpt>
      <trkpt lat="44.17779" lon="5.28962">
        <ele>1397.2194824219</ele>
        <time>2009-05-22T10:36:00Z</time>
      </trkpt>
      <trkpt lat="44.17779" lon="5.28951">
        <ele>1396.8239746094</ele>
        <time>2009-05-22T10:36:03Z</time>
      </trkpt>
      <trkpt lat="44.17776" lon="5.28936">
        <ele>1397.6584472656</ele>
        <time>2009-05-22T10:36:06Z</time>
      </trkpt>
      <trkpt lat="44.17773" lon="5.28922">
        <ele>1400.3741455078</ele>
        <time>2009-05-22T10:36:09Z</time>
      </trkpt>
      <trkpt lat="44.17771" lon="5.28919">
        <ele>1401.6101074219</ele>
        <time>2009-05-22T10:36:10Z</time>
      </trkpt>
      <trkpt lat="44.1777" lon="5.28917">
        <ele>1402.923828125</ele>
        <time>2009-05-22T10:36:11Z</time>
      </trkpt>
      <trkpt lat="44.17768" lon="5.28914">
        <ele>1403.9864501953</ele>
        <time>2009-05-22T10:36:12Z</time>
      </trkpt>
      <trkpt lat="44.17766" lon="5.2891">
        <ele>1406.0150146484</ele>
        <time>2009-05-22T10:36:16Z</time>
      </trkpt>
      <trkpt lat="44.1776" lon="5.28891">
        <ele>1410.1546630859</ele>
        <time>2009-05-22T10:36:29Z</time>
      </trkpt>
      <trkpt lat="44.17767" lon="5.28878">
        <ele>1404.0129394531</ele>
        <time>2009-05-22T10:36:32Z</time>
      </trkpt>
      <trkpt lat="44.17769" lon="5.28867">
        <ele>1401.9837646484</ele>
        <time>2009-05-22T10:36:36Z</time>
      </trkpt>
      <trkpt lat="44.1777" lon="5.28866">
        <ele>1401.6265869141</ele>
        <time>2009-05-22T10:36:39Z</time>
      </trkpt>
      <trkpt lat="44.17772" lon="5.28864">
        <ele>1401.0166015625</ele>
        <time>2009-05-22T10:36:45Z</time>
      </trkpt>
      <trkpt lat="44.17772" lon="5.2886">
        <ele>1401.0467529297</ele>
        <time>2009-05-22T10:36:50Z</time>
      </trkpt>
      <trkpt lat="44.17773" lon="5.2886">
        <ele>1400.7115478516</ele>
        <time>2009-05-22T10:37:43Z</time>
      </trkpt>
      <trkpt lat="44.17773" lon="5.2886">
        <ele>1400.8720703125</ele>
        <time>2009-05-22T10:37:44Z</time>
      </trkpt>
      <trkpt lat="44.17768" lon="5.28851">
        <ele>1404.5853271484</ele>
        <time>2009-05-22T10:37:54Z</time>
      </trkpt>
      <trkpt lat="44.17766" lon="5.28844">
        <ele>1406.9678955078</ele>
        <time>2009-05-22T10:38:00Z</time>
      </trkpt>
      <trkpt lat="44.17766" lon="5.28843">
        <ele>1407.1069335938</ele>
        <time>2009-05-22T10:38:01Z</time>
      </trkpt>
      <trkpt lat="44.17763" lon="5.28833">
        <ele>1411.7180175781</ele>
        <time>2009-05-22T10:38:09Z</time>
      </trkpt>
      <trkpt lat="44.17762" lon="5.28829">
        <ele>1412.9248046875</ele>
        <time>2009-05-22T10:38:13Z</time>
      </trkpt>
      <trkpt lat="44.17761" lon="5.28826">
        <ele>1414.1870117188</ele>
        <time>2009-05-22T10:38:15Z</time>
      </trkpt>
      <trkpt lat="44.17759" lon="5.28822">
        <ele>1416.1799316406</ele>
        <time>2009-05-22T10:38:20Z</time>
      </trkpt>
      <trkpt lat="44.1776" lon="5.28811">
        <ele>1417.3823242188</ele>
        <time>2009-05-22T10:38:28Z</time>
      </trkpt>
      <trkpt lat="44.17763" lon="5.28806">
        <ele>1416.1209716797</ele>
        <time>2009-05-22T10:38:34Z</time>
      </trkpt>
      <trkpt lat="44.17765" lon="5.28803">
        <ele>1415.5574951172</ele>
        <time>2009-05-22T10:38:42Z</time>
      </trkpt>
      <trkpt lat="44.17769" lon="5.28795">
        <ele>1414.3515625</ele>
        <time>2009-05-22T10:38:49Z</time>
      </trkpt>
      <trkpt lat="44.1777" lon="5.28793">
        <ele>1414.1916503906</ele>
        <time>2009-05-22T10:38:52Z</time>
      </trkpt>
      <trkpt lat="44.17778" lon="5.28782">
        <ele>1410.9951171875</ele>
        <time>2009-05-22T10:39:00Z</time>
      </trkpt>
      <trkpt lat="44.17785" lon="5.28767">
        <ele>1412.6408691406</ele>
        <time>2009-05-22T10:39:07Z</time>
      </trkpt>
      <trkpt lat="44.17797" lon="5.28753">
        <ele>1413.4566650391</ele>
        <time>2009-05-22T10:39:13Z</time>
      </trkpt>
      <trkpt lat="44.17803" lon="5.28748">
        <ele>1413.8919677734</ele>
        <time>2009-05-22T10:39:18Z</time>
      </trkpt>
      <trkpt lat="44.1781" lon="5.28743">
        <ele>1414.2252197266</ele>
        <time>2009-05-22T10:39:26Z</time>
      </trkpt>
      <trkpt lat="44.17816" lon="5.28739">
        <ele>1414.7042236328</ele>
        <time>2009-05-22T10:39:31Z</time>
      </trkpt>
      <trkpt lat="44.17816" lon="5.28738">
        <ele>1414.7573242188</ele>
        <time>2009-05-22T10:39:32Z</time>
      </trkpt>
      <trkpt lat="44.17821" lon="5.28737">
        <ele>1414.5118408203</ele>
        <time>2009-05-22T10:39:38Z</time>
      </trkpt>
      <trkpt lat="44.17821" lon="5.28737">
        <ele>1414.5251464844</ele>
        <time>2009-05-22T10:39:40Z</time>
      </trkpt>
      <trkpt lat="44.17824" lon="5.28738">
        <ele>1414.05859375</ele>
        <time>2009-05-22T10:42:03Z</time>
      </trkpt>
      <trkpt lat="44.17826" lon="5.28738">
        <ele>1413.7437744141</ele>
        <time>2009-05-22T10:42:06Z</time>
      </trkpt>
      <trkpt lat="44.17829" lon="5.28737">
        <ele>1413.5495605469</ele>
        <time>2009-05-22T10:42:10Z</time>
      </trkpt>
      <trkpt lat="44.17837" lon="5.28733">
        <ele>1414.4622802734</ele>
        <time>2009-05-22T10:42:19Z</time>
      </trkpt>
      <trkpt lat="44.17842" lon="5.2873">
        <ele>1415.5057373047</ele>
        <time>2009-05-22T10:42:26Z</time>
      </trkpt>
      <trkpt lat="44.1785" lon="5.28728">
        <ele>1416.3959960938</ele>
        <time>2009-05-22T10:42:34Z</time>
      </trkpt>
      <trkpt lat="44.17851" lon="5.28728">
        <ele>1416.6977539062</ele>
        <time>2009-05-22T10:42:37Z</time>
      </trkpt>
      <trkpt lat="44.17855" lon="5.28728">
        <ele>1416.6553955078</ele>
        <time>2009-05-22T10:43:03Z</time>
      </trkpt>
      <trkpt lat="44.17864" lon="5.28732">
        <ele>1414.7156982422</ele>
        <time>2009-05-22T10:43:13Z</time>
      </trkpt>
      <trkpt lat="44.1787" lon="5.28736">
        <ele>1413.1726074219</ele>
        <time>2009-05-22T10:43:20Z</time>
      </trkpt>
      <trkpt lat="44.1787" lon="5.28736">
        <ele>1412.9000244141</ele>
        <time>2009-05-22T10:43:21Z</time>
      </trkpt>
      <trkpt lat="44.17874" lon="5.28735">
        <ele>1413.7198486328</ele>
        <time>2009-05-22T10:43:25Z</time>
      </trkpt>
      <trkpt lat="44.17875" lon="5.28731">
        <ele>1415.5992431641</ele>
        <time>2009-05-22T10:43:30Z</time>
      </trkpt>
      <trkpt lat="44.17881" lon="5.2873">
        <ele>1416.1638183594</ele>
        <time>2009-05-22T10:43:36Z</time>
      </trkpt>
      <trkpt lat="44.17885" lon="5.28733">
        <ele>1415.2894287109</ele>
        <time>2009-05-22T10:43:40Z</time>
      </trkpt>
      <trkpt lat="44.17891" lon="5.28732">
        <ele>1415.9339599609</ele>
        <time>2009-05-22T10:43:46Z</time>
      </trkpt>
      <trkpt lat="44.17892" lon="5.28733">
        <ele>1415.8724365234</ele>
        <time>2009-05-22T10:43:47Z</time>
      </trkpt>
      <trkpt lat="44.179" lon="5.28728">
        <ele>1419.2038574219</ele>
        <time>2009-05-22T10:43:54Z</time>
      </trkpt>
      <trkpt lat="44.17905" lon="5.28717">
        <ele>1425.4998779297</ele>
        <time>2009-05-22T10:44:00Z</time>
      </trkpt>
      <trkpt lat="44.17907" lon="5.28716">
        <ele>1426.3153076172</ele>
        <time>2009-05-22T10:44:01Z</time>
      </trkpt>
      <trkpt lat="44.1791" lon="5.28713">
        <ele>1428.6842041016</ele>
        <time>2009-05-22T10:44:04Z</time>
      </trkpt>
      <trkpt lat="44.17912" lon="5.28709">
        <ele>1431.1646728516</ele>
        <time>2009-05-22T10:44:08Z</time>
      </trkpt>
      <trkpt lat="44.17915" lon="5.28708">
        <ele>1432.5894775391</ele>
        <time>2009-05-22T10:44:13Z</time>
      </trkpt>
      <trkpt lat="44.17916" lon="5.28706">
        <ele>1433.9455566406</ele>
        <time>2009-05-22T10:44:20Z</time>
      </trkpt>
      <trkpt lat="44.17922" lon="5.287">
        <ele>1436.1143798828</ele>
        <time>2009-05-22T10:44:27Z</time>
      </trkpt>
      <trkpt lat="44.17923" lon="5.28699">
        <ele>1436.5366210938</ele>
        <time>2009-05-22T10:44:28Z</time>
      </trkpt>
      <trkpt lat="44.17925" lon="5.28697">
        <ele>1437.3178710938</ele>
        <time>2009-05-22T10:44:32Z</time>
      </trkpt>
      <trkpt lat="44.1794" lon="5.2869">
        <ele>1437.8986816406</ele>
        <time>2009-05-22T10:44:43Z</time>
      </trkpt>
      <trkpt lat="44.17955" lon="5.28684">
        <ele>1437.3767089844</ele>
        <time>2009-05-22T10:44:52Z</time>
      </trkpt>
      <trkpt lat="44.17957" lon="5.28684">
        <ele>1437.1020507812</ele>
        <time>2009-05-22T10:44:55Z</time>
      </trkpt>
      <trkpt lat="44.17961" lon="5.28687">
        <ele>1435.8524169922</ele>
        <time>2009-05-22T10:45:02Z</time>
      </trkpt>
      <trkpt lat="44.17973" lon="5.28688">
        <ele>1433.6662597656</ele>
        <time>2009-05-22T10:45:08Z</time>
      </trkpt>
      <trkpt lat="44.17979" lon="5.28687">
        <ele>1432.4733886719</ele>
        <time>2009-05-22T10:45:11Z</time>
      </trkpt>
      <trkpt lat="44.17994" lon="5.28695">
        <ele>1427.1488037109</ele>
        <time>2009-05-22T10:45:19Z</time>
      </trkpt>
      <trkpt lat="44.18005" lon="5.28701">
        <ele>1423.4287109375</ele>
        <time>2009-05-22T10:45:25Z</time>
      </trkpt>
      <trkpt lat="44.18008" lon="5.28701">
        <ele>1422.8776855469</ele>
        <time>2009-05-22T10:45:26Z</time>
      </trkpt>
      <trkpt lat="44.18018" lon="5.28699">
        <ele>1422.4759521484</ele>
        <time>2009-05-22T10:45:31Z</time>
      </trkpt>
      <trkpt lat="44.1803" lon="5.28695">
        <ele>1422.0975341797</ele>
        <time>2009-05-22T10:45:37Z</time>
      </trkpt>
      <trkpt lat="44.1804" lon="5.28687">
        <ele>1420.9448242188</ele>
        <time>2009-05-22T10:45:43Z</time>
      </trkpt>
      <trkpt lat="44.18046" lon="5.28678">
        <ele>1420.7772216797</ele>
        <time>2009-05-22T10:45:47Z</time>
      </trkpt>
      <trkpt lat="44.1805" lon="5.28672">
        <ele>1420.8448486328</ele>
        <time>2009-05-22T10:45:51Z</time>
      </trkpt>
      <trkpt lat="44.18054" lon="5.28668">
        <ele>1420.2711181641</ele>
        <time>2009-05-22T10:45:57Z</time>
      </trkpt>
      <trkpt lat="44.1806" lon="5.28656">
        <ele>1422.7232666016</ele>
        <time>2009-05-22T10:53:18Z</time>
      </trkpt>
      <trkpt lat="44.18061" lon="5.28654">
        <ele>1423.2313232422</ele>
        <time>2009-05-22T10:53:19Z</time>
      </trkpt>
      <trkpt lat="44.18069" lon="5.28642">
        <ele>1425.7272949219</ele>
        <time>2009-05-22T10:53:23Z</time>
      </trkpt>
      <trkpt lat="44.1808" lon="5.28627">
        <ele>1427.3775634766</ele>
        <time>2009-05-22T10:53:28Z</time>
      </trkpt>
      <trkpt lat="44.18093" lon="5.28615">
        <ele>1426.9964599609</ele>
        <time>2009-05-22T10:53:32Z</time>
      </trkpt>
      <trkpt lat="44.181" lon="5.28608">
        <ele>1427.5432128906</ele>
        <time>2009-05-22T10:53:34Z</time>
      </trkpt>
      <trkpt lat="44.18121" lon="5.28586">
        <ele>1428.9572753906</ele>
        <time>2009-05-22T10:53:41Z</time>
      </trkpt>
      <trkpt lat="44.18142" lon="5.2856">
        <ele>1429.3499755859</ele>
        <time>2009-05-22T10:53:48Z</time>
      </trkpt>
      <trkpt lat="44.18156" lon="5.28538">
        <ele>1429.4686279297</ele>
        <time>2009-05-22T10:53:53Z</time>
      </trkpt>
      <trkpt lat="44.18166" lon="5.28523">
        <ele>1428.3848876953</ele>
        <time>2009-05-22T10:53:57Z</time>
      </trkpt>
      <trkpt lat="44.1818" lon="5.285">
        <ele>1429.5834960938</ele>
        <time>2009-05-22T10:54:03Z</time>
      </trkpt>
      <trkpt lat="44.18189" lon="5.28486">
        <ele>1428.3295898438</ele>
        <time>2009-05-22T10:54:08Z</time>
      </trkpt>
      <trkpt lat="44.18204" lon="5.2847">
        <ele>1424.0147705078</ele>
        <time>2009-05-22T10:54:16Z</time>
      </trkpt>
      <trkpt lat="44.1822" lon="5.28467">
        <ele>1416.8863525391</ele>
        <time>2009-05-22T10:54:21Z</time>
      </trkpt>
      <trkpt lat="44.1824" lon="5.28475">
        <ele>1405.1213378906</ele>
        <time>2009-05-22T10:54:26Z</time>
      </trkpt>
      <trkpt lat="44.18253" lon="5.28478">
        <ele>1398.515625</ele>
        <time>2009-05-22T10:54:29Z</time>
      </trkpt>
      <trkpt lat="44.18262" lon="5.28462">
        <ele>1395.3602294922</ele>
        <time>2009-05-22T10:54:33Z</time>
      </trkpt>
      <trkpt lat="44.18263" lon="5.28456">
        <ele>1395.3237304688</ele>
        <time>2009-05-22T10:54:34Z</time>
      </trkpt>
      <trkpt lat="44.18267" lon="5.28428">
        <ele>1393.0057373047</ele>
        <time>2009-05-22T10:54:40Z</time>
      </trkpt>
      <trkpt lat="44.18271" lon="5.28408">
        <ele>1389.8314208984</ele>
        <time>2009-05-22T10:54:43Z</time>
      </trkpt>
      <trkpt lat="44.18272" lon="5.28399">
        <ele>1388.2706298828</ele>
        <time>2009-05-22T10:54:44Z</time>
      </trkpt>
      <trkpt lat="44.18269" lon="5.28366">
        <ele>1385.9508056641</ele>
        <time>2009-05-22T10:54:48Z</time>
      </trkpt>
      <trkpt lat="44.18266" lon="5.28351">
        <ele>1386.4013671875</ele>
        <time>2009-05-22T10:54:50Z</time>
      </trkpt>
      <trkpt lat="44.18251" lon="5.28315">
        <ele>1393.5269775391</ele>
        <time>2009-05-22T10:54:55Z</time>
      </trkpt>
      <trkpt lat="44.18241" lon="5.283">
        <ele>1396.8717041016</ele>
        <time>2009-05-22T10:54:57Z</time>
      </trkpt>
      <trkpt lat="44.18232" lon="5.28275">
        <ele>1398.3205566406</ele>
        <time>2009-05-22T10:55:00Z</time>
      </trkpt>
      <trkpt lat="44.18233" lon="5.28255">
        <ele>1396.4803466797</ele>
        <time>2009-05-22T10:55:02Z</time>
      </trkpt>
      <trkpt lat="44.18237" lon="5.28231">
        <ele>1392.3575439453</ele>
        <time>2009-05-22T10:55:05Z</time>
      </trkpt>
      <trkpt lat="44.18255" lon="5.28216">
        <ele>1384.3283691406</ele>
        <time>2009-05-22T10:55:08Z</time>
      </trkpt>
      <trkpt lat="44.18283" lon="5.28197">
        <ele>1381.2937011719</ele>
        <time>2009-05-22T10:55:12Z</time>
      </trkpt>
      <trkpt lat="44.18312" lon="5.28173">
        <ele>1379.4665527344</ele>
        <time>2009-05-22T10:55:16Z</time>
      </trkpt>
      <trkpt lat="44.18329" lon="5.28144">
        <ele>1380.0635986328</ele>
        <time>2009-05-22T10:55:20Z</time>
      </trkpt>
      <trkpt lat="44.18334" lon="5.28127">
        <ele>1380.76171875</ele>
        <time>2009-05-22T10:55:22Z</time>
      </trkpt>
      <trkpt lat="44.18343" lon="5.28084">
        <ele>1388.1198730469</ele>
        <time>2009-05-22T10:55:27Z</time>
      </trkpt>
      <trkpt lat="44.18343" lon="5.28038">
        <ele>1396.9096679688</ele>
        <time>2009-05-22T10:55:32Z</time>
      </trkpt>
      <trkpt lat="44.18342" lon="5.28023">
        <ele>1400.3101806641</ele>
        <time>2009-05-22T10:55:36Z</time>
      </trkpt>
      <trkpt lat="44.18348" lon="5.28022">
        <ele>1401.2943115234</ele>
        <time>2009-05-22T10:55:41Z</time>
      </trkpt>
      <trkpt lat="44.18352" lon="5.28021">
        <ele>1401.908203125</ele>
        <time>2009-05-22T10:55:43Z</time>
      </trkpt>
      <trkpt lat="44.18353" lon="5.28021">
        <ele>1402.0533447266</ele>
        <time>2009-05-22T10:55:44Z</time>
      </trkpt>
      <trkpt lat="44.18362" lon="5.2802">
        <ele>1403.2088623047</ele>
        <time>2009-05-22T10:55:49Z</time>
      </trkpt>
      <trkpt lat="44.18365" lon="5.28018">
        <ele>1403.5614013672</ele>
        <time>2009-05-22T10:55:51Z</time>
      </trkpt>
      <trkpt lat="44.18375" lon="5.28015">
        <ele>1404.3503417969</ele>
        <time>2009-05-22T10:55:57Z</time>
      </trkpt>
      <trkpt lat="44.18381" lon="5.28016">
        <ele>1404.5458984375</ele>
        <time>2009-05-22T10:56:01Z</time>
      </trkpt>
      <trkpt lat="44.18385" lon="5.28017">
        <ele>1404.6254882812</ele>
        <time>2009-05-22T10:56:04Z</time>
      </trkpt>
      <trkpt lat="44.18389" lon="5.28016">
        <ele>1404.8671875</ele>
        <time>2009-05-22T10:56:07Z</time>
      </trkpt>
      <trkpt lat="44.18395" lon="5.28005">
        <ele>1405.419921875</ele>
        <time>2009-05-22T10:56:13Z</time>
      </trkpt>
      <trkpt lat="44.18398" lon="5.27987">
        <ele>1406.4737548828</ele>
        <time>2009-05-22T10:56:20Z</time>
      </trkpt>
      <trkpt lat="44.18399" lon="5.27978">
        <ele>1406.9537353516</ele>
        <time>2009-05-22T10:56:24Z</time>
      </trkpt>
      <trkpt lat="44.18405" lon="5.27975">
        <ele>1406.7077636719</ele>
        <time>2009-05-22T10:56:28Z</time>
      </trkpt>
      <trkpt lat="44.18425" lon="5.27966">
        <ele>1404.9528808594</ele>
        <time>2009-05-22T10:56:37Z</time>
      </trkpt>
      <trkpt lat="44.18443" lon="5.27961">
        <ele>1402.6868896484</ele>
        <time>2009-05-22T10:56:43Z</time>
      </trkpt>
      <trkpt lat="44.18447" lon="5.27957">
        <ele>1402.3315429688</ele>
        <time>2009-05-22T10:56:45Z</time>
      </trkpt>
      <trkpt lat="44.18451" lon="5.27933">
        <ele>1402.060546875</ele>
        <time>2009-05-22T10:56:52Z</time>
      </trkpt>
      <trkpt lat="44.18451" lon="5.27909">
        <ele>1401.8525390625</ele>
        <time>2009-05-22T10:56:58Z</time>
      </trkpt>
      <trkpt lat="44.18447" lon="5.27887">
        <ele>1403.01171875</ele>
        <time>2009-05-22T10:57:03Z</time>
      </trkpt>
      <trkpt lat="44.18439" lon="5.27859">
        <ele>1405.1694335938</ele>
        <time>2009-05-22T10:57:09Z</time>
      </trkpt>
      <trkpt lat="44.18432" lon="5.27832">
        <ele>1407.1727294922</ele>
        <time>2009-05-22T10:57:15Z</time>
      </trkpt>
      <trkpt lat="44.18428" lon="5.278">
        <ele>1408.4151611328</ele>
        <time>2009-05-22T10:57:22Z</time>
      </trkpt>
      <trkpt lat="44.18427" lon="5.27767">
        <ele>1409.65625</ele>
        <time>2009-05-22T10:57:30Z</time>
      </trkpt>
      <trkpt lat="44.18425" lon="5.27722">
        <ele>1410.8566894531</ele>
        <time>2009-05-22T10:57:40Z</time>
      </trkpt>
      <trkpt lat="44.18424" lon="5.27697">
        <ele>1410.9665527344</ele>
        <time>2009-05-22T10:57:46Z</time>
      </trkpt>
      <trkpt lat="44.18428" lon="5.27663">
        <ele>1412.6046142578</ele>
        <time>2009-05-22T10:57:53Z</time>
      </trkpt>
      <trkpt lat="44.1843" lon="5.27621">
        <ele>1414.5338134766</ele>
        <time>2009-05-22T10:58:01Z</time>
      </trkpt>
      <trkpt lat="44.18435" lon="5.27574">
        <ele>1415.5208740234</ele>
        <time>2009-05-22T10:58:10Z</time>
      </trkpt>
      <trkpt lat="44.18447" lon="5.27539">
        <ele>1414.779296875</ele>
        <time>2009-05-22T10:58:18Z</time>
      </trkpt>
      <trkpt lat="44.1846" lon="5.27512">
        <ele>1413.1850585938</ele>
        <time>2009-05-22T10:58:25Z</time>
      </trkpt>
      <trkpt lat="44.18461" lon="5.27508">
        <ele>1412.9790039062</ele>
        <time>2009-05-22T10:58:26Z</time>
      </trkpt>
      <trkpt lat="44.18469" lon="5.27506">
        <ele>1411.6057128906</ele>
        <time>2009-05-22T10:58:30Z</time>
      </trkpt>
      <trkpt lat="44.18474" lon="5.27497">
        <ele>1410.6214599609</ele>
        <time>2009-05-22T10:58:33Z</time>
      </trkpt>
      <trkpt lat="44.18484" lon="5.27475">
        <ele>1408.3881835938</ele>
        <time>2009-05-22T10:58:41Z</time>
      </trkpt>
      <trkpt lat="44.18487" lon="5.27455">
        <ele>1407.8479003906</ele>
        <time>2009-05-22T10:58:48Z</time>
      </trkpt>
      <trkpt lat="44.18488" lon="5.27449">
        <ele>1407.79296875</ele>
        <time>2009-05-22T10:58:51Z</time>
      </trkpt>
      <trkpt lat="44.1849" lon="5.27433">
        <ele>1407.4633789062</ele>
        <time>2009-05-22T10:58:57Z</time>
      </trkpt>
      <trkpt lat="44.18482" lon="5.27423">
        <ele>1408.6169433594</ele>
        <time>2009-05-22T10:59:02Z</time>
      </trkpt>
      <trkpt lat="44.18476" lon="5.27419">
        <ele>1409.3859863281</ele>
        <time>2009-05-22T10:59:06Z</time>
      </trkpt>
      <trkpt lat="44.18474" lon="5.27414">
        <ele>1409.6164550781</ele>
        <time>2009-05-22T10:59:09Z</time>
      </trkpt>
      <trkpt lat="44.18474" lon="5.27411">
        <ele>1409.5286865234</ele>
        <time>2009-05-22T10:59:10Z</time>
      </trkpt>
      <trkpt lat="44.18471" lon="5.27401">
        <ele>1409.5916748047</ele>
        <time>2009-05-22T10:59:14Z</time>
      </trkpt>
      <trkpt lat="44.18469" lon="5.274">
        <ele>1409.8269042969</ele>
        <time>2009-05-22T10:59:18Z</time>
      </trkpt>
      <trkpt lat="44.18473" lon="5.27401">
        <ele>1409.3776855469</ele>
        <time>2009-05-22T11:03:06Z</time>
      </trkpt>
      <trkpt lat="44.18473" lon="5.274">
        <ele>1409.3055419922</ele>
        <time>2009-05-22T11:03:07Z</time>
      </trkpt>
      <trkpt lat="44.18466" lon="5.27389">
        <ele>1409.8801269531</ele>
        <time>2009-05-22T11:03:13Z</time>
      </trkpt>
      <trkpt lat="44.1846" lon="5.27394">
        <ele>1410.9289550781</ele>
        <time>2009-05-22T11:03:17Z</time>
      </trkpt>
      <trkpt lat="44.18458" lon="5.27403">
        <ele>1411.5349121094</ele>
        <time>2009-05-22T11:03:21Z</time>
      </trkpt>
      <trkpt lat="44.18457" lon="5.27414">
        <ele>1412.1287841797</ele>
        <time>2009-05-22T11:03:27Z</time>
      </trkpt>
      <trkpt lat="44.18457" lon="5.27413">
        <ele>1412.0704345703</ele>
        <time>2009-05-22T11:03:28Z</time>
      </trkpt>
      <trkpt lat="44.18459" lon="5.27433">
        <ele>1411.9128417969</ele>
        <time>2009-05-22T11:21:52Z</time>
      </trkpt>
      <trkpt lat="44.18461" lon="5.27435">
        <ele>1411.6381835938</ele>
        <time>2009-05-22T11:21:53Z</time>
      </trkpt>
      <trkpt lat="44.18471" lon="5.27435">
        <ele>1410.1550292969</ele>
        <time>2009-05-22T11:21:57Z</time>
      </trkpt>
      <trkpt lat="44.18479" lon="5.27432">
        <ele>1409.0563964844</ele>
        <time>2009-05-22T11:22:00Z</time>
      </trkpt>
      <trkpt lat="44.18488" lon="5.27443">
        <ele>1407.79296875</ele>
        <time>2009-05-22T11:22:04Z</time>
      </trkpt>
      <trkpt lat="44.18488" lon="5.27447">
        <ele>1407.79296875</ele>
        <time>2009-05-22T11:22:05Z</time>
      </trkpt>
      <trkpt lat="44.18486" lon="5.2746">
        <ele>1408.0126953125</ele>
        <time>2009-05-22T11:22:08Z</time>
      </trkpt>
      <trkpt lat="44.18485" lon="5.27464">
        <ele>1408.1225585938</ele>
        <time>2009-05-22T11:22:09Z</time>
      </trkpt>
      <trkpt lat="44.18483" lon="5.27478">
        <ele>1408.6748046875</ele>
        <time>2009-05-22T11:22:13Z</time>
      </trkpt>
      <trkpt lat="44.18481" lon="5.27494">
        <ele>1409.4970703125</ele>
        <time>2009-05-22T11:22:17Z</time>
      </trkpt>
      <trkpt lat="44.18479" lon="5.27503">
        <ele>1410.0563964844</ele>
        <time>2009-05-22T11:22:20Z</time>
      </trkpt>
      <trkpt lat="44.1848" lon="5.27513">
        <ele>1409.8916015625</ele>
        <time>2009-05-22T11:22:25Z</time>
      </trkpt>
      <trkpt lat="44.18486" lon="5.27513">
        <ele>1409.0126953125</ele>
        <time>2009-05-22T11:22:33Z</time>
      </trkpt>
      <trkpt lat="44.18488" lon="5.27516">
        <ele>1408.79296875</ele>
        <time>2009-05-22T11:22:37Z</time>
      </trkpt>
      <trkpt lat="44.18488" lon="5.27515">
        <ele>1408.7380371094</ele>
        <time>2009-05-22T11:22:38Z</time>
      </trkpt>
      <trkpt lat="44.18486" lon="5.27507">
        <ele>1409.0126953125</ele>
        <time>2009-05-22T11:36:53Z</time>
      </trkpt>
      <trkpt lat="44.18486" lon="5.27507">
        <ele>1409.0126953125</ele>
        <time>2009-05-22T11:36:54Z</time>
      </trkpt>
      <trkpt lat="44.18486" lon="5.27506">
        <ele>1409.0126953125</ele>
        <time>2009-05-22T11:36:55Z</time>
      </trkpt>
      <trkpt lat="44.18483" lon="5.27501">
        <ele>1409.3972167969</ele>
        <time>2009-05-22T11:37:16Z</time>
      </trkpt>
      <trkpt lat="44.18484" lon="5.27499">
        <ele>1409.2911376953</ele>
        <time>2009-05-22T11:37:18Z</time>
      </trkpt>
      <trkpt lat="44.18485" lon="5.27491">
        <ele>1408.8431396484</ele>
        <time>2009-05-22T11:37:23Z</time>
      </trkpt>
      <trkpt lat="44.18491" lon="5.27489">
        <ele>1407.8371582031</ele>
        <time>2009-05-22T11:37:30Z</time>
      </trkpt>
      <trkpt lat="44.18487" lon="5.27488">
        <ele>1408.4156494141</ele>
        <time>2009-05-22T11:37:44Z</time>
      </trkpt>
      <trkpt lat="44.18484" lon="5.27477">
        <ele>1408.4122314453</ele>
        <time>2009-05-22T11:37:49Z</time>
      </trkpt>
      <trkpt lat="44.18485" lon="5.27465">
        <ele>1408.1225585938</ele>
        <time>2009-05-22T11:37:54Z</time>
      </trkpt>
      <trkpt lat="44.18488" lon="5.27444">
        <ele>1407.6831054688</ele>
        <time>2009-05-22T11:38:03Z</time>
      </trkpt>
      <trkpt lat="44.1849" lon="5.27427">
        <ele>1407.4633789062</ele>
        <time>2009-05-22T11:38:10Z</time>
      </trkpt>
      <trkpt lat="44.18492" lon="5.27413">
        <ele>1407.1473388672</ele>
        <time>2009-05-22T11:38:17Z</time>
      </trkpt>
      <trkpt lat="44.18492" lon="5.27398">
        <ele>1406.9400634766</ele>
        <time>2009-05-22T11:38:24Z</time>
      </trkpt>
      <trkpt lat="44.18491" lon="5.27396">
        <ele>1407.0103759766</ele>
        <time>2009-05-22T11:38:25Z</time>
      </trkpt>
      <trkpt lat="44.18492" lon="5.27386">
        <ele>1406.8916015625</ele>
        <time>2009-05-22T11:38:30Z</time>
      </trkpt>
      <trkpt lat="44.18491" lon="5.27384">
        <ele>1406.9327392578</ele>
        <time>2009-05-22T11:38:31Z</time>
      </trkpt>
      <trkpt lat="44.18488" lon="5.27363">
        <ele>1407.3447265625</ele>
        <time>2009-05-22T11:38:38Z</time>
      </trkpt>
      <trkpt lat="44.18483" lon="5.27334">
        <ele>1407.7978515625</ele>
        <time>2009-05-22T11:38:44Z</time>
      </trkpt>
      <trkpt lat="44.18476" lon="5.27294">
        <ele>1408.6218261719</ele>
        <time>2009-05-22T11:38:50Z</time>
      </trkpt>
      <trkpt lat="44.18466" lon="5.27241">
        <ele>1407.1480712891</ele>
        <time>2009-05-22T11:38:56Z</time>
      </trkpt>
      <trkpt lat="44.18456" lon="5.2719">
        <ele>1404.3037109375</ele>
        <time>2009-05-22T11:39:01Z</time>
      </trkpt>
      <trkpt lat="44.18438" lon="5.27098">
        <ele>1397.341796875</ele>
        <time>2009-05-22T11:39:09Z</time>
      </trkpt>
      <trkpt lat="44.18436" lon="5.27086">
        <ele>1396.7205810547</ele>
        <time>2009-05-22T11:39:10Z</time>
      </trkpt>
      <trkpt lat="44.1842" lon="5.26974">
        <ele>1389.0623779297</ele>
        <time>2009-05-22T11:39:19Z</time>
      </trkpt>
      <trkpt lat="44.18408" lon="5.26876">
        <ele>1386.7191162109</ele>
        <time>2009-05-22T11:39:27Z</time>
      </trkpt>
      <trkpt lat="44.184" lon="5.26824">
        <ele>1385.3510742188</ele>
        <time>2009-05-22T11:39:32Z</time>
      </trkpt>
      <trkpt lat="44.18394" lon="5.26774">
        <ele>1381.4251708984</ele>
        <time>2009-05-22T11:39:38Z</time>
      </trkpt>
      <trkpt lat="44.18385" lon="5.26702">
        <ele>1375.3614501953</ele>
        <time>2009-05-22T11:39:46Z</time>
      </trkpt>
      <trkpt lat="44.18376" lon="5.26635">
        <ele>1371.1644287109</ele>
        <time>2009-05-22T11:39:52Z</time>
      </trkpt>
      <trkpt lat="44.1837" lon="5.26582">
        <ele>1369.7332763672</ele>
        <time>2009-05-22T11:39:56Z</time>
      </trkpt>
      <trkpt lat="44.18361" lon="5.26509">
        <ele>1368.7098388672</ele>
        <time>2009-05-22T11:40:01Z</time>
      </trkpt>
      <trkpt lat="44.1835" lon="5.26427">
        <ele>1371.4197998047</ele>
        <time>2009-05-22T11:40:07Z</time>
      </trkpt>
      <trkpt lat="44.18342" lon="5.26357">
        <ele>1375.6539306641</ele>
        <time>2009-05-22T11:40:13Z</time>
      </trkpt>
      <trkpt lat="44.18333" lon="5.26287">
        <ele>1378.6752929688</ele>
        <time>2009-05-22T11:40:20Z</time>
      </trkpt>
      <trkpt lat="44.18331" lon="5.26268">
        <ele>1379</ele>
        <time>2009-05-22T11:40:22Z</time>
      </trkpt>
      <trkpt lat="44.18332" lon="5.26242">
        <ele>1379.2958984375</ele>
        <time>2009-05-22T11:40:25Z</time>
      </trkpt>
      <trkpt lat="44.18328" lon="5.26211">
        <ele>1380</ele>
        <time>2009-05-22T11:40:29Z</time>
      </trkpt>
      <trkpt lat="44.18322" lon="5.26178">
        <ele>1381.4436035156</ele>
        <time>2009-05-22T11:40:35Z</time>
      </trkpt>
      <trkpt lat="44.1832" lon="5.2616">
        <ele>1383.2241210938</ele>
        <time>2009-05-22T11:40:39Z</time>
      </trkpt>
      <trkpt lat="44.18317" lon="5.26145">
        <ele>1385.0986328125</ele>
        <time>2009-05-22T11:40:43Z</time>
      </trkpt>
      <trkpt lat="44.18316" lon="5.26131">
        <ele>1386.6428222656</ele>
        <time>2009-05-22T11:40:47Z</time>
      </trkpt>
      <trkpt lat="44.18313" lon="5.26104">
        <ele>1389.7044677734</ele>
        <time>2009-05-22T11:40:55Z</time>
      </trkpt>
      <trkpt lat="44.18312" lon="5.26089">
        <ele>1393.2434082031</ele>
        <time>2009-05-22T11:41:00Z</time>
      </trkpt>
      <trkpt lat="44.18311" lon="5.26081">
        <ele>1395.4421386719</ele>
        <time>2009-05-22T11:41:03Z</time>
      </trkpt>
      <trkpt lat="44.1831" lon="5.26061">
        <ele>1400.2377929688</ele>
        <time>2009-05-22T11:41:10Z</time>
      </trkpt>
      <trkpt lat="44.18307" lon="5.26036">
        <ele>1400.7205810547</ele>
        <time>2009-05-22T11:41:19Z</time>
      </trkpt>
      <trkpt lat="44.18305" lon="5.26019">
        <ele>1401.0792236328</ele>
        <time>2009-05-22T11:41:25Z</time>
      </trkpt>
      <trkpt lat="44.18303" lon="5.26">
        <ele>1402.8312988281</ele>
        <time>2009-05-22T11:41:32Z</time>
      </trkpt>
      <trkpt lat="44.18299" lon="5.25973">
        <ele>1403.6446533203</ele>
        <time>2009-05-22T11:41:42Z</time>
      </trkpt>
      <trkpt lat="44.18293" lon="5.25943">
        <ele>1404.7004394531</ele>
        <time>2009-05-22T11:41:53Z</time>
      </trkpt>
      <trkpt lat="44.18287" lon="5.2592">
        <ele>1404.2619628906</ele>
        <time>2009-05-22T11:42:01Z</time>
      </trkpt>
      <trkpt lat="44.18283" lon="5.25913">
        <ele>1403.1591796875</ele>
        <time>2009-05-22T11:42:04Z</time>
      </trkpt>
      <trkpt lat="44.18272" lon="5.25887">
        <ele>1399.1469726562</ele>
        <time>2009-05-22T11:42:14Z</time>
      </trkpt>
      <trkpt lat="44.18259" lon="5.25865">
        <ele>1399.7911376953</ele>
        <time>2009-05-22T11:42:24Z</time>
      </trkpt>
      <trkpt lat="44.1825" lon="5.25849">
        <ele>1400.3028564453</ele>
        <time>2009-05-22T11:42:32Z</time>
      </trkpt>
      <trkpt lat="44.18241" lon="5.25835">
        <ele>1399.5344238281</ele>
        <time>2009-05-22T11:42:39Z</time>
      </trkpt>
      <trkpt lat="44.18232" lon="5.25816">
        <ele>1399.6929931641</ele>
        <time>2009-05-22T11:42:47Z</time>
      </trkpt>
      <trkpt lat="44.18216" lon="5.25793">
        <ele>1399.8044433594</ele>
        <time>2009-05-22T11:42:58Z</time>
      </trkpt>
      <trkpt lat="44.18205" lon="5.25775">
        <ele>1401.1331787109</ele>
        <time>2009-05-22T11:43:06Z</time>
      </trkpt>
      <trkpt lat="44.18192" lon="5.25753">
        <ele>1402.8133544922</ele>
        <time>2009-05-22T11:43:15Z</time>
      </trkpt>
      <trkpt lat="44.18178" lon="5.25726">
        <ele>1405.2384033203</ele>
        <time>2009-05-22T11:43:24Z</time>
      </trkpt>
      <trkpt lat="44.18164" lon="5.25695">
        <ele>1408.6252441406</ele>
        <time>2009-05-22T11:43:34Z</time>
      </trkpt>
      <trkpt lat="44.18151" lon="5.25657">
        <ele>1415.3734130859</ele>
        <time>2009-05-22T11:43:45Z</time>
      </trkpt>
      <trkpt lat="44.18141" lon="5.25614">
        <ele>1420.55078125</ele>
        <time>2009-05-22T11:43:56Z</time>
      </trkpt>
      <trkpt lat="44.18135" lon="5.25589">
        <ele>1421.2998046875</ele>
        <time>2009-05-22T11:44:02Z</time>
      </trkpt>
      <trkpt lat="44.18126" lon="5.25554">
        <ele>1420.900390625</ele>
        <time>2009-05-22T11:44:11Z</time>
      </trkpt>
      <trkpt lat="44.18117" lon="5.25534">
        <ele>1421.7603759766</ele>
        <time>2009-05-22T11:44:17Z</time>
      </trkpt>
      <trkpt lat="44.18108" lon="5.25536">
        <ele>1424.4930419922</ele>
        <time>2009-05-22T11:44:21Z</time>
      </trkpt>
      <trkpt lat="44.18103" lon="5.25559">
        <ele>1427.7097167969</ele>
        <time>2009-05-22T11:44:27Z</time>
      </trkpt>
      <trkpt lat="44.18103" lon="5.25568">
        <ele>1428.2692871094</ele>
        <time>2009-05-22T11:44:29Z</time>
      </trkpt>
      <trkpt lat="44.18105" lon="5.25617">
        <ele>1429.8635253906</ele>
        <time>2009-05-22T11:44:40Z</time>
      </trkpt>
      <trkpt lat="44.18106" lon="5.25651">
        <ele>1426.7194824219</ele>
        <time>2009-05-22T11:44:48Z</time>
      </trkpt>
      <trkpt lat="44.18108" lon="5.25701">
        <ele>1420.4162597656</ele>
        <time>2009-05-22T11:45:00Z</time>
      </trkpt>
      <trkpt lat="44.18109" lon="5.25751">
        <ele>1415.3082275391</ele>
        <time>2009-05-22T11:45:12Z</time>
      </trkpt>
      <trkpt lat="44.18106" lon="5.25784">
        <ele>1413.0322265625</ele>
        <time>2009-05-22T11:45:20Z</time>
      </trkpt>
      <trkpt lat="44.18102" lon="5.25825">
        <ele>1413.2908935547</ele>
        <time>2009-05-22T11:45:30Z</time>
      </trkpt>
      <trkpt lat="44.18098" lon="5.25834">
        <ele>1414.8126220703</ele>
        <time>2009-05-22T11:45:33Z</time>
      </trkpt>
      <trkpt lat="44.1809" lon="5.25829">
        <ele>1417.5029296875</ele>
        <time>2009-05-22T11:45:37Z</time>
      </trkpt>
      <trkpt lat="44.18089" lon="5.2582">
        <ele>1417.6953125</ele>
        <time>2009-05-22T11:45:39Z</time>
      </trkpt>
      <trkpt lat="44.18088" lon="5.25775">
        <ele>1417.1766357422</ele>
        <time>2009-05-22T11:45:48Z</time>
      </trkpt>
      <trkpt lat="44.18087" lon="5.25733">
        <ele>1421.7878417969</ele>
        <time>2009-05-22T11:45:56Z</time>
      </trkpt>
      <trkpt lat="44.18089" lon="5.25688">
        <ele>1425.7598876953</ele>
        <time>2009-05-22T11:46:04Z</time>
      </trkpt>
      <trkpt lat="44.18088" lon="5.25682">
        <ele>1426.7692871094</ele>
        <time>2009-05-22T11:46:05Z</time>
      </trkpt>
      <trkpt lat="44.18091" lon="5.25653">
        <ele>1429.8248291016</ele>
        <time>2009-05-22T11:46:09Z</time>
      </trkpt>
      <trkpt lat="44.18089" lon="5.25628">
        <ele>1432.5860595703</ele>
        <time>2009-05-22T11:46:12Z</time>
      </trkpt>
      <trkpt lat="44.18087" lon="5.25611">
        <ele>1434.2829589844</ele>
        <time>2009-05-22T11:46:14Z</time>
      </trkpt>
      <trkpt lat="44.18074" lon="5.25577">
        <ele>1435.1551513672</ele>
        <time>2009-05-22T11:46:19Z</time>
      </trkpt>
      <trkpt lat="44.18054" lon="5.25554">
        <ele>1437.9909667969</ele>
        <time>2009-05-22T11:46:26Z</time>
      </trkpt>
      <trkpt lat="44.18044" lon="5.25545">
        <ele>1438.3209228516</ele>
        <time>2009-05-22T11:46:30Z</time>
      </trkpt>
      <trkpt lat="44.18028" lon="5.25531">
        <ele>1438.7612304688</ele>
        <time>2009-05-22T11:46:37Z</time>
      </trkpt>
      <trkpt lat="44.18011" lon="5.2552">
        <ele>1439.1075439453</ele>
        <time>2009-05-22T11:46:44Z</time>
      </trkpt>
      <trkpt lat="44.17998" lon="5.25512">
        <ele>1439.7725830078</ele>
        <time>2009-05-22T11:46:50Z</time>
      </trkpt>
      <trkpt lat="44.17986" lon="5.25504">
        <ele>1442.0537109375</ele>
        <time>2009-05-22T11:46:56Z</time>
      </trkpt>
      <trkpt lat="44.17974" lon="5.25489">
        <ele>1443.1922607422</ele>
        <time>2009-05-22T11:47:03Z</time>
      </trkpt>
      <trkpt lat="44.17968" lon="5.25474">
        <ele>1445.1300048828</ele>
        <time>2009-05-22T11:47:09Z</time>
      </trkpt>
      <trkpt lat="44.17961" lon="5.25451">
        <ele>1446.5970458984</ele>
        <time>2009-05-22T11:47:17Z</time>
      </trkpt>
      <trkpt lat="44.17956" lon="5.25431">
        <ele>1449.1351318359</ele>
        <time>2009-05-22T11:47:24Z</time>
      </trkpt>
      <trkpt lat="44.1795" lon="5.25409">
        <ele>1452.5164794922</ele>
        <time>2009-05-22T11:47:32Z</time>
      </trkpt>
      <trkpt lat="44.17942" lon="5.25387">
        <ele>1457.67578125</ele>
        <time>2009-05-22T11:47:41Z</time>
      </trkpt>
      <trkpt lat="44.17932" lon="5.25366">
        <ele>1458.6079101562</ele>
        <time>2009-05-22T11:47:50Z</time>
      </trkpt>
      <trkpt lat="44.17926" lon="5.25344">
        <ele>1459.2894287109</ele>
        <time>2009-05-22T11:47:58Z</time>
      </trkpt>
      <trkpt lat="44.17921" lon="5.25313">
        <ele>1458.3673095703</ele>
        <time>2009-05-22T11:48:10Z</time>
      </trkpt>
      <trkpt lat="44.17915" lon="5.25284">
        <ele>1458.8168945312</ele>
        <time>2009-05-22T11:48:21Z</time>
      </trkpt>
      <trkpt lat="44.17911" lon="5.25263">
        <ele>1459.0441894531</ele>
        <time>2009-05-22T11:48:30Z</time>
      </trkpt>
      <trkpt lat="44.17905" lon="5.25241">
        <ele>1459.9897460938</ele>
        <time>2009-05-22T11:48:39Z</time>
      </trkpt>
      <trkpt lat="44.17897" lon="5.25224">
        <ele>1462.3244628906</ele>
        <time>2009-05-22T11:48:47Z</time>
      </trkpt>
      <trkpt lat="44.17889" lon="5.25207">
        <ele>1465.1899414062</ele>
        <time>2009-05-22T11:48:55Z</time>
      </trkpt>
      <trkpt lat="44.17886" lon="5.25186">
        <ele>1465.3726806641</ele>
        <time>2009-05-22T11:49:03Z</time>
      </trkpt>
      <trkpt lat="44.17891" lon="5.25166">
        <ele>1462.0913085938</ele>
        <time>2009-05-22T11:49:11Z</time>
      </trkpt>
      <trkpt lat="44.17896" lon="5.2515">
        <ele>1458.8399658203</ele>
        <time>2009-05-22T11:49:18Z</time>
      </trkpt>
      <trkpt lat="44.17897" lon="5.25132">
        <ele>1457.0163574219</ele>
        <time>2009-05-22T11:49:26Z</time>
      </trkpt>
      <trkpt lat="44.17897" lon="5.25105">
        <ele>1455.30859375</ele>
        <time>2009-05-22T11:49:36Z</time>
      </trkpt>
      <trkpt lat="44.17892" lon="5.25078">
        <ele>1458.1862792969</ele>
        <time>2009-05-22T11:49:47Z</time>
      </trkpt>
      <trkpt lat="44.17886" lon="5.25057">
        <ele>1460.8363037109</ele>
        <time>2009-05-22T11:49:56Z</time>
      </trkpt>
      <trkpt lat="44.17877" lon="5.25035">
        <ele>1462.640625</ele>
        <time>2009-05-22T11:50:05Z</time>
      </trkpt>
      <trkpt lat="44.17869" lon="5.25015">
        <ele>1463.9396972656</ele>
        <time>2009-05-22T11:50:14Z</time>
      </trkpt>
      <trkpt lat="44.17862" lon="5.24998">
        <ele>1464.8588867188</ele>
        <time>2009-05-22T11:50:22Z</time>
      </trkpt>
      <trkpt lat="44.17854" lon="5.24981">
        <ele>1466.7391357422</ele>
        <time>2009-05-22T11:50:30Z</time>
      </trkpt>
      <trkpt lat="44.17846" lon="5.24962">
        <ele>1468.3309326172</ele>
        <time>2009-05-22T11:50:39Z</time>
      </trkpt>
      <trkpt lat="44.17834" lon="5.2494">
        <ele>1470.4093017578</ele>
        <time>2009-05-22T11:50:49Z</time>
      </trkpt>
      <trkpt lat="44.17824" lon="5.2492">
        <ele>1471.8703613281</ele>
        <time>2009-05-22T11:50:58Z</time>
      </trkpt>
      <trkpt lat="44.17817" lon="5.24906">
        <ele>1472.7410888672</ele>
        <time>2009-05-22T11:51:05Z</time>
      </trkpt>
      <trkpt lat="44.17807" lon="5.2489">
        <ele>1473.8074951172</ele>
        <time>2009-05-22T11:51:14Z</time>
      </trkpt>
      <trkpt lat="44.17796" lon="5.24873">
        <ele>1475.666015625</ele>
        <time>2009-05-22T11:51:23Z</time>
      </trkpt>
      <trkpt lat="44.17793" lon="5.24867">
        <ele>1476.1684570312</ele>
        <time>2009-05-22T11:51:26Z</time>
      </trkpt>
      <trkpt lat="44.17785" lon="5.24854">
        <ele>1477.0202636719</ele>
        <time>2009-05-22T11:51:33Z</time>
      </trkpt>
      <trkpt lat="44.17775" lon="5.24837">
        <ele>1478.2996826172</ele>
        <time>2009-05-22T11:51:42Z</time>
      </trkpt>
      <trkpt lat="44.17764" lon="5.2482">
        <ele>1481.5167236328</ele>
        <time>2009-05-22T11:51:51Z</time>
      </trkpt>
      <trkpt lat="44.17751" lon="5.248">
        <ele>1484.4992675781</ele>
        <time>2009-05-22T11:52:01Z</time>
      </trkpt>
      <trkpt lat="44.17743" lon="5.24786">
        <ele>1485.8557128906</ele>
        <time>2009-05-22T11:52:08Z</time>
      </trkpt>
      <trkpt lat="44.17731" lon="5.24769">
        <ele>1487.4184570312</ele>
        <time>2009-05-22T11:52:17Z</time>
      </trkpt>
      <trkpt lat="44.17717" lon="5.2475">
        <ele>1488.6834716797</ele>
        <time>2009-05-22T11:52:28Z</time>
      </trkpt>
      <trkpt lat="44.17705" lon="5.24732">
        <ele>1491.1220703125</ele>
        <time>2009-05-22T11:52:38Z</time>
      </trkpt>
      <trkpt lat="44.17696" lon="5.24719">
        <ele>1492.7391357422</ele>
        <time>2009-05-22T11:52:45Z</time>
      </trkpt>
      <trkpt lat="44.17691" lon="5.24711">
        <ele>1492.9187011719</ele>
        <time>2009-05-22T11:52:50Z</time>
      </trkpt>
      <trkpt lat="44.17681" lon="5.24693">
        <ele>1493.1789550781</ele>
        <time>2009-05-22T11:52:59Z</time>
      </trkpt>
      <trkpt lat="44.17675" lon="5.24675">
        <ele>1492.4305419922</ele>
        <time>2009-05-22T11:53:07Z</time>
      </trkpt>
      <trkpt lat="44.17664" lon="5.24661">
        <ele>1494.4083251953</ele>
        <time>2009-05-22T11:53:15Z</time>
      </trkpt>
      <trkpt lat="44.17656" lon="5.24667">
        <ele>1497.2253417969</ele>
        <time>2009-05-22T11:53:20Z</time>
      </trkpt>
      <trkpt lat="44.17654" lon="5.2468">
        <ele>1500.6687011719</ele>
        <time>2009-05-22T11:53:25Z</time>
      </trkpt>
      <trkpt lat="44.17661" lon="5.24698">
        <ele>1501.0291748047</ele>
        <time>2009-05-22T11:53:32Z</time>
      </trkpt>
      <trkpt lat="44.17673" lon="5.24716">
        <ele>1498.5452880859</ele>
        <time>2009-05-22T11:53:40Z</time>
      </trkpt>
      <trkpt lat="44.17682" lon="5.24743">
        <ele>1499.7922363281</ele>
        <time>2009-05-22T11:53:49Z</time>
      </trkpt>
      <trkpt lat="44.17689" lon="5.2477">
        <ele>1501.1091308594</ele>
        <time>2009-05-22T11:53:59Z</time>
      </trkpt>
      <trkpt lat="44.17699" lon="5.24802">
        <ele>1500.7583007812</ele>
        <time>2009-05-22T11:54:10Z</time>
      </trkpt>
      <trkpt lat="44.17705" lon="5.24825">
        <ele>1502.853515625</ele>
        <time>2009-05-22T11:54:18Z</time>
      </trkpt>
      <trkpt lat="44.17714" lon="5.24859">
        <ele>1505.1832275391</ele>
        <time>2009-05-22T11:54:29Z</time>
      </trkpt>
      <trkpt lat="44.17722" lon="5.2489">
        <ele>1506.0979003906</ele>
        <time>2009-05-22T11:54:39Z</time>
      </trkpt>
      <trkpt lat="44.1773" lon="5.24921">
        <ele>1507.4947509766</ele>
        <time>2009-05-22T11:54:49Z</time>
      </trkpt>
      <trkpt lat="44.17735" lon="5.24946">
        <ele>1508.3603515625</ele>
        <time>2009-05-22T11:54:57Z</time>
      </trkpt>
      <trkpt lat="44.17739" lon="5.2497">
        <ele>1509.7421875</ele>
        <time>2009-05-22T11:55:04Z</time>
      </trkpt>
      <trkpt lat="44.17743" lon="5.25">
        <ele>1512.3839111328</ele>
        <time>2009-05-22T11:55:13Z</time>
      </trkpt>
      <trkpt lat="44.17746" lon="5.25032">
        <ele>1513.6140136719</ele>
        <time>2009-05-22T11:55:23Z</time>
      </trkpt>
      <trkpt lat="44.17752" lon="5.2506">
        <ele>1514.3680419922</ele>
        <time>2009-05-22T11:55:32Z</time>
      </trkpt>
      <trkpt lat="44.17754" lon="5.25085">
        <ele>1514.7097167969</ele>
        <time>2009-05-22T11:55:40Z</time>
      </trkpt>
      <trkpt lat="44.17758" lon="5.25125">
        <ele>1516.9859619141</ele>
        <time>2009-05-22T11:55:52Z</time>
      </trkpt>
      <trkpt lat="44.17759" lon="5.25162">
        <ele>1519.3166503906</ele>
        <time>2009-05-22T11:56:02Z</time>
      </trkpt>
      <trkpt lat="44.1776" lon="5.25201">
        <ele>1522.4417724609</ele>
        <time>2009-05-22T11:56:12Z</time>
      </trkpt>
      <trkpt lat="44.17764" lon="5.25245">
        <ele>1523.8372802734</ele>
        <time>2009-05-22T11:56:24Z</time>
      </trkpt>
      <trkpt lat="44.17765" lon="5.25252">
        <ele>1524.0607910156</ele>
        <time>2009-05-22T11:56:26Z</time>
      </trkpt>
      <trkpt lat="44.17768" lon="5.2529">
        <ele>1525.5412597656</ele>
        <time>2009-05-22T11:56:36Z</time>
      </trkpt>
      <trkpt lat="44.17772" lon="5.25332">
        <ele>1527.1892089844</ele>
        <time>2009-05-22T11:56:47Z</time>
      </trkpt>
      <trkpt lat="44.17775" lon="5.25371">
        <ele>1528.5031738281</ele>
        <time>2009-05-22T11:56:57Z</time>
      </trkpt>
      <trkpt lat="44.17778" lon="5.25405">
        <ele>1530.2806396484</ele>
        <time>2009-05-22T11:57:06Z</time>
      </trkpt>
      <trkpt lat="44.17779" lon="5.25433">
        <ele>1531.4584960938</ele>
        <time>2009-05-22T11:57:13Z</time>
      </trkpt>
      <trkpt lat="44.1778" lon="5.25465">
        <ele>1534.2227783203</ele>
        <time>2009-05-22T11:57:21Z</time>
      </trkpt>
      <trkpt lat="44.17775" lon="5.25498">
        <ele>1539.8966064453</ele>
        <time>2009-05-22T11:57:30Z</time>
      </trkpt>
      <trkpt lat="44.17769" lon="5.25521">
        <ele>1546.0769042969</ele>
        <time>2009-05-22T11:57:37Z</time>
      </trkpt>
      <trkpt lat="44.17766" lon="5.25547">
        <ele>1550.5417480469</ele>
        <time>2009-05-22T11:57:44Z</time>
      </trkpt>
      <trkpt lat="44.17772" lon="5.25573">
        <ele>1549.0583496094</ele>
        <time>2009-05-22T11:57:51Z</time>
      </trkpt>
      <trkpt lat="44.17783" lon="5.256">
        <ele>1544.6345214844</ele>
        <time>2009-05-22T11:57:59Z</time>
      </trkpt>
      <trkpt lat="44.17788" lon="5.25622">
        <ele>1543.0930175781</ele>
        <time>2009-05-22T11:58:06Z</time>
      </trkpt>
      <trkpt lat="44.17793" lon="5.25642">
        <ele>1542.4020996094</ele>
        <time>2009-05-22T11:58:12Z</time>
      </trkpt>
      <trkpt lat="44.17797" lon="5.25675">
        <ele>1543.7308349609</ele>
        <time>2009-05-22T11:58:21Z</time>
      </trkpt>
      <trkpt lat="44.17799" lon="5.25705">
        <ele>1545.5358886719</ele>
        <time>2009-05-22T11:58:29Z</time>
      </trkpt>
      <trkpt lat="44.178" lon="5.25725">
        <ele>1546.4747314453</ele>
        <time>2009-05-22T11:58:35Z</time>
      </trkpt>
      <trkpt lat="44.17799" lon="5.25743">
        <ele>1548.8385009766</ele>
        <time>2009-05-22T11:58:40Z</time>
      </trkpt>
      <trkpt lat="44.17799" lon="5.25766">
        <ele>1550.8995361328</ele>
        <time>2009-05-22T11:58:47Z</time>
      </trkpt>
      <trkpt lat="44.17797" lon="5.25791">
        <ele>1553.3267822266</ele>
        <time>2009-05-22T11:58:55Z</time>
      </trkpt>
      <trkpt lat="44.17796" lon="5.25814">
        <ele>1556.2884521484</ele>
        <time>2009-05-22T11:59:02Z</time>
      </trkpt>
      <trkpt lat="44.17791" lon="5.25839">
        <ele>1561.0628662109</ele>
        <time>2009-05-22T11:59:10Z</time>
      </trkpt>
      <trkpt lat="44.17784" lon="5.25865">
        <ele>1567.0301513672</ele>
        <time>2009-05-22T11:59:19Z</time>
      </trkpt>
      <trkpt lat="44.17775" lon="5.25889">
        <ele>1575.0285644531</ele>
        <time>2009-05-22T11:59:28Z</time>
      </trkpt>
      <trkpt lat="44.1777" lon="5.25911">
        <ele>1580.4497070312</ele>
        <time>2009-05-22T11:59:36Z</time>
      </trkpt>
      <trkpt lat="44.17771" lon="5.25928">
        <ele>1581.0300292969</ele>
        <time>2009-05-22T11:59:42Z</time>
      </trkpt>
      <trkpt lat="44.17777" lon="5.25947">
        <ele>1578.5279541016</ele>
        <time>2009-05-22T11:59:49Z</time>
      </trkpt>
      <trkpt lat="44.17782" lon="5.25968">
        <ele>1577.5167236328</ele>
        <time>2009-05-22T11:59:57Z</time>
      </trkpt>
      <trkpt lat="44.17784" lon="5.25994">
        <ele>1578.1518554688</ele>
        <time>2009-05-22T12:00:06Z</time>
      </trkpt>
      <trkpt lat="44.17786" lon="5.26023">
        <ele>1579.8658447266</ele>
        <time>2009-05-22T12:00:16Z</time>
      </trkpt>
      <trkpt lat="44.17787" lon="5.2605">
        <ele>1581.5275878906</ele>
        <time>2009-05-22T12:00:25Z</time>
      </trkpt>
      <trkpt lat="44.17787" lon="5.26068">
        <ele>1583.3256835938</ele>
        <time>2009-05-22T12:00:32Z</time>
      </trkpt>
      <trkpt lat="44.17787" lon="5.26086">
        <ele>1585.4525146484</ele>
        <time>2009-05-22T12:00:38Z</time>
      </trkpt>
      <trkpt lat="44.17783" lon="5.26117">
        <ele>1590.4250488281</ele>
        <time>2009-05-22T12:00:49Z</time>
      </trkpt>
      <trkpt lat="44.17782" lon="5.26143">
        <ele>1593.0476074219</ele>
        <time>2009-05-22T12:00:58Z</time>
      </trkpt>
      <trkpt lat="44.1778" lon="5.2617">
        <ele>1597.0830078125</ele>
        <time>2009-05-22T12:01:08Z</time>
      </trkpt>
      <trkpt lat="44.17778" lon="5.262">
        <ele>1600.0434570312</ele>
        <time>2009-05-22T12:01:19Z</time>
      </trkpt>
      <trkpt lat="44.17777" lon="5.26222">
        <ele>1600.3250732422</ele>
        <time>2009-05-22T12:01:27Z</time>
      </trkpt>
      <trkpt lat="44.17777" lon="5.26246">
        <ele>1601.0494384766</ele>
        <time>2009-05-22T12:01:36Z</time>
      </trkpt>
      <trkpt lat="44.17779" lon="5.26266">
        <ele>1601.2225341797</ele>
        <time>2009-05-22T12:01:44Z</time>
      </trkpt>
      <trkpt lat="44.1778" lon="5.26286">
        <ele>1601.7712402344</ele>
        <time>2009-05-22T12:01:52Z</time>
      </trkpt>
      <trkpt lat="44.17781" lon="5.26309">
        <ele>1602.4010009766</ele>
        <time>2009-05-22T12:02:01Z</time>
      </trkpt>
      <trkpt lat="44.17782" lon="5.26331">
        <ele>1603.0401611328</ele>
        <time>2009-05-22T12:02:09Z</time>
      </trkpt>
      <trkpt lat="44.17781" lon="5.26359">
        <ele>1604.3845214844</ele>
        <time>2009-05-22T12:02:19Z</time>
      </trkpt>
      <trkpt lat="44.17781" lon="5.26386">
        <ele>1605.294921875</ele>
        <time>2009-05-22T12:02:29Z</time>
      </trkpt>
      <trkpt lat="44.1778" lon="5.2641">
        <ele>1606.3215332031</ele>
        <time>2009-05-22T12:02:38Z</time>
      </trkpt>
      <trkpt lat="44.17779" lon="5.26436">
        <ele>1607.2967529297</ele>
        <time>2009-05-22T12:02:48Z</time>
      </trkpt>
      <trkpt lat="44.17779" lon="5.26459">
        <ele>1608.1218261719</ele>
        <time>2009-05-22T12:02:57Z</time>
      </trkpt>
      <trkpt lat="44.17778" lon="5.26482">
        <ele>1609.2736816406</ele>
        <time>2009-05-22T12:03:06Z</time>
      </trkpt>
      <trkpt lat="44.17776" lon="5.26505">
        <ele>1611.1494140625</ele>
        <time>2009-05-22T12:03:15Z</time>
      </trkpt>
      <trkpt lat="44.17772" lon="5.2653">
        <ele>1613.8435058594</ele>
        <time>2009-05-22T12:03:24Z</time>
      </trkpt>
      <trkpt lat="44.17768" lon="5.26555">
        <ele>1616.8596191406</ele>
        <time>2009-05-22T12:03:33Z</time>
      </trkpt>
      <trkpt lat="44.17762" lon="5.26574">
        <ele>1620.7026367188</ele>
        <time>2009-05-22T12:03:40Z</time>
      </trkpt>
      <trkpt lat="44.17757" lon="5.266">
        <ele>1624.3317871094</ele>
        <time>2009-05-22T12:03:50Z</time>
      </trkpt>
      <trkpt lat="44.17757" lon="5.26626">
        <ele>1625.7028808594</ele>
        <time>2009-05-22T12:03:59Z</time>
      </trkpt>
      <trkpt lat="44.17761" lon="5.26658">
        <ele>1625.0128173828</ele>
        <time>2009-05-22T12:04:10Z</time>
      </trkpt>
      <trkpt lat="44.17765" lon="5.26692">
        <ele>1624.3140869141</ele>
        <time>2009-05-22T12:04:22Z</time>
      </trkpt>
      <trkpt lat="44.17766" lon="5.26714">
        <ele>1624.8231201172</ele>
        <time>2009-05-22T12:04:30Z</time>
      </trkpt>
      <trkpt lat="44.17766" lon="5.2673">
        <ele>1625.4636230469</ele>
        <time>2009-05-22T12:04:36Z</time>
      </trkpt>
      <trkpt lat="44.17766" lon="5.26753">
        <ele>1625.4112548828</ele>
        <time>2009-05-22T12:04:44Z</time>
      </trkpt>
      <trkpt lat="44.17765" lon="5.26779">
        <ele>1625.2102050781</ele>
        <time>2009-05-22T12:04:53Z</time>
      </trkpt>
      <trkpt lat="44.17765" lon="5.26808">
        <ele>1625.1374511719</ele>
        <time>2009-05-22T12:05:04Z</time>
      </trkpt>
      <trkpt lat="44.17764" lon="5.26835">
        <ele>1625.2799072266</ele>
        <time>2009-05-22T12:05:14Z</time>
      </trkpt>
      <trkpt lat="44.17763" lon="5.26863">
        <ele>1625.2392578125</ele>
        <time>2009-05-22T12:05:24Z</time>
      </trkpt>
      <trkpt lat="44.17763" lon="5.26892">
        <ele>1624.3620605469</ele>
        <time>2009-05-22T12:05:34Z</time>
      </trkpt>
      <trkpt lat="44.1776" lon="5.26923">
        <ele>1624.2435302734</ele>
        <time>2009-05-22T12:05:45Z</time>
      </trkpt>
      <trkpt lat="44.17759" lon="5.26953">
        <ele>1624.2045898438</ele>
        <time>2009-05-22T12:05:56Z</time>
      </trkpt>
      <trkpt lat="44.17756" lon="5.26981">
        <ele>1624.6772460938</ele>
        <time>2009-05-22T12:06:06Z</time>
      </trkpt>
      <trkpt lat="44.17754" lon="5.2701">
        <ele>1624.1147460938</ele>
        <time>2009-05-22T12:06:16Z</time>
      </trkpt>
      <trkpt lat="44.17751" lon="5.27029">
        <ele>1625.7147216797</ele>
        <time>2009-05-22T12:06:24Z</time>
      </trkpt>
      <trkpt lat="44.17748" lon="5.2705">
        <ele>1626.0546875</ele>
        <time>2009-05-22T12:06:31Z</time>
      </trkpt>
      <trkpt lat="44.17744" lon="5.27078">
        <ele>1625.7320556641</ele>
        <time>2009-05-22T12:06:41Z</time>
      </trkpt>
      <trkpt lat="44.1774" lon="5.27102">
        <ele>1627.1281738281</ele>
        <time>2009-05-22T12:06:50Z</time>
      </trkpt>
      <trkpt lat="44.17734" lon="5.27132">
        <ele>1628.6741943359</ele>
        <time>2009-05-22T12:07:01Z</time>
      </trkpt>
      <trkpt lat="44.17729" lon="5.2716">
        <ele>1629.6407470703</ele>
        <time>2009-05-22T12:07:11Z</time>
      </trkpt>
      <trkpt lat="44.17723" lon="5.27196">
        <ele>1630.4372558594</ele>
        <time>2009-05-22T12:07:24Z</time>
      </trkpt>
      <trkpt lat="44.17719" lon="5.27227">
        <ele>1631.0279541016</ele>
        <time>2009-05-22T12:07:35Z</time>
      </trkpt>
      <trkpt lat="44.17711" lon="5.27251">
        <ele>1632.5059814453</ele>
        <time>2009-05-22T12:07:44Z</time>
      </trkpt>
      <trkpt lat="44.17698" lon="5.27269">
        <ele>1636.0782470703</ele>
        <time>2009-05-22T12:07:53Z</time>
      </trkpt>
      <trkpt lat="44.1768" lon="5.27281">
        <ele>1643.6408691406</ele>
        <time>2009-05-22T12:08:03Z</time>
      </trkpt>
      <trkpt lat="44.17669" lon="5.27294">
        <ele>1648.5504150391</ele>
        <time>2009-05-22T12:08:10Z</time>
      </trkpt>
      <trkpt lat="44.17655" lon="5.27311">
        <ele>1654.3717041016</ele>
        <time>2009-05-22T12:08:19Z</time>
      </trkpt>
      <trkpt lat="44.17643" lon="5.27329">
        <ele>1660.345703125</ele>
        <time>2009-05-22T12:08:28Z</time>
      </trkpt>
      <trkpt lat="44.17638" lon="5.27338">
        <ele>1663.4486083984</ele>
        <time>2009-05-22T12:08:33Z</time>
      </trkpt>
      <trkpt lat="44.17628" lon="5.2736">
        <ele>1671.9139404297</ele>
        <time>2009-05-22T12:08:42Z</time>
      </trkpt>
      <trkpt lat="44.17619" lon="5.27383">
        <ele>1678.0056152344</ele>
        <time>2009-05-22T12:08:51Z</time>
      </trkpt>
      <trkpt lat="44.17608" lon="5.27403">
        <ele>1685.5808105469</ele>
        <time>2009-05-22T12:09:00Z</time>
      </trkpt>
      <trkpt lat="44.17604" lon="5.27424">
        <ele>1691.6818847656</ele>
        <time>2009-05-22T12:09:08Z</time>
      </trkpt>
      <trkpt lat="44.17605" lon="5.27429">
        <ele>1692.5986328125</ele>
        <time>2009-05-22T12:09:10Z</time>
      </trkpt>
      <trkpt lat="44.17614" lon="5.27441">
        <ele>1692.5239257812</ele>
        <time>2009-05-22T12:09:16Z</time>
      </trkpt>
      <trkpt lat="44.17627" lon="5.27454">
        <ele>1693.0520019531</ele>
        <time>2009-05-22T12:09:24Z</time>
      </trkpt>
      <trkpt lat="44.17643" lon="5.2746">
        <ele>1690.8627929688</ele>
        <time>2009-05-22T12:09:32Z</time>
      </trkpt>
      <trkpt lat="44.17658" lon="5.27466">
        <ele>1688.6763916016</ele>
        <time>2009-05-22T12:09:40Z</time>
      </trkpt>
      <trkpt lat="44.17677" lon="5.27475">
        <ele>1686.8862304688</ele>
        <time>2009-05-22T12:09:50Z</time>
      </trkpt>
      <trkpt lat="44.17688" lon="5.27485">
        <ele>1687.5650634766</ele>
        <time>2009-05-22T12:09:58Z</time>
      </trkpt>
      <trkpt lat="44.177" lon="5.27502">
        <ele>1690.6228027344</ele>
        <time>2009-05-22T12:10:07Z</time>
      </trkpt>
      <trkpt lat="44.17714" lon="5.27519">
        <ele>1689.8607177734</ele>
        <time>2009-05-22T12:10:17Z</time>
      </trkpt>
      <trkpt lat="44.17725" lon="5.27537">
        <ele>1690.6704101562</ele>
        <time>2009-05-22T12:10:26Z</time>
      </trkpt>
      <trkpt lat="44.17735" lon="5.2756">
        <ele>1693.0759277344</ele>
        <time>2009-05-22T12:10:36Z</time>
      </trkpt>
      <trkpt lat="44.17745" lon="5.27585">
        <ele>1695.1037597656</ele>
        <time>2009-05-22T12:10:47Z</time>
      </trkpt>
      <trkpt lat="44.17751" lon="5.27606">
        <ele>1698.0395507812</ele>
        <time>2009-05-22T12:10:56Z</time>
      </trkpt>
      <trkpt lat="44.17757" lon="5.27625">
        <ele>1698.1704101562</ele>
        <time>2009-05-22T12:11:04Z</time>
      </trkpt>
      <trkpt lat="44.17762" lon="5.27648">
        <ele>1698.2230224609</ele>
        <time>2009-05-22T12:11:14Z</time>
      </trkpt>
      <trkpt lat="44.17766" lon="5.27675">
        <ele>1698.8618164062</ele>
        <time>2009-05-22T12:11:25Z</time>
      </trkpt>
      <trkpt lat="44.17768" lon="5.27696">
        <ele>1699.4086914062</ele>
        <time>2009-05-22T12:11:33Z</time>
      </trkpt>
      <trkpt lat="44.1777" lon="5.2772">
        <ele>1699.5454101562</ele>
        <time>2009-05-22T12:11:43Z</time>
      </trkpt>
      <trkpt lat="44.17771" lon="5.27742">
        <ele>1700.3680419922</ele>
        <time>2009-05-22T12:11:52Z</time>
      </trkpt>
      <trkpt lat="44.17771" lon="5.27759">
        <ele>1700.7097167969</ele>
        <time>2009-05-22T12:11:59Z</time>
      </trkpt>
      <trkpt lat="44.17768" lon="5.27792">
        <ele>1701.6882324219</ele>
        <time>2009-05-22T12:12:12Z</time>
      </trkpt>
      <trkpt lat="44.17767" lon="5.27817">
        <ele>1701.9140625</ele>
        <time>2009-05-22T12:12:23Z</time>
      </trkpt>
      <trkpt lat="44.17765" lon="5.27835">
        <ele>1701.4741210938</ele>
        <time>2009-05-22T12:12:30Z</time>
      </trkpt>
      <trkpt lat="44.17765" lon="5.27856">
        <ele>1699.9326171875</ele>
        <time>2009-05-22T12:12:38Z</time>
      </trkpt>
      <trkpt lat="44.17765" lon="5.2788">
        <ele>1698.4625244141</ele>
        <time>2009-05-22T12:12:48Z</time>
      </trkpt>
      <trkpt lat="44.17764" lon="5.27903">
        <ele>1697.2165527344</ele>
        <time>2009-05-22T12:12:57Z</time>
      </trkpt>
      <trkpt lat="44.17763" lon="5.27923">
        <ele>1696.0297851562</ele>
        <time>2009-05-22T12:13:05Z</time>
      </trkpt>
      <trkpt lat="44.17762" lon="5.27943">
        <ele>1695.6646728516</ele>
        <time>2009-05-22T12:13:13Z</time>
      </trkpt>
      <trkpt lat="44.17759" lon="5.27965">
        <ele>1695.8133544922</ele>
        <time>2009-05-22T12:13:23Z</time>
      </trkpt>
      <trkpt lat="44.17757" lon="5.27985">
        <ele>1696.3416748047</ele>
        <time>2009-05-22T12:13:31Z</time>
      </trkpt>
      <trkpt lat="44.17755" lon="5.28003">
        <ele>1697.1439208984</ele>
        <time>2009-05-22T12:13:39Z</time>
      </trkpt>
      <trkpt lat="44.17755" lon="5.28019">
        <ele>1695.2767333984</ele>
        <time>2009-05-22T12:13:47Z</time>
      </trkpt>
      <trkpt lat="44.17761" lon="5.28032">
        <ele>1691.201171875</ele>
        <time>2009-05-22T12:13:53Z</time>
      </trkpt>
      <trkpt lat="44.17761" lon="5.28034">
        <ele>1690.9954833984</ele>
        <time>2009-05-22T12:13:54Z</time>
      </trkpt>
      <trkpt lat="44.17755" lon="5.28049">
        <ele>1692.3796386719</ele>
        <time>2009-05-22T12:14:01Z</time>
      </trkpt>
      <trkpt lat="44.17744" lon="5.28051">
        <ele>1697.291015625</ele>
        <time>2009-05-22T12:14:07Z</time>
      </trkpt>
      <trkpt lat="44.17741" lon="5.28048">
        <ele>1699.2222900391</ele>
        <time>2009-05-22T12:14:09Z</time>
      </trkpt>
      <trkpt lat="44.17739" lon="5.28031">
        <ele>1701.6065673828</ele>
        <time>2009-05-22T12:14:15Z</time>
      </trkpt>
      <trkpt lat="44.17743" lon="5.28004">
        <ele>1702.7360839844</ele>
        <time>2009-05-22T12:14:25Z</time>
      </trkpt>
      <trkpt lat="44.17743" lon="5.27991">
        <ele>1703.2877197266</ele>
        <time>2009-05-22T12:14:31Z</time>
      </trkpt>
      <trkpt lat="44.17744" lon="5.27976">
        <ele>1703.3542480469</ele>
        <time>2009-05-22T12:14:37Z</time>
      </trkpt>
      <trkpt lat="44.17742" lon="5.27953">
        <ele>1705.5590820312</ele>
        <time>2009-05-22T12:14:45Z</time>
      </trkpt>
      <trkpt lat="44.17739" lon="5.27936">
        <ele>1708.5446777344</ele>
        <time>2009-05-22T12:14:52Z</time>
      </trkpt>
      <trkpt lat="44.17737" lon="5.27921">
        <ele>1710.7419433594</ele>
        <time>2009-05-22T12:14:58Z</time>
      </trkpt>
      <trkpt lat="44.17734" lon="5.27905">
        <ele>1714.2386474609</ele>
        <time>2009-05-22T12:15:05Z</time>
      </trkpt>
      <trkpt lat="44.17728" lon="5.27877">
        <ele>1720.7119140625</ele>
        <time>2009-05-22T12:15:16Z</time>
      </trkpt>
      <trkpt lat="44.17722" lon="5.27856">
        <ele>1726.2860107422</ele>
        <time>2009-05-22T12:15:25Z</time>
      </trkpt>
      <trkpt lat="44.17718" lon="5.27842">
        <ele>1729.3181152344</ele>
        <time>2009-05-22T12:15:32Z</time>
      </trkpt>
      <trkpt lat="44.17712" lon="5.27827">
        <ele>1733.1890869141</ele>
        <time>2009-05-22T12:15:39Z</time>
      </trkpt>
      <trkpt lat="44.17705" lon="5.27808">
        <ele>1738.6450195312</ele>
        <time>2009-05-22T12:15:48Z</time>
      </trkpt>
      <trkpt lat="44.17695" lon="5.27782">
        <ele>1742.7818603516</ele>
        <time>2009-05-22T12:16:00Z</time>
      </trkpt>
      <trkpt lat="44.17688" lon="5.27764">
        <ele>1744.1030273438</ele>
        <time>2009-05-22T12:16:08Z</time>
      </trkpt>
      <trkpt lat="44.17679" lon="5.27741">
        <ele>1744.5734863281</ele>
        <time>2009-05-22T12:16:18Z</time>
      </trkpt>
      <trkpt lat="44.17669" lon="5.27718">
        <ele>1745.2808837891</ele>
        <time>2009-05-22T12:16:28Z</time>
      </trkpt>
      <trkpt lat="44.17659" lon="5.277">
        <ele>1747.1092529297</ele>
        <time>2009-05-22T12:16:36Z</time>
      </trkpt>
      <trkpt lat="44.17645" lon="5.27681">
        <ele>1748.4232177734</ele>
        <time>2009-05-22T12:16:46Z</time>
      </trkpt>
      <trkpt lat="44.17634" lon="5.27669">
        <ele>1749.6658935547</ele>
        <time>2009-05-22T12:16:54Z</time>
      </trkpt>
      <trkpt lat="44.1762" lon="5.27658">
        <ele>1752.5928955078</ele>
        <time>2009-05-22T12:17:03Z</time>
      </trkpt>
      <trkpt lat="44.17608" lon="5.2765">
        <ele>1755.9871826172</ele>
        <time>2009-05-22T12:17:11Z</time>
      </trkpt>
      <trkpt lat="44.17592" lon="5.2764">
        <ele>1761.8494873047</ele>
        <time>2009-05-22T12:17:21Z</time>
      </trkpt>
      <trkpt lat="44.17576" lon="5.27631">
        <ele>1768.6849365234</ele>
        <time>2009-05-22T12:17:31Z</time>
      </trkpt>
      <trkpt lat="44.17561" lon="5.27624">
        <ele>1777.6312255859</ele>
        <time>2009-05-22T12:17:41Z</time>
      </trkpt>
      <trkpt lat="44.17549" lon="5.2762">
        <ele>1783.4777832031</ele>
        <time>2009-05-22T12:17:50Z</time>
      </trkpt>
      <trkpt lat="44.17534" lon="5.27616">
        <ele>1790.2628173828</ele>
        <time>2009-05-22T12:18:00Z</time>
      </trkpt>
      <trkpt lat="44.17519" lon="5.27614">
        <ele>1797.2590332031</ele>
        <time>2009-05-22T12:18:09Z</time>
      </trkpt>
      <trkpt lat="44.17505" lon="5.27611">
        <ele>1803.3978271484</ele>
        <time>2009-05-22T12:18:17Z</time>
      </trkpt>
      <trkpt lat="44.17489" lon="5.27608">
        <ele>1810.6599121094</ele>
        <time>2009-05-22T12:18:26Z</time>
      </trkpt>
      <trkpt lat="44.17479" lon="5.27603">
        <ele>1814.8621826172</ele>
        <time>2009-05-22T12:18:32Z</time>
      </trkpt>
      <trkpt lat="44.17465" lon="5.27592">
        <ele>1818.3873291016</ele>
        <time>2009-05-22T12:18:41Z</time>
      </trkpt>
      <trkpt lat="44.17451" lon="5.27575">
        <ele>1820.4100341797</ele>
        <time>2009-05-22T12:18:51Z</time>
      </trkpt>
      <trkpt lat="44.17437" lon="5.27556">
        <ele>1823.8858642578</ele>
        <time>2009-05-22T12:19:02Z</time>
      </trkpt>
      <trkpt lat="44.17426" lon="5.27542">
        <ele>1826.1281738281</ele>
        <time>2009-05-22T12:19:11Z</time>
      </trkpt>
      <trkpt lat="44.17413" lon="5.27526">
        <ele>1829.2817382812</ele>
        <time>2009-05-22T12:19:21Z</time>
      </trkpt>
      <trkpt lat="44.17402" lon="5.27513">
        <ele>1831.3170166016</ele>
        <time>2009-05-22T12:19:29Z</time>
      </trkpt>
      <trkpt lat="44.17392" lon="5.27496">
        <ele>1833.0120849609</ele>
        <time>2009-05-22T12:19:38Z</time>
      </trkpt>
      <trkpt lat="44.17385" lon="5.27478">
        <ele>1832.3670654297</ele>
        <time>2009-05-22T12:19:47Z</time>
      </trkpt>
      <trkpt lat="44.17381" lon="5.27457">
        <ele>1830.2712402344</ele>
        <time>2009-05-22T12:19:56Z</time>
      </trkpt>
      <trkpt lat="44.17379" lon="5.27436">
        <ele>1827.3474121094</ele>
        <time>2009-05-22T12:20:04Z</time>
      </trkpt>
      <trkpt lat="44.17379" lon="5.27411">
        <ele>1823.5379638672</ele>
        <time>2009-05-22T12:20:13Z</time>
      </trkpt>
      <trkpt lat="44.17379" lon="5.27378">
        <ele>1818.2858886719</ele>
        <time>2009-05-22T12:20:25Z</time>
      </trkpt>
      <trkpt lat="44.17379" lon="5.27359">
        <ele>1815.4287109375</ele>
        <time>2009-05-22T12:20:33Z</time>
      </trkpt>
      <trkpt lat="44.17379" lon="5.27332">
        <ele>1810.2647705078</ele>
        <time>2009-05-22T12:20:43Z</time>
      </trkpt>
      <trkpt lat="44.17383" lon="5.27306">
        <ele>1806.5158691406</ele>
        <time>2009-05-22T12:20:52Z</time>
      </trkpt>
      <trkpt lat="44.1739" lon="5.27279">
        <ele>1804.8577880859</ele>
        <time>2009-05-22T12:21:02Z</time>
      </trkpt>
      <trkpt lat="44.17389" lon="5.2725">
        <ele>1804.9411621094</ele>
        <time>2009-05-22T12:21:12Z</time>
      </trkpt>
      <trkpt lat="44.17381" lon="5.27233">
        <ele>1806.9157714844</ele>
        <time>2009-05-22T12:21:19Z</time>
      </trkpt>
      <trkpt lat="44.17369" lon="5.27228">
        <ele>1809.9919433594</ele>
        <time>2009-05-22T12:21:25Z</time>
      </trkpt>
      <trkpt lat="44.17355" lon="5.27233">
        <ele>1813.548828125</ele>
        <time>2009-05-22T12:21:32Z</time>
      </trkpt>
      <trkpt lat="44.17347" lon="5.27247">
        <ele>1815.5675048828</ele>
        <time>2009-05-22T12:21:38Z</time>
      </trkpt>
      <trkpt lat="44.17345" lon="5.27268">
        <ele>1816.0480957031</ele>
        <time>2009-05-22T12:21:45Z</time>
      </trkpt>
      <trkpt lat="44.17346" lon="5.27282">
        <ele>1815.759765625</ele>
        <time>2009-05-22T12:21:52Z</time>
      </trkpt>
      <trkpt lat="44.17347" lon="5.27302">
        <ele>1815.4714355469</ele>
        <time>2009-05-22T12:22:01Z</time>
      </trkpt>
      <trkpt lat="44.17348" lon="5.27315">
        <ele>1816.7468261719</ele>
        <time>2009-05-22T12:22:05Z</time>
      </trkpt>
      <trkpt lat="44.17349" lon="5.27316">
        <ele>1816.5642089844</ele>
        <time>2009-05-22T12:22:09Z</time>
      </trkpt>
      <trkpt lat="44.17347" lon="5.27314">
        <ele>1816.9055175781</ele>
        <time>2009-05-22T12:22:12Z</time>
      </trkpt>
      <trkpt lat="44.17345" lon="5.27308">
        <ele>1816.3978271484</ele>
        <time>2009-05-22T12:22:19Z</time>
      </trkpt>
      <trkpt lat="44.17346" lon="5.27305">
        <ele>1815.8559570312</ele>
        <time>2009-05-22T12:22:21Z</time>
      </trkpt>
      <trkpt lat="44.1735" lon="5.27308">
        <ele>1815.1378173828</ele>
        <time>2009-05-22T12:22:25Z</time>
      </trkpt>
      <trkpt lat="44.1735" lon="5.27321">
        <ele>1817.1724853516</ele>
        <time>2009-05-22T12:22:29Z</time>
      </trkpt>
      <trkpt lat="44.17348" lon="5.27356">
        <ele>1825.3862304688</ele>
        <time>2009-05-22T12:22:39Z</time>
      </trkpt>
      <trkpt lat="44.17349" lon="5.27385">
        <ele>1830.2153320312</ele>
        <time>2009-05-22T12:22:47Z</time>
      </trkpt>
      <trkpt lat="44.17348" lon="5.27406">
        <ele>1834.1206054688</ele>
        <time>2009-05-22T12:22:55Z</time>
      </trkpt>
      <trkpt lat="44.17348" lon="5.27406">
        <ele>1834.1378173828</ele>
        <time>2009-05-22T12:22:56Z</time>
      </trkpt>
      <trkpt lat="44.17347" lon="5.27409">
        <ele>1835.0544433594</ele>
        <time>2009-05-22T12:23:46Z</time>
      </trkpt>
      <trkpt lat="44.17347" lon="5.2741">
        <ele>1835.3291015625</ele>
        <time>2009-05-22T12:23:47Z</time>
      </trkpt>
      <trkpt lat="44.17347" lon="5.27423">
        <ele>1837.3670654297</ele>
        <time>2009-05-22T12:23:52Z</time>
      </trkpt>
      <trkpt lat="44.17347" lon="5.27443">
        <ele>1840.4294433594</ele>
        <time>2009-05-22T12:23:56Z</time>
      </trkpt>
      <trkpt lat="44.17346" lon="5.27469">
        <ele>1846.3020019531</ele>
        <time>2009-05-22T12:24:02Z</time>
      </trkpt>
      <trkpt lat="44.17347" lon="5.27494">
        <ele>1851.9857177734</ele>
        <time>2009-05-22T12:24:08Z</time>
      </trkpt>
      <trkpt lat="44.17347" lon="5.27512">
        <ele>1854.4451904297</ele>
        <time>2009-05-22T12:24:14Z</time>
      </trkpt>
      <trkpt lat="44.17351" lon="5.27536">
        <ele>1856.7811279297</ele>
        <time>2009-05-22T12:24:23Z</time>
      </trkpt>
      <trkpt lat="44.1736" lon="5.27561">
        <ele>1858.5318603516</ele>
        <time>2009-05-22T12:24:33Z</time>
      </trkpt>
      <trkpt lat="44.17369" lon="5.27581">
        <ele>1857.6568603516</ele>
        <time>2009-05-22T12:24:41Z</time>
      </trkpt>
      <trkpt lat="44.17376" lon="5.27598">
        <ele>1858.0179443359</ele>
        <time>2009-05-22T12:24:48Z</time>
      </trkpt>
      <trkpt lat="44.17384" lon="5.27618">
        <ele>1859.2534179688</ele>
        <time>2009-05-22T12:24:56Z</time>
      </trkpt>
      <trkpt lat="44.17391" lon="5.27636">
        <ele>1860.6245117188</ele>
        <time>2009-05-22T12:25:04Z</time>
      </trkpt>
      <trkpt lat="44.17399" lon="5.27656">
        <ele>1861.7652587891</ele>
        <time>2009-05-22T12:25:13Z</time>
      </trkpt>
      <trkpt lat="44.17408" lon="5.27675">
        <ele>1862.3773193359</ele>
        <time>2009-05-22T12:25:22Z</time>
      </trkpt>
      <trkpt lat="44.17419" lon="5.27694">
        <ele>1860.4818115234</ele>
        <time>2009-05-22T12:25:32Z</time>
      </trkpt>
      <trkpt lat="44.17436" lon="5.27713">
        <ele>1856.1027832031</ele>
        <time>2009-05-22T12:25:43Z</time>
      </trkpt>
      <trkpt lat="44.17451" lon="5.27728">
        <ele>1851.9680175781</ele>
        <time>2009-05-22T12:25:53Z</time>
      </trkpt>
      <trkpt lat="44.17467" lon="5.27743">
        <ele>1848.0506591797</ele>
        <time>2009-05-22T12:26:03Z</time>
      </trkpt>
      <trkpt lat="44.17478" lon="5.27756">
        <ele>1846.1423339844</ele>
        <time>2009-05-22T12:26:11Z</time>
      </trkpt>
      <trkpt lat="44.17493" lon="5.2778">
        <ele>1843.9604492188</ele>
        <time>2009-05-22T12:26:23Z</time>
      </trkpt>
      <trkpt lat="44.17505" lon="5.27805">
        <ele>1839.1062011719</ele>
        <time>2009-05-22T12:26:34Z</time>
      </trkpt>
      <trkpt lat="44.17509" lon="5.27819">
        <ele>1839.1094970703</ele>
        <time>2009-05-22T12:26:40Z</time>
      </trkpt>
      <trkpt lat="44.17511" lon="5.27827">
        <ele>1839.2406005859</ele>
        <time>2009-05-22T12:26:43Z</time>
      </trkpt>
      <trkpt lat="44.17514" lon="5.27847">
        <ele>1838.7315673828</ele>
        <time>2009-05-22T12:26:51Z</time>
      </trkpt>
      <trkpt lat="44.17518" lon="5.27871">
        <ele>1836.6870117188</ele>
        <time>2009-05-22T12:27:00Z</time>
      </trkpt>
      <trkpt lat="44.17519" lon="5.27897">
        <ele>1833.3133544922</ele>
        <time>2009-05-22T12:27:10Z</time>
      </trkpt>
      <trkpt lat="44.17518" lon="5.27929">
        <ele>1831.2969970703</ele>
        <time>2009-05-22T12:27:22Z</time>
      </trkpt>
      <trkpt lat="44.17516" lon="5.27949">
        <ele>1830.7857666016</ele>
        <time>2009-05-22T12:27:30Z</time>
      </trkpt>
      <trkpt lat="44.17514" lon="5.27968">
        <ele>1830.4931640625</ele>
        <time>2009-05-22T12:27:38Z</time>
      </trkpt>
      <trkpt lat="44.17512" lon="5.27982">
        <ele>1829.9124755859</ele>
        <time>2009-05-22T12:27:44Z</time>
      </trkpt>
      <trkpt lat="44.17509" lon="5.27999">
        <ele>1829.5192871094</ele>
        <time>2009-05-22T12:27:51Z</time>
      </trkpt>
      <trkpt lat="44.17505" lon="5.28018">
        <ele>1828.1616210938</ele>
        <time>2009-05-22T12:27:59Z</time>
      </trkpt>
      <trkpt lat="44.175" lon="5.28036">
        <ele>1826.484375</ele>
        <time>2009-05-22T12:28:07Z</time>
      </trkpt>
      <trkpt lat="44.1749" lon="5.28048">
        <ele>1827.5786132812</ele>
        <time>2009-05-22T12:28:14Z</time>
      </trkpt>
      <trkpt lat="44.1748" lon="5.28048">
        <ele>1831.7376708984</ele>
        <time>2009-05-22T12:28:19Z</time>
      </trkpt>
      <trkpt lat="44.17472" lon="5.2804">
        <ele>1836.8852539062</ele>
        <time>2009-05-22T12:28:24Z</time>
      </trkpt>
      <trkpt lat="44.17465" lon="5.28021">
        <ele>1843.4215087891</ele>
        <time>2009-05-22T12:28:31Z</time>
      </trkpt>
      <trkpt lat="44.17456" lon="5.27995">
        <ele>1850.9020996094</ele>
        <time>2009-05-22T12:28:41Z</time>
      </trkpt>
      <trkpt lat="44.17443" lon="5.27976">
        <ele>1856.9274902344</ele>
        <time>2009-05-22T12:28:50Z</time>
      </trkpt>
      <trkpt lat="44.17427" lon="5.27961">
        <ele>1869.1563720703</ele>
        <time>2009-05-22T12:29:00Z</time>
      </trkpt>
      <trkpt lat="44.17412" lon="5.27946">
        <ele>1881.8800048828</ele>
        <time>2009-05-22T12:29:09Z</time>
      </trkpt>
      <trkpt lat="44.17402" lon="5.27936">
        <ele>1889.0648193359</ele>
        <time>2009-05-22T12:29:15Z</time>
      </trkpt>
      <trkpt lat="44.17387" lon="5.27919">
        <ele>1899.6617431641</ele>
        <time>2009-05-22T12:29:25Z</time>
      </trkpt>
      <trkpt lat="44.17375" lon="5.27904">
        <ele>1900</ele>
        <time>2009-05-22T12:29:34Z</time>
      </trkpt>
      <trkpt lat="44.17364" lon="5.2789">
        <ele>1900</ele>
        <time>2009-05-22T12:29:42Z</time>
      </trkpt>
      <trkpt lat="44.17356" lon="5.27871">
        <ele>1900</ele>
        <time>2009-05-22T12:29:51Z</time>
      </trkpt>
      <trkpt lat="44.17355" lon="5.2786">
        <ele>1900</ele>
        <time>2009-05-22T12:29:57Z</time>
      </trkpt>
      <trkpt lat="44.17351" lon="5.27843">
        <ele>1900</ele>
        <time>2009-05-22T12:30:04Z</time>
      </trkpt>
      <trkpt lat="44.1735" lon="5.27841">
        <ele>1900</ele>
        <time>2009-05-22T12:30:05Z</time>
      </trkpt>
      <trkpt lat="44.17347" lon="5.2784">
        <ele>1900</ele>
        <time>2009-05-22T12:30:08Z</time>
      </trkpt>
      <trkpt lat="44.17347" lon="5.27844">
        <ele>1900</ele>
        <time>2009-05-22T12:30:46Z</time>
      </trkpt>
      <trkpt lat="44.17347" lon="5.27846">
        <ele>1900</ele>
        <time>2009-05-22T12:30:49Z</time>
      </trkpt>
      <trkpt lat="44.17345" lon="5.27851">
        <ele>1900</ele>
        <time>2009-05-22T12:30:53Z</time>
      </trkpt>
      <trkpt lat="44.17344" lon="5.27852">
        <ele>1900</ele>
        <time>2009-05-22T12:30:56Z</time>
      </trkpt>
      <trkpt lat="44.17352" lon="5.27851">
        <ele>1900</ele>
        <time>2009-05-22T12:49:09Z</time>
      </trkpt>
      <trkpt lat="44.17353" lon="5.27849">
        <ele>1900</ele>
        <time>2009-05-22T12:49:14Z</time>
      </trkpt>
      <trkpt lat="44.17353" lon="5.27847">
        <ele>1900</ele>
        <time>2009-05-22T12:49:17Z</time>
      </trkpt>
      <trkpt lat="44.17355" lon="5.27841">
        <ele>1900</ele>
        <time>2009-05-22T12:50:13Z</time>
      </trkpt>
      <trkpt lat="44.17355" lon="5.27828">
        <ele>1900</ele>
        <time>2009-05-22T12:50:22Z</time>
      </trkpt>
      <trkpt lat="44.17355" lon="5.27819">
        <ele>1900</ele>
        <time>2009-05-22T12:50:27Z</time>
      </trkpt>
      <trkpt lat="44.17355" lon="5.27806">
        <ele>1900</ele>
        <time>2009-05-22T12:50:34Z</time>
      </trkpt>
      <trkpt lat="44.17353" lon="5.27784">
        <ele>1900</ele>
        <time>2009-05-22T12:50:40Z</time>
      </trkpt>
      <trkpt lat="44.17354" lon="5.27755">
        <ele>1898.1265869141</ele>
        <time>2009-05-22T12:50:47Z</time>
      </trkpt>
      <trkpt lat="44.17355" lon="5.27722">
        <ele>1891.822265625</ele>
        <time>2009-05-22T12:50:55Z</time>
      </trkpt>
      <trkpt lat="44.17351" lon="5.27703">
        <ele>1889.5006103516</ele>
        <time>2009-05-22T12:51:00Z</time>
      </trkpt>
      <trkpt lat="44.17343" lon="5.27696">
        <ele>1890.1057128906</ele>
        <time>2009-05-22T12:51:05Z</time>
      </trkpt>
      <trkpt lat="44.17343" lon="5.27695">
        <ele>1890.0615234375</ele>
        <time>2009-05-22T12:51:07Z</time>
      </trkpt>
      <trkpt lat="44.1734" lon="5.27702">
        <ele>1891.4411621094</ele>
        <time>2009-05-22T12:51:42Z</time>
      </trkpt>
      <trkpt lat="44.17334" lon="5.2771">
        <ele>1893.5206298828</ele>
        <time>2009-05-22T12:51:58Z</time>
      </trkpt>
      <trkpt lat="44.17328" lon="5.27735">
        <ele>1897.115234375</ele>
        <time>2009-05-22T12:52:03Z</time>
      </trkpt>
      <trkpt lat="44.17315" lon="5.2777">
        <ele>1899.6101074219</ele>
        <time>2009-05-22T12:52:09Z</time>
      </trkpt>
      <trkpt lat="44.17306" lon="5.2779">
        <ele>1900</ele>
        <time>2009-05-22T12:52:13Z</time>
      </trkpt>
      <trkpt lat="44.17299" lon="5.27809">
        <ele>1898.5512695312</ele>
        <time>2009-05-22T12:52:18Z</time>
      </trkpt>
      <trkpt lat="44.17293" lon="5.27805">
        <ele>1897.3220214844</ele>
        <time>2009-05-22T12:52:22Z</time>
      </trkpt>
      <trkpt lat="44.17294" lon="5.27796">
        <ele>1897.3482666016</ele>
        <time>2009-05-22T12:52:24Z</time>
      </trkpt>
      <trkpt lat="44.17298" lon="5.27754">
        <ele>1896.0963134766</ele>
        <time>2009-05-22T12:52:32Z</time>
      </trkpt>
      <trkpt lat="44.17297" lon="5.27735">
        <ele>1894.1887207031</ele>
        <time>2009-05-22T12:52:37Z</time>
      </trkpt>
      <trkpt lat="44.17302" lon="5.27714">
        <ele>1893.1915283203</ele>
        <time>2009-05-22T12:52:43Z</time>
      </trkpt>
      <trkpt lat="44.17305" lon="5.27702">
        <ele>1892.6273193359</ele>
        <time>2009-05-22T12:52:46Z</time>
      </trkpt>
      <trkpt lat="44.17313" lon="5.27678">
        <ele>1889.9605712891</ele>
        <time>2009-05-22T12:52:53Z</time>
      </trkpt>
      <trkpt lat="44.17313" lon="5.27677">
        <ele>1889.7083740234</ele>
        <time>2009-05-22T12:52:56Z</time>
      </trkpt>
      <trkpt lat="44.17315" lon="5.27654">
        <ele>1887.2690429688</ele>
        <time>2009-05-22T12:53:05Z</time>
      </trkpt>
      <trkpt lat="44.17314" lon="5.27645">
        <ele>1886.6209716797</ele>
        <time>2009-05-22T12:53:07Z</time>
      </trkpt>
      <trkpt lat="44.17313" lon="5.27632">
        <ele>1885.1209716797</ele>
        <time>2009-05-22T12:53:10Z</time>
      </trkpt>
      <trkpt lat="44.17311" lon="5.27603">
        <ele>1881.3635253906</ele>
        <time>2009-05-22T12:53:16Z</time>
      </trkpt>
      <trkpt lat="44.17307" lon="5.27587">
        <ele>1880.2076416016</ele>
        <time>2009-05-22T12:53:20Z</time>
      </trkpt>
      <trkpt lat="44.17306" lon="5.2757">
        <ele>1877.4379882812</ele>
        <time>2009-05-22T12:53:25Z</time>
      </trkpt>
      <trkpt lat="44.17306" lon="5.27567">
        <ele>1876.9830322266</ele>
        <time>2009-05-22T12:53:28Z</time>
      </trkpt>
      <trkpt lat="44.17306" lon="5.27563">
        <ele>1876.2895507812</ele>
        <time>2009-05-22T12:54:33Z</time>
      </trkpt>
      <trkpt lat="44.17305" lon="5.27561">
        <ele>1875.8969726562</ele>
        <time>2009-05-22T12:54:34Z</time>
      </trkpt>
      <trkpt lat="44.17303" lon="5.27546">
        <ele>1872.5699462891</ele>
        <time>2009-05-22T12:54:38Z</time>
      </trkpt>
      <trkpt lat="44.17304" lon="5.27536">
        <ele>1869.9910888672</ele>
        <time>2009-05-22T12:54:40Z</time>
      </trkpt>
      <trkpt lat="44.17305" lon="5.27507">
        <ele>1865.0942382812</ele>
        <time>2009-05-22T12:54:46Z</time>
      </trkpt>
      <trkpt lat="44.17305" lon="5.27493">
        <ele>1862.4344482422</ele>
        <time>2009-05-22T12:54:51Z</time>
      </trkpt>
      <trkpt lat="44.17303" lon="5.27479">
        <ele>1859.5310058594</ele>
        <time>2009-05-22T12:54:56Z</time>
      </trkpt>
      <trkpt lat="44.17305" lon="5.2746">
        <ele>1855.8623046875</ele>
        <time>2009-05-22T12:55:02Z</time>
      </trkpt>
      <trkpt lat="44.17307" lon="5.27451">
        <ele>1853.9410400391</ele>
        <time>2009-05-22T12:55:05Z</time>
      </trkpt>
      <trkpt lat="44.17308" lon="5.27447">
        <ele>1852.6993408203</ele>
        <time>2009-05-22T12:55:07Z</time>
      </trkpt>
      <trkpt lat="44.17309" lon="5.27446">
        <ele>1852.4886474609</ele>
        <time>2009-05-22T12:55:09Z</time>
      </trkpt>
      <trkpt lat="44.17307" lon="5.27444">
        <ele>1852.5579833984</ele>
        <time>2009-05-22T12:55:35Z</time>
      </trkpt>
      <trkpt lat="44.17306" lon="5.27438">
        <ele>1852.1549072266</ele>
        <time>2009-05-22T12:55:37Z</time>
      </trkpt>
      <trkpt lat="44.17306" lon="5.27421">
        <ele>1850.390625</ele>
        <time>2009-05-22T12:55:43Z</time>
      </trkpt>
      <trkpt lat="44.17305" lon="5.2742">
        <ele>1850.3190917969</ele>
        <time>2009-05-22T12:55:45Z</time>
      </trkpt>
      <trkpt lat="44.17304" lon="5.27416">
        <ele>1849.7924804688</ele>
        <time>2009-05-22T12:56:10Z</time>
      </trkpt>
      <trkpt lat="44.17303" lon="5.27413">
        <ele>1849.3376464844</ele>
        <time>2009-05-22T12:56:11Z</time>
      </trkpt>
      <trkpt lat="44.17304" lon="5.27399">
        <ele>1846.7799072266</ele>
        <time>2009-05-22T12:56:16Z</time>
      </trkpt>
      <trkpt lat="44.17305" lon="5.27389">
        <ele>1845.0374755859</ele>
        <time>2009-05-22T12:56:19Z</time>
      </trkpt>
      <trkpt lat="44.17305" lon="5.27374">
        <ele>1842.9151611328</ele>
        <time>2009-05-22T12:56:24Z</time>
      </trkpt>
      <trkpt lat="44.17305" lon="5.27367">
        <ele>1841.8165283203</ele>
        <time>2009-05-22T12:56:29Z</time>
      </trkpt>
      <trkpt lat="44.17305" lon="5.27366">
        <ele>1841.7752685547</ele>
        <time>2009-05-22T12:56:30Z</time>
      </trkpt>
      <trkpt lat="44.17306" lon="5.27363">
        <ele>1841.0537109375</ele>
        <time>2009-05-22T12:56:33Z</time>
      </trkpt>
      <trkpt lat="44.17305" lon="5.27358">
        <ele>1840.0583496094</ele>
        <time>2009-05-22T12:56:38Z</time>
      </trkpt>
      <trkpt lat="44.17307" lon="5.27356">
        <ele>1838.9678955078</ele>
        <time>2009-05-22T12:56:54Z</time>
      </trkpt>
      <trkpt lat="44.17307" lon="5.27356">
        <ele>1838.8752441406</ele>
        <time>2009-05-22T12:56:55Z</time>
      </trkpt>
      <trkpt lat="44.17307" lon="5.27356">
        <ele>1838.7379150391</ele>
        <time>2009-05-22T12:56:56Z</time>
      </trkpt>
      <trkpt lat="44.17303" lon="5.27355">
        <ele>1839.1018066406</ele>
        <time>2009-05-22T12:57:06Z</time>
      </trkpt>
      <trkpt lat="44.17296" lon="5.27345">
        <ele>1836.0836181641</ele>
        <time>2009-05-22T12:57:24Z</time>
      </trkpt>
      <trkpt lat="44.17291" lon="5.2734">
        <ele>1834.5168457031</ele>
        <time>2009-05-22T12:57:31Z</time>
      </trkpt>
      <trkpt lat="44.1729" lon="5.27338">
        <ele>1833.9279785156</ele>
        <time>2009-05-22T12:57:33Z</time>
      </trkpt>
      <trkpt lat="44.1729" lon="5.27332">
        <ele>1832.2424316406</ele>
        <time>2009-05-22T12:57:37Z</time>
      </trkpt>
      <trkpt lat="44.17288" lon="5.27322">
        <ele>1828.1297607422</ele>
        <time>2009-05-22T12:57:46Z</time>
      </trkpt>
      <trkpt lat="44.17287" lon="5.27318">
        <ele>1826.9154052734</ele>
        <time>2009-05-22T12:57:51Z</time>
      </trkpt>
      <trkpt lat="44.17286" lon="5.27315">
        <ele>1825.8231201172</ele>
        <time>2009-05-22T12:57:57Z</time>
      </trkpt>
      <trkpt lat="44.17286" lon="5.27312">
        <ele>1824.6102294922</ele>
        <time>2009-05-22T12:58:01Z</time>
      </trkpt>
      <trkpt lat="44.17286" lon="5.27309">
        <ele>1823.2819824219</ele>
        <time>2009-05-22T12:58:08Z</time>
      </trkpt>
      <trkpt lat="44.17287" lon="5.27309">
        <ele>1823.1707763672</ele>
        <time>2009-05-22T12:58:09Z</time>
      </trkpt>
      <trkpt lat="44.17291" lon="5.27305">
        <ele>1821.4963378906</ele>
        <time>2009-05-22T12:58:18Z</time>
      </trkpt>
      <trkpt lat="44.17293" lon="5.27301">
        <ele>1821.015625</ele>
        <time>2009-05-22T12:58:25Z</time>
      </trkpt>
      <trkpt lat="44.17294" lon="5.27301">
        <ele>1820.8787841797</ele>
        <time>2009-05-22T12:58:28Z</time>
      </trkpt>
      <trkpt lat="44.17297" lon="5.27298">
        <ele>1820.4605712891</ele>
        <time>2009-05-22T12:58:33Z</time>
      </trkpt>
      <trkpt lat="44.173" lon="5.27294">
        <ele>1819.9357910156</ele>
        <time>2009-05-22T12:58:40Z</time>
      </trkpt>
      <trkpt lat="44.17302" lon="5.27293">
        <ele>1819.8000488281</ele>
        <time>2009-05-22T12:58:43Z</time>
      </trkpt>
      <trkpt lat="44.17307" lon="5.27294">
        <ele>1819.5595703125</ele>
        <time>2009-05-22T12:58:51Z</time>
      </trkpt>
      <trkpt lat="44.17308" lon="5.27293">
        <ele>1819.5118408203</ele>
        <time>2009-05-22T12:58:54Z</time>
      </trkpt>
      <trkpt lat="44.17313" lon="5.27292">
        <ele>1819.3851318359</ele>
        <time>2009-05-22T12:59:02Z</time>
      </trkpt>
      <trkpt lat="44.17316" lon="5.27289">
        <ele>1819.2622070312</ele>
        <time>2009-05-22T12:59:08Z</time>
      </trkpt>
      <trkpt lat="44.17317" lon="5.2729">
        <ele>1819.2518310547</ele>
        <time>2009-05-22T12:59:12Z</time>
      </trkpt>
      <trkpt lat="44.17319" lon="5.2729">
        <ele>1819.2387695312</ele>
        <time>2009-05-22T12:59:17Z</time>
      </trkpt>
      <trkpt lat="44.17319" lon="5.2729">
        <ele>1819.2406005859</ele>
        <time>2009-05-22T12:59:18Z</time>
      </trkpt>
      <trkpt lat="44.17322" lon="5.27292">
        <ele>1819.2088623047</ele>
        <time>2009-05-22T12:59:51Z</time>
      </trkpt>
      <trkpt lat="44.17325" lon="5.2729">
        <ele>1819.1328125</ele>
        <time>2009-05-22T12:59:57Z</time>
      </trkpt>
      <trkpt lat="44.17324" lon="5.27293">
        <ele>1819.1881103516</ele>
        <time>2009-05-22T13:00:05Z</time>
      </trkpt>
      <trkpt lat="44.17325" lon="5.27299">
        <ele>1819.2236328125</ele>
        <time>2009-05-22T13:00:12Z</time>
      </trkpt>
      <trkpt lat="44.17327" lon="5.27295">
        <ele>1819.1497802734</ele>
        <time>2009-05-22T13:00:20Z</time>
      </trkpt>
      <trkpt lat="44.17331" lon="5.27287">
        <ele>1819.0296630859</ele>
        <time>2009-05-22T13:00:27Z</time>
      </trkpt>
      <trkpt lat="44.17339" lon="5.27278">
        <ele>1817.6823730469</ele>
        <time>2009-05-22T13:00:34Z</time>
      </trkpt>
      <trkpt lat="44.17338" lon="5.27274">
        <ele>1817.7785644531</ele>
        <time>2009-05-22T13:00:38Z</time>
      </trkpt>
      <trkpt lat="44.17337" lon="5.27272">
        <ele>1817.970703125</ele>
        <time>2009-05-22T13:01:31Z</time>
      </trkpt>
      <trkpt lat="44.17337" lon="5.2727">
        <ele>1817.970703125</ele>
        <time>2009-05-22T13:01:32Z</time>
      </trkpt>
      <trkpt lat="44.17337" lon="5.27269">
        <ele>1817.970703125</ele>
        <time>2009-05-22T13:01:34Z</time>
      </trkpt>
      <trkpt lat="44.17338" lon="5.27248">
        <ele>1817.7785644531</ele>
        <time>2009-05-22T13:01:44Z</time>
      </trkpt>
      <trkpt lat="44.17338" lon="5.27232">
        <ele>1817.8746337891</ele>
        <time>2009-05-22T13:01:48Z</time>
      </trkpt>
      <trkpt lat="44.17339" lon="5.27223">
        <ele>1817.5861816406</ele>
        <time>2009-05-22T13:01:50Z</time>
      </trkpt>
      <trkpt lat="44.17339" lon="5.27214">
        <ele>1817.4901123047</ele>
        <time>2009-05-22T13:01:52Z</time>
      </trkpt>
      <trkpt lat="44.1734" lon="5.27207">
        <ele>1817.3940429688</ele>
        <time>2009-05-22T13:01:54Z</time>
      </trkpt>
      <trkpt lat="44.1734" lon="5.27203">
        <ele>1817.3940429688</ele>
        <time>2009-05-22T13:01:55Z</time>
      </trkpt>
      <trkpt lat="44.17339" lon="5.27188">
        <ele>1817.4014892578</ele>
        <time>2009-05-22T13:01:59Z</time>
      </trkpt>
      <trkpt lat="44.17338" lon="5.27177">
        <ele>1817.3504638672</ele>
        <time>2009-05-22T13:02:02Z</time>
      </trkpt>
      <trkpt lat="44.17336" lon="5.27168">
        <ele>1817.3922119141</ele>
        <time>2009-05-22T13:02:05Z</time>
      </trkpt>
      <trkpt lat="44.17335" lon="5.2716">
        <ele>1817.6121826172</ele>
        <time>2009-05-22T13:02:07Z</time>
      </trkpt>
      <trkpt lat="44.17334" lon="5.27157">
        <ele>1817.7769775391</ele>
        <time>2009-05-22T13:02:08Z</time>
      </trkpt>
      <trkpt lat="44.17332" lon="5.27149">
        <ele>1817.9685058594</ele>
        <time>2009-05-22T13:02:10Z</time>
      </trkpt>
      <trkpt lat="44.17326" lon="5.27119">
        <ele>1817.5445556641</ele>
        <time>2009-05-22T13:02:17Z</time>
      </trkpt>
      <trkpt lat="44.17319" lon="5.27092">
        <ele>1816.9757080078</ele>
        <time>2009-05-22T13:02:24Z</time>
      </trkpt>
      <trkpt lat="44.17313" lon="5.27062">
        <ele>1815.8072509766</ele>
        <time>2009-05-22T13:02:31Z</time>
      </trkpt>
      <trkpt lat="44.17309" lon="5.27032">
        <ele>1815.2615966797</ele>
        <time>2009-05-22T13:02:37Z</time>
      </trkpt>
      <trkpt lat="44.17303" lon="5.27006">
        <ele>1813.1628417969</ele>
        <time>2009-05-22T13:02:43Z</time>
      </trkpt>
      <trkpt lat="44.17294" lon="5.26992">
        <ele>1808.7248535156</ele>
        <time>2009-05-22T13:02:47Z</time>
      </trkpt>
      <trkpt lat="44.17281" lon="5.2698">
        <ele>1802.0736083984</ele>
        <time>2009-05-22T13:02:52Z</time>
      </trkpt>
      <trkpt lat="44.17264" lon="5.26971">
        <ele>1798.021484375</ele>
        <time>2009-05-22T13:02:58Z</time>
      </trkpt>
      <trkpt lat="44.17261" lon="5.26969">
        <ele>1797.5426025391</ele>
        <time>2009-05-22T13:02:59Z</time>
      </trkpt>
      <trkpt lat="44.17239" lon="5.26957">
        <ele>1792.1927490234</ele>
        <time>2009-05-22T13:03:05Z</time>
      </trkpt>
      <trkpt lat="44.17236" lon="5.26956">
        <ele>1791.2005615234</ele>
        <time>2009-05-22T13:03:06Z</time>
      </trkpt>
      <trkpt lat="44.17224" lon="5.26962">
        <ele>1787.8289794922</ele>
        <time>2009-05-22T13:03:10Z</time>
      </trkpt>
      <trkpt lat="44.17209" lon="5.26986">
        <ele>1786.8216552734</ele>
        <time>2009-05-22T13:03:16Z</time>
      </trkpt>
      <trkpt lat="44.17198" lon="5.26995">
        <ele>1785.9632568359</ele>
        <time>2009-05-22T13:03:21Z</time>
      </trkpt>
      <trkpt lat="44.17195" lon="5.26997">
        <ele>1785.4914550781</ele>
        <time>2009-05-22T13:03:26Z</time>
      </trkpt>
      <trkpt lat="44.17192" lon="5.26998">
        <ele>1785.5013427734</ele>
        <time>2009-05-22T13:03:29Z</time>
      </trkpt>
      <trkpt lat="44.17191" lon="5.26999">
        <ele>1785.4875488281</ele>
        <time>2009-05-22T13:03:31Z</time>
      </trkpt>
      <trkpt lat="44.17184" lon="5.26994">
        <ele>1784.2518310547</ele>
        <time>2009-05-22T13:03:39Z</time>
      </trkpt>
      <trkpt lat="44.1718" lon="5.2699">
        <ele>1783.4135742188</ele>
        <time>2009-05-22T13:03:44Z</time>
      </trkpt>
      <trkpt lat="44.17177" lon="5.26987">
        <ele>1782.7222900391</ele>
        <time>2009-05-22T13:03:48Z</time>
      </trkpt>
      <trkpt lat="44.17171" lon="5.2698">
        <ele>1781.3588867188</ele>
        <time>2009-05-22T13:03:56Z</time>
      </trkpt>
      <trkpt lat="44.17168" lon="5.26977">
        <ele>1780.7598876953</ele>
        <time>2009-05-22T13:04:01Z</time>
      </trkpt>
      <trkpt lat="44.17166" lon="5.26977">
        <ele>1780.6573486328</ele>
        <time>2009-05-22T13:04:05Z</time>
      </trkpt>
      <trkpt lat="44.1716" lon="5.26974">
        <ele>1780.0187988281</ele>
        <time>2009-05-22T13:04:14Z</time>
      </trkpt>
      <trkpt lat="44.17154" lon="5.26974">
        <ele>1779.7509765625</ele>
        <time>2009-05-22T13:04:19Z</time>
      </trkpt>
      <trkpt lat="44.17144" lon="5.26978">
        <ele>1780.0599365234</ele>
        <time>2009-05-22T13:04:25Z</time>
      </trkpt>
      <trkpt lat="44.17143" lon="5.26979">
        <ele>1780.1217041016</ele>
        <time>2009-05-22T13:04:26Z</time>
      </trkpt>
      <trkpt lat="44.17136" lon="5.2699">
        <ele>1781.2432861328</ele>
        <time>2009-05-22T13:04:33Z</time>
      </trkpt>
      <trkpt lat="44.17127" lon="5.27003">
        <ele>1782.1060791016</ele>
        <time>2009-05-22T13:04:39Z</time>
      </trkpt>
      <trkpt lat="44.17117" lon="5.27027">
        <ele>1783.4810791016</ele>
        <time>2009-05-22T13:04:47Z</time>
      </trkpt>
      <trkpt lat="44.17109" lon="5.27043">
        <ele>1785.0522460938</ele>
        <time>2009-05-22T13:04:52Z</time>
      </trkpt>
      <trkpt lat="44.17105" lon="5.2705">
        <ele>1785.2214355469</ele>
        <time>2009-05-22T13:04:54Z</time>
      </trkpt>
      <trkpt lat="44.17104" lon="5.27054">
        <ele>1785.3966064453</ele>
        <time>2009-05-22T13:04:55Z</time>
      </trkpt>
      <trkpt lat="44.17096" lon="5.27073">
        <ele>1785.6553955078</ele>
        <time>2009-05-22T13:05:00Z</time>
      </trkpt>
      <trkpt lat="44.17094" lon="5.27079">
        <ele>1785.5318603516</ele>
        <time>2009-05-22T13:05:02Z</time>
      </trkpt>
      <trkpt lat="44.1709" lon="5.27095">
        <ele>1786.1058349609</ele>
        <time>2009-05-22T13:05:07Z</time>
      </trkpt>
      <trkpt lat="44.1709" lon="5.27096">
        <ele>1786.3514404297</ele>
        <time>2009-05-22T13:05:10Z</time>
      </trkpt>
      <trkpt lat="44.17085" lon="5.27105">
        <ele>1785.8442382812</ele>
        <time>2009-05-22T13:05:19Z</time>
      </trkpt>
      <trkpt lat="44.17081" lon="5.27127">
        <ele>1789.1142578125</ele>
        <time>2009-05-22T13:05:24Z</time>
      </trkpt>
      <trkpt lat="44.17077" lon="5.2715">
        <ele>1791.2595214844</ele>
        <time>2009-05-22T13:05:29Z</time>
      </trkpt>
      <trkpt lat="44.17074" lon="5.27159">
        <ele>1790.9118652344</ele>
        <time>2009-05-22T13:05:31Z</time>
      </trkpt>
      <trkpt lat="44.1707" lon="5.27176">
        <ele>1789.7739257812</ele>
        <time>2009-05-22T13:05:36Z</time>
      </trkpt>
      <trkpt lat="44.17067" lon="5.27197">
        <ele>1789.2563476562</ele>
        <time>2009-05-22T13:05:43Z</time>
      </trkpt>
      <trkpt lat="44.1706" lon="5.27219">
        <ele>1786.640625</ele>
        <time>2009-05-22T13:05:49Z</time>
      </trkpt>
      <trkpt lat="44.17054" lon="5.27233">
        <ele>1783.9168701172</ele>
        <time>2009-05-22T13:05:54Z</time>
      </trkpt>
      <trkpt lat="44.17043" lon="5.27246">
        <ele>1781.2442626953</ele>
        <time>2009-05-22T13:05:59Z</time>
      </trkpt>
      <trkpt lat="44.17036" lon="5.27256">
        <ele>1779.9366455078</ele>
        <time>2009-05-22T13:06:03Z</time>
      </trkpt>
      <trkpt lat="44.17032" lon="5.27261">
        <ele>1779.3466796875</ele>
        <time>2009-05-22T13:06:05Z</time>
      </trkpt>
      <trkpt lat="44.17022" lon="5.27278">
        <ele>1777.5397949219</ele>
        <time>2009-05-22T13:06:10Z</time>
      </trkpt>
      <trkpt lat="44.17015" lon="5.2729">
        <ele>1775.3209228516</ele>
        <time>2009-05-22T13:06:14Z</time>
      </trkpt>
      <trkpt lat="44.17007" lon="5.27312">
        <ele>1773.0642089844</ele>
        <time>2009-05-22T13:06:19Z</time>
      </trkpt>
      <trkpt lat="44.16999" lon="5.27334">
        <ele>1771.794921875</ele>
        <time>2009-05-22T13:06:25Z</time>
      </trkpt>
      <trkpt lat="44.16994" lon="5.27348">
        <ele>1770.7694091797</ele>
        <time>2009-05-22T13:06:31Z</time>
      </trkpt>
      <trkpt lat="44.16994" lon="5.27348">
        <ele>1770.7631835938</ele>
        <time>2009-05-22T13:06:32Z</time>
      </trkpt>
      <trkpt lat="44.16992" lon="5.27352">
        <ele>1770.0788574219</ele>
        <time>2009-05-22T13:06:37Z</time>
      </trkpt>
      <trkpt lat="44.16991" lon="5.27355">
        <ele>1769.5828857422</ele>
        <time>2009-05-22T13:06:38Z</time>
      </trkpt>
      <trkpt lat="44.16983" lon="5.27366">
        <ele>1766.8431396484</ele>
        <time>2009-05-22T13:06:42Z</time>
      </trkpt>
      <trkpt lat="44.16977" lon="5.27382">
        <ele>1764.7883300781</ele>
        <time>2009-05-22T13:06:47Z</time>
      </trkpt>
      <trkpt lat="44.16976" lon="5.27386">
        <ele>1764.4244384766</ele>
        <time>2009-05-22T13:06:48Z</time>
      </trkpt>
      <trkpt lat="44.16973" lon="5.27393">
        <ele>1763.2265625</ele>
        <time>2009-05-22T13:06:52Z</time>
      </trkpt>
      <trkpt lat="44.16968" lon="5.274">
        <ele>1761.009765625</ele>
        <time>2009-05-22T13:06:57Z</time>
      </trkpt>
      <trkpt lat="44.16967" lon="5.27402">
        <ele>1760.2768554688</ele>
        <time>2009-05-22T13:06:58Z</time>
      </trkpt>
      <trkpt lat="44.16965" lon="5.27408">
        <ele>1759.5903320312</ele>
        <time>2009-05-22T13:07:02Z</time>
      </trkpt>
      <trkpt lat="44.16965" lon="5.2741">
        <ele>1759.6057128906</ele>
        <time>2009-05-22T13:07:15Z</time>
      </trkpt>
      <trkpt lat="44.16952" lon="5.27425">
        <ele>1753.8916015625</ele>
        <time>2009-05-22T13:07:33Z</time>
      </trkpt>
      <trkpt lat="44.16945" lon="5.2743">
        <ele>1750.865234375</ele>
        <time>2009-05-22T13:07:36Z</time>
      </trkpt>
      <trkpt lat="44.16943" lon="5.27432">
        <ele>1750.1286621094</ele>
        <time>2009-05-22T13:07:37Z</time>
      </trkpt>
      <trkpt lat="44.16937" lon="5.27444">
        <ele>1748.1358642578</ele>
        <time>2009-05-22T13:07:41Z</time>
      </trkpt>
      <trkpt lat="44.16931" lon="5.27455">
        <ele>1746.1298828125</ele>
        <time>2009-05-22T13:07:44Z</time>
      </trkpt>
      <trkpt lat="44.1692" lon="5.27472">
        <ele>1742.5026855469</ele>
        <time>2009-05-22T13:07:50Z</time>
      </trkpt>
      <trkpt lat="44.16919" lon="5.27483">
        <ele>1742.2761230469</ele>
        <time>2009-05-22T13:07:53Z</time>
      </trkpt>
      <trkpt lat="44.16914" lon="5.27493">
        <ele>1740.5721435547</ele>
        <time>2009-05-22T13:07:56Z</time>
      </trkpt>
      <trkpt lat="44.16912" lon="5.27495">
        <ele>1739.7034912109</ele>
        <time>2009-05-22T13:07:57Z</time>
      </trkpt>
      <trkpt lat="44.16908" lon="5.27497">
        <ele>1737.6710205078</ele>
        <time>2009-05-22T13:07:59Z</time>
      </trkpt>
      <trkpt lat="44.16898" lon="5.27513">
        <ele>1733.0802001953</ele>
        <time>2009-05-22T13:08:05Z</time>
      </trkpt>
      <trkpt lat="44.1689" lon="5.27538">
        <ele>1729.6984863281</ele>
        <time>2009-05-22T13:08:11Z</time>
      </trkpt>
      <trkpt lat="44.16883" lon="5.27561">
        <ele>1727.9263916016</ele>
        <time>2009-05-22T13:08:16Z</time>
      </trkpt>
      <trkpt lat="44.16878" lon="5.27568">
        <ele>1726.4112548828</ele>
        <time>2009-05-22T13:08:18Z</time>
      </trkpt>
      <trkpt lat="44.16868" lon="5.27593">
        <ele>1722.9184570312</ele>
        <time>2009-05-22T13:08:23Z</time>
      </trkpt>
      <trkpt lat="44.16866" lon="5.27597">
        <ele>1722.30859375</ele>
        <time>2009-05-22T13:08:24Z</time>
      </trkpt>
      <trkpt lat="44.16864" lon="5.27601">
        <ele>1721.7159423828</ele>
        <time>2009-05-22T13:08:25Z</time>
      </trkpt>
      <trkpt lat="44.16853" lon="5.27635">
        <ele>1718.498046875</ele>
        <time>2009-05-22T13:08:34Z</time>
      </trkpt>
      <trkpt lat="44.16849" lon="5.27641">
        <ele>1717.5908203125</ele>
        <time>2009-05-22T13:08:37Z</time>
      </trkpt>
      <trkpt lat="44.16843" lon="5.27644">
        <ele>1715.7443847656</ele>
        <time>2009-05-22T13:08:43Z</time>
      </trkpt>
      <trkpt lat="44.16832" lon="5.27665">
        <ele>1712.4111328125</ele>
        <time>2009-05-22T13:08:50Z</time>
      </trkpt>
      <trkpt lat="44.16825" lon="5.27676">
        <ele>1709.4448242188</ele>
        <time>2009-05-22T13:08:54Z</time>
      </trkpt>
      <trkpt lat="44.16824" lon="5.2768">
        <ele>1709.115234375</ele>
        <time>2009-05-22T13:08:55Z</time>
      </trkpt>
      <trkpt lat="44.16817" lon="5.277">
        <ele>1705.9841308594</ele>
        <time>2009-05-22T13:09:00Z</time>
      </trkpt>
      <trkpt lat="44.16816" lon="5.27704">
        <ele>1705.4897460938</ele>
        <time>2009-05-22T13:09:01Z</time>
      </trkpt>
      <trkpt lat="44.16813" lon="5.27716">
        <ele>1704.3361816406</ele>
        <time>2009-05-22T13:09:04Z</time>
      </trkpt>
      <trkpt lat="44.16807" lon="5.27734">
        <ele>1701.6994628906</ele>
        <time>2009-05-22T13:09:08Z</time>
      </trkpt>
      <trkpt lat="44.16801" lon="5.27751">
        <ele>1698.8549804688</ele>
        <time>2009-05-22T13:09:12Z</time>
      </trkpt>
      <trkpt lat="44.16798" lon="5.27761">
        <ele>1697.0516357422</ele>
        <time>2009-05-22T13:09:15Z</time>
      </trkpt>
      <trkpt lat="44.16799" lon="5.27782">
        <ele>1696.6743164062</ele>
        <time>2009-05-22T13:09:21Z</time>
      </trkpt>
      <trkpt lat="44.16796" lon="5.27793">
        <ele>1695.0212402344</ele>
        <time>2009-05-22T13:09:24Z</time>
      </trkpt>
      <trkpt lat="44.16795" lon="5.27801">
        <ele>1694.2058105469</ele>
        <time>2009-05-22T13:09:26Z</time>
      </trkpt>
      <trkpt lat="44.16794" lon="5.27805">
        <ele>1693.7114257812</ele>
        <time>2009-05-22T13:09:27Z</time>
      </trkpt>
      <trkpt lat="44.16793" lon="5.27813">
        <ele>1692.5816650391</ele>
        <time>2009-05-22T13:09:29Z</time>
      </trkpt>
      <trkpt lat="44.1679" lon="5.27831">
        <ele>1689.9799804688</ele>
        <time>2009-05-22T13:09:33Z</time>
      </trkpt>
      <trkpt lat="44.16788" lon="5.27836">
        <ele>1689.1314697266</ele>
        <time>2009-05-22T13:09:34Z</time>
      </trkpt>
      <trkpt lat="44.16774" lon="5.27867">
        <ele>1683.2628173828</ele>
        <time>2009-05-22T13:09:40Z</time>
      </trkpt>
      <trkpt lat="44.16771" lon="5.27889">
        <ele>1681.6204833984</ele>
        <time>2009-05-22T13:09:44Z</time>
      </trkpt>
      <trkpt lat="44.1677" lon="5.27893">
        <ele>1681.1403808594</ele>
        <time>2009-05-22T13:09:45Z</time>
      </trkpt>
      <trkpt lat="44.16765" lon="5.27911">
        <ele>1678.6726074219</ele>
        <time>2009-05-22T13:09:49Z</time>
      </trkpt>
      <trkpt lat="44.16764" lon="5.27915">
        <ele>1678.1368408203</ele>
        <time>2009-05-22T13:09:50Z</time>
      </trkpt>
      <trkpt lat="44.16756" lon="5.27919">
        <ele>1675.5550537109</ele>
        <time>2009-05-22T13:09:54Z</time>
      </trkpt>
      <trkpt lat="44.16743" lon="5.2792">
        <ele>1671.7391357422</ele>
        <time>2009-05-22T13:09:59Z</time>
      </trkpt>
      <trkpt lat="44.16739" lon="5.27918">
        <ele>1670.5662841797</ele>
        <time>2009-05-22T13:10:02Z</time>
      </trkpt>
      <trkpt lat="44.1674" lon="5.27916">
        <ele>1671.1231689453</ele>
        <time>2009-05-22T13:10:06Z</time>
      </trkpt>
      <trkpt lat="44.16736" lon="5.27914">
        <ele>1670.2889404297</ele>
        <time>2009-05-22T13:11:47Z</time>
      </trkpt>
      <trkpt lat="44.16736" lon="5.27914">
        <ele>1670.1687011719</ele>
        <time>2009-05-22T13:11:48Z</time>
      </trkpt>
      <trkpt lat="44.16736" lon="5.27914">
        <ele>1670.1790771484</ele>
        <time>2009-05-22T13:11:49Z</time>
      </trkpt>
      <trkpt lat="44.16733" lon="5.27909">
        <ele>1669.8408203125</ele>
        <time>2009-05-22T13:11:57Z</time>
      </trkpt>
      <trkpt lat="44.16723" lon="5.27889">
        <ele>1669.2314453125</ele>
        <time>2009-05-22T13:12:02Z</time>
      </trkpt>
      <trkpt lat="44.16718" lon="5.2788">
        <ele>1668.5533447266</ele>
        <time>2009-05-22T13:12:05Z</time>
      </trkpt>
      <trkpt lat="44.16715" lon="5.27879">
        <ele>1668.1385498047</ele>
        <time>2009-05-22T13:12:06Z</time>
      </trkpt>
      <trkpt lat="44.16713" lon="5.27877">
        <ele>1667.6339111328</ele>
        <time>2009-05-22T13:12:07Z</time>
      </trkpt>
      <trkpt lat="44.16705" lon="5.2787">
        <ele>1666.3204345703</ele>
        <time>2009-05-22T13:12:10Z</time>
      </trkpt>
      <trkpt lat="44.16704" lon="5.27866">
        <ele>1666.220703125</ele>
        <time>2009-05-22T13:12:11Z</time>
      </trkpt>
      <trkpt lat="44.16702" lon="5.27857">
        <ele>1665.9721679688</ele>
        <time>2009-05-22T13:12:13Z</time>
      </trkpt>
      <trkpt lat="44.16693" lon="5.27842">
        <ele>1663.6323242188</ele>
        <time>2009-05-22T13:12:17Z</time>
      </trkpt>
      <trkpt lat="44.16685" lon="5.2783">
        <ele>1661.263671875</ele>
        <time>2009-05-22T13:12:22Z</time>
      </trkpt>
      <trkpt lat="44.16677" lon="5.27833">
        <ele>1658.984375</ele>
        <time>2009-05-22T13:12:27Z</time>
      </trkpt>
      <trkpt lat="44.16668" lon="5.27836">
        <ele>1656.4606933594</ele>
        <time>2009-05-22T13:12:30Z</time>
      </trkpt>
      <trkpt lat="44.16659" lon="5.27838">
        <ele>1653.0006103516</ele>
        <time>2009-05-22T13:12:33Z</time>
      </trkpt>
      <trkpt lat="44.16642" lon="5.27837">
        <ele>1646.3997802734</ele>
        <time>2009-05-22T13:12:38Z</time>
      </trkpt>
      <trkpt lat="44.16639" lon="5.27836">
        <ele>1644.8728027344</ele>
        <time>2009-05-22T13:12:39Z</time>
      </trkpt>
      <trkpt lat="44.16631" lon="5.27831">
        <ele>1641.7570800781</ele>
        <time>2009-05-22T13:12:41Z</time>
      </trkpt>
      <trkpt lat="44.16611" lon="5.27814">
        <ele>1632.6391601562</ele>
        <time>2009-05-22T13:12:46Z</time>
      </trkpt>
      <trkpt lat="44.16605" lon="5.2781">
        <ele>1630.5029296875</ele>
        <time>2009-05-22T13:12:48Z</time>
      </trkpt>
      <trkpt lat="44.16601" lon="5.27802">
        <ele>1628.6224365234</ele>
        <time>2009-05-22T13:12:52Z</time>
      </trkpt>
      <trkpt lat="44.16602" lon="5.27802">
        <ele>1628.8637695312</ele>
        <time>2009-05-22T13:12:55Z</time>
      </trkpt>
      <trkpt lat="44.16597" lon="5.27802">
        <ele>1627.1146240234</ele>
        <time>2009-05-22T13:15:12Z</time>
      </trkpt>
      <trkpt lat="44.16592" lon="5.27798">
        <ele>1625.3825683594</ele>
        <time>2009-05-22T13:15:14Z</time>
      </trkpt>
      <trkpt lat="44.16583" lon="5.27797">
        <ele>1622.3494873047</ele>
        <time>2009-05-22T13:15:17Z</time>
      </trkpt>
      <trkpt lat="44.16581" lon="5.27796">
        <ele>1621.6677246094</ele>
        <time>2009-05-22T13:15:18Z</time>
      </trkpt>
      <trkpt lat="44.16576" lon="5.27792">
        <ele>1620.3043212891</ele>
        <time>2009-05-22T13:15:20Z</time>
      </trkpt>
      <trkpt lat="44.16565" lon="5.27784">
        <ele>1617.4039306641</ele>
        <time>2009-05-22T13:15:23Z</time>
      </trkpt>
      <trkpt lat="44.16551" lon="5.27786">
        <ele>1614.1715087891</ele>
        <time>2009-05-22T13:15:27Z</time>
      </trkpt>
      <trkpt lat="44.16548" lon="5.27793">
        <ele>1613.7508544922</ele>
        <time>2009-05-22T13:15:29Z</time>
      </trkpt>
      <trkpt lat="44.16546" lon="5.27806">
        <ele>1613.9881591797</ele>
        <time>2009-05-22T13:15:32Z</time>
      </trkpt>
      <trkpt lat="44.16543" lon="5.27811">
        <ele>1613.9602050781</ele>
        <time>2009-05-22T13:15:34Z</time>
      </trkpt>
      <trkpt lat="44.16537" lon="5.27821">
        <ele>1613.6512451172</ele>
        <time>2009-05-22T13:15:38Z</time>
      </trkpt>
      <trkpt lat="44.16533" lon="5.27828">
        <ele>1613.4709472656</ele>
        <time>2009-05-22T13:15:40Z</time>
      </trkpt>
      <trkpt lat="44.16528" lon="5.27834">
        <ele>1613.1475830078</ele>
        <time>2009-05-22T13:15:42Z</time>
      </trkpt>
      <trkpt lat="44.1652" lon="5.27835">
        <ele>1611.1774902344</ele>
        <time>2009-05-22T13:15:45Z</time>
      </trkpt>
      <trkpt lat="44.16514" lon="5.27831">
        <ele>1609.3723144531</ele>
        <time>2009-05-22T13:15:48Z</time>
      </trkpt>
      <trkpt lat="44.1651" lon="5.27825">
        <ele>1607.5029296875</ele>
        <time>2009-05-22T13:15:52Z</time>
      </trkpt>
      <trkpt lat="44.16502" lon="5.27818">
        <ele>1604.9554443359</ele>
        <time>2009-05-22T13:15:58Z</time>
      </trkpt>
      <trkpt lat="44.16499" lon="5.27818">
        <ele>1603.9478759766</ele>
        <time>2009-05-22T13:16:00Z</time>
      </trkpt>
      <trkpt lat="44.16493" lon="5.27813">
        <ele>1602.0114746094</ele>
        <time>2009-05-22T13:16:05Z</time>
      </trkpt>
      <trkpt lat="44.16486" lon="5.2781">
        <ele>1599.9017333984</ele>
        <time>2009-05-22T13:16:09Z</time>
      </trkpt>
      <trkpt lat="44.16484" lon="5.27811">
        <ele>1599.4571533203</ele>
        <time>2009-05-22T13:16:10Z</time>
      </trkpt>
      <trkpt lat="44.16476" lon="5.2781">
        <ele>1597.4676513672</ele>
        <time>2009-05-22T13:16:14Z</time>
      </trkpt>
      <trkpt lat="44.16473" lon="5.2781">
        <ele>1596.6470947266</ele>
        <time>2009-05-22T13:16:16Z</time>
      </trkpt>
      <trkpt lat="44.16465" lon="5.2781">
        <ele>1594.6970214844</ele>
        <time>2009-05-22T13:16:20Z</time>
      </trkpt>
      <trkpt lat="44.16461" lon="5.27808">
        <ele>1593.4466552734</ele>
        <time>2009-05-22T13:16:22Z</time>
      </trkpt>
      <trkpt lat="44.16448" lon="5.27802">
        <ele>1589.8364257812</ele>
        <time>2009-05-22T13:16:29Z</time>
      </trkpt>
      <trkpt lat="44.16444" lon="5.27801">
        <ele>1588.5634765625</ele>
        <time>2009-05-22T13:16:31Z</time>
      </trkpt>
      <trkpt lat="44.16438" lon="5.27801">
        <ele>1586.4879150391</ele>
        <time>2009-05-22T13:16:34Z</time>
      </trkpt>
      <trkpt lat="44.16431" lon="5.27796">
        <ele>1583.9478759766</ele>
        <time>2009-05-22T13:16:38Z</time>
      </trkpt>
      <trkpt lat="44.16424" lon="5.27797">
        <ele>1581.7131347656</ele>
        <time>2009-05-22T13:16:42Z</time>
      </trkpt>
      <trkpt lat="44.1642" lon="5.27805">
        <ele>1581.1428222656</ele>
        <time>2009-05-22T13:16:45Z</time>
      </trkpt>
      <trkpt lat="44.16415" lon="5.27818">
        <ele>1578.9166259766</ele>
        <time>2009-05-22T13:16:50Z</time>
      </trkpt>
      <trkpt lat="44.16413" lon="5.27823">
        <ele>1577.8404541016</ele>
        <time>2009-05-22T13:16:52Z</time>
      </trkpt>
      <trkpt lat="44.16407" lon="5.27835">
        <ele>1574.203125</ele>
        <time>2009-05-22T13:16:56Z</time>
      </trkpt>
      <trkpt lat="44.16398" lon="5.27846">
        <ele>1568.8571777344</ele>
        <time>2009-05-22T13:17:01Z</time>
      </trkpt>
      <trkpt lat="44.16396" lon="5.27848">
        <ele>1567.8953857422</ele>
        <time>2009-05-22T13:17:02Z</time>
      </trkpt>
      <trkpt lat="44.16394" lon="5.27852">
        <ele>1566.1893310547</ele>
        <time>2009-05-22T13:17:04Z</time>
      </trkpt>
      <trkpt lat="44.16388" lon="5.27856">
        <ele>1562.6813964844</ele>
        <time>2009-05-22T13:17:09Z</time>
      </trkpt>
      <trkpt lat="44.16382" lon="5.27852">
        <ele>1560.7473144531</ele>
        <time>2009-05-22T13:17:13Z</time>
      </trkpt>
      <trkpt lat="44.1638" lon="5.27851">
        <ele>1559.7957763672</ele>
        <time>2009-05-22T13:17:16Z</time>
      </trkpt>
      <trkpt lat="44.16373" lon="5.27851">
        <ele>1557.4548339844</ele>
        <time>2009-05-22T13:17:29Z</time>
      </trkpt>
      <trkpt lat="44.16372" lon="5.27855">
        <ele>1556.4989013672</ele>
        <time>2009-05-22T13:17:34Z</time>
      </trkpt>
      <trkpt lat="44.16372" lon="5.27855">
        <ele>1556.45703125</ele>
        <time>2009-05-22T13:17:36Z</time>
      </trkpt>
      <trkpt lat="44.16372" lon="5.27858">
        <ele>1556.4366455078</ele>
        <time>2009-05-22T13:17:40Z</time>
      </trkpt>
      <trkpt lat="44.16368" lon="5.27859">
        <ele>1554.8703613281</ele>
        <time>2009-05-22T13:17:46Z</time>
      </trkpt>
      <trkpt lat="44.16365" lon="5.27859">
        <ele>1553.7097167969</ele>
        <time>2009-05-22T13:17:51Z</time>
      </trkpt>
      <trkpt lat="44.1635" lon="5.27855">
        <ele>1548.357421875</ele>
        <time>2009-05-22T13:18:01Z</time>
      </trkpt>
      <trkpt lat="44.16343" lon="5.2785">
        <ele>1546.2459716797</ele>
        <time>2009-05-22T13:18:04Z</time>
      </trkpt>
      <trkpt lat="44.16336" lon="5.27854">
        <ele>1543.5954589844</ele>
        <time>2009-05-22T13:18:08Z</time>
      </trkpt>
      <trkpt lat="44.16332" lon="5.2786">
        <ele>1541.6027832031</ele>
        <time>2009-05-22T13:18:10Z</time>
      </trkpt>
      <trkpt lat="44.1632" lon="5.27878">
        <ele>1534.3265380859</ele>
        <time>2009-05-22T13:18:16Z</time>
      </trkpt>
      <trkpt lat="44.16309" lon="5.27877">
        <ele>1529.154296875</ele>
        <time>2009-05-22T13:18:21Z</time>
      </trkpt>
      <trkpt lat="44.16299" lon="5.27863">
        <ele>1528.0491943359</ele>
        <time>2009-05-22T13:18:26Z</time>
      </trkpt>
      <trkpt lat="44.16293" lon="5.27862">
        <ele>1526.3145751953</ele>
        <time>2009-05-22T13:18:29Z</time>
      </trkpt>
      <trkpt lat="44.16288" lon="5.27872">
        <ele>1523.6696777344</ele>
        <time>2009-05-22T13:18:33Z</time>
      </trkpt>
      <trkpt lat="44.16288" lon="5.27873">
        <ele>1523.5135498047</ele>
        <time>2009-05-22T13:18:36Z</time>
      </trkpt>
      <trkpt lat="44.16289" lon="5.27875">
        <ele>1523.5118408203</ele>
        <time>2009-05-22T13:18:53Z</time>
      </trkpt>
      <trkpt lat="44.16289" lon="5.27875">
        <ele>1523.4534912109</ele>
        <time>2009-05-22T13:18:54Z</time>
      </trkpt>
      <trkpt lat="44.16289" lon="5.27875">
        <ele>1523.4301757812</ele>
        <time>2009-05-22T13:18:55Z</time>
      </trkpt>
      <trkpt lat="44.16293" lon="5.27883">
        <ele>1523.6256103516</ele>
        <time>2009-05-22T13:19:14Z</time>
      </trkpt>
      <trkpt lat="44.16295" lon="5.27888">
        <ele>1523.3942871094</ele>
        <time>2009-05-22T13:19:20Z</time>
      </trkpt>
      <trkpt lat="44.16296" lon="5.27891">
        <ele>1523.0551757812</ele>
        <time>2009-05-22T13:19:25Z</time>
      </trkpt>
      <trkpt lat="44.16296" lon="5.279">
        <ele>1521.7698974609</ele>
        <time>2009-05-22T13:19:32Z</time>
      </trkpt>
      <trkpt lat="44.16296" lon="5.279">
        <ele>1521.7537841797</ele>
        <time>2009-05-22T13:19:33Z</time>
      </trkpt>
      <trkpt lat="44.16289" lon="5.27899">
        <ele>1519.9102783203</ele>
        <time>2009-05-22T13:19:49Z</time>
      </trkpt>
      <trkpt lat="44.16287" lon="5.27899">
        <ele>1519.5413818359</ele>
        <time>2009-05-22T13:19:50Z</time>
      </trkpt>
      <trkpt lat="44.16289" lon="5.27899">
        <ele>1520.0339355469</ele>
        <time>2009-05-22T13:20:32Z</time>
      </trkpt>
      <trkpt lat="44.1629" lon="5.27898">
        <ele>1520.1928710938</ele>
        <time>2009-05-22T13:20:33Z</time>
      </trkpt>
      <trkpt lat="44.16299" lon="5.27902">
        <ele>1522.4110107422</ele>
        <time>2009-05-22T13:21:22Z</time>
      </trkpt>
      <trkpt lat="44.16299" lon="5.27902">
        <ele>1522.4110107422</ele>
        <time>2009-05-22T13:21:23Z</time>
      </trkpt>
      <trkpt lat="44.163" lon="5.27902">
        <ele>1522.5501708984</ele>
        <time>2009-05-22T13:21:24Z</time>
      </trkpt>
      <trkpt lat="44.16301" lon="5.27896">
        <ele>1523.8192138672</ele>
        <time>2009-05-22T13:21:31Z</time>
      </trkpt>
      <trkpt lat="44.16298" lon="5.27898">
        <ele>1522.7368164062</ele>
        <time>2009-05-22T13:21:34Z</time>
      </trkpt>
      <trkpt lat="44.16298" lon="5.27907">
        <ele>1521.2849121094</ele>
        <time>2009-05-22T13:21:38Z</time>
      </trkpt>
      <trkpt lat="44.16304" lon="5.27923">
        <ele>1521.0563964844</ele>
        <time>2009-05-22T13:21:43Z</time>
      </trkpt>
      <trkpt lat="44.16308" lon="5.27931">
        <ele>1521.8035888672</ele>
        <time>2009-05-22T13:21:46Z</time>
      </trkpt>
      <trkpt lat="44.16314" lon="5.27945">
        <ele>1523.0144042969</ele>
        <time>2009-05-22T13:21:51Z</time>
      </trkpt>
      <trkpt lat="44.16322" lon="5.27963">
        <ele>1522.5166015625</ele>
        <time>2009-05-22T13:21:56Z</time>
      </trkpt>
      <trkpt lat="44.16332" lon="5.27981">
        <ele>1522.4899902344</ele>
        <time>2009-05-22T13:22:01Z</time>
      </trkpt>
      <trkpt lat="44.16335" lon="5.27985">
        <ele>1522.892578125</ele>
        <time>2009-05-22T13:22:02Z</time>
      </trkpt>
      <trkpt lat="44.16343" lon="5.27993">
        <ele>1526.2570800781</ele>
        <time>2009-05-22T13:22:05Z</time>
      </trkpt>
      <trkpt lat="44.16348" lon="5.28001">
        <ele>1528.1748046875</ele>
        <time>2009-05-22T13:22:09Z</time>
      </trkpt>
      <trkpt lat="44.1635" lon="5.28006">
        <ele>1528.7625732422</ele>
        <time>2009-05-22T13:22:11Z</time>
      </trkpt>
      <trkpt lat="44.16357" lon="5.28013">
        <ele>1531.2329101562</ele>
        <time>2009-05-22T13:22:16Z</time>
      </trkpt>
      <trkpt lat="44.16366" lon="5.28025">
        <ele>1532.2165527344</ele>
        <time>2009-05-22T13:22:22Z</time>
      </trkpt>
      <trkpt lat="44.16369" lon="5.28029">
        <ele>1532.6081542969</ele>
        <time>2009-05-22T13:22:23Z</time>
      </trkpt>
      <trkpt lat="44.16376" lon="5.28039">
        <ele>1533.9797363281</ele>
        <time>2009-05-22T13:22:26Z</time>
      </trkpt>
      <trkpt lat="44.16381" lon="5.28055">
        <ele>1534.1447753906</ele>
        <time>2009-05-22T13:22:30Z</time>
      </trkpt>
      <trkpt lat="44.16379" lon="5.28081">
        <ele>1529.787109375</ele>
        <time>2009-05-22T13:22:35Z</time>
      </trkpt>
      <trkpt lat="44.16374" lon="5.28083">
        <ele>1526.9213867188</ele>
        <time>2009-05-22T13:22:39Z</time>
      </trkpt>
      <trkpt lat="44.16372" lon="5.28081">
        <ele>1525.9605712891</ele>
        <time>2009-05-22T13:22:41Z</time>
      </trkpt>
      <trkpt lat="44.16362" lon="5.28083">
        <ele>1520.7344970703</ele>
        <time>2009-05-22T13:22:45Z</time>
      </trkpt>
      <trkpt lat="44.16354" lon="5.28086">
        <ele>1518.2239990234</ele>
        <time>2009-05-22T13:22:47Z</time>
      </trkpt>
      <trkpt lat="44.16343" lon="5.28077">
        <ele>1515.9483642578</ele>
        <time>2009-05-22T13:22:52Z</time>
      </trkpt>
      <trkpt lat="44.16335" lon="5.28071">
        <ele>1514.2451171875</ele>
        <time>2009-05-22T13:22:54Z</time>
      </trkpt>
      <trkpt lat="44.16318" lon="5.28066">
        <ele>1508.3813476562</ele>
        <time>2009-05-22T13:22:59Z</time>
      </trkpt>
      <trkpt lat="44.16294" lon="5.28064">
        <ele>1500.7105712891</ele>
        <time>2009-05-22T13:23:05Z</time>
      </trkpt>
      <trkpt lat="44.1628" lon="5.28058">
        <ele>1496.5029296875</ele>
        <time>2009-05-22T13:23:10Z</time>
      </trkpt>
      <trkpt lat="44.1626" lon="5.28053">
        <ele>1486.6098632812</ele>
        <time>2009-05-22T13:23:16Z</time>
      </trkpt>
      <trkpt lat="44.16247" lon="5.28053">
        <ele>1480.2580566406</ele>
        <time>2009-05-22T13:23:22Z</time>
      </trkpt>
      <trkpt lat="44.16235" lon="5.28052">
        <ele>1477.3017578125</ele>
        <time>2009-05-22T13:23:27Z</time>
      </trkpt>
      <trkpt lat="44.16233" lon="5.28052">
        <ele>1476.7014160156</ele>
        <time>2009-05-22T13:23:28Z</time>
      </trkpt>
      <trkpt lat="44.16228" lon="5.28052">
        <ele>1475.408203125</ele>
        <time>2009-05-22T13:23:30Z</time>
      </trkpt>
      <trkpt lat="44.1622" lon="5.28053">
        <ele>1473.115234375</ele>
        <time>2009-05-22T13:23:35Z</time>
      </trkpt>
      <trkpt lat="44.16209" lon="5.28051">
        <ele>1469.5112304688</ele>
        <time>2009-05-22T13:23:40Z</time>
      </trkpt>
      <trkpt lat="44.16195" lon="5.2804">
        <ele>1465.2592773438</ele>
        <time>2009-05-22T13:23:44Z</time>
      </trkpt>
      <trkpt lat="44.16193" lon="5.28038">
        <ele>1464.3937988281</ele>
        <time>2009-05-22T13:23:45Z</time>
      </trkpt>
      <trkpt lat="44.1619" lon="5.28036">
        <ele>1463.353515625</ele>
        <time>2009-05-22T13:23:46Z</time>
      </trkpt>
      <trkpt lat="44.16169" lon="5.28032">
        <ele>1456.1110839844</ele>
        <time>2009-05-22T13:23:51Z</time>
      </trkpt>
      <trkpt lat="44.16157" lon="5.28034">
        <ele>1452.3630371094</ele>
        <time>2009-05-22T13:23:55Z</time>
      </trkpt>
      <trkpt lat="44.16152" lon="5.28034">
        <ele>1450.8375244141</ele>
        <time>2009-05-22T13:23:58Z</time>
      </trkpt>
      <trkpt lat="44.16151" lon="5.28034">
        <ele>1450.6529541016</ele>
        <time>2009-05-22T13:23:59Z</time>
      </trkpt>
      <trkpt lat="44.16143" lon="5.28036">
        <ele>1448.3092041016</ele>
        <time>2009-05-22T13:24:20Z</time>
      </trkpt>
      <trkpt lat="44.16141" lon="5.28035">
        <ele>1447.4969482422</ele>
        <time>2009-05-22T13:24:21Z</time>
      </trkpt>
      <trkpt lat="44.16131" lon="5.28031">
        <ele>1443.5893554688</ele>
        <time>2009-05-22T13:24:24Z</time>
      </trkpt>
      <trkpt lat="44.16113" lon="5.2803">
        <ele>1437.1761474609</ele>
        <time>2009-05-22T13:24:28Z</time>
      </trkpt>
      <trkpt lat="44.16103" lon="5.2803">
        <ele>1432.5678710938</ele>
        <time>2009-05-22T13:24:30Z</time>
      </trkpt>
      <trkpt lat="44.16082" lon="5.28031">
        <ele>1423.6408691406</ele>
        <time>2009-05-22T13:24:34Z</time>
      </trkpt>
      <trkpt lat="44.16073" lon="5.28032">
        <ele>1421.8747558594</ele>
        <time>2009-05-22T13:24:36Z</time>
      </trkpt>
      <trkpt lat="44.16058" lon="5.28032">
        <ele>1418.8225097656</ele>
        <time>2009-05-22T13:24:39Z</time>
      </trkpt>
      <trkpt lat="44.16029" lon="5.28039">
        <ele>1407.8917236328</ele>
        <time>2009-05-22T13:24:45Z</time>
      </trkpt>
      <trkpt lat="44.16026" lon="5.2804">
        <ele>1406.8344726562</ele>
        <time>2009-05-22T13:24:46Z</time>
      </trkpt>
      <trkpt lat="44.16003" lon="5.28048">
        <ele>1400.7376708984</ele>
        <time>2009-05-22T13:24:52Z</time>
      </trkpt>
      <trkpt lat="44.15985" lon="5.28048">
        <ele>1399.8466796875</ele>
        <time>2009-05-22T13:24:57Z</time>
      </trkpt>
      <trkpt lat="44.15977" lon="5.28047">
        <ele>1399.7360839844</ele>
        <time>2009-05-22T13:24:59Z</time>
      </trkpt>
      <trkpt lat="44.15963" lon="5.2804">
        <ele>1398.6385498047</ele>
        <time>2009-05-22T13:25:03Z</time>
      </trkpt>
      <trkpt lat="44.15952" lon="5.28033">
        <ele>1397.1457519531</ele>
        <time>2009-05-22T13:25:06Z</time>
      </trkpt>
      <trkpt lat="44.15939" lon="5.28029">
        <ele>1395.4967041016</ele>
        <time>2009-05-22T13:25:09Z</time>
      </trkpt>
      <trkpt lat="44.15916" lon="5.2802">
        <ele>1392.1251220703</ele>
        <time>2009-05-22T13:25:15Z</time>
      </trkpt>
      <trkpt lat="44.1591" lon="5.28019">
        <ele>1391.4049072266</ele>
        <time>2009-05-22T13:25:17Z</time>
      </trkpt>
      <trkpt lat="44.15894" lon="5.28012">
        <ele>1388.7838134766</ele>
        <time>2009-05-22T13:25:23Z</time>
      </trkpt>
      <trkpt lat="44.15878" lon="5.28007">
        <ele>1385.2413330078</ele>
        <time>2009-05-22T13:25:27Z</time>
      </trkpt>
      <trkpt lat="44.1587" lon="5.28003">
        <ele>1383.0659179688</ele>
        <time>2009-05-22T13:25:29Z</time>
      </trkpt>
      <trkpt lat="44.15861" lon="5.28">
        <ele>1381.0490722656</ele>
        <time>2009-05-22T13:25:31Z</time>
      </trkpt>
      <trkpt lat="44.15853" lon="5.27998">
        <ele>1380.7816162109</ele>
        <time>2009-05-22T13:25:33Z</time>
      </trkpt>
      <trkpt lat="44.15829" lon="5.2799">
        <ele>1379.5892333984</ele>
        <time>2009-05-22T13:25:38Z</time>
      </trkpt>
      <trkpt lat="44.15812" lon="5.27977">
        <ele>1378.5430908203</ele>
        <time>2009-05-22T13:25:43Z</time>
      </trkpt>
      <trkpt lat="44.15808" lon="5.27974">
        <ele>1378.2231445312</ele>
        <time>2009-05-22T13:25:44Z</time>
      </trkpt>
      <trkpt lat="44.15794" lon="5.27965">
        <ele>1376.9819335938</ele>
        <time>2009-05-22T13:25:47Z</time>
      </trkpt>
      <trkpt lat="44.15781" lon="5.27958">
        <ele>1375.4012451172</ele>
        <time>2009-05-22T13:25:50Z</time>
      </trkpt>
      <trkpt lat="44.15757" lon="5.27947">
        <ele>1370.6188964844</ele>
        <time>2009-05-22T13:25:56Z</time>
      </trkpt>
      <trkpt lat="44.15753" lon="5.27945">
        <ele>1369.6154785156</ele>
        <time>2009-05-22T13:25:57Z</time>
      </trkpt>
      <trkpt lat="44.15742" lon="5.27939">
        <ele>1366.5202636719</ele>
        <time>2009-05-22T13:26:00Z</time>
      </trkpt>
      <trkpt lat="44.15733" lon="5.27935">
        <ele>1363.9956054688</ele>
        <time>2009-05-22T13:26:02Z</time>
      </trkpt>
      <trkpt lat="44.15713" lon="5.27923">
        <ele>1359.8220214844</ele>
        <time>2009-05-22T13:26:07Z</time>
      </trkpt>
      <trkpt lat="44.15704" lon="5.27918">
        <ele>1358.8161621094</ele>
        <time>2009-05-22T13:26:09Z</time>
      </trkpt>
      <trkpt lat="44.15675" lon="5.27902">
        <ele>1354.8405761719</ele>
        <time>2009-05-22T13:26:15Z</time>
      </trkpt>
      <trkpt lat="44.15661" lon="5.27891">
        <ele>1349.9266357422</ele>
        <time>2009-05-22T13:26:19Z</time>
      </trkpt>
      <trkpt lat="44.15643" lon="5.27879">
        <ele>1339.8033447266</ele>
        <time>2009-05-22T13:26:24Z</time>
      </trkpt>
      <trkpt lat="44.15613" lon="5.27863">
        <ele>1330.9997558594</ele>
        <time>2009-05-22T13:26:30Z</time>
      </trkpt>
      <trkpt lat="44.15588" lon="5.2785">
        <ele>1322.5570068359</ele>
        <time>2009-05-22T13:26:36Z</time>
      </trkpt>
      <trkpt lat="44.15584" lon="5.27847">
        <ele>1321.2086181641</ele>
        <time>2009-05-22T13:26:37Z</time>
      </trkpt>
      <trkpt lat="44.15565" lon="5.27836">
        <ele>1318.728515625</ele>
        <time>2009-05-22T13:26:42Z</time>
      </trkpt>
      <trkpt lat="44.15544" lon="5.27824">
        <ele>1315.6265869141</ele>
        <time>2009-05-22T13:26:48Z</time>
      </trkpt>
      <trkpt lat="44.15537" lon="5.27814">
        <ele>1312.9919433594</ele>
        <time>2009-05-22T13:26:51Z</time>
      </trkpt>
      <trkpt lat="44.15528" lon="5.27806">
        <ele>1310.1307373047</ele>
        <time>2009-05-22T13:26:54Z</time>
      </trkpt>
      <trkpt lat="44.1552" lon="5.27802">
        <ele>1308.6508789062</ele>
        <time>2009-05-22T13:26:56Z</time>
      </trkpt>
      <trkpt lat="44.15514" lon="5.27797">
        <ele>1307.1931152344</ele>
        <time>2009-05-22T13:26:58Z</time>
      </trkpt>
      <trkpt lat="44.15501" lon="5.27771">
        <ele>1300.8887939453</ele>
        <time>2009-05-22T13:27:04Z</time>
      </trkpt>
      <trkpt lat="44.15498" lon="5.27766">
        <ele>1299.6485595703</ele>
        <time>2009-05-22T13:27:05Z</time>
      </trkpt>
      <trkpt lat="44.15484" lon="5.27745">
        <ele>1293.7651367188</ele>
        <time>2009-05-22T13:27:10Z</time>
      </trkpt>
      <trkpt lat="44.15478" lon="5.27728">
        <ele>1288.9331054688</ele>
        <time>2009-05-22T13:27:14Z</time>
      </trkpt>
      <trkpt lat="44.1547" lon="5.27703">
        <ele>1282.9241943359</ele>
        <time>2009-05-22T13:27:19Z</time>
      </trkpt>
      <trkpt lat="44.1546" lon="5.27679">
        <ele>1280.4884033203</ele>
        <time>2009-05-22T13:27:25Z</time>
      </trkpt>
      <trkpt lat="44.15448" lon="5.2766">
        <ele>1280</ele>
        <time>2009-05-22T13:27:31Z</time>
      </trkpt>
      <trkpt lat="44.15435" lon="5.2764">
        <ele>1280</ele>
        <time>2009-05-22T13:27:36Z</time>
      </trkpt>
      <trkpt lat="44.15423" lon="5.27631">
        <ele>1280</ele>
        <time>2009-05-22T13:27:41Z</time>
      </trkpt>
      <trkpt lat="44.1541" lon="5.2762">
        <ele>1280</ele>
        <time>2009-05-22T13:27:46Z</time>
      </trkpt>
      <trkpt lat="44.15402" lon="5.27606">
        <ele>1280</ele>
        <time>2009-05-22T13:27:50Z</time>
      </trkpt>
      <trkpt lat="44.15395" lon="5.27597">
        <ele>1280</ele>
        <time>2009-05-22T13:27:54Z</time>
      </trkpt>
      <trkpt lat="44.15392" lon="5.27595">
        <ele>1280</ele>
        <time>2009-05-22T13:27:57Z</time>
      </trkpt>
      <trkpt lat="44.15389" lon="5.27585">
        <ele>1280</ele>
        <time>2009-05-22T13:30:10Z</time>
      </trkpt>
      <trkpt lat="44.15388" lon="5.27581">
        <ele>1280</ele>
        <time>2009-05-22T13:30:11Z</time>
      </trkpt>
      <trkpt lat="44.15386" lon="5.27577">
        <ele>1280</ele>
        <time>2009-05-22T13:30:12Z</time>
      </trkpt>
      <trkpt lat="44.15379" lon="5.27565">
        <ele>1280</ele>
        <time>2009-05-22T13:30:15Z</time>
      </trkpt>
      <trkpt lat="44.15373" lon="5.27551">
        <ele>1279.912109375</ele>
        <time>2009-05-22T13:30:18Z</time>
      </trkpt>
      <trkpt lat="44.15369" lon="5.27541">
        <ele>1279.6284179688</ele>
        <time>2009-05-22T13:30:20Z</time>
      </trkpt>
      <trkpt lat="44.15354" lon="5.27512">
        <ele>1278.8566894531</ele>
        <time>2009-05-22T13:30:25Z</time>
      </trkpt>
      <trkpt lat="44.15334" lon="5.27478">
        <ele>1278.0144042969</ele>
        <time>2009-05-22T13:30:30Z</time>
      </trkpt>
      <trkpt lat="44.15328" lon="5.27465">
        <ele>1277.3527832031</ele>
        <time>2009-05-22T13:30:32Z</time>
      </trkpt>
      <trkpt lat="44.15307" lon="5.27428">
        <ele>1274.1870117188</ele>
        <time>2009-05-22T13:30:38Z</time>
      </trkpt>
      <trkpt lat="44.15296" lon="5.27406">
        <ele>1270.1694335938</ele>
        <time>2009-05-22T13:30:42Z</time>
      </trkpt>
      <trkpt lat="44.15285" lon="5.27382">
        <ele>1264.2941894531</ele>
        <time>2009-05-22T13:30:47Z</time>
      </trkpt>
      <trkpt lat="44.15282" lon="5.27377">
        <ele>1263.0611572266</ele>
        <time>2009-05-22T13:30:48Z</time>
      </trkpt>
      <trkpt lat="44.15271" lon="5.27363">
        <ele>1259.6048583984</ele>
        <time>2009-05-22T13:30:51Z</time>
      </trkpt>
      <trkpt lat="44.15253" lon="5.27334">
        <ele>1257.3186035156</ele>
        <time>2009-05-22T13:30:56Z</time>
      </trkpt>
      <trkpt lat="44.15246" lon="5.27325">
        <ele>1255.9641113281</ele>
        <time>2009-05-22T13:30:58Z</time>
      </trkpt>
      <trkpt lat="44.15234" lon="5.27309">
        <ele>1253.0314941406</ele>
        <time>2009-05-22T13:31:02Z</time>
      </trkpt>
      <trkpt lat="44.15232" lon="5.27305">
        <ele>1252.2938232422</ele>
        <time>2009-05-22T13:31:03Z</time>
      </trkpt>
      <trkpt lat="44.15216" lon="5.27291">
        <ele>1248.2490234375</ele>
        <time>2009-05-22T13:31:07Z</time>
      </trkpt>
      <trkpt lat="44.15201" lon="5.27273">
        <ele>1242.7496337891</ele>
        <time>2009-05-22T13:31:11Z</time>
      </trkpt>
      <trkpt lat="44.1519" lon="5.27259">
        <ele>1239.2218017578</ele>
        <time>2009-05-22T13:31:14Z</time>
      </trkpt>
      <trkpt lat="44.15184" lon="5.27249">
        <ele>1237.580078125</ele>
        <time>2009-05-22T13:31:16Z</time>
      </trkpt>
      <trkpt lat="44.15179" lon="5.27237">
        <ele>1236.7290039062</ele>
        <time>2009-05-22T13:31:18Z</time>
      </trkpt>
      <trkpt lat="44.15172" lon="5.2722">
        <ele>1235.0432128906</ele>
        <time>2009-05-22T13:31:21Z</time>
      </trkpt>
      <trkpt lat="44.15172" lon="5.27198">
        <ele>1232.3059082031</ele>
        <time>2009-05-22T13:31:24Z</time>
      </trkpt>
      <trkpt lat="44.15161" lon="5.27167">
        <ele>1225.5150146484</ele>
        <time>2009-05-22T13:31:29Z</time>
      </trkpt>
      <trkpt lat="44.15146" lon="5.27146">
        <ele>1220.2863769531</ele>
        <time>2009-05-22T13:31:33Z</time>
      </trkpt>
      <trkpt lat="44.15143" lon="5.27141">
        <ele>1219.1430664062</ele>
        <time>2009-05-22T13:31:34Z</time>
      </trkpt>
      <trkpt lat="44.1513" lon="5.27117">
        <ele>1216.2193603516</ele>
        <time>2009-05-22T13:31:39Z</time>
      </trkpt>
      <trkpt lat="44.15124" lon="5.27097">
        <ele>1214.6932373047</ele>
        <time>2009-05-22T13:31:43Z</time>
      </trkpt>
      <trkpt lat="44.15117" lon="5.27086">
        <ele>1213.5611572266</ele>
        <time>2009-05-22T13:31:46Z</time>
      </trkpt>
      <trkpt lat="44.15112" lon="5.27066">
        <ele>1211.1678466797</ele>
        <time>2009-05-22T13:31:50Z</time>
      </trkpt>
      <trkpt lat="44.15109" lon="5.27049">
        <ele>1208.7362060547</ele>
        <time>2009-05-22T13:31:53Z</time>
      </trkpt>
      <trkpt lat="44.15105" lon="5.27031">
        <ele>1205.2322998047</ele>
        <time>2009-05-22T13:31:57Z</time>
      </trkpt>
      <trkpt lat="44.15106" lon="5.27022">
        <ele>1204.4946289062</ele>
        <time>2009-05-22T13:31:59Z</time>
      </trkpt>
      <trkpt lat="44.15107" lon="5.27011">
        <ele>1203.8354492188</ele>
        <time>2009-05-22T13:32:01Z</time>
      </trkpt>
      <trkpt lat="44.15099" lon="5.26985">
        <ele>1200.1429443359</ele>
        <time>2009-05-22T13:32:06Z</time>
      </trkpt>
      <trkpt lat="44.15096" lon="5.2698">
        <ele>1199.4005126953</ele>
        <time>2009-05-22T13:32:07Z</time>
      </trkpt>
      <trkpt lat="44.15094" lon="5.26975">
        <ele>1198.6550292969</ele>
        <time>2009-05-22T13:32:08Z</time>
      </trkpt>
      <trkpt lat="44.15084" lon="5.26961">
        <ele>1196.6546630859</ele>
        <time>2009-05-22T13:32:11Z</time>
      </trkpt>
      <trkpt lat="44.15066" lon="5.26936">
        <ele>1192.8558349609</ele>
        <time>2009-05-22T13:32:16Z</time>
      </trkpt>
      <trkpt lat="44.15046" lon="5.26908">
        <ele>1188.2762451172</ele>
        <time>2009-05-22T13:32:22Z</time>
      </trkpt>
      <trkpt lat="44.1504" lon="5.26898">
        <ele>1186.5201416016</ele>
        <time>2009-05-22T13:32:24Z</time>
      </trkpt>
      <trkpt lat="44.15036" lon="5.26895">
        <ele>1185.7292480469</ele>
        <time>2009-05-22T13:32:25Z</time>
      </trkpt>
      <trkpt lat="44.15028" lon="5.26889">
        <ele>1184.1207275391</ele>
        <time>2009-05-22T13:32:27Z</time>
      </trkpt>
      <trkpt lat="44.15005" lon="5.26874">
        <ele>1179.2329101562</ele>
        <time>2009-05-22T13:32:32Z</time>
      </trkpt>
      <trkpt lat="44.14983" lon="5.26859">
        <ele>1177.2258300781</ele>
        <time>2009-05-22T13:32:37Z</time>
      </trkpt>
      <trkpt lat="44.14974" lon="5.26839">
        <ele>1174.7897949219</ele>
        <time>2009-05-22T13:32:41Z</time>
      </trkpt>
      <trkpt lat="44.14965" lon="5.26814">
        <ele>1172.9682617188</ele>
        <time>2009-05-22T13:32:45Z</time>
      </trkpt>
      <trkpt lat="44.14952" lon="5.26795">
        <ele>1170.4177246094</ele>
        <time>2009-05-22T13:32:49Z</time>
      </trkpt>
      <trkpt lat="44.14939" lon="5.26783">
        <ele>1168.0595703125</ele>
        <time>2009-05-22T13:32:52Z</time>
      </trkpt>
      <trkpt lat="44.14924" lon="5.26765">
        <ele>1164.0318603516</ele>
        <time>2009-05-22T13:32:56Z</time>
      </trkpt>
      <trkpt lat="44.14914" lon="5.26743">
        <ele>1160.5682373047</ele>
        <time>2009-05-22T13:33:00Z</time>
      </trkpt>
      <trkpt lat="44.14911" lon="5.26711">
        <ele>1158.7407226562</ele>
        <time>2009-05-22T13:33:06Z</time>
      </trkpt>
      <trkpt lat="44.1491" lon="5.26706">
        <ele>1158.3425292969</ele>
        <time>2009-05-22T13:33:07Z</time>
      </trkpt>
      <trkpt lat="44.14909" lon="5.26695">
        <ele>1157.4909667969</ele>
        <time>2009-05-22T13:33:11Z</time>
      </trkpt>
      <trkpt lat="44.1491" lon="5.2668">
        <ele>1156.8990478516</ele>
        <time>2009-05-22T13:33:15Z</time>
      </trkpt>
      <trkpt lat="44.1491" lon="5.26677">
        <ele>1156.6950683594</ele>
        <time>2009-05-22T13:33:19Z</time>
      </trkpt>
      <trkpt lat="44.14894" lon="5.26657">
        <ele>1153.8884277344</ele>
        <time>2009-05-22T13:34:35Z</time>
      </trkpt>
      <trkpt lat="44.14893" lon="5.2665">
        <ele>1153.2327880859</ele>
        <time>2009-05-22T13:34:37Z</time>
      </trkpt>
      <trkpt lat="44.14887" lon="5.2664">
        <ele>1152.1098632812</ele>
        <time>2009-05-22T13:34:40Z</time>
      </trkpt>
      <trkpt lat="44.14871" lon="5.26635">
        <ele>1151.7493896484</ele>
        <time>2009-05-22T13:34:45Z</time>
      </trkpt>
      <trkpt lat="44.14861" lon="5.26637">
        <ele>1151.8626708984</ele>
        <time>2009-05-22T13:34:51Z</time>
      </trkpt>
      <trkpt lat="44.14847" lon="5.26644">
        <ele>1147.6657714844</ele>
        <time>2009-05-22T13:34:55Z</time>
      </trkpt>
      <trkpt lat="44.14827" lon="5.26648">
        <ele>1142.9420166016</ele>
        <time>2009-05-22T13:35:00Z</time>
      </trkpt>
      <trkpt lat="44.14817" lon="5.26647">
        <ele>1141.4989013672</ele>
        <time>2009-05-22T13:35:05Z</time>
      </trkpt>
      <trkpt lat="44.14815" lon="5.26647">
        <ele>1141.2877197266</ele>
        <time>2009-05-22T13:35:09Z</time>
      </trkpt>
      <trkpt lat="44.14811" lon="5.26646">
        <ele>1140.6530761719</ele>
        <time>2009-05-22T13:35:13Z</time>
      </trkpt>
      <trkpt lat="44.148" lon="5.26644">
        <ele>1139.2017822266</ele>
        <time>2009-05-22T13:35:17Z</time>
      </trkpt>
      <trkpt lat="44.14784" lon="5.26641">
        <ele>1137.6262207031</ele>
        <time>2009-05-22T13:35:22Z</time>
      </trkpt>
      <trkpt lat="44.14771" lon="5.2663">
        <ele>1134.6831054688</ele>
        <time>2009-05-22T13:35:26Z</time>
      </trkpt>
      <trkpt lat="44.14765" lon="5.26619">
        <ele>1131.734375</ele>
        <time>2009-05-22T13:35:29Z</time>
      </trkpt>
      <trkpt lat="44.14762" lon="5.26617">
        <ele>1130.7083740234</ele>
        <time>2009-05-22T13:35:32Z</time>
      </trkpt>
      <trkpt lat="44.14761" lon="5.26614">
        <ele>1129.8186035156</ele>
        <time>2009-05-22T13:35:41Z</time>
      </trkpt>
      <trkpt lat="44.14764" lon="5.26615">
        <ele>1130.9619140625</ele>
        <time>2009-05-22T13:35:54Z</time>
      </trkpt>
      <trkpt lat="44.14764" lon="5.26616">
        <ele>1131.2496337891</ele>
        <time>2009-05-22T13:35:56Z</time>
      </trkpt>
      <trkpt lat="44.14768" lon="5.26621">
        <ele>1132.8638916016</ele>
        <time>2009-05-22T13:36:07Z</time>
      </trkpt>
      <trkpt lat="44.14774" lon="5.26623">
        <ele>1134.9052734375</ele>
        <time>2009-05-22T13:36:14Z</time>
      </trkpt>
      <trkpt lat="44.14769" lon="5.2662">
        <ele>1133.0255126953</ele>
        <time>2009-05-22T13:36:25Z</time>
      </trkpt>
      <trkpt lat="44.14768" lon="5.26622">
        <ele>1132.974609375</ele>
        <time>2009-05-22T13:36:53Z</time>
      </trkpt>
      <trkpt lat="44.14768" lon="5.26621">
        <ele>1133.0250244141</ele>
        <time>2009-05-22T13:36:54Z</time>
      </trkpt>
      <trkpt lat="44.14767" lon="5.26616">
        <ele>1131.9274902344</ele>
        <time>2009-05-22T13:38:15Z</time>
      </trkpt>
      <trkpt lat="44.14764" lon="5.26614">
        <ele>1131.0013427734</ele>
        <time>2009-05-22T13:38:16Z</time>
      </trkpt>
      <trkpt lat="44.14752" lon="5.26606">
        <ele>1126.1389160156</ele>
        <time>2009-05-22T13:38:20Z</time>
      </trkpt>
      <trkpt lat="44.14749" lon="5.26603">
        <ele>1124.9442138672</ele>
        <time>2009-05-22T13:38:21Z</time>
      </trkpt>
      <trkpt lat="44.14745" lon="5.266">
        <ele>1124.0412597656</ele>
        <time>2009-05-22T13:38:22Z</time>
      </trkpt>
      <trkpt lat="44.14722" lon="5.26584">
        <ele>1119.0770263672</ele>
        <time>2009-05-22T13:38:28Z</time>
      </trkpt>
      <trkpt lat="44.14704" lon="5.26575">
        <ele>1117.4582519531</ele>
        <time>2009-05-22T13:38:32Z</time>
      </trkpt>
      <trkpt lat="44.1468" lon="5.26578">
        <ele>1117.2641601562</ele>
        <time>2009-05-22T13:38:37Z</time>
      </trkpt>
      <trkpt lat="44.14676" lon="5.2658">
        <ele>1117.59765625</ele>
        <time>2009-05-22T13:38:38Z</time>
      </trkpt>
      <trkpt lat="44.14666" lon="5.26588">
        <ele>1118.3131103516</ele>
        <time>2009-05-22T13:38:40Z</time>
      </trkpt>
      <trkpt lat="44.14657" lon="5.26598">
        <ele>1118.2045898438</ele>
        <time>2009-05-22T13:38:42Z</time>
      </trkpt>
      <trkpt lat="44.14653" lon="5.26603">
        <ele>1118.3179931641</ele>
        <time>2009-05-22T13:38:43Z</time>
      </trkpt>
      <trkpt lat="44.14645" lon="5.26616">
        <ele>1118.9547119141</ele>
        <time>2009-05-22T13:38:45Z</time>
      </trkpt>
      <trkpt lat="44.14642" lon="5.26622">
        <ele>1119.4490966797</ele>
        <time>2009-05-22T13:38:46Z</time>
      </trkpt>
      <trkpt lat="44.14622" lon="5.26675">
        <ele>1119.5297851562</ele>
        <time>2009-05-22T13:38:53Z</time>
      </trkpt>
      <trkpt lat="44.14603" lon="5.26699">
        <ele>1114.8824462891</ele>
        <time>2009-05-22T13:38:57Z</time>
      </trkpt>
      <trkpt lat="44.14585" lon="5.26715">
        <ele>1108.3469238281</ele>
        <time>2009-05-22T13:39:01Z</time>
      </trkpt>
      <trkpt lat="44.14576" lon="5.26723">
        <ele>1106.7692871094</ele>
        <time>2009-05-22T13:39:03Z</time>
      </trkpt>
      <trkpt lat="44.14566" lon="5.26738">
        <ele>1105.3719482422</ele>
        <time>2009-05-22T13:39:06Z</time>
      </trkpt>
      <trkpt lat="44.1456" lon="5.26748">
        <ele>1104.640625</ele>
        <time>2009-05-22T13:39:08Z</time>
      </trkpt>
      <trkpt lat="44.14551" lon="5.26764">
        <ele>1104.9924316406</ele>
        <time>2009-05-22T13:39:11Z</time>
      </trkpt>
      <trkpt lat="44.14543" lon="5.26777">
        <ele>1105.6207275391</ele>
        <time>2009-05-22T13:39:14Z</time>
      </trkpt>
      <trkpt lat="44.14531" lon="5.26784">
        <ele>1105.0028076172</ele>
        <time>2009-05-22T13:39:18Z</time>
      </trkpt>
      <trkpt lat="44.14527" lon="5.26783">
        <ele>1104.4593505859</ele>
        <time>2009-05-22T13:39:22Z</time>
      </trkpt>
      <trkpt lat="44.14527" lon="5.26783">
        <ele>1104.4489746094</ele>
        <time>2009-05-22T13:39:23Z</time>
      </trkpt>
      <trkpt lat="44.14523" lon="5.26782">
        <ele>1103.8223876953</ele>
        <time>2009-05-22T13:39:28Z</time>
      </trkpt>
      <trkpt lat="44.14508" lon="5.26781">
        <ele>1101.4106445312</ele>
        <time>2009-05-22T13:39:33Z</time>
      </trkpt>
      <trkpt lat="44.145" lon="5.2678">
        <ele>1100.2999267578</ele>
        <time>2009-05-22T13:39:35Z</time>
      </trkpt>
      <trkpt lat="44.14486" lon="5.26777">
        <ele>1098.8679199219</ele>
        <time>2009-05-22T13:39:39Z</time>
      </trkpt>
      <trkpt lat="44.14467" lon="5.26773">
        <ele>1096.5656738281</ele>
        <time>2009-05-22T13:39:44Z</time>
      </trkpt>
      <trkpt lat="44.14449" lon="5.26771">
        <ele>1092.2440185547</ele>
        <time>2009-05-22T13:39:48Z</time>
      </trkpt>
      <trkpt lat="44.14421" lon="5.26779">
        <ele>1088.6333007812</ele>
        <time>2009-05-22T13:39:53Z</time>
      </trkpt>
      <trkpt lat="44.14405" lon="5.26785">
        <ele>1086.4989013672</ele>
        <time>2009-05-22T13:39:56Z</time>
      </trkpt>
      <trkpt lat="44.14388" lon="5.268">
        <ele>1084.3549804688</ele>
        <time>2009-05-22T13:40:00Z</time>
      </trkpt>
      <trkpt lat="44.1438" lon="5.26809">
        <ele>1083.3713378906</ele>
        <time>2009-05-22T13:40:02Z</time>
      </trkpt>
      <trkpt lat="44.14376" lon="5.26815">
        <ele>1082.8293457031</ele>
        <time>2009-05-22T13:40:03Z</time>
      </trkpt>
      <trkpt lat="44.14365" lon="5.26835">
        <ele>1081.0913085938</ele>
        <time>2009-05-22T13:40:06Z</time>
      </trkpt>
      <trkpt lat="44.14359" lon="5.26853">
        <ele>1079.7595214844</ele>
        <time>2009-05-22T13:40:08Z</time>
      </trkpt>
      <trkpt lat="44.14348" lon="5.26888">
        <ele>1080.0361328125</ele>
        <time>2009-05-22T13:40:12Z</time>
      </trkpt>
      <trkpt lat="44.14336" lon="5.26897">
        <ele>1080.0340576172</ele>
        <time>2009-05-22T13:40:15Z</time>
      </trkpt>
      <trkpt lat="44.14324" lon="5.26894">
        <ele>1079.1456298828</ele>
        <time>2009-05-22T13:40:17Z</time>
      </trkpt>
      <trkpt lat="44.1431" lon="5.26888">
        <ele>1078.1314697266</ele>
        <time>2009-05-22T13:40:19Z</time>
      </trkpt>
      <trkpt lat="44.14292" lon="5.26876">
        <ele>1076.5769042969</ele>
        <time>2009-05-22T13:40:22Z</time>
      </trkpt>
      <trkpt lat="44.14278" lon="5.2687">
        <ele>1075.6979980469</ele>
        <time>2009-05-22T13:40:24Z</time>
      </trkpt>
      <trkpt lat="44.14255" lon="5.26866">
        <ele>1074.5375976562</ele>
        <time>2009-05-22T13:40:27Z</time>
      </trkpt>
      <trkpt lat="44.1421" lon="5.26873">
        <ele>1068.6323242188</ele>
        <time>2009-05-22T13:40:32Z</time>
      </trkpt>
      <trkpt lat="44.14202" lon="5.26875">
        <ele>1067.4169921875</ele>
        <time>2009-05-22T13:40:33Z</time>
      </trkpt>
      <trkpt lat="44.14182" lon="5.2688">
        <ele>1064.1599121094</ele>
        <time>2009-05-22T13:40:36Z</time>
      </trkpt>
      <trkpt lat="44.14169" lon="5.2688">
        <ele>1062.1059570312</ele>
        <time>2009-05-22T13:40:38Z</time>
      </trkpt>
      <trkpt lat="44.14148" lon="5.26882">
        <ele>1058.9724121094</ele>
        <time>2009-05-22T13:40:44Z</time>
      </trkpt>
      <trkpt lat="44.14148" lon="5.26882">
        <ele>1058.9143066406</ele>
        <time>2009-05-22T13:40:46Z</time>
      </trkpt>
      <trkpt lat="44.14153" lon="5.26877">
        <ele>1059.3902587891</ele>
        <time>2009-05-22T13:44:34Z</time>
      </trkpt>
      <trkpt lat="44.14161" lon="5.26854">
        <ele>1059.3122558594</ele>
        <time>2009-05-22T13:44:45Z</time>
      </trkpt>
      <trkpt lat="44.14169" lon="5.26826">
        <ele>1058.7783203125</ele>
        <time>2009-05-22T13:44:50Z</time>
      </trkpt>
      <trkpt lat="44.14198" lon="5.26778">
        <ele>1057.2913818359</ele>
        <time>2009-05-22T13:44:58Z</time>
      </trkpt>
      <trkpt lat="44.14214" lon="5.2676">
        <ele>1057.0935058594</ele>
        <time>2009-05-22T13:45:02Z</time>
      </trkpt>
      <trkpt lat="44.14225" lon="5.26735">
        <ele>1056.5048828125</ele>
        <time>2009-05-22T13:45:07Z</time>
      </trkpt>
      <trkpt lat="44.14223" lon="5.26729">
        <ele>1055.6157226562</ele>
        <time>2009-05-22T13:45:08Z</time>
      </trkpt>
      <trkpt lat="44.14201" lon="5.26688">
        <ele>1051.2794189453</ele>
        <time>2009-05-22T13:45:14Z</time>
      </trkpt>
      <trkpt lat="44.14171" lon="5.26646">
        <ele>1045.0153808594</ele>
        <time>2009-05-22T13:45:20Z</time>
      </trkpt>
      <trkpt lat="44.14138" lon="5.26601">
        <ele>1033.5753173828</ele>
        <time>2009-05-22T13:45:26Z</time>
      </trkpt>
      <trkpt lat="44.14132" lon="5.26595">
        <ele>1032.4354248047</ele>
        <time>2009-05-22T13:45:27Z</time>
      </trkpt>
      <trkpt lat="44.14097" lon="5.2656">
        <ele>1025.7690429688</ele>
        <time>2009-05-22T13:45:33Z</time>
      </trkpt>
      <trkpt lat="44.14069" lon="5.26527">
        <ele>1018.4032592773</ele>
        <time>2009-05-22T13:45:38Z</time>
      </trkpt>
      <trkpt lat="44.14055" lon="5.26505">
        <ele>1012.2993164062</ele>
        <time>2009-05-22T13:45:41Z</time>
      </trkpt>
      <trkpt lat="44.14034" lon="5.26446">
        <ele>1006.5285644531</ele>
        <time>2009-05-22T13:45:47Z</time>
      </trkpt>
      <trkpt lat="44.14031" lon="5.26435">
        <ele>1005.8770141602</ele>
        <time>2009-05-22T13:45:48Z</time>
      </trkpt>
      <trkpt lat="44.14022" lon="5.26382">
        <ele>1002.3017578125</ele>
        <time>2009-05-22T13:45:53Z</time>
      </trkpt>
      <trkpt lat="44.14021" lon="5.26373">
        <ele>1001.8966064453</ele>
        <time>2009-05-22T13:45:54Z</time>
      </trkpt>
      <trkpt lat="44.14027" lon="5.26337">
        <ele>1000.1864013672</ele>
        <time>2009-05-22T13:45:59Z</time>
      </trkpt>
      <trkpt lat="44.14035" lon="5.26326">
        <ele>999.81884765625</ele>
        <time>2009-05-22T13:46:01Z</time>
      </trkpt>
      <trkpt lat="44.14053" lon="5.26312">
        <ele>1000.0827026367</ele>
        <time>2009-05-22T13:46:04Z</time>
      </trkpt>
      <trkpt lat="44.14094" lon="5.26293">
        <ele>1001.1788330078</ele>
        <time>2009-05-22T13:46:10Z</time>
      </trkpt>
      <trkpt lat="44.14111" lon="5.26271">
        <ele>999.46215820312</ele>
        <time>2009-05-22T13:46:14Z</time>
      </trkpt>
      <trkpt lat="44.14115" lon="5.26237">
        <ele>997.06616210938</ele>
        <time>2009-05-22T13:46:18Z</time>
      </trkpt>
      <trkpt lat="44.14114" lon="5.26217">
        <ele>995.04431152344</ele>
        <time>2009-05-22T13:46:20Z</time>
      </trkpt>
      <trkpt lat="44.14111" lon="5.26202">
        <ele>993.5634765625</ele>
        <time>2009-05-22T13:46:22Z</time>
      </trkpt>
      <trkpt lat="44.14105" lon="5.26182">
        <ele>991.67559814453</ele>
        <time>2009-05-22T13:46:25Z</time>
      </trkpt>
      <trkpt lat="44.141" lon="5.26162">
        <ele>989.68469238281</ele>
        <time>2009-05-22T13:46:28Z</time>
      </trkpt>
      <trkpt lat="44.14099" lon="5.26155">
        <ele>988.86584472656</ele>
        <time>2009-05-22T13:46:29Z</time>
      </trkpt>
      <trkpt lat="44.14098" lon="5.26126">
        <ele>986.08532714844</ele>
        <time>2009-05-22T13:46:33Z</time>
      </trkpt>
      <trkpt lat="44.14098" lon="5.26114">
        <ele>985.24078369141</ele>
        <time>2009-05-22T13:46:35Z</time>
      </trkpt>
      <trkpt lat="44.14087" lon="5.26105">
        <ele>983.65899658203</ele>
        <time>2009-05-22T13:46:39Z</time>
      </trkpt>
      <trkpt lat="44.14076" lon="5.26119">
        <ele>983.79382324219</ele>
        <time>2009-05-22T13:46:42Z</time>
      </trkpt>
      <trkpt lat="44.14064" lon="5.26141">
        <ele>984.06811523438</ele>
        <time>2009-05-22T13:46:46Z</time>
      </trkpt>
      <trkpt lat="44.14051" lon="5.26151">
        <ele>983.99145507812</ele>
        <time>2009-05-22T13:46:51Z</time>
      </trkpt>
      <trkpt lat="44.1405" lon="5.26152">
        <ele>983.98120117188</ele>
        <time>2009-05-22T13:46:53Z</time>
      </trkpt>
      <trkpt lat="44.1405" lon="5.26153">
        <ele>984.13568115234</ele>
        <time>2009-05-22T13:47:14Z</time>
      </trkpt>
      <trkpt lat="44.14049" lon="5.26153">
        <ele>984.04125976562</ele>
        <time>2009-05-22T13:47:15Z</time>
      </trkpt>
      <trkpt lat="44.14049" lon="5.26153">
        <ele>984.00347900391</ele>
        <time>2009-05-22T13:47:17Z</time>
      </trkpt>
      <trkpt lat="44.14043" lon="5.26141">
        <ele>982.32977294922</ele>
        <time>2009-05-22T13:47:24Z</time>
      </trkpt>
      <trkpt lat="44.14034" lon="5.26121">
        <ele>979.72369384766</ele>
        <time>2009-05-22T13:47:27Z</time>
      </trkpt>
      <trkpt lat="44.14017" lon="5.26091">
        <ele>975.46130371094</ele>
        <time>2009-05-22T13:47:31Z</time>
      </trkpt>
      <trkpt lat="44.13991" lon="5.26038">
        <ele>969.12243652344</ele>
        <time>2009-05-22T13:47:37Z</time>
      </trkpt>
      <trkpt lat="44.13988" lon="5.26031">
        <ele>968.38427734375</ele>
        <time>2009-05-22T13:47:38Z</time>
      </trkpt>
      <trkpt lat="44.13956" lon="5.25992">
        <ele>962.25848388672</ele>
        <time>2009-05-22T13:47:45Z</time>
      </trkpt>
      <trkpt lat="44.13952" lon="5.25988">
        <ele>961.66796875</ele>
        <time>2009-05-22T13:47:46Z</time>
      </trkpt>
      <trkpt lat="44.13926" lon="5.25976">
        <ele>957.86047363281</ele>
        <time>2009-05-22T13:47:51Z</time>
      </trkpt>
      <trkpt lat="44.13916" lon="5.25969">
        <ele>955.33184814453</ele>
        <time>2009-05-22T13:47:53Z</time>
      </trkpt>
      <trkpt lat="44.13897" lon="5.25955">
        <ele>950.50347900391</ele>
        <time>2009-05-22T13:47:57Z</time>
      </trkpt>
      <trkpt lat="44.13879" lon="5.25943">
        <ele>946.78051757812</ele>
        <time>2009-05-22T13:48:00Z</time>
      </trkpt>
      <trkpt lat="44.13862" lon="5.25921">
        <ele>942.55590820312</ele>
        <time>2009-05-22T13:48:04Z</time>
      </trkpt>
      <trkpt lat="44.13844" lon="5.25884">
        <ele>937.95227050781</ele>
        <time>2009-05-22T13:48:09Z</time>
      </trkpt>
      <trkpt lat="44.13836" lon="5.25871">
        <ele>934.92932128906</ele>
        <time>2009-05-22T13:48:11Z</time>
      </trkpt>
      <trkpt lat="44.13826" lon="5.25859">
        <ele>932.04296875</ele>
        <time>2009-05-22T13:48:13Z</time>
      </trkpt>
      <trkpt lat="44.13805" lon="5.2584">
        <ele>927.6767578125</ele>
        <time>2009-05-22T13:48:17Z</time>
      </trkpt>
      <trkpt lat="44.13795" lon="5.25831">
        <ele>925.81750488281</ele>
        <time>2009-05-22T13:48:19Z</time>
      </trkpt>
      <trkpt lat="44.13775" lon="5.25815">
        <ele>921.47613525391</ele>
        <time>2009-05-22T13:48:23Z</time>
      </trkpt>
      <trkpt lat="44.13753" lon="5.25807">
        <ele>917.66400146484</ele>
        <time>2009-05-22T13:48:27Z</time>
      </trkpt>
      <trkpt lat="44.13734" lon="5.25801">
        <ele>913.27435302734</ele>
        <time>2009-05-22T13:48:30Z</time>
      </trkpt>
      <trkpt lat="44.13728" lon="5.258">
        <ele>911.9697265625</ele>
        <time>2009-05-22T13:48:31Z</time>
      </trkpt>
      <trkpt lat="44.13722" lon="5.258">
        <ele>910.79901123047</ele>
        <time>2009-05-22T13:48:32Z</time>
      </trkpt>
      <trkpt lat="44.13711" lon="5.258">
        <ele>909.48016357422</ele>
        <time>2009-05-22T13:48:34Z</time>
      </trkpt>
      <trkpt lat="44.13688" lon="5.25794">
        <ele>905.46215820312</ele>
        <time>2009-05-22T13:48:38Z</time>
      </trkpt>
      <trkpt lat="44.13662" lon="5.25781">
        <ele>897.80065917969</ele>
        <time>2009-05-22T13:48:43Z</time>
      </trkpt>
      <trkpt lat="44.13652" lon="5.25777">
        <ele>895.30590820312</ele>
        <time>2009-05-22T13:48:45Z</time>
      </trkpt>
      <trkpt lat="44.13624" lon="5.25767">
        <ele>890.69799804688</ele>
        <time>2009-05-22T13:48:50Z</time>
      </trkpt>
      <trkpt lat="44.1362" lon="5.25765">
        <ele>890.21051025391</ele>
        <time>2009-05-22T13:48:51Z</time>
      </trkpt>
      <trkpt lat="44.13614" lon="5.25763">
        <ele>889.61999511719</ele>
        <time>2009-05-22T13:48:52Z</time>
      </trkpt>
      <trkpt lat="44.13595" lon="5.25758">
        <ele>885.91882324219</ele>
        <time>2009-05-22T13:48:55Z</time>
      </trkpt>
      <trkpt lat="44.13588" lon="5.25756">
        <ele>884.51293945312</ele>
        <time>2009-05-22T13:48:56Z</time>
      </trkpt>
      <trkpt lat="44.13581" lon="5.25755">
        <ele>883.37554931641</ele>
        <time>2009-05-22T13:48:57Z</time>
      </trkpt>
      <trkpt lat="44.13546" lon="5.25745">
        <ele>879.20721435547</ele>
        <time>2009-05-22T13:49:02Z</time>
      </trkpt>
      <trkpt lat="44.13526" lon="5.2574">
        <ele>876.31640625</ele>
        <time>2009-05-22T13:49:05Z</time>
      </trkpt>
      <trkpt lat="44.135" lon="5.25727">
        <ele>871.77087402344</ele>
        <time>2009-05-22T13:49:10Z</time>
      </trkpt>
      <trkpt lat="44.13498" lon="5.25727">
        <ele>871.60754394531</ele>
        <time>2009-05-22T13:49:11Z</time>
      </trkpt>
      <trkpt lat="44.13496" lon="5.25727">
        <ele>871.49609375</ele>
        <time>2009-05-22T13:49:14Z</time>
      </trkpt>
      <trkpt lat="44.1349" lon="5.25731">
        <ele>871.98986816406</ele>
        <time>2009-05-22T13:51:40Z</time>
      </trkpt>
      <trkpt lat="44.13473" lon="5.25719">
        <ele>869.49884033203</ele>
        <time>2009-05-22T13:51:44Z</time>
      </trkpt>
      <trkpt lat="44.13454" lon="5.257">
        <ele>864.75280761719</ele>
        <time>2009-05-22T13:51:48Z</time>
      </trkpt>
      <trkpt lat="44.13427" lon="5.2567">
        <ele>857.35980224609</ele>
        <time>2009-05-22T13:51:53Z</time>
      </trkpt>
      <trkpt lat="44.13421" lon="5.25664">
        <ele>855.931640625</ele>
        <time>2009-05-22T13:51:54Z</time>
      </trkpt>
      <trkpt lat="44.13377" lon="5.2562">
        <ele>849.51306152344</ele>
        <time>2009-05-22T13:52:01Z</time>
      </trkpt>
      <trkpt lat="44.13371" lon="5.25613">
        <ele>848.57922363281</ele>
        <time>2009-05-22T13:52:02Z</time>
      </trkpt>
      <trkpt lat="44.13354" lon="5.25595">
        <ele>845.013671875</ele>
        <time>2009-05-22T13:52:05Z</time>
      </trkpt>
      <trkpt lat="44.1332" lon="5.25565">
        <ele>841.06164550781</ele>
        <time>2009-05-22T13:52:11Z</time>
      </trkpt>
      <trkpt lat="44.13305" lon="5.25555">
        <ele>839.84460449219</ele>
        <time>2009-05-22T13:52:14Z</time>
      </trkpt>
      <trkpt lat="44.133" lon="5.25552">
        <ele>838.98858642578</ele>
        <time>2009-05-22T13:52:15Z</time>
      </trkpt>
      <trkpt lat="44.13287" lon="5.25542">
        <ele>836.52941894531</ele>
        <time>2009-05-22T13:52:18Z</time>
      </trkpt>
      <trkpt lat="44.13259" lon="5.25524">
        <ele>834.126953125</ele>
        <time>2009-05-22T13:52:25Z</time>
      </trkpt>
      <trkpt lat="44.13253" lon="5.25519">
        <ele>833.63946533203</ele>
        <time>2009-05-22T13:52:27Z</time>
      </trkpt>
      <trkpt lat="44.1325" lon="5.25517">
        <ele>833.43701171875</ele>
        <time>2009-05-22T13:52:28Z</time>
      </trkpt>
      <trkpt lat="44.13246" lon="5.25512">
        <ele>832.60668945312</ele>
        <time>2009-05-22T13:52:30Z</time>
      </trkpt>
      <trkpt lat="44.13253" lon="5.25495">
        <ele>830.34149169922</ele>
        <time>2009-05-22T13:52:35Z</time>
      </trkpt>
      <trkpt lat="44.1326" lon="5.2548">
        <ele>828.720703125</ele>
        <time>2009-05-22T13:52:38Z</time>
      </trkpt>
      <trkpt lat="44.13259" lon="5.25468">
        <ele>827.50738525391</ele>
        <time>2009-05-22T13:52:40Z</time>
      </trkpt>
      <trkpt lat="44.13248" lon="5.2546">
        <ele>826.72967529297</ele>
        <time>2009-05-22T13:52:43Z</time>
      </trkpt>
      <trkpt lat="44.13236" lon="5.25464">
        <ele>827.57250976562</ele>
        <time>2009-05-22T13:52:46Z</time>
      </trkpt>
      <trkpt lat="44.13221" lon="5.25472">
        <ele>829.00610351562</ele>
        <time>2009-05-22T13:52:52Z</time>
      </trkpt>
      <trkpt lat="44.13213" lon="5.25478">
        <ele>829.43872070312</ele>
        <time>2009-05-22T13:52:55Z</time>
      </trkpt>
      <trkpt lat="44.13194" lon="5.25489">
        <ele>830.22912597656</ele>
        <time>2009-05-22T13:53:01Z</time>
      </trkpt>
      <trkpt lat="44.13191" lon="5.25491">
        <ele>830.20166015625</ele>
        <time>2009-05-22T13:53:02Z</time>
      </trkpt>
      <trkpt lat="44.13182" lon="5.25482">
        <ele>829.29528808594</ele>
        <time>2009-05-22T13:53:06Z</time>
      </trkpt>
      <trkpt lat="44.1318" lon="5.25481">
        <ele>829.10986328125</ele>
        <time>2009-05-22T13:53:07Z</time>
      </trkpt>
      <trkpt lat="44.13173" lon="5.25477">
        <ele>828.5537109375</ele>
        <time>2009-05-22T13:53:10Z</time>
      </trkpt>
      <trkpt lat="44.1317" lon="5.25476">
        <ele>828.36486816406</ele>
        <time>2009-05-22T13:53:11Z</time>
      </trkpt>
      <trkpt lat="44.1316" lon="5.25471">
        <ele>826.77996826172</ele>
        <time>2009-05-22T13:53:14Z</time>
      </trkpt>
      <trkpt lat="44.13136" lon="5.25469">
        <ele>822.30041503906</ele>
        <time>2009-05-22T13:53:21Z</time>
      </trkpt>
      <trkpt lat="44.13129" lon="5.25468">
        <ele>821.13824462891</ele>
        <time>2009-05-22T13:53:23Z</time>
      </trkpt>
      <trkpt lat="44.13107" lon="5.25462">
        <ele>817.4130859375</ele>
        <time>2009-05-22T13:53:29Z</time>
      </trkpt>
      <trkpt lat="44.13103" lon="5.2546">
        <ele>816.8671875</ele>
        <time>2009-05-22T13:53:30Z</time>
      </trkpt>
      <trkpt lat="44.13091" lon="5.25456">
        <ele>815.04418945312</ele>
        <time>2009-05-22T13:53:33Z</time>
      </trkpt>
      <trkpt lat="44.13084" lon="5.25451">
        <ele>813.78759765625</ele>
        <time>2009-05-22T13:53:35Z</time>
      </trkpt>
      <trkpt lat="44.1308" lon="5.2545">
        <ele>813.11920166016</ele>
        <time>2009-05-22T13:53:36Z</time>
      </trkpt>
      <trkpt lat="44.13072" lon="5.25446">
        <ele>811.4677734375</ele>
        <time>2009-05-22T13:53:38Z</time>
      </trkpt>
      <trkpt lat="44.13068" lon="5.25444">
        <ele>810.69134521484</ele>
        <time>2009-05-22T13:53:39Z</time>
      </trkpt>
      <trkpt lat="44.13064" lon="5.25442">
        <ele>810.03558349609</ele>
        <time>2009-05-22T13:53:40Z</time>
      </trkpt>
      <trkpt lat="44.13055" lon="5.25438">
        <ele>808.56323242188</ele>
        <time>2009-05-22T13:53:42Z</time>
      </trkpt>
      <trkpt lat="44.13041" lon="5.25429">
        <ele>807.09808349609</ele>
        <time>2009-05-22T13:53:46Z</time>
      </trkpt>
      <trkpt lat="44.1303" lon="5.25422">
        <ele>806.27404785156</ele>
        <time>2009-05-22T13:53:49Z</time>
      </trkpt>
      <trkpt lat="44.1301" lon="5.25415">
        <ele>804.60461425781</ele>
        <time>2009-05-22T13:53:54Z</time>
      </trkpt>
      <trkpt lat="44.12992" lon="5.25409">
        <ele>802.88458251953</ele>
        <time>2009-05-22T13:53:58Z</time>
      </trkpt>
      <trkpt lat="44.12973" lon="5.254">
        <ele>800.841796875</ele>
        <time>2009-05-22T13:54:03Z</time>
      </trkpt>
      <trkpt lat="44.12957" lon="5.25398">
        <ele>798.61248779297</ele>
        <time>2009-05-22T13:54:07Z</time>
      </trkpt>
      <trkpt lat="44.1295" lon="5.25398">
        <ele>797.73553466797</ele>
        <time>2009-05-22T13:54:09Z</time>
      </trkpt>
      <trkpt lat="44.12946" lon="5.25399">
        <ele>797.32922363281</ele>
        <time>2009-05-22T13:54:10Z</time>
      </trkpt>
      <trkpt lat="44.12937" lon="5.25398">
        <ele>796.34252929688</ele>
        <time>2009-05-22T13:54:13Z</time>
      </trkpt>
      <trkpt lat="44.12924" lon="5.25394">
        <ele>794.99188232422</ele>
        <time>2009-05-22T13:54:17Z</time>
      </trkpt>
      <trkpt lat="44.12911" lon="5.25392">
        <ele>794.00805664062</ele>
        <time>2009-05-22T13:54:20Z</time>
      </trkpt>
      <trkpt lat="44.12897" lon="5.25385">
        <ele>793.00897216797</ele>
        <time>2009-05-22T13:54:23Z</time>
      </trkpt>
      <trkpt lat="44.12891" lon="5.25382">
        <ele>792.60040283203</ele>
        <time>2009-05-22T13:54:24Z</time>
      </trkpt>
      <trkpt lat="44.12876" lon="5.25368">
        <ele>789.80834960938</ele>
        <time>2009-05-22T13:54:27Z</time>
      </trkpt>
      <trkpt lat="44.12855" lon="5.25343">
        <ele>785.74603271484</ele>
        <time>2009-05-22T13:54:31Z</time>
      </trkpt>
      <trkpt lat="44.12847" lon="5.25325">
        <ele>783.53039550781</ele>
        <time>2009-05-22T13:54:34Z</time>
      </trkpt>
      <trkpt lat="44.12842" lon="5.253">
        <ele>780.63421630859</ele>
        <time>2009-05-22T13:54:37Z</time>
      </trkpt>
      <trkpt lat="44.12838" lon="5.25292">
        <ele>779.95306396484</ele>
        <time>2009-05-22T13:54:38Z</time>
      </trkpt>
      <trkpt lat="44.12829" lon="5.25281">
        <ele>778.95263671875</ele>
        <time>2009-05-22T13:54:40Z</time>
      </trkpt>
      <trkpt lat="44.12818" lon="5.25271">
        <ele>778.09252929688</ele>
        <time>2009-05-22T13:54:42Z</time>
      </trkpt>
      <trkpt lat="44.12801" lon="5.25263">
        <ele>777.46887207031</ele>
        <time>2009-05-22T13:54:46Z</time>
      </trkpt>
      <trkpt lat="44.12799" lon="5.25261">
        <ele>777.41046142578</ele>
        <time>2009-05-22T13:54:47Z</time>
      </trkpt>
      <trkpt lat="44.12794" lon="5.25254">
        <ele>777.12896728516</ele>
        <time>2009-05-22T13:54:50Z</time>
      </trkpt>
      <trkpt lat="44.12793" lon="5.2525">
        <ele>777.00018310547</ele>
        <time>2009-05-22T13:54:51Z</time>
      </trkpt>
      <trkpt lat="44.12789" lon="5.25235">
        <ele>775.94982910156</ele>
        <time>2009-05-22T13:54:54Z</time>
      </trkpt>
      <trkpt lat="44.12785" lon="5.25208">
        <ele>774.48443603516</ele>
        <time>2009-05-22T13:54:59Z</time>
      </trkpt>
      <trkpt lat="44.12784" lon="5.25197">
        <ele>774.0810546875</ele>
        <time>2009-05-22T13:55:01Z</time>
      </trkpt>
      <trkpt lat="44.12775" lon="5.25173">
        <ele>772.26550292969</ele>
        <time>2009-05-22T13:55:05Z</time>
      </trkpt>
      <trkpt lat="44.12767" lon="5.25159">
        <ele>770.96301269531</ele>
        <time>2009-05-22T13:55:09Z</time>
      </trkpt>
      <trkpt lat="44.12762" lon="5.25149">
        <ele>770.24719238281</ele>
        <time>2009-05-22T13:55:11Z</time>
      </trkpt>
      <trkpt lat="44.12752" lon="5.25134">
        <ele>768.76110839844</ele>
        <time>2009-05-22T13:55:14Z</time>
      </trkpt>
      <trkpt lat="44.12748" lon="5.25128">
        <ele>767.87719726562</ele>
        <time>2009-05-22T13:55:15Z</time>
      </trkpt>
      <trkpt lat="44.12724" lon="5.25097">
        <ele>761.31329345703</ele>
        <time>2009-05-22T13:55:20Z</time>
      </trkpt>
      <trkpt lat="44.12702" lon="5.25053">
        <ele>757.07977294922</ele>
        <time>2009-05-22T13:55:26Z</time>
      </trkpt>
      <trkpt lat="44.12691" lon="5.25033">
        <ele>755.26000976562</ele>
        <time>2009-05-22T13:55:29Z</time>
      </trkpt>
      <trkpt lat="44.12687" lon="5.25027">
        <ele>754.6943359375</ele>
        <time>2009-05-22T13:55:30Z</time>
      </trkpt>
      <trkpt lat="44.12669" lon="5.25005">
        <ele>752.49304199219</ele>
        <time>2009-05-22T13:55:34Z</time>
      </trkpt>
      <trkpt lat="44.12641" lon="5.24969">
        <ele>746.83435058594</ele>
        <time>2009-05-22T13:55:40Z</time>
      </trkpt>
      <trkpt lat="44.12627" lon="5.2495">
        <ele>744.29626464844</ele>
        <time>2009-05-22T13:55:43Z</time>
      </trkpt>
      <trkpt lat="44.12601" lon="5.24913">
        <ele>740.70001220703</ele>
        <time>2009-05-22T13:55:49Z</time>
      </trkpt>
      <trkpt lat="44.12587" lon="5.24894">
        <ele>739.34735107422</ele>
        <time>2009-05-22T13:55:52Z</time>
      </trkpt>
      <trkpt lat="44.12566" lon="5.24864">
        <ele>737.20843505859</ele>
        <time>2009-05-22T13:55:57Z</time>
      </trkpt>
      <trkpt lat="44.12559" lon="5.2484">
        <ele>734.82977294922</ele>
        <time>2009-05-22T13:56:02Z</time>
      </trkpt>
      <trkpt lat="44.12559" lon="5.24839">
        <ele>734.75500488281</ele>
        <time>2009-05-22T13:56:04Z</time>
      </trkpt>
      <trkpt lat="44.12558" lon="5.24829">
        <ele>733.67456054688</ele>
        <time>2009-05-22T13:56:30Z</time>
      </trkpt>
      <trkpt lat="44.12556" lon="5.24825">
        <ele>733.16168212891</ele>
        <time>2009-05-22T13:56:31Z</time>
      </trkpt>
      <trkpt lat="44.12555" lon="5.2482">
        <ele>732.50433349609</ele>
        <time>2009-05-22T13:56:32Z</time>
      </trkpt>
      <trkpt lat="44.12532" lon="5.24789">
        <ele>729.5712890625</ele>
        <time>2009-05-22T13:56:37Z</time>
      </trkpt>
      <trkpt lat="44.12506" lon="5.24746">
        <ele>725.31909179688</ele>
        <time>2009-05-22T13:56:42Z</time>
      </trkpt>
      <trkpt lat="44.12498" lon="5.24728">
        <ele>724.07568359375</ele>
        <time>2009-05-22T13:56:44Z</time>
      </trkpt>
      <trkpt lat="44.12471" lon="5.24698">
        <ele>721.05578613281</ele>
        <time>2009-05-22T13:56:49Z</time>
      </trkpt>
      <trkpt lat="44.12439" lon="5.24667">
        <ele>715.43737792969</ele>
        <time>2009-05-22T13:56:54Z</time>
      </trkpt>
      <trkpt lat="44.12433" lon="5.24661">
        <ele>714.31127929688</ele>
        <time>2009-05-22T13:56:55Z</time>
      </trkpt>
      <trkpt lat="44.12395" lon="5.24614">
        <ele>701.91149902344</ele>
        <time>2009-05-22T13:57:02Z</time>
      </trkpt>
      <trkpt lat="44.12369" lon="5.24573">
        <ele>696.20367431641</ele>
        <time>2009-05-22T13:57:07Z</time>
      </trkpt>
      <trkpt lat="44.12349" lon="5.24539">
        <ele>690.59783935547</ele>
        <time>2009-05-22T13:57:12Z</time>
      </trkpt>
      <trkpt lat="44.12331" lon="5.24503">
        <ele>684.95758056641</ele>
        <time>2009-05-22T13:57:17Z</time>
      </trkpt>
      <trkpt lat="44.12313" lon="5.24469">
        <ele>678.80987548828</ele>
        <time>2009-05-22T13:57:22Z</time>
      </trkpt>
      <trkpt lat="44.12305" lon="5.24458">
        <ele>676.95056152344</ele>
        <time>2009-05-22T13:57:24Z</time>
      </trkpt>
      <trkpt lat="44.12295" lon="5.24438">
        <ele>673.45172119141</ele>
        <time>2009-05-22T13:57:27Z</time>
      </trkpt>
      <trkpt lat="44.12291" lon="5.24431">
        <ele>671.94622802734</ele>
        <time>2009-05-22T13:57:28Z</time>
      </trkpt>
      <trkpt lat="44.12275" lon="5.24403">
        <ele>665.65905761719</ele>
        <time>2009-05-22T13:57:32Z</time>
      </trkpt>
      <trkpt lat="44.12258" lon="5.24363">
        <ele>659.22644042969</ele>
        <time>2009-05-22T13:57:37Z</time>
      </trkpt>
      <trkpt lat="44.12233" lon="5.24324">
        <ele>652.45367431641</ele>
        <time>2009-05-22T13:57:42Z</time>
      </trkpt>
      <trkpt lat="44.12208" lon="5.24301">
        <ele>648.03802490234</ele>
        <time>2009-05-22T13:57:46Z</time>
      </trkpt>
      <trkpt lat="44.12185" lon="5.24281">
        <ele>642.57543945312</ele>
        <time>2009-05-22T13:57:50Z</time>
      </trkpt>
      <trkpt lat="44.12168" lon="5.24263">
        <ele>637.61779785156</ele>
        <time>2009-05-22T13:57:53Z</time>
      </trkpt>
      <trkpt lat="44.12162" lon="5.24257">
        <ele>636.29943847656</ele>
        <time>2009-05-22T13:57:54Z</time>
      </trkpt>
      <trkpt lat="44.12146" lon="5.24229">
        <ele>632.99792480469</ele>
        <time>2009-05-22T13:57:58Z</time>
      </trkpt>
      <trkpt lat="44.12143" lon="5.24219">
        <ele>632.166015625</ele>
        <time>2009-05-22T13:57:59Z</time>
      </trkpt>
      <trkpt lat="44.1213" lon="5.24161">
        <ele>626.03961181641</ele>
        <time>2009-05-22T13:58:05Z</time>
      </trkpt>
      <trkpt lat="44.12121" lon="5.24126">
        <ele>621.48406982422</ele>
        <time>2009-05-22T13:58:09Z</time>
      </trkpt>
      <trkpt lat="44.12116" lon="5.24076">
        <ele>616.99151611328</ele>
        <time>2009-05-22T13:58:14Z</time>
      </trkpt>
      <trkpt lat="44.12114" lon="5.24067">
        <ele>615.68859863281</ele>
        <time>2009-05-22T13:58:15Z</time>
      </trkpt>
      <trkpt lat="44.12106" lon="5.2404">
        <ele>612.10009765625</ele>
        <time>2009-05-22T13:58:18Z</time>
      </trkpt>
      <trkpt lat="44.12089" lon="5.24002">
        <ele>606.04388427734</ele>
        <time>2009-05-22T13:58:23Z</time>
      </trkpt>
      <trkpt lat="44.12083" lon="5.2399">
        <ele>603.91479492188</ele>
        <time>2009-05-22T13:58:25Z</time>
      </trkpt>
      <trkpt lat="44.12072" lon="5.23962">
        <ele>600.60424804688</ele>
        <time>2009-05-22T13:58:29Z</time>
      </trkpt>
      <trkpt lat="44.12059" lon="5.23934">
        <ele>597.99145507812</ele>
        <time>2009-05-22T13:58:33Z</time>
      </trkpt>
      <trkpt lat="44.12053" lon="5.2391">
        <ele>595.24182128906</ele>
        <time>2009-05-22T13:58:36Z</time>
      </trkpt>
      <trkpt lat="44.12049" lon="5.23895">
        <ele>593.75524902344</ele>
        <time>2009-05-22T13:58:38Z</time>
      </trkpt>
      <trkpt lat="44.12048" lon="5.23877">
        <ele>591.77661132812</ele>
        <time>2009-05-22T13:58:40Z</time>
      </trkpt>
      <trkpt lat="44.1205" lon="5.2386">
        <ele>590.01708984375</ele>
        <time>2009-05-22T13:58:42Z</time>
      </trkpt>
      <trkpt lat="44.12051" lon="5.23825">
        <ele>586.70953369141</ele>
        <time>2009-05-22T13:58:46Z</time>
      </trkpt>
      <trkpt lat="44.12052" lon="5.23802">
        <ele>585.02093505859</ele>
        <time>2009-05-22T13:58:50Z</time>
      </trkpt>
      <trkpt lat="44.12053" lon="5.23796">
        <ele>584.52203369141</ele>
        <time>2009-05-22T13:58:54Z</time>
      </trkpt>
      <trkpt lat="44.12054" lon="5.23789">
        <ele>583.95184326172</ele>
        <time>2009-05-22T13:59:29Z</time>
      </trkpt>
      <trkpt lat="44.12054" lon="5.23783">
        <ele>583.25982666016</ele>
        <time>2009-05-22T13:59:30Z</time>
      </trkpt>
      <trkpt lat="44.12053" lon="5.23766">
        <ele>581.76593017578</ele>
        <time>2009-05-22T13:59:32Z</time>
      </trkpt>
      <trkpt lat="44.12048" lon="5.2372">
        <ele>575.28033447266</ele>
        <time>2009-05-22T13:59:37Z</time>
      </trkpt>
      <trkpt lat="44.12048" lon="5.23702">
        <ele>572.88665771484</ele>
        <time>2009-05-22T13:59:39Z</time>
      </trkpt>
      <trkpt lat="44.12051" lon="5.23654">
        <ele>567.72399902344</ele>
        <time>2009-05-22T13:59:44Z</time>
      </trkpt>
      <trkpt lat="44.12053" lon="5.23637">
        <ele>565.51794433594</ele>
        <time>2009-05-22T13:59:46Z</time>
      </trkpt>
      <trkpt lat="44.12046" lon="5.23594">
        <ele>560.48175048828</ele>
        <time>2009-05-22T13:59:51Z</time>
      </trkpt>
      <trkpt lat="44.12044" lon="5.23585">
        <ele>558.97802734375</ele>
        <time>2009-05-22T13:59:52Z</time>
      </trkpt>
      <trkpt lat="44.12041" lon="5.2356">
        <ele>554.65863037109</ele>
        <time>2009-05-22T13:59:55Z</time>
      </trkpt>
      <trkpt lat="44.12041" lon="5.23518">
        <ele>549.52172851562</ele>
        <time>2009-05-22T14:00:00Z</time>
      </trkpt>
      <trkpt lat="44.12038" lon="5.2349">
        <ele>545.86749267578</ele>
        <time>2009-05-22T14:00:05Z</time>
      </trkpt>
      <trkpt lat="44.12038" lon="5.23476">
        <ele>544.72668457031</ele>
        <time>2009-05-22T14:00:09Z</time>
      </trkpt>
      <trkpt lat="44.12038" lon="5.23475">
        <ele>544.65655517578</ele>
        <time>2009-05-22T14:00:11Z</time>
      </trkpt>
      <trkpt lat="44.12055" lon="5.23461">
        <ele>543.33142089844</ele>
        <time>2009-05-22T14:00:27Z</time>
      </trkpt>
      <trkpt lat="44.1208" lon="5.23441">
        <ele>541.42938232422</ele>
        <time>2009-05-22T14:00:33Z</time>
      </trkpt>
      <trkpt lat="44.12103" lon="5.23417">
        <ele>539.49670410156</ele>
        <time>2009-05-22T14:00:39Z</time>
      </trkpt>
      <trkpt lat="44.12111" lon="5.23409">
        <ele>539.17657470703</ele>
        <time>2009-05-22T14:00:41Z</time>
      </trkpt>
      <trkpt lat="44.12128" lon="5.23382">
        <ele>536.78643798828</ele>
        <time>2009-05-22T14:00:46Z</time>
      </trkpt>
      <trkpt lat="44.12158" lon="5.23349">
        <ele>535.34429931641</ele>
        <time>2009-05-22T14:00:52Z</time>
      </trkpt>
      <trkpt lat="44.12172" lon="5.23333">
        <ele>535.31909179688</ele>
        <time>2009-05-22T14:00:55Z</time>
      </trkpt>
      <trkpt lat="44.12177" lon="5.23327">
        <ele>534.92877197266</ele>
        <time>2009-05-22T14:00:56Z</time>
      </trkpt>
      <trkpt lat="44.12201" lon="5.23304">
        <ele>534.28350830078</ele>
        <time>2009-05-22T14:01:00Z</time>
      </trkpt>
      <trkpt lat="44.1222" lon="5.23288">
        <ele>533.96594238281</ele>
        <time>2009-05-22T14:01:04Z</time>
      </trkpt>
      <trkpt lat="44.12243" lon="5.23257">
        <ele>533.04132080078</ele>
        <time>2009-05-22T14:01:12Z</time>
      </trkpt>
      <trkpt lat="44.12253" lon="5.23243">
        <ele>532.56994628906</ele>
        <time>2009-05-22T14:01:16Z</time>
      </trkpt>
      <trkpt lat="44.12263" lon="5.2322">
        <ele>530.75408935547</ele>
        <time>2009-05-22T14:01:22Z</time>
      </trkpt>
      <trkpt lat="44.12283" lon="5.23185">
        <ele>529.05529785156</ele>
        <time>2009-05-22T14:01:28Z</time>
      </trkpt>
      <trkpt lat="44.12306" lon="5.23154">
        <ele>526.17364501953</ele>
        <time>2009-05-22T14:01:33Z</time>
      </trkpt>
      <trkpt lat="44.12322" lon="5.23129">
        <ele>523.52758789062</ele>
        <time>2009-05-22T14:01:36Z</time>
      </trkpt>
      <trkpt lat="44.12348" lon="5.23093">
        <ele>522.00262451172</ele>
        <time>2009-05-22T14:01:41Z</time>
      </trkpt>
      <trkpt lat="44.12369" lon="5.23063">
        <ele>521.73999023438</ele>
        <time>2009-05-22T14:01:47Z</time>
      </trkpt>
      <trkpt lat="44.12396" lon="5.23024">
        <ele>522.43225097656</ele>
        <time>2009-05-22T14:01:54Z</time>
      </trkpt>
      <trkpt lat="44.12409" lon="5.23003">
        <ele>524.06298828125</ele>
        <time>2009-05-22T14:01:58Z</time>
      </trkpt>
      <trkpt lat="44.12428" lon="5.22971">
        <ele>525.40881347656</ele>
        <time>2009-05-22T14:02:05Z</time>
      </trkpt>
      <trkpt lat="44.1244" lon="5.2295">
        <ele>525.60961914062</ele>
        <time>2009-05-22T14:02:10Z</time>
      </trkpt>
      <trkpt lat="44.1245" lon="5.22936">
        <ele>526.09490966797</ele>
        <time>2009-05-22T14:02:14Z</time>
      </trkpt>
      <trkpt lat="44.12468" lon="5.22909">
        <ele>526.08380126953</ele>
        <time>2009-05-22T14:02:21Z</time>
      </trkpt>
      <trkpt lat="44.12481" lon="5.22888">
        <ele>524.955078125</ele>
        <time>2009-05-22T14:02:27Z</time>
      </trkpt>
      <trkpt lat="44.12495" lon="5.22871">
        <ele>523.60589599609</ele>
        <time>2009-05-22T14:02:34Z</time>
      </trkpt>
      <trkpt lat="44.12512" lon="5.22862">
        <ele>523.5244140625</ele>
        <time>2009-05-22T14:02:40Z</time>
      </trkpt>
      <trkpt lat="44.12536" lon="5.22853">
        <ele>523.14520263672</ele>
        <time>2009-05-22T14:02:47Z</time>
      </trkpt>
      <trkpt lat="44.12556" lon="5.22849">
        <ele>522.0927734375</ele>
        <time>2009-05-22T14:02:54Z</time>
      </trkpt>
      <trkpt lat="44.12565" lon="5.2286">
        <ele>522.92016601562</ele>
        <time>2009-05-22T14:02:58Z</time>
      </trkpt>
      <trkpt lat="44.12573" lon="5.22888">
        <ele>525.923828125</ele>
        <time>2009-05-22T14:03:05Z</time>
      </trkpt>
      <trkpt lat="44.12579" lon="5.22902">
        <ele>527.41729736328</ele>
        <time>2009-05-22T14:03:08Z</time>
      </trkpt>
      <trkpt lat="44.12588" lon="5.22915">
        <ele>529.12487792969</ele>
        <time>2009-05-22T14:03:11Z</time>
      </trkpt>
      <trkpt lat="44.12613" lon="5.22933">
        <ele>532.38500976562</ele>
        <time>2009-05-22T14:03:18Z</time>
      </trkpt>
      <trkpt lat="44.12632" lon="5.22925">
        <ele>533.80639648438</ele>
        <time>2009-05-22T14:03:23Z</time>
      </trkpt>
      <trkpt lat="44.12655" lon="5.22911">
        <ele>535.11212158203</ele>
        <time>2009-05-22T14:03:30Z</time>
      </trkpt>
      <trkpt lat="44.12667" lon="5.22894">
        <ele>534.59118652344</ele>
        <time>2009-05-22T14:03:36Z</time>
      </trkpt>
      <trkpt lat="44.12675" lon="5.2287">
        <ele>532.48980712891</ele>
        <time>2009-05-22T14:03:41Z</time>
      </trkpt>
      <trkpt lat="44.12681" lon="5.22846">
        <ele>531.22009277344</ele>
        <time>2009-05-22T14:03:45Z</time>
      </trkpt>
      <trkpt lat="44.12689" lon="5.22813">
        <ele>529.20098876953</ele>
        <time>2009-05-22T14:03:52Z</time>
      </trkpt>
      <trkpt lat="44.12695" lon="5.22801">
        <ele>528.66674804688</ele>
        <time>2009-05-22T14:03:55Z</time>
      </trkpt>
      <trkpt lat="44.12699" lon="5.22793">
        <ele>528.24450683594</ele>
        <time>2009-05-22T14:03:57Z</time>
      </trkpt>
      <trkpt lat="44.12709" lon="5.22775">
        <ele>527.25048828125</ele>
        <time>2009-05-22T14:04:01Z</time>
      </trkpt>
      <trkpt lat="44.12718" lon="5.22754">
        <ele>525.37213134766</ele>
        <time>2009-05-22T14:04:05Z</time>
      </trkpt>
      <trkpt lat="44.12726" lon="5.22725">
        <ele>523.35827636719</ele>
        <time>2009-05-22T14:04:10Z</time>
      </trkpt>
      <trkpt lat="44.12739" lon="5.22697">
        <ele>522.32366943359</ele>
        <time>2009-05-22T14:04:16Z</time>
      </trkpt>
      <trkpt lat="44.1275" lon="5.2268">
        <ele>521.46063232422</ele>
        <time>2009-05-22T14:04:20Z</time>
      </trkpt>
      <trkpt lat="44.12769" lon="5.22647">
        <ele>519.75384521484</ele>
        <time>2009-05-22T14:04:28Z</time>
      </trkpt>
      <trkpt lat="44.12783" lon="5.22612">
        <ele>516.92260742188</ele>
        <time>2009-05-22T14:04:34Z</time>
      </trkpt>
      <trkpt lat="44.12798" lon="5.22568">
        <ele>513.28887939453</ele>
        <time>2009-05-22T14:04:40Z</time>
      </trkpt>
      <trkpt lat="44.12818" lon="5.22516">
        <ele>509.53201293945</ele>
        <time>2009-05-22T14:04:47Z</time>
      </trkpt>
      <trkpt lat="44.12829" lon="5.22498">
        <ele>509.0266418457</ele>
        <time>2009-05-22T14:04:51Z</time>
      </trkpt>
      <trkpt lat="44.12831" lon="5.22495">
        <ele>508.69189453125</ele>
        <time>2009-05-22T14:04:52Z</time>
      </trkpt>
      <trkpt lat="44.12834" lon="5.22491">
        <ele>508.41812133789</ele>
        <time>2009-05-22T14:04:53Z</time>
      </trkpt>
      <trkpt lat="44.12848" lon="5.22487">
        <ele>508.12457275391</ele>
        <time>2009-05-22T14:04:57Z</time>
      </trkpt>
      <trkpt lat="44.12859" lon="5.22487">
        <ele>508.58978271484</ele>
        <time>2009-05-22T14:05:02Z</time>
      </trkpt>
      <trkpt lat="44.12868" lon="5.22475">
        <ele>506.80795288086</ele>
        <time>2009-05-22T14:05:07Z</time>
      </trkpt>
      <trkpt lat="44.1288" lon="5.2245">
        <ele>502.23971557617</ele>
        <time>2009-05-22T14:05:12Z</time>
      </trkpt>
      <trkpt lat="44.12889" lon="5.22432">
        <ele>499.65948486328</ele>
        <time>2009-05-22T14:05:15Z</time>
      </trkpt>
      <trkpt lat="44.12906" lon="5.224">
        <ele>494.982421875</ele>
        <time>2009-05-22T14:05:20Z</time>
      </trkpt>
      <trkpt lat="44.1291" lon="5.22393">
        <ele>493.6692199707</ele>
        <time>2009-05-22T14:05:21Z</time>
      </trkpt>
      <trkpt lat="44.12914" lon="5.22363">
        <ele>490.15197753906</ele>
        <time>2009-05-22T14:05:25Z</time>
      </trkpt>
      <trkpt lat="44.12914" lon="5.22348">
        <ele>487.61828613281</ele>
        <time>2009-05-22T14:05:27Z</time>
      </trkpt>
      <trkpt lat="44.12913" lon="5.22335">
        <ele>485.30087280273</ele>
        <time>2009-05-22T14:05:29Z</time>
      </trkpt>
      <trkpt lat="44.12914" lon="5.22309">
        <ele>480.56301879883</ele>
        <time>2009-05-22T14:05:33Z</time>
      </trkpt>
      <trkpt lat="44.12925" lon="5.2229">
        <ele>479.43511962891</ele>
        <time>2009-05-22T14:05:36Z</time>
      </trkpt>
      <trkpt lat="44.12939" lon="5.22275">
        <ele>479.43225097656</ele>
        <time>2009-05-22T14:05:39Z</time>
      </trkpt>
      <trkpt lat="44.12954" lon="5.22247">
        <ele>478.53442382812</ele>
        <time>2009-05-22T14:05:43Z</time>
      </trkpt>
      <trkpt lat="44.12967" lon="5.22221">
        <ele>478.52966308594</ele>
        <time>2009-05-22T14:05:46Z</time>
      </trkpt>
      <trkpt lat="44.1299" lon="5.22191">
        <ele>481.32333374023</ele>
        <time>2009-05-22T14:05:50Z</time>
      </trkpt>
      <trkpt lat="44.13001" lon="5.2217">
        <ele>482.33148193359</ele>
        <time>2009-05-22T14:05:54Z</time>
      </trkpt>
      <trkpt lat="44.13009" lon="5.22157">
        <ele>482.31207275391</ele>
        <time>2009-05-22T14:05:57Z</time>
      </trkpt>
      <trkpt lat="44.13018" lon="5.22145">
        <ele>482.51116943359</ele>
        <time>2009-05-22T14:06:00Z</time>
      </trkpt>
      <trkpt lat="44.13023" lon="5.22137">
        <ele>482.56243896484</ele>
        <time>2009-05-22T14:06:02Z</time>
      </trkpt>
      <trkpt lat="44.13031" lon="5.22126">
        <ele>482.35882568359</ele>
        <time>2009-05-22T14:06:05Z</time>
      </trkpt>
      <trkpt lat="44.13034" lon="5.22122">
        <ele>482.36242675781</ele>
        <time>2009-05-22T14:06:06Z</time>
      </trkpt>
      <trkpt lat="44.13042" lon="5.22107">
        <ele>482.41876220703</ele>
        <time>2009-05-22T14:06:10Z</time>
      </trkpt>
      <trkpt lat="44.13051" lon="5.22092">
        <ele>482.81356811523</ele>
        <time>2009-05-22T14:06:14Z</time>
      </trkpt>
      <trkpt lat="44.13061" lon="5.22076">
        <ele>483.18621826172</ele>
        <time>2009-05-22T14:06:19Z</time>
      </trkpt>
      <trkpt lat="44.13079" lon="5.22044">
        <ele>483.2373046875</ele>
        <time>2009-05-22T14:06:27Z</time>
      </trkpt>
      <trkpt lat="44.13096" lon="5.22022">
        <ele>483.10455322266</ele>
        <time>2009-05-22T14:06:34Z</time>
      </trkpt>
      <trkpt lat="44.1311" lon="5.22008">
        <ele>483.42984008789</ele>
        <time>2009-05-22T14:06:39Z</time>
      </trkpt>
      <trkpt lat="44.13118" lon="5.21993">
        <ele>482.92654418945</ele>
        <time>2009-05-22T14:06:42Z</time>
      </trkpt>
      <trkpt lat="44.13125" lon="5.21984">
        <ele>482.54635620117</ele>
        <time>2009-05-22T14:06:44Z</time>
      </trkpt>
      <trkpt lat="44.13137" lon="5.21964">
        <ele>481.65603637695</ele>
        <time>2009-05-22T14:06:48Z</time>
      </trkpt>
      <trkpt lat="44.13147" lon="5.21949">
        <ele>481.51000976562</ele>
        <time>2009-05-22T14:06:53Z</time>
      </trkpt>
      <trkpt lat="44.13158" lon="5.21926">
        <ele>480.34564208984</ele>
        <time>2009-05-22T14:06:57Z</time>
      </trkpt>
      <trkpt lat="44.13171" lon="5.21889">
        <ele>478.2067565918</ele>
        <time>2009-05-22T14:07:02Z</time>
      </trkpt>
      <trkpt lat="44.13188" lon="5.21844">
        <ele>476.56317138672</ele>
        <time>2009-05-22T14:07:09Z</time>
      </trkpt>
      <trkpt lat="44.13207" lon="5.21818">
        <ele>475.15979003906</ele>
        <time>2009-05-22T14:07:13Z</time>
      </trkpt>
      <trkpt lat="44.13223" lon="5.21797">
        <ele>474.56192016602</ele>
        <time>2009-05-22T14:07:16Z</time>
      </trkpt>
      <trkpt lat="44.13231" lon="5.21771">
        <ele>474.869140625</ele>
        <time>2009-05-22T14:07:20Z</time>
      </trkpt>
      <trkpt lat="44.13231" lon="5.21766">
        <ele>474.61651611328</ele>
        <time>2009-05-22T14:07:21Z</time>
      </trkpt>
      <trkpt lat="44.13231" lon="5.2175">
        <ele>473.83023071289</ele>
        <time>2009-05-22T14:07:25Z</time>
      </trkpt>
      <trkpt lat="44.13231" lon="5.21741">
        <ele>473.38217163086</ele>
        <time>2009-05-22T14:07:28Z</time>
      </trkpt>
      <trkpt lat="44.13232" lon="5.21735">
        <ele>473.24768066406</ele>
        <time>2009-05-22T14:07:30Z</time>
      </trkpt>
      <trkpt lat="44.13233" lon="5.21731">
        <ele>473.30926513672</ele>
        <time>2009-05-22T14:07:32Z</time>
      </trkpt>
      <trkpt lat="44.13233" lon="5.21727">
        <ele>472.95672607422</ele>
        <time>2009-05-22T14:07:36Z</time>
      </trkpt>
      <trkpt lat="44.13236" lon="5.21715">
        <ele>472.90814208984</ele>
        <time>2009-05-22T14:08:19Z</time>
      </trkpt>
      <trkpt lat="44.13239" lon="5.21711">
        <ele>473.28182983398</ele>
        <time>2009-05-22T14:08:20Z</time>
      </trkpt>
      <trkpt lat="44.13251" lon="5.21678">
        <ele>472.46377563477</ele>
        <time>2009-05-22T14:08:25Z</time>
      </trkpt>
      <trkpt lat="44.13267" lon="5.2163">
        <ele>468.31002807617</ele>
        <time>2009-05-22T14:08:31Z</time>
      </trkpt>
      <trkpt lat="44.1327" lon="5.21621">
        <ele>467.15054321289</ele>
        <time>2009-05-22T14:08:32Z</time>
      </trkpt>
      <trkpt lat="44.13282" lon="5.21594">
        <ele>464.5578918457</ele>
        <time>2009-05-22T14:08:36Z</time>
      </trkpt>
      <trkpt lat="44.1328" lon="5.21578">
        <ele>462.56594848633</ele>
        <time>2009-05-22T14:08:38Z</time>
      </trkpt>
      <trkpt lat="44.13274" lon="5.21554">
        <ele>458.7438659668</ele>
        <time>2009-05-22T14:08:41Z</time>
      </trkpt>
      <trkpt lat="44.13272" lon="5.21539">
        <ele>457.46881103516</ele>
        <time>2009-05-22T14:08:43Z</time>
      </trkpt>
      <trkpt lat="44.13274" lon="5.21513">
        <ele>454.99465942383</ele>
        <time>2009-05-22T14:08:47Z</time>
      </trkpt>
      <trkpt lat="44.13273" lon="5.21496">
        <ele>452.82119750977</ele>
        <time>2009-05-22T14:08:50Z</time>
      </trkpt>
      <trkpt lat="44.13266" lon="5.21462">
        <ele>447.3874206543</ele>
        <time>2009-05-22T14:08:56Z</time>
      </trkpt>
      <trkpt lat="44.13271" lon="5.2145">
        <ele>447.64440917969</ele>
        <time>2009-05-22T14:09:00Z</time>
      </trkpt>
      <trkpt lat="44.13274" lon="5.21449">
        <ele>448.41314697266</ele>
        <time>2009-05-22T14:09:01Z</time>
      </trkpt>
      <trkpt lat="44.13277" lon="5.21449">
        <ele>449.21905517578</ele>
        <time>2009-05-22T14:09:02Z</time>
      </trkpt>
      <trkpt lat="44.1328" lon="5.21448">
        <ele>449.68347167969</ele>
        <time>2009-05-22T14:09:03Z</time>
      </trkpt>
      <trkpt lat="44.13281" lon="5.21447">
        <ele>449.82586669922</ele>
        <time>2009-05-22T14:09:04Z</time>
      </trkpt>
      <trkpt lat="44.13282" lon="5.21447">
        <ele>449.86428833008</ele>
        <time>2009-05-22T14:09:06Z</time>
      </trkpt>
      <trkpt lat="44.13291" lon="5.21448">
        <ele>451.51620483398</ele>
        <time>2009-05-22T14:11:10Z</time>
      </trkpt>
      <trkpt lat="44.13291" lon="5.21447">
        <ele>451.50570678711</ele>
        <time>2009-05-22T14:11:11Z</time>
      </trkpt>
      <trkpt lat="44.13285" lon="5.21445">
        <ele>450.28329467773</ele>
        <time>2009-05-22T14:15:00Z</time>
      </trkpt>
      <trkpt lat="44.13286" lon="5.21444">
        <ele>450.46395874023</ele>
        <time>2009-05-22T14:15:01Z</time>
      </trkpt>
      <trkpt lat="44.13289" lon="5.2144">
        <ele>450.5358581543</ele>
        <time>2009-05-22T14:15:03Z</time>
      </trkpt>
      <trkpt lat="44.13293" lon="5.21428">
        <ele>450.27532958984</ele>
        <time>2009-05-22T14:15:06Z</time>
      </trkpt>
      <trkpt lat="44.13294" lon="5.21424">
        <ele>450.1630859375</ele>
        <time>2009-05-22T14:15:07Z</time>
      </trkpt>
      <trkpt lat="44.13298" lon="5.21409">
        <ele>449.74017333984</ele>
        <time>2009-05-22T14:15:11Z</time>
      </trkpt>
      <trkpt lat="44.133" lon="5.21389">
        <ele>448.74795532227</ele>
        <time>2009-05-22T14:15:16Z</time>
      </trkpt>
      <trkpt lat="44.13301" lon="5.21368">
        <ele>448.03970336914</ele>
        <time>2009-05-22T14:15:20Z</time>
      </trkpt>
      <trkpt lat="44.13307" lon="5.21343">
        <ele>447.83374023438</ele>
        <time>2009-05-22T14:15:24Z</time>
      </trkpt>
      <trkpt lat="44.13324" lon="5.21304">
        <ele>446.80084228516</ele>
        <time>2009-05-22T14:15:31Z</time>
      </trkpt>
      <trkpt lat="44.13338" lon="5.21257">
        <ele>445.32019042969</ele>
        <time>2009-05-22T14:15:38Z</time>
      </trkpt>
      <trkpt lat="44.13351" lon="5.21223">
        <ele>445.25494384766</ele>
        <time>2009-05-22T14:15:44Z</time>
      </trkpt>
      <trkpt lat="44.13359" lon="5.21199">
        <ele>444.08755493164</ele>
        <time>2009-05-22T14:15:50Z</time>
      </trkpt>
      <trkpt lat="44.13371" lon="5.21165">
        <ele>443.89682006836</ele>
        <time>2009-05-22T14:15:55Z</time>
      </trkpt>
      <trkpt lat="44.13388" lon="5.21113">
        <ele>442.01019287109</ele>
        <time>2009-05-22T14:16:01Z</time>
      </trkpt>
      <trkpt lat="44.13391" lon="5.21106">
        <ele>441.73153686523</ele>
        <time>2009-05-22T14:16:02Z</time>
      </trkpt>
      <trkpt lat="44.13409" lon="5.21053">
        <ele>438.65328979492</ele>
        <time>2009-05-22T14:16:09Z</time>
      </trkpt>
      <trkpt lat="44.13425" lon="5.2102">
        <ele>438.22662353516</ele>
        <time>2009-05-22T14:16:14Z</time>
      </trkpt>
      <trkpt lat="44.13449" lon="5.20974">
        <ele>438.35543823242</ele>
        <time>2009-05-22T14:16:20Z</time>
      </trkpt>
      <trkpt lat="44.13478" lon="5.20914">
        <ele>439.23010253906</ele>
        <time>2009-05-22T14:16:26Z</time>
      </trkpt>
      <trkpt lat="44.13488" lon="5.20897">
        <ele>442.28799438477</ele>
        <time>2009-05-22T14:16:28Z</time>
      </trkpt>
      <trkpt lat="44.13496" lon="5.20883">
        <ele>444.36334228516</ele>
        <time>2009-05-22T14:16:30Z</time>
      </trkpt>
      <trkpt lat="44.13501" lon="5.2087">
        <ele>445.47845458984</ele>
        <time>2009-05-22T14:16:32Z</time>
      </trkpt>
      <trkpt lat="44.13504" lon="5.2086">
        <ele>445.61233520508</ele>
        <time>2009-05-22T14:16:34Z</time>
      </trkpt>
      <trkpt lat="44.13512" lon="5.20847">
        <ele>446.2698059082</ele>
        <time>2009-05-22T14:16:37Z</time>
      </trkpt>
      <trkpt lat="44.13521" lon="5.2084">
        <ele>447.28775024414</ele>
        <time>2009-05-22T14:16:39Z</time>
      </trkpt>
      <trkpt lat="44.1354" lon="5.20815">
        <ele>447.55117797852</ele>
        <time>2009-05-22T14:16:44Z</time>
      </trkpt>
      <trkpt lat="44.13546" lon="5.20798">
        <ele>447.05871582031</ele>
        <time>2009-05-22T14:16:47Z</time>
      </trkpt>
      <trkpt lat="44.13551" lon="5.20789">
        <ele>447.05871582031</ele>
        <time>2009-05-22T14:16:49Z</time>
      </trkpt>
      <trkpt lat="44.13556" lon="5.20778">
        <ele>447.01239013672</ele>
        <time>2009-05-22T14:16:51Z</time>
      </trkpt>
      <trkpt lat="44.13563" lon="5.20751">
        <ele>446.32333374023</ele>
        <time>2009-05-22T14:16:56Z</time>
      </trkpt>
      <trkpt lat="44.13575" lon="5.20737">
        <ele>446.21347045898</ele>
        <time>2009-05-22T14:17:01Z</time>
      </trkpt>
      <trkpt lat="44.13588" lon="5.20719">
        <ele>447.65106201172</ele>
        <time>2009-05-22T14:17:06Z</time>
      </trkpt>
      <trkpt lat="44.13592" lon="5.2071">
        <ele>448.44848632812</ele>
        <time>2009-05-22T14:17:08Z</time>
      </trkpt>
      <trkpt lat="44.13597" lon="5.20689">
        <ele>449.16006469727</ele>
        <time>2009-05-22T14:17:13Z</time>
      </trkpt>
      <trkpt lat="44.13605" lon="5.20663">
        <ele>449.11013793945</ele>
        <time>2009-05-22T14:17:20Z</time>
      </trkpt>
      <trkpt lat="44.13614" lon="5.20637">
        <ele>448.23602294922</ele>
        <time>2009-05-22T14:17:27Z</time>
      </trkpt>
      <trkpt lat="44.13619" lon="5.20607">
        <ele>446.6286315918</ele>
        <time>2009-05-22T14:17:34Z</time>
      </trkpt>
      <trkpt lat="44.13623" lon="5.20576">
        <ele>443.82974243164</ele>
        <time>2009-05-22T14:17:43Z</time>
      </trkpt>
      <trkpt lat="44.13629" lon="5.20564">
        <ele>443.51388549805</ele>
        <time>2009-05-22T14:17:47Z</time>
      </trkpt>
      <trkpt lat="44.13634" lon="5.20545">
        <ele>442.32385253906</ele>
        <time>2009-05-22T14:17:51Z</time>
      </trkpt>
      <trkpt lat="44.13635" lon="5.20525">
        <ele>440.37289428711</ele>
        <time>2009-05-22T14:17:55Z</time>
      </trkpt>
      <trkpt lat="44.13633" lon="5.20486">
        <ele>438.08227539062</ele>
        <time>2009-05-22T14:18:02Z</time>
      </trkpt>
      <trkpt lat="44.13638" lon="5.2047">
        <ele>437.7705078125</ele>
        <time>2009-05-22T14:18:06Z</time>
      </trkpt>
      <trkpt lat="44.13651" lon="5.20443">
        <ele>439.50888061523</ele>
        <time>2009-05-22T14:18:12Z</time>
      </trkpt>
      <trkpt lat="44.13662" lon="5.20428">
        <ele>442.05120849609</ele>
        <time>2009-05-22T14:18:16Z</time>
      </trkpt>
      <trkpt lat="44.13664" lon="5.20424">
        <ele>442.55932617188</ele>
        <time>2009-05-22T14:18:17Z</time>
      </trkpt>
      <trkpt lat="44.13671" lon="5.20401">
        <ele>442.38650512695</ele>
        <time>2009-05-22T14:18:21Z</time>
      </trkpt>
      <trkpt lat="44.1368" lon="5.20385">
        <ele>442.23767089844</ele>
        <time>2009-05-22T14:18:25Z</time>
      </trkpt>
      <trkpt lat="44.13681" lon="5.20382">
        <ele>442.24035644531</ele>
        <time>2009-05-22T14:18:26Z</time>
      </trkpt>
      <trkpt lat="44.1369" lon="5.20369">
        <ele>442.21817016602</ele>
        <time>2009-05-22T14:18:32Z</time>
      </trkpt>
      <trkpt lat="44.13699" lon="5.20352">
        <ele>441.90823364258</ele>
        <time>2009-05-22T14:18:37Z</time>
      </trkpt>
      <trkpt lat="44.13714" lon="5.20322">
        <ele>441.18579101562</ele>
        <time>2009-05-22T14:18:45Z</time>
      </trkpt>
      <trkpt lat="44.13729" lon="5.20299">
        <ele>441.02536010742</ele>
        <time>2009-05-22T14:18:51Z</time>
      </trkpt>
      <trkpt lat="44.13732" lon="5.20295">
        <ele>440.96701049805</ele>
        <time>2009-05-22T14:18:52Z</time>
      </trkpt>
      <trkpt lat="44.13737" lon="5.20284">
        <ele>440.7610168457</ele>
        <time>2009-05-22T14:18:54Z</time>
      </trkpt>
      <trkpt lat="44.13747" lon="5.20248">
        <ele>438.67492675781</ele>
        <time>2009-05-22T14:19:00Z</time>
      </trkpt>
      <trkpt lat="44.13757" lon="5.20213">
        <ele>437.12954711914</ele>
        <time>2009-05-22T14:19:06Z</time>
      </trkpt>
      <trkpt lat="44.13761" lon="5.20198">
        <ele>436.91839599609</ele>
        <time>2009-05-22T14:19:09Z</time>
      </trkpt>
      <trkpt lat="44.13769" lon="5.20171">
        <ele>436.22326660156</ele>
        <time>2009-05-22T14:19:15Z</time>
      </trkpt>
      <trkpt lat="44.1377" lon="5.20161">
        <ele>435.98123168945</ele>
        <time>2009-05-22T14:19:17Z</time>
      </trkpt>
      <trkpt lat="44.13773" lon="5.20131">
        <ele>434.94076538086</ele>
        <time>2009-05-22T14:19:22Z</time>
      </trkpt>
      <trkpt lat="44.13777" lon="5.20112">
        <ele>433.92108154297</ele>
        <time>2009-05-22T14:19:25Z</time>
      </trkpt>
      <trkpt lat="44.13793" lon="5.20074">
        <ele>434.96588134766</ele>
        <time>2009-05-22T14:19:29Z</time>
      </trkpt>
      <trkpt lat="44.13798" lon="5.20068">
        <ele>435.74691772461</ele>
        <time>2009-05-22T14:19:30Z</time>
      </trkpt>
      <trkpt lat="44.1381" lon="5.20053">
        <ele>437.4465637207</ele>
        <time>2009-05-22T14:19:33Z</time>
      </trkpt>
      <trkpt lat="44.13816" lon="5.20027">
        <ele>438.51416015625</ele>
        <time>2009-05-22T14:19:38Z</time>
      </trkpt>
      <trkpt lat="44.1382" lon="5.20009">
        <ele>439.11840820312</ele>
        <time>2009-05-22T14:19:42Z</time>
      </trkpt>
      <trkpt lat="44.13826" lon="5.19969">
        <ele>439.8876953125</ele>
        <time>2009-05-22T14:19:50Z</time>
      </trkpt>
      <trkpt lat="44.13834" lon="5.1994">
        <ele>440.068359375</ele>
        <time>2009-05-22T14:19:56Z</time>
      </trkpt>
      <trkpt lat="44.13839" lon="5.19925">
        <ele>440.49829101562</ele>
        <time>2009-05-22T14:19:59Z</time>
      </trkpt>
      <trkpt lat="44.13847" lon="5.19904">
        <ele>440.29849243164</ele>
        <time>2009-05-22T14:20:03Z</time>
      </trkpt>
      <trkpt lat="44.13849" lon="5.19892">
        <ele>439.82403564453</ele>
        <time>2009-05-22T14:20:05Z</time>
      </trkpt>
      <trkpt lat="44.13855" lon="5.19869">
        <ele>439.66973876953</ele>
        <time>2009-05-22T14:20:10Z</time>
      </trkpt>
      <trkpt lat="44.13851" lon="5.19857">
        <ele>438.552734375</ele>
        <time>2009-05-22T14:20:15Z</time>
      </trkpt>
      <trkpt lat="44.13842" lon="5.19843">
        <ele>436.62670898438</ele>
        <time>2009-05-22T14:20:22Z</time>
      </trkpt>
      <trkpt lat="44.13842" lon="5.19843">
        <ele>436.64044189453</ele>
        <time>2009-05-22T14:20:24Z</time>
      </trkpt>
      <trkpt lat="44.1384" lon="5.19841">
        <ele>436.2421875</ele>
        <time>2009-05-22T14:20:42Z</time>
      </trkpt>
      <trkpt lat="44.13838" lon="5.19839">
        <ele>435.87139892578</ele>
        <time>2009-05-22T14:20:43Z</time>
      </trkpt>
      <trkpt lat="44.13823" lon="5.19822">
        <ele>433.24255371094</ele>
        <time>2009-05-22T14:20:48Z</time>
      </trkpt>
      <trkpt lat="44.13816" lon="5.19814">
        <ele>432.22286987305</ele>
        <time>2009-05-22T14:20:50Z</time>
      </trkpt>
      <trkpt lat="44.13801" lon="5.19798">
        <ele>430.4016418457</ele>
        <time>2009-05-22T14:20:54Z</time>
      </trkpt>
      <trkpt lat="44.1379" lon="5.19789">
        <ele>429.30471801758</ele>
        <time>2009-05-22T14:20:56Z</time>
      </trkpt>
      <trkpt lat="44.13784" lon="5.19785">
        <ele>428.72622680664</ele>
        <time>2009-05-22T14:20:57Z</time>
      </trkpt>
      <trkpt lat="44.13767" lon="5.1977">
        <ele>426.9375</ele>
        <time>2009-05-22T14:21:00Z</time>
      </trkpt>
      <trkpt lat="44.13741" lon="5.19738">
        <ele>423.90423583984</ele>
        <time>2009-05-22T14:21:05Z</time>
      </trkpt>
      <trkpt lat="44.13735" lon="5.1973">
        <ele>423.20043945312</ele>
        <time>2009-05-22T14:21:06Z</time>
      </trkpt>
      <trkpt lat="44.13688" lon="5.19679">
        <ele>419.11401367188</ele>
        <time>2009-05-22T14:21:14Z</time>
      </trkpt>
      <trkpt lat="44.1365" lon="5.19649">
        <ele>412.92727661133</ele>
        <time>2009-05-22T14:21:20Z</time>
      </trkpt>
      <trkpt lat="44.13624" lon="5.19631">
        <ele>409.64764404297</ele>
        <time>2009-05-22T14:21:24Z</time>
      </trkpt>
      <trkpt lat="44.13617" lon="5.19626">
        <ele>408.99359130859</ele>
        <time>2009-05-22T14:21:25Z</time>
      </trkpt>
      <trkpt lat="44.136" lon="5.19604">
        <ele>406.56170654297</ele>
        <time>2009-05-22T14:21:28Z</time>
      </trkpt>
      <trkpt lat="44.13594" lon="5.19595">
        <ele>405.57119750977</ele>
        <time>2009-05-22T14:21:29Z</time>
      </trkpt>
      <trkpt lat="44.13588" lon="5.19585">
        <ele>404.54467773438</ele>
        <time>2009-05-22T14:21:30Z</time>
      </trkpt>
      <trkpt lat="44.13576" lon="5.19562">
        <ele>402.42636108398</ele>
        <time>2009-05-22T14:21:32Z</time>
      </trkpt>
      <trkpt lat="44.13569" lon="5.19551">
        <ele>401.39727783203</ele>
        <time>2009-05-22T14:21:33Z</time>
      </trkpt>
      <trkpt lat="44.13533" lon="5.19493">
        <ele>395.57110595703</ele>
        <time>2009-05-22T14:21:38Z</time>
      </trkpt>
      <trkpt lat="44.13509" lon="5.19462">
        <ele>390.92666625977</ele>
        <time>2009-05-22T14:21:41Z</time>
      </trkpt>
      <trkpt lat="44.13462" lon="5.19402">
        <ele>385.40536499023</ele>
        <time>2009-05-22T14:21:47Z</time>
      </trkpt>
      <trkpt lat="44.13428" lon="5.19344">
        <ele>381.21505737305</ele>
        <time>2009-05-22T14:21:52Z</time>
      </trkpt>
      <trkpt lat="44.13382" lon="5.19279">
        <ele>377.24407958984</ele>
        <time>2009-05-22T14:21:58Z</time>
      </trkpt>
      <trkpt lat="44.13351" lon="5.19241">
        <ele>373.1921081543</ele>
        <time>2009-05-22T14:22:02Z</time>
      </trkpt>
      <trkpt lat="44.13335" lon="5.1922">
        <ele>371.05145263672</ele>
        <time>2009-05-22T14:22:05Z</time>
      </trkpt>
      <trkpt lat="44.13329" lon="5.19213">
        <ele>370.33782958984</ele>
        <time>2009-05-22T14:22:06Z</time>
      </trkpt>
      <trkpt lat="44.13314" lon="5.19203">
        <ele>368.95422363281</ele>
        <time>2009-05-22T14:22:08Z</time>
      </trkpt>
      <trkpt lat="44.13272" lon="5.19185">
        <ele>365.61828613281</ele>
        <time>2009-05-22T14:22:13Z</time>
      </trkpt>
      <trkpt lat="44.13247" lon="5.19173">
        <ele>363.90277099609</ele>
        <time>2009-05-22T14:22:16Z</time>
      </trkpt>
      <trkpt lat="44.1322" lon="5.19159">
        <ele>362.3454284668</ele>
        <time>2009-05-22T14:22:19Z</time>
      </trkpt>
      <trkpt lat="44.13184" lon="5.19136">
        <ele>359.19064331055</ele>
        <time>2009-05-22T14:22:23Z</time>
      </trkpt>
      <trkpt lat="44.13138" lon="5.19106">
        <ele>353.69708251953</ele>
        <time>2009-05-22T14:22:29Z</time>
      </trkpt>
      <trkpt lat="44.13085" lon="5.19082">
        <ele>347.9797668457</ele>
        <time>2009-05-22T14:22:35Z</time>
      </trkpt>
      <trkpt lat="44.13041" lon="5.19065">
        <ele>343.46929931641</ele>
        <time>2009-05-22T14:22:40Z</time>
      </trkpt>
      <trkpt lat="44.12999" lon="5.1904">
        <ele>340.44680786133</ele>
        <time>2009-05-22T14:22:45Z</time>
      </trkpt>
      <trkpt lat="44.12985" lon="5.19031">
        <ele>340.05895996094</ele>
        <time>2009-05-22T14:22:47Z</time>
      </trkpt>
      <trkpt lat="44.12952" lon="5.19005">
        <ele>340</ele>
        <time>2009-05-22T14:22:52Z</time>
      </trkpt>
      <trkpt lat="44.12947" lon="5.19002">
        <ele>340</ele>
        <time>2009-05-22T14:22:53Z</time>
      </trkpt>
      <trkpt lat="44.12935" lon="5.18985">
        <ele>340</ele>
        <time>2009-05-22T14:22:56Z</time>
      </trkpt>
      <trkpt lat="44.12909" lon="5.18945">
        <ele>340</ele>
        <time>2009-05-22T14:23:02Z</time>
      </trkpt>
      <trkpt lat="44.12876" lon="5.18894">
        <ele>340</ele>
        <time>2009-05-22T14:23:09Z</time>
      </trkpt>
      <trkpt lat="44.12857" lon="5.18858">
        <ele>340</ele>
        <time>2009-05-22T14:23:14Z</time>
      </trkpt>
      <trkpt lat="44.12838" lon="5.18835">
        <ele>340</ele>
        <time>2009-05-22T14:23:18Z</time>
      </trkpt>
      <trkpt lat="44.12809" lon="5.18816">
        <ele>340</ele>
        <time>2009-05-22T14:23:23Z</time>
      </trkpt>
      <trkpt lat="44.12769" lon="5.18804">
        <ele>340</ele>
        <time>2009-05-22T14:23:29Z</time>
      </trkpt>
      <trkpt lat="44.12756" lon="5.18801">
        <ele>340</ele>
        <time>2009-05-22T14:23:31Z</time>
      </trkpt>
      <trkpt lat="44.12711" lon="5.18788">
        <ele>339.60803222656</ele>
        <time>2009-05-22T14:23:38Z</time>
      </trkpt>
      <trkpt lat="44.127" lon="5.18781">
        <ele>339.20977783203</ele>
        <time>2009-05-22T14:23:40Z</time>
      </trkpt>
      <trkpt lat="44.12681" lon="5.18757">
        <ele>337.21942138672</ele>
        <time>2009-05-22T14:23:44Z</time>
      </trkpt>
      <trkpt lat="44.12667" lon="5.18728">
        <ele>335.00512695312</ele>
        <time>2009-05-22T14:23:48Z</time>
      </trkpt>
      <trkpt lat="44.12656" lon="5.18698">
        <ele>333.56896972656</ele>
        <time>2009-05-22T14:23:52Z</time>
      </trkpt>
      <trkpt lat="44.12645" lon="5.18634">
        <ele>331.81909179688</ele>
        <time>2009-05-22T14:24:00Z</time>
      </trkpt>
      <trkpt lat="44.12642" lon="5.18617">
        <ele>331.4345703125</ele>
        <time>2009-05-22T14:24:02Z</time>
      </trkpt>
      <trkpt lat="44.12627" lon="5.18587">
        <ele>329.67797851562</ele>
        <time>2009-05-22T14:24:06Z</time>
      </trkpt>
      <trkpt lat="44.12581" lon="5.18534">
        <ele>322.73413085938</ele>
        <time>2009-05-22T14:24:13Z</time>
      </trkpt>
      <trkpt lat="44.12542" lon="5.1849">
        <ele>320</ele>
        <time>2009-05-22T14:24:18Z</time>
      </trkpt>
      <trkpt lat="44.12518" lon="5.18463">
        <ele>320</ele>
        <time>2009-05-22T14:24:21Z</time>
      </trkpt>
      <trkpt lat="44.1251" lon="5.18455">
        <ele>320</ele>
        <time>2009-05-22T14:24:22Z</time>
      </trkpt>
      <trkpt lat="44.12476" lon="5.18417">
        <ele>320</ele>
        <time>2009-05-22T14:24:27Z</time>
      </trkpt>
      <trkpt lat="44.12461" lon="5.18399">
        <ele>320</ele>
        <time>2009-05-22T14:24:31Z</time>
      </trkpt>
      <trkpt lat="44.12456" lon="5.18395">
        <ele>320</ele>
        <time>2009-05-22T14:24:35Z</time>
      </trkpt>
      <trkpt lat="44.1245" lon="5.18405">
        <ele>320</ele>
        <time>2009-05-22T14:24:49Z</time>
      </trkpt>
      <trkpt lat="44.12445" lon="5.18428">
        <ele>320</ele>
        <time>2009-05-22T14:24:53Z</time>
      </trkpt>
      <trkpt lat="44.1244" lon="5.18451">
        <ele>320</ele>
        <time>2009-05-22T14:24:57Z</time>
      </trkpt>
      <trkpt lat="44.12438" lon="5.18456">
        <ele>320</ele>
        <time>2009-05-22T14:24:58Z</time>
      </trkpt>
      <trkpt lat="44.12429" lon="5.18498">
        <ele>320</ele>
        <time>2009-05-22T14:25:06Z</time>
      </trkpt>
      <trkpt lat="44.12421" lon="5.18536">
        <ele>320</ele>
        <time>2009-05-22T14:25:14Z</time>
      </trkpt>
      <trkpt lat="44.12416" lon="5.18557">
        <ele>320</ele>
        <time>2009-05-22T14:25:20Z</time>
      </trkpt>
      <trkpt lat="44.12421" lon="5.18558">
        <ele>320</ele>
        <time>2009-05-22T14:25:24Z</time>
      </trkpt>
      <trkpt lat="44.12421" lon="5.1855">
        <ele>320</ele>
        <time>2009-05-22T14:25:26Z</time>
      </trkpt>
      <trkpt lat="44.1243" lon="5.18514">
        <ele>320</ele>
        <time>2009-05-22T14:25:33Z</time>
      </trkpt>
      <trkpt lat="44.12439" lon="5.18475">
        <ele>320</ele>
        <time>2009-05-22T14:25:40Z</time>
      </trkpt>
      <trkpt lat="44.12448" lon="5.18436">
        <ele>320</ele>
        <time>2009-05-22T14:25:46Z</time>
      </trkpt>
      <trkpt lat="44.12462" lon="5.18376">
        <ele>320</ele>
        <time>2009-05-22T14:25:55Z</time>
      </trkpt>
      <trkpt lat="44.12469" lon="5.18343">
        <ele>320</ele>
        <time>2009-05-22T14:26:00Z</time>
      </trkpt>
      <trkpt lat="44.12477" lon="5.18309">
        <ele>320</ele>
        <time>2009-05-22T14:26:05Z</time>
      </trkpt>
      <trkpt lat="44.12494" lon="5.1823">
        <ele>320</ele>
        <time>2009-05-22T14:26:15Z</time>
      </trkpt>
      <trkpt lat="44.12501" lon="5.18199">
        <ele>320</ele>
        <time>2009-05-22T14:26:19Z</time>
      </trkpt>
      <trkpt lat="44.12503" lon="5.18192">
        <ele>320</ele>
        <time>2009-05-22T14:26:20Z</time>
      </trkpt>
      <trkpt lat="44.12517" lon="5.18131">
        <ele>320</ele>
        <time>2009-05-22T14:26:29Z</time>
      </trkpt>
      <trkpt lat="44.12524" lon="5.18099">
        <ele>320</ele>
        <time>2009-05-22T14:26:35Z</time>
      </trkpt>
      <trkpt lat="44.12533" lon="5.18101">
        <ele>320</ele>
        <time>2009-05-22T14:26:39Z</time>
      </trkpt>
      <trkpt lat="44.12533" lon="5.18105">
        <ele>320</ele>
        <time>2009-05-22T14:26:40Z</time>
      </trkpt>
      <trkpt lat="44.12534" lon="5.18117">
        <ele>320</ele>
        <time>2009-05-22T14:26:43Z</time>
      </trkpt>
      <trkpt lat="44.12543" lon="5.18125">
        <ele>320</ele>
        <time>2009-05-22T14:26:48Z</time>
      </trkpt>
      <trkpt lat="44.12547" lon="5.18126">
        <ele>320</ele>
        <time>2009-05-22T14:26:53Z</time>
      </trkpt>
      <trkpt lat="44.12548" lon="5.18123">
        <ele>320</ele>
        <time>2009-05-22T14:27:07Z</time>
      </trkpt>
      <trkpt lat="44.12548" lon="5.18124">
        <ele>320</ele>
        <time>2009-05-22T14:27:08Z</time>
      </trkpt>
    </trkseg>
  </trk>
</gpx>